<?xml version="1.0" encoding="UTF-8" standalone="no" ?>
<gpx xmlns="http://www.topografix.com/GPX/1/1" xmlns:xsi="http://www.w3.org/2001/XMLSchema-instance" xsi:schemaLocation="http://www.topografix.com/GPX/1/1 http://www.topografix.com/GPX/1/1/gpx.xsd" version="1.1" creator="VisuGPX - https://www.visugpx.com">
  <metadata>
    <name>Sorrus- Le Touquet</name>
    <desc><![CDATA[A essayer et peut être à optimiser pour prendre   de chemins.]]></desc>
  </metadata>
  <wpt lat="50.4554" lon="1.71477">
    <ele>49</ele>
  </wpt>
  <wpt lat="50.45544" lon="1.71462">
    <ele>43</ele>
  </wpt>
  <trk>
    <name><![CDATA[Sorrus- Le Touquet_1]]></name>
    <trkseg>
      <trkpt lat="50.4554" lon="1.71477">
        <ele>49</ele>
        <time>2009-04-21T07:49:33Z</time>
      </trkpt>
      <trkpt lat="50.45533" lon="1.71496">
        <ele>49</ele>
        <time>2009-04-21T07:49:44Z</time>
      </trkpt>
      <trkpt lat="50.45525" lon="1.71506">
        <ele>49</ele>
        <time>2009-04-21T07:49:46Z</time>
      </trkpt>
      <trkpt lat="50.45515" lon="1.71506">
        <ele>49</ele>
        <time>2009-04-21T07:49:48Z</time>
      </trkpt>
      <trkpt lat="50.45504" lon="1.71505">
        <ele>49</ele>
        <time>2009-04-21T07:49:50Z</time>
      </trkpt>
      <trkpt lat="50.45493" lon="1.71506">
        <ele>49</ele>
        <time>2009-04-21T07:49:52Z</time>
      </trkpt>
      <trkpt lat="50.45482" lon="1.71506">
        <ele>44</ele>
        <time>2009-04-21T07:49:54Z</time>
      </trkpt>
      <trkpt lat="50.45473" lon="1.715">
        <ele>44</ele>
        <time>2009-04-21T07:49:56Z</time>
      </trkpt>
      <trkpt lat="50.45468" lon="1.71488">
        <ele>44</ele>
        <time>2009-04-21T07:49:58Z</time>
      </trkpt>
      <trkpt lat="50.45465" lon="1.71473">
        <ele>44</ele>
        <time>2009-04-21T07:50:00Z</time>
      </trkpt>
      <trkpt lat="50.45459" lon="1.71462">
        <ele>44</ele>
        <time>2009-04-21T07:50:02Z</time>
      </trkpt>
      <trkpt lat="50.45451" lon="1.71451">
        <ele>44</ele>
        <time>2009-04-21T07:50:04Z</time>
      </trkpt>
      <trkpt lat="50.45444" lon="1.71435">
        <ele>44</ele>
        <time>2009-04-21T07:50:06Z</time>
      </trkpt>
      <trkpt lat="50.45444" lon="1.71419">
        <ele>44</ele>
        <time>2009-04-21T07:50:08Z</time>
      </trkpt>
      <trkpt lat="50.45446" lon="1.71402">
        <ele>44</ele>
        <time>2009-04-21T07:50:10Z</time>
      </trkpt>
      <trkpt lat="50.45447" lon="1.71385">
        <ele>44</ele>
        <time>2009-04-21T07:50:12Z</time>
      </trkpt>
      <trkpt lat="50.45447" lon="1.71366">
        <ele>44</ele>
        <time>2009-04-21T07:50:14Z</time>
      </trkpt>
      <trkpt lat="50.45443" lon="1.7135">
        <ele>44</ele>
        <time>2009-04-21T07:50:16Z</time>
      </trkpt>
      <trkpt lat="50.45433" lon="1.71339">
        <ele>44</ele>
        <time>2009-04-21T07:50:18Z</time>
      </trkpt>
      <trkpt lat="50.45422" lon="1.7133">
        <ele>44</ele>
        <time>2009-04-21T07:50:20Z</time>
      </trkpt>
      <trkpt lat="50.4541" lon="1.7132">
        <ele>44</ele>
        <time>2009-04-21T07:50:22Z</time>
      </trkpt>
      <trkpt lat="50.454" lon="1.71309">
        <ele>44</ele>
        <time>2009-04-21T07:50:24Z</time>
      </trkpt>
      <trkpt lat="50.45391" lon="1.71294">
        <ele>44</ele>
        <time>2009-04-21T07:50:26Z</time>
      </trkpt>
      <trkpt lat="50.45383" lon="1.71276">
        <ele>44</ele>
        <time>2009-04-21T07:50:28Z</time>
      </trkpt>
      <trkpt lat="50.45377" lon="1.71257">
        <ele>44</ele>
        <time>2009-04-21T07:50:30Z</time>
      </trkpt>
      <trkpt lat="50.45371" lon="1.71238">
        <ele>44</ele>
        <time>2009-04-21T07:50:32Z</time>
      </trkpt>
      <trkpt lat="50.45364" lon="1.71218">
        <ele>44</ele>
        <time>2009-04-21T07:50:34Z</time>
      </trkpt>
      <trkpt lat="50.45358" lon="1.71198">
        <ele>44</ele>
        <time>2009-04-21T07:50:36Z</time>
      </trkpt>
      <trkpt lat="50.45352" lon="1.71179">
        <ele>44</ele>
        <time>2009-04-21T07:50:38Z</time>
      </trkpt>
      <trkpt lat="50.45346" lon="1.71159">
        <ele>44</ele>
        <time>2009-04-21T07:50:40Z</time>
      </trkpt>
      <trkpt lat="50.45341" lon="1.7114">
        <ele>44</ele>
        <time>2009-04-21T07:50:42Z</time>
      </trkpt>
      <trkpt lat="50.45334" lon="1.7112">
        <ele>44</ele>
        <time>2009-04-21T07:50:44Z</time>
      </trkpt>
      <trkpt lat="50.45329" lon="1.71101">
        <ele>44</ele>
        <time>2009-04-21T07:50:46Z</time>
      </trkpt>
      <trkpt lat="50.45323" lon="1.71082">
        <ele>44</ele>
        <time>2009-04-21T07:50:48Z</time>
      </trkpt>
      <trkpt lat="50.45317" lon="1.71063">
        <ele>44</ele>
        <time>2009-04-21T07:50:50Z</time>
      </trkpt>
      <trkpt lat="50.45311" lon="1.71044">
        <ele>44</ele>
        <time>2009-04-21T07:50:52Z</time>
      </trkpt>
      <trkpt lat="50.45305" lon="1.71026">
        <ele>44</ele>
        <time>2009-04-21T07:50:54Z</time>
      </trkpt>
      <trkpt lat="50.45299" lon="1.71007">
        <ele>44</ele>
        <time>2009-04-21T07:50:56Z</time>
      </trkpt>
      <trkpt lat="50.45294" lon="1.70988">
        <ele>44</ele>
        <time>2009-04-21T07:50:58Z</time>
      </trkpt>
      <trkpt lat="50.45287" lon="1.70969">
        <ele>44</ele>
        <time>2009-04-21T07:51:00Z</time>
      </trkpt>
      <trkpt lat="50.45282" lon="1.70951">
        <ele>44</ele>
        <time>2009-04-21T07:51:02Z</time>
      </trkpt>
      <trkpt lat="50.45276" lon="1.70932">
        <ele>44</ele>
        <time>2009-04-21T07:51:04Z</time>
      </trkpt>
      <trkpt lat="50.45271" lon="1.70914">
        <ele>44</ele>
        <time>2009-04-21T07:51:06Z</time>
      </trkpt>
      <trkpt lat="50.45267" lon="1.70895">
        <ele>44</ele>
        <time>2009-04-21T07:51:08Z</time>
      </trkpt>
      <trkpt lat="50.45264" lon="1.70875">
        <ele>44</ele>
        <time>2009-04-21T07:51:10Z</time>
      </trkpt>
      <trkpt lat="50.45262" lon="1.70854">
        <ele>44</ele>
        <time>2009-04-21T07:51:12Z</time>
      </trkpt>
      <trkpt lat="50.4526" lon="1.70834">
        <ele>44</ele>
        <time>2009-04-21T07:51:14Z</time>
      </trkpt>
      <trkpt lat="50.45259" lon="1.70814">
        <ele>44</ele>
        <time>2009-04-21T07:51:16Z</time>
      </trkpt>
      <trkpt lat="50.45257" lon="1.70793">
        <ele>44</ele>
        <time>2009-04-21T07:51:18Z</time>
      </trkpt>
      <trkpt lat="50.45255" lon="1.70772">
        <ele>44</ele>
        <time>2009-04-21T07:51:20Z</time>
      </trkpt>
      <trkpt lat="50.45253" lon="1.70753">
        <ele>44</ele>
        <time>2009-04-21T07:51:22Z</time>
      </trkpt>
      <trkpt lat="50.4525" lon="1.70732">
        <ele>44</ele>
        <time>2009-04-21T07:51:24Z</time>
      </trkpt>
      <trkpt lat="50.45246" lon="1.70712">
        <ele>44</ele>
        <time>2009-04-21T07:51:26Z</time>
      </trkpt>
      <trkpt lat="50.45241" lon="1.70693">
        <ele>44</ele>
        <time>2009-04-21T07:51:28Z</time>
      </trkpt>
      <trkpt lat="50.45234" lon="1.70675">
        <ele>44</ele>
        <time>2009-04-21T07:51:30Z</time>
      </trkpt>
      <trkpt lat="50.45227" lon="1.70658">
        <ele>44</ele>
        <time>2009-04-21T07:51:32Z</time>
      </trkpt>
      <trkpt lat="50.4522" lon="1.7064">
        <ele>44</ele>
        <time>2009-04-21T07:51:34Z</time>
      </trkpt>
      <trkpt lat="50.45212" lon="1.70622">
        <ele>44</ele>
        <time>2009-04-21T07:51:36Z</time>
      </trkpt>
      <trkpt lat="50.45205" lon="1.70604">
        <ele>44</ele>
        <time>2009-04-21T07:51:38Z</time>
      </trkpt>
      <trkpt lat="50.45197" lon="1.70587">
        <ele>44</ele>
        <time>2009-04-21T07:51:40Z</time>
      </trkpt>
      <trkpt lat="50.4519" lon="1.70569">
        <ele>44</ele>
        <time>2009-04-21T07:51:42Z</time>
      </trkpt>
      <trkpt lat="50.45183" lon="1.70551">
        <ele>44</ele>
        <time>2009-04-21T07:51:44Z</time>
      </trkpt>
      <trkpt lat="50.45176" lon="1.70532">
        <ele>44</ele>
        <time>2009-04-21T07:51:46Z</time>
      </trkpt>
      <trkpt lat="50.45169" lon="1.70514">
        <ele>44</ele>
        <time>2009-04-21T07:51:48Z</time>
      </trkpt>
      <trkpt lat="50.45161" lon="1.70497">
        <ele>44</ele>
        <time>2009-04-21T07:51:50Z</time>
      </trkpt>
      <trkpt lat="50.45154" lon="1.70479">
        <ele>44</ele>
        <time>2009-04-21T07:51:52Z</time>
      </trkpt>
      <trkpt lat="50.45146" lon="1.70462">
        <ele>44</ele>
        <time>2009-04-21T07:51:54Z</time>
      </trkpt>
      <trkpt lat="50.45137" lon="1.70444">
        <ele>44</ele>
        <time>2009-04-21T07:51:56Z</time>
      </trkpt>
      <trkpt lat="50.45128" lon="1.70428">
        <ele>44</ele>
        <time>2009-04-21T07:51:58Z</time>
      </trkpt>
      <trkpt lat="50.45118" lon="1.70413">
        <ele>44</ele>
        <time>2009-04-21T07:52:00Z</time>
      </trkpt>
      <trkpt lat="50.45107" lon="1.70401">
        <ele>44</ele>
        <time>2009-04-21T07:52:02Z</time>
      </trkpt>
      <trkpt lat="50.45095" lon="1.70388">
        <ele>44</ele>
        <time>2009-04-21T07:52:04Z</time>
      </trkpt>
      <trkpt lat="50.45083" lon="1.70377">
        <ele>44</ele>
        <time>2009-04-21T07:52:06Z</time>
      </trkpt>
      <trkpt lat="50.45071" lon="1.70366">
        <ele>44</ele>
        <time>2009-04-21T07:52:08Z</time>
      </trkpt>
      <trkpt lat="50.45058" lon="1.70357">
        <ele>44</ele>
        <time>2009-04-21T07:52:10Z</time>
      </trkpt>
      <trkpt lat="50.45045" lon="1.70346">
        <ele>44</ele>
        <time>2009-04-21T07:52:12Z</time>
      </trkpt>
      <trkpt lat="50.45032" lon="1.70334">
        <ele>44</ele>
        <time>2009-04-21T07:52:14Z</time>
      </trkpt>
      <trkpt lat="50.45019" lon="1.70324">
        <ele>44</ele>
        <time>2009-04-21T07:52:16Z</time>
      </trkpt>
      <trkpt lat="50.45006" lon="1.70313">
        <ele>44</ele>
        <time>2009-04-21T07:52:18Z</time>
      </trkpt>
      <trkpt lat="50.44993" lon="1.70303">
        <ele>44</ele>
        <time>2009-04-21T07:52:20Z</time>
      </trkpt>
      <trkpt lat="50.4498" lon="1.70291">
        <ele>44</ele>
        <time>2009-04-21T07:52:22Z</time>
      </trkpt>
      <trkpt lat="50.44967" lon="1.70278">
        <ele>44</ele>
        <time>2009-04-21T07:52:24Z</time>
      </trkpt>
      <trkpt lat="50.44955" lon="1.70262">
        <ele>44</ele>
        <time>2009-04-21T07:52:26Z</time>
      </trkpt>
      <trkpt lat="50.44943" lon="1.70244">
        <ele>44</ele>
        <time>2009-04-21T07:52:28Z</time>
      </trkpt>
      <trkpt lat="50.44932" lon="1.70225">
        <ele>44</ele>
        <time>2009-04-21T07:52:30Z</time>
      </trkpt>
      <trkpt lat="50.44922" lon="1.70202">
        <ele>44</ele>
        <time>2009-04-21T07:52:32Z</time>
      </trkpt>
      <trkpt lat="50.44915" lon="1.70178">
        <ele>44</ele>
        <time>2009-04-21T07:52:34Z</time>
      </trkpt>
      <trkpt lat="50.44912" lon="1.70164">
        <ele>44</ele>
        <time>2009-04-21T07:52:35Z</time>
      </trkpt>
      <trkpt lat="50.44908" lon="1.70151">
        <ele>44</ele>
        <time>2009-04-21T07:52:36Z</time>
      </trkpt>
      <trkpt lat="50.44902" lon="1.70125">
        <ele>44</ele>
        <time>2009-04-21T07:52:38Z</time>
      </trkpt>
      <trkpt lat="50.44899" lon="1.70111">
        <ele>44</ele>
        <time>2009-04-21T07:52:39Z</time>
      </trkpt>
      <trkpt lat="50.44896" lon="1.70098">
        <ele>44</ele>
        <time>2009-04-21T07:52:40Z</time>
      </trkpt>
      <trkpt lat="50.44893" lon="1.70084">
        <ele>39</ele>
        <time>2009-04-21T07:52:41Z</time>
      </trkpt>
      <trkpt lat="50.4489" lon="1.70071">
        <ele>39</ele>
        <time>2009-04-21T07:52:42Z</time>
      </trkpt>
      <trkpt lat="50.44886" lon="1.70057">
        <ele>39</ele>
        <time>2009-04-21T07:52:43Z</time>
      </trkpt>
      <trkpt lat="50.44884" lon="1.70043">
        <ele>39</ele>
        <time>2009-04-21T07:52:44Z</time>
      </trkpt>
      <trkpt lat="50.4488" lon="1.7003">
        <ele>39</ele>
        <time>2009-04-21T07:52:45Z</time>
      </trkpt>
      <trkpt lat="50.44877" lon="1.70016">
        <ele>39</ele>
        <time>2009-04-21T07:52:46Z</time>
      </trkpt>
      <trkpt lat="50.44874" lon="1.70002">
        <ele>39</ele>
        <time>2009-04-21T07:52:47Z</time>
      </trkpt>
      <trkpt lat="50.4487" lon="1.69988">
        <ele>39</ele>
        <time>2009-04-21T07:52:48Z</time>
      </trkpt>
      <trkpt lat="50.44867" lon="1.69975">
        <ele>39</ele>
        <time>2009-04-21T07:52:49Z</time>
      </trkpt>
      <trkpt lat="50.44864" lon="1.69961">
        <ele>39</ele>
        <time>2009-04-21T07:52:50Z</time>
      </trkpt>
      <trkpt lat="50.44861" lon="1.69948">
        <ele>39</ele>
        <time>2009-04-21T07:52:51Z</time>
      </trkpt>
      <trkpt lat="50.44857" lon="1.69934">
        <ele>39</ele>
        <time>2009-04-21T07:52:52Z</time>
      </trkpt>
      <trkpt lat="50.4485" lon="1.69908">
        <ele>39</ele>
        <time>2009-04-21T07:52:54Z</time>
      </trkpt>
      <trkpt lat="50.44846" lon="1.69896">
        <ele>39</ele>
        <time>2009-04-21T07:52:55Z</time>
      </trkpt>
      <trkpt lat="50.44844" lon="1.69882">
        <ele>39</ele>
        <time>2009-04-21T07:52:56Z</time>
      </trkpt>
      <trkpt lat="50.44845" lon="1.69855">
        <ele>39</ele>
        <time>2009-04-21T07:52:58Z</time>
      </trkpt>
      <trkpt lat="50.44847" lon="1.69842">
        <ele>34</ele>
        <time>2009-04-21T07:52:59Z</time>
      </trkpt>
      <trkpt lat="50.4485" lon="1.69828">
        <ele>34</ele>
        <time>2009-04-21T07:53:00Z</time>
      </trkpt>
      <trkpt lat="50.44853" lon="1.69815">
        <ele>34</ele>
        <time>2009-04-21T07:53:01Z</time>
      </trkpt>
      <trkpt lat="50.44859" lon="1.69789">
        <ele>34</ele>
        <time>2009-04-21T07:53:03Z</time>
      </trkpt>
      <trkpt lat="50.44866" lon="1.69765">
        <ele>34</ele>
        <time>2009-04-21T07:53:05Z</time>
      </trkpt>
      <trkpt lat="50.44873" lon="1.69741">
        <ele>34</ele>
        <time>2009-04-21T07:53:07Z</time>
      </trkpt>
      <trkpt lat="50.4488" lon="1.69719">
        <ele>34</ele>
        <time>2009-04-21T07:53:09Z</time>
      </trkpt>
      <trkpt lat="50.44887" lon="1.69696">
        <ele>34</ele>
        <time>2009-04-21T07:53:11Z</time>
      </trkpt>
      <trkpt lat="50.44893" lon="1.69675">
        <ele>34</ele>
        <time>2009-04-21T07:53:13Z</time>
      </trkpt>
      <trkpt lat="50.44901" lon="1.69655">
        <ele>34</ele>
        <time>2009-04-21T07:53:15Z</time>
      </trkpt>
      <trkpt lat="50.44909" lon="1.69637">
        <ele>34</ele>
        <time>2009-04-21T07:53:17Z</time>
      </trkpt>
      <trkpt lat="50.4492" lon="1.69623">
        <ele>34</ele>
        <time>2009-04-21T07:53:19Z</time>
      </trkpt>
      <trkpt lat="50.44932" lon="1.69612">
        <ele>34</ele>
        <time>2009-04-21T07:53:21Z</time>
      </trkpt>
      <trkpt lat="50.44944" lon="1.69602">
        <ele>34</ele>
        <time>2009-04-21T07:53:23Z</time>
      </trkpt>
      <trkpt lat="50.44955" lon="1.69593">
        <ele>34</ele>
        <time>2009-04-21T07:53:25Z</time>
      </trkpt>
      <trkpt lat="50.44967" lon="1.69582">
        <ele>34</ele>
        <time>2009-04-21T07:53:27Z</time>
      </trkpt>
      <trkpt lat="50.44978" lon="1.69572">
        <ele>34</ele>
        <time>2009-04-21T07:53:29Z</time>
      </trkpt>
      <trkpt lat="50.44988" lon="1.6956">
        <ele>34</ele>
        <time>2009-04-21T07:53:31Z</time>
      </trkpt>
      <trkpt lat="50.44997" lon="1.69544">
        <ele>34</ele>
        <time>2009-04-21T07:53:33Z</time>
      </trkpt>
      <trkpt lat="50.45003" lon="1.69525">
        <ele>34</ele>
        <time>2009-04-21T07:53:35Z</time>
      </trkpt>
      <trkpt lat="50.45008" lon="1.69505">
        <ele>34</ele>
        <time>2009-04-21T07:53:37Z</time>
      </trkpt>
      <trkpt lat="50.45012" lon="1.69484">
        <ele>34</ele>
        <time>2009-04-21T07:53:39Z</time>
      </trkpt>
      <trkpt lat="50.45016" lon="1.69463">
        <ele>34</ele>
        <time>2009-04-21T07:53:41Z</time>
      </trkpt>
      <trkpt lat="50.45019" lon="1.69441">
        <ele>34</ele>
        <time>2009-04-21T07:53:43Z</time>
      </trkpt>
      <trkpt lat="50.45023" lon="1.69419">
        <ele>34</ele>
        <time>2009-04-21T07:53:45Z</time>
      </trkpt>
      <trkpt lat="50.45026" lon="1.69395">
        <ele>34</ele>
        <time>2009-04-21T07:53:47Z</time>
      </trkpt>
      <trkpt lat="50.45028" lon="1.69371">
        <ele>34</ele>
        <time>2009-04-21T07:53:49Z</time>
      </trkpt>
      <trkpt lat="50.45031" lon="1.69347">
        <ele>34</ele>
        <time>2009-04-21T07:53:51Z</time>
      </trkpt>
      <trkpt lat="50.45038" lon="1.69323">
        <ele>34</ele>
        <time>2009-04-21T07:53:53Z</time>
      </trkpt>
      <trkpt lat="50.45045" lon="1.69299">
        <ele>34</ele>
        <time>2009-04-21T07:53:55Z</time>
      </trkpt>
      <trkpt lat="50.45053" lon="1.69276">
        <ele>34</ele>
        <time>2009-04-21T07:53:57Z</time>
      </trkpt>
      <trkpt lat="50.45061" lon="1.69252">
        <ele>34</ele>
        <time>2009-04-21T07:53:59Z</time>
      </trkpt>
      <trkpt lat="50.45067" lon="1.69228">
        <ele>34</ele>
        <time>2009-04-21T07:54:01Z</time>
      </trkpt>
      <trkpt lat="50.45073" lon="1.69205">
        <ele>34</ele>
        <time>2009-04-21T07:54:03Z</time>
      </trkpt>
      <trkpt lat="50.45079" lon="1.69182">
        <ele>34</ele>
        <time>2009-04-21T07:54:05Z</time>
      </trkpt>
      <trkpt lat="50.45084" lon="1.69159">
        <ele>34</ele>
        <time>2009-04-21T07:54:07Z</time>
      </trkpt>
      <trkpt lat="50.45089" lon="1.69138">
        <ele>34</ele>
        <time>2009-04-21T07:54:09Z</time>
      </trkpt>
      <trkpt lat="50.45096" lon="1.69114">
        <ele>34</ele>
        <time>2009-04-21T07:54:11Z</time>
      </trkpt>
      <trkpt lat="50.45102" lon="1.69091">
        <ele>29</ele>
        <time>2009-04-21T07:54:13Z</time>
      </trkpt>
      <trkpt lat="50.45108" lon="1.69068">
        <ele>29</ele>
        <time>2009-04-21T07:54:15Z</time>
      </trkpt>
      <trkpt lat="50.45114" lon="1.69048">
        <ele>29</ele>
        <time>2009-04-21T07:54:17Z</time>
      </trkpt>
      <trkpt lat="50.45119" lon="1.69028">
        <ele>29</ele>
        <time>2009-04-21T07:54:19Z</time>
      </trkpt>
      <trkpt lat="50.45123" lon="1.6901">
        <ele>29</ele>
        <time>2009-04-21T07:54:21Z</time>
      </trkpt>
      <trkpt lat="50.45128" lon="1.68992">
        <ele>29</ele>
        <time>2009-04-21T07:54:23Z</time>
      </trkpt>
      <trkpt lat="50.45134" lon="1.68974">
        <ele>29</ele>
        <time>2009-04-21T07:54:25Z</time>
      </trkpt>
      <trkpt lat="50.45139" lon="1.68956">
        <ele>29</ele>
        <time>2009-04-21T07:54:27Z</time>
      </trkpt>
      <trkpt lat="50.45144" lon="1.68939">
        <ele>29</ele>
        <time>2009-04-21T07:54:29Z</time>
      </trkpt>
      <trkpt lat="50.45147" lon="1.68925">
        <ele>29</ele>
        <time>2009-04-21T07:54:31Z</time>
      </trkpt>
      <trkpt lat="50.45152" lon="1.68908">
        <ele>29</ele>
        <time>2009-04-21T07:54:34Z</time>
      </trkpt>
      <trkpt lat="50.45157" lon="1.68895">
        <ele>29</ele>
        <time>2009-04-21T07:54:36Z</time>
      </trkpt>
      <trkpt lat="50.45162" lon="1.68881">
        <ele>29</ele>
        <time>2009-04-21T07:54:38Z</time>
      </trkpt>
      <trkpt lat="50.45167" lon="1.68864">
        <ele>29</ele>
        <time>2009-04-21T07:54:40Z</time>
      </trkpt>
      <trkpt lat="50.45171" lon="1.68848">
        <ele>29</ele>
        <time>2009-04-21T07:54:42Z</time>
      </trkpt>
      <trkpt lat="50.45174" lon="1.6883">
        <ele>29</ele>
        <time>2009-04-21T07:54:44Z</time>
      </trkpt>
      <trkpt lat="50.45176" lon="1.68811">
        <ele>29</ele>
        <time>2009-04-21T07:54:46Z</time>
      </trkpt>
      <trkpt lat="50.45179" lon="1.68793">
        <ele>29</ele>
        <time>2009-04-21T07:54:48Z</time>
      </trkpt>
      <trkpt lat="50.45181" lon="1.68776">
        <ele>29</ele>
        <time>2009-04-21T07:54:50Z</time>
      </trkpt>
      <trkpt lat="50.45183" lon="1.68757">
        <ele>29</ele>
        <time>2009-04-21T07:54:52Z</time>
      </trkpt>
      <trkpt lat="50.45185" lon="1.68739">
        <ele>29</ele>
        <time>2009-04-21T07:54:54Z</time>
      </trkpt>
      <trkpt lat="50.45188" lon="1.68721">
        <ele>29</ele>
        <time>2009-04-21T07:54:56Z</time>
      </trkpt>
      <trkpt lat="50.45189" lon="1.68703">
        <ele>29</ele>
        <time>2009-04-21T07:54:58Z</time>
      </trkpt>
      <trkpt lat="50.45185" lon="1.68687">
        <ele>29</ele>
        <time>2009-04-21T07:55:00Z</time>
      </trkpt>
      <trkpt lat="50.45176" lon="1.68678">
        <ele>29</ele>
        <time>2009-04-21T07:55:02Z</time>
      </trkpt>
      <trkpt lat="50.45163" lon="1.6867">
        <ele>29</ele>
        <time>2009-04-21T07:55:04Z</time>
      </trkpt>
      <trkpt lat="50.45151" lon="1.68663">
        <ele>29</ele>
        <time>2009-04-21T07:55:06Z</time>
      </trkpt>
      <trkpt lat="50.45139" lon="1.68658">
        <ele>34</ele>
        <time>2009-04-21T07:55:08Z</time>
      </trkpt>
      <trkpt lat="50.45128" lon="1.68652">
        <ele>34</ele>
        <time>2009-04-21T07:55:10Z</time>
      </trkpt>
      <trkpt lat="50.45117" lon="1.68646">
        <ele>34</ele>
        <time>2009-04-21T07:55:12Z</time>
      </trkpt>
      <trkpt lat="50.45106" lon="1.68641">
        <ele>34</ele>
        <time>2009-04-21T07:55:14Z</time>
      </trkpt>
      <trkpt lat="50.45094" lon="1.68635">
        <ele>34</ele>
        <time>2009-04-21T07:55:16Z</time>
      </trkpt>
      <trkpt lat="50.45083" lon="1.6863">
        <ele>34</ele>
        <time>2009-04-21T07:55:18Z</time>
      </trkpt>
      <trkpt lat="50.45071" lon="1.68625">
        <ele>34</ele>
        <time>2009-04-21T07:55:20Z</time>
      </trkpt>
      <trkpt lat="50.4506" lon="1.68618">
        <ele>34</ele>
        <time>2009-04-21T07:55:22Z</time>
      </trkpt>
      <trkpt lat="50.45049" lon="1.68613">
        <ele>34</ele>
        <time>2009-04-21T07:55:24Z</time>
      </trkpt>
      <trkpt lat="50.45037" lon="1.68607">
        <ele>34</ele>
        <time>2009-04-21T07:55:26Z</time>
      </trkpt>
      <trkpt lat="50.45025" lon="1.68601">
        <ele>34</ele>
        <time>2009-04-21T07:55:28Z</time>
      </trkpt>
      <trkpt lat="50.45014" lon="1.68597">
        <ele>34</ele>
        <time>2009-04-21T07:55:30Z</time>
      </trkpt>
      <trkpt lat="50.45002" lon="1.6859">
        <ele>34</ele>
        <time>2009-04-21T07:55:32Z</time>
      </trkpt>
      <trkpt lat="50.4499" lon="1.68585">
        <ele>34</ele>
        <time>2009-04-21T07:55:34Z</time>
      </trkpt>
      <trkpt lat="50.44978" lon="1.68579">
        <ele>34</ele>
        <time>2009-04-21T07:55:36Z</time>
      </trkpt>
      <trkpt lat="50.44965" lon="1.68572">
        <ele>34</ele>
        <time>2009-04-21T07:55:38Z</time>
      </trkpt>
      <trkpt lat="50.44952" lon="1.68565">
        <ele>34</ele>
        <time>2009-04-21T07:55:40Z</time>
      </trkpt>
      <trkpt lat="50.4494" lon="1.68558">
        <ele>34</ele>
        <time>2009-04-21T07:55:42Z</time>
      </trkpt>
      <trkpt lat="50.44927" lon="1.68551">
        <ele>34</ele>
        <time>2009-04-21T07:55:44Z</time>
      </trkpt>
      <trkpt lat="50.44913" lon="1.68543">
        <ele>39</ele>
        <time>2009-04-21T07:55:46Z</time>
      </trkpt>
      <trkpt lat="50.449" lon="1.68536">
        <ele>39</ele>
        <time>2009-04-21T07:55:48Z</time>
      </trkpt>
      <trkpt lat="50.44886" lon="1.68528">
        <ele>39</ele>
        <time>2009-04-21T07:55:50Z</time>
      </trkpt>
      <trkpt lat="50.44873" lon="1.68522">
        <ele>39</ele>
        <time>2009-04-21T07:55:52Z</time>
      </trkpt>
      <trkpt lat="50.4486" lon="1.68515">
        <ele>39</ele>
        <time>2009-04-21T07:55:54Z</time>
      </trkpt>
      <trkpt lat="50.44847" lon="1.68509">
        <ele>39</ele>
        <time>2009-04-21T07:55:56Z</time>
      </trkpt>
      <trkpt lat="50.44834" lon="1.68502">
        <ele>39</ele>
        <time>2009-04-21T07:55:58Z</time>
      </trkpt>
      <trkpt lat="50.4482" lon="1.68494">
        <ele>39</ele>
        <time>2009-04-21T07:56:00Z</time>
      </trkpt>
      <trkpt lat="50.44807" lon="1.68487">
        <ele>39</ele>
        <time>2009-04-21T07:56:02Z</time>
      </trkpt>
      <trkpt lat="50.44794" lon="1.6848">
        <ele>39</ele>
        <time>2009-04-21T07:56:04Z</time>
      </trkpt>
      <trkpt lat="50.4478" lon="1.68473">
        <ele>39</ele>
        <time>2009-04-21T07:56:06Z</time>
      </trkpt>
      <trkpt lat="50.44767" lon="1.68467">
        <ele>39</ele>
        <time>2009-04-21T07:56:08Z</time>
      </trkpt>
      <trkpt lat="50.44754" lon="1.68459">
        <ele>39</ele>
        <time>2009-04-21T07:56:10Z</time>
      </trkpt>
      <trkpt lat="50.4474" lon="1.68453">
        <ele>39</ele>
        <time>2009-04-21T07:56:12Z</time>
      </trkpt>
      <trkpt lat="50.44726" lon="1.68446">
        <ele>39</ele>
        <time>2009-04-21T07:56:14Z</time>
      </trkpt>
      <trkpt lat="50.44713" lon="1.68439">
        <ele>39</ele>
        <time>2009-04-21T07:56:16Z</time>
      </trkpt>
      <trkpt lat="50.44699" lon="1.68431">
        <ele>39</ele>
        <time>2009-04-21T07:56:18Z</time>
      </trkpt>
      <trkpt lat="50.44685" lon="1.68424">
        <ele>39</ele>
        <time>2009-04-21T07:56:20Z</time>
      </trkpt>
      <trkpt lat="50.44671" lon="1.68418">
        <ele>39</ele>
        <time>2009-04-21T07:56:22Z</time>
      </trkpt>
      <trkpt lat="50.44658" lon="1.6841">
        <ele>39</ele>
        <time>2009-04-21T07:56:24Z</time>
      </trkpt>
      <trkpt lat="50.44644" lon="1.68403">
        <ele>39</ele>
        <time>2009-04-21T07:56:26Z</time>
      </trkpt>
      <trkpt lat="50.44631" lon="1.68396">
        <ele>39</ele>
        <time>2009-04-21T07:56:28Z</time>
      </trkpt>
      <trkpt lat="50.44618" lon="1.68388">
        <ele>39</ele>
        <time>2009-04-21T07:56:30Z</time>
      </trkpt>
      <trkpt lat="50.44604" lon="1.68381">
        <ele>39</ele>
        <time>2009-04-21T07:56:32Z</time>
      </trkpt>
      <trkpt lat="50.44591" lon="1.68374">
        <ele>39</ele>
        <time>2009-04-21T07:56:34Z</time>
      </trkpt>
      <trkpt lat="50.44578" lon="1.68367">
        <ele>39</ele>
        <time>2009-04-21T07:56:36Z</time>
      </trkpt>
      <trkpt lat="50.44565" lon="1.6836">
        <ele>39</ele>
        <time>2009-04-21T07:56:38Z</time>
      </trkpt>
      <trkpt lat="50.44551" lon="1.68352">
        <ele>39</ele>
        <time>2009-04-21T07:56:40Z</time>
      </trkpt>
      <trkpt lat="50.44537" lon="1.68345">
        <ele>39</ele>
        <time>2009-04-21T07:56:42Z</time>
      </trkpt>
      <trkpt lat="50.44523" lon="1.68337">
        <ele>39</ele>
        <time>2009-04-21T07:56:44Z</time>
      </trkpt>
      <trkpt lat="50.4451" lon="1.6833">
        <ele>34</ele>
        <time>2009-04-21T07:56:46Z</time>
      </trkpt>
      <trkpt lat="50.44495" lon="1.68322">
        <ele>34</ele>
        <time>2009-04-21T07:56:48Z</time>
      </trkpt>
      <trkpt lat="50.44481" lon="1.68314">
        <ele>34</ele>
        <time>2009-04-21T07:56:50Z</time>
      </trkpt>
      <trkpt lat="50.44467" lon="1.68306">
        <ele>34</ele>
        <time>2009-04-21T07:56:52Z</time>
      </trkpt>
      <trkpt lat="50.44453" lon="1.68298">
        <ele>34</ele>
        <time>2009-04-21T07:56:54Z</time>
      </trkpt>
      <trkpt lat="50.44438" lon="1.68289">
        <ele>34</ele>
        <time>2009-04-21T07:56:56Z</time>
      </trkpt>
      <trkpt lat="50.44424" lon="1.6828">
        <ele>34</ele>
        <time>2009-04-21T07:56:58Z</time>
      </trkpt>
      <trkpt lat="50.44408" lon="1.68272">
        <ele>29</ele>
        <time>2009-04-21T07:57:00Z</time>
      </trkpt>
      <trkpt lat="50.44392" lon="1.68265">
        <ele>29</ele>
        <time>2009-04-21T07:57:02Z</time>
      </trkpt>
      <trkpt lat="50.44375" lon="1.68257">
        <ele>29</ele>
        <time>2009-04-21T07:57:04Z</time>
      </trkpt>
      <trkpt lat="50.44366" lon="1.68253">
        <ele>29</ele>
        <time>2009-04-21T07:57:05Z</time>
      </trkpt>
      <trkpt lat="50.44358" lon="1.68248">
        <ele>29</ele>
        <time>2009-04-21T07:57:06Z</time>
      </trkpt>
      <trkpt lat="50.44348" lon="1.68243">
        <ele>29</ele>
        <time>2009-04-21T07:57:07Z</time>
      </trkpt>
      <trkpt lat="50.4434" lon="1.68237">
        <ele>23</ele>
        <time>2009-04-21T07:57:08Z</time>
      </trkpt>
      <trkpt lat="50.44331" lon="1.68231">
        <ele>23</ele>
        <time>2009-04-21T07:57:09Z</time>
      </trkpt>
      <trkpt lat="50.44321" lon="1.68225">
        <ele>23</ele>
        <time>2009-04-21T07:57:10Z</time>
      </trkpt>
      <trkpt lat="50.44312" lon="1.68218">
        <ele>23</ele>
        <time>2009-04-21T07:57:11Z</time>
      </trkpt>
      <trkpt lat="50.44305" lon="1.6821">
        <ele>23</ele>
        <time>2009-04-21T07:57:12Z</time>
      </trkpt>
      <trkpt lat="50.44295" lon="1.68189">
        <ele>23</ele>
        <time>2009-04-21T07:57:14Z</time>
      </trkpt>
      <trkpt lat="50.44293" lon="1.68165">
        <ele>23</ele>
        <time>2009-04-21T07:57:16Z</time>
      </trkpt>
      <trkpt lat="50.44292" lon="1.68141">
        <ele>18</ele>
        <time>2009-04-21T07:57:18Z</time>
      </trkpt>
      <trkpt lat="50.44286" lon="1.68125">
        <ele>18</ele>
        <time>2009-04-21T07:57:20Z</time>
      </trkpt>
      <trkpt lat="50.44275" lon="1.68121">
        <ele>18</ele>
        <time>2009-04-21T07:57:22Z</time>
      </trkpt>
      <trkpt lat="50.44261" lon="1.68124">
        <ele>18</ele>
        <time>2009-04-21T07:57:24Z</time>
      </trkpt>
      <trkpt lat="50.44246" lon="1.68129">
        <ele>18</ele>
        <time>2009-04-21T07:57:26Z</time>
      </trkpt>
      <trkpt lat="50.44231" lon="1.68132">
        <ele>18</ele>
        <time>2009-04-21T07:57:28Z</time>
      </trkpt>
      <trkpt lat="50.44215" lon="1.68136">
        <ele>18</ele>
        <time>2009-04-21T07:57:30Z</time>
      </trkpt>
      <trkpt lat="50.44199" lon="1.6814">
        <ele>18</ele>
        <time>2009-04-21T07:57:32Z</time>
      </trkpt>
      <trkpt lat="50.44183" lon="1.68143">
        <ele>18</ele>
        <time>2009-04-21T07:57:34Z</time>
      </trkpt>
      <trkpt lat="50.44169" lon="1.68147">
        <ele>18</ele>
        <time>2009-04-21T07:57:36Z</time>
      </trkpt>
      <trkpt lat="50.44155" lon="1.68149">
        <ele>18</ele>
        <time>2009-04-21T07:57:38Z</time>
      </trkpt>
      <trkpt lat="50.44144" lon="1.68146">
        <ele>18</ele>
        <time>2009-04-21T07:57:40Z</time>
      </trkpt>
      <trkpt lat="50.44137" lon="1.68132">
        <ele>18</ele>
        <time>2009-04-21T07:57:42Z</time>
      </trkpt>
      <trkpt lat="50.44134" lon="1.68113">
        <ele>18</ele>
        <time>2009-04-21T07:57:44Z</time>
      </trkpt>
      <trkpt lat="50.44131" lon="1.68094">
        <ele>18</ele>
        <time>2009-04-21T07:57:46Z</time>
      </trkpt>
      <trkpt lat="50.44127" lon="1.68074">
        <ele>18</ele>
        <time>2009-04-21T07:57:48Z</time>
      </trkpt>
      <trkpt lat="50.44124" lon="1.68052">
        <ele>18</ele>
        <time>2009-04-21T07:57:50Z</time>
      </trkpt>
      <trkpt lat="50.44119" lon="1.68032">
        <ele>18</ele>
        <time>2009-04-21T07:57:52Z</time>
      </trkpt>
      <trkpt lat="50.44116" lon="1.6801">
        <ele>18</ele>
        <time>2009-04-21T07:57:54Z</time>
      </trkpt>
      <trkpt lat="50.44113" lon="1.67989">
        <ele>18</ele>
        <time>2009-04-21T07:57:56Z</time>
      </trkpt>
      <trkpt lat="50.4411" lon="1.67967">
        <ele>18</ele>
        <time>2009-04-21T07:57:58Z</time>
      </trkpt>
      <trkpt lat="50.44107" lon="1.67946">
        <ele>18</ele>
        <time>2009-04-21T07:58:00Z</time>
      </trkpt>
      <trkpt lat="50.44104" lon="1.67925">
        <ele>18</ele>
        <time>2009-04-21T07:58:02Z</time>
      </trkpt>
      <trkpt lat="50.44099" lon="1.67906">
        <ele>18</ele>
        <time>2009-04-21T07:58:04Z</time>
      </trkpt>
      <trkpt lat="50.4409" lon="1.67892">
        <ele>18</ele>
        <time>2009-04-21T07:58:06Z</time>
      </trkpt>
      <trkpt lat="50.44079" lon="1.67884">
        <ele>18</ele>
        <time>2009-04-21T07:58:08Z</time>
      </trkpt>
      <trkpt lat="50.44068" lon="1.67877">
        <ele>18</ele>
        <time>2009-04-21T07:58:10Z</time>
      </trkpt>
      <trkpt lat="50.44059" lon="1.67868">
        <ele>18</ele>
        <time>2009-04-21T07:58:12Z</time>
      </trkpt>
      <trkpt lat="50.44049" lon="1.67861">
        <ele>18</ele>
        <time>2009-04-21T07:58:14Z</time>
      </trkpt>
      <trkpt lat="50.4404" lon="1.67855">
        <ele>18</ele>
        <time>2009-04-21T07:58:16Z</time>
      </trkpt>
      <trkpt lat="50.4403" lon="1.67849">
        <ele>18</ele>
        <time>2009-04-21T07:58:18Z</time>
      </trkpt>
      <trkpt lat="50.4402" lon="1.67844">
        <ele>18</ele>
        <time>2009-04-21T07:58:20Z</time>
      </trkpt>
      <trkpt lat="50.4401" lon="1.67839">
        <ele>18</ele>
        <time>2009-04-21T07:58:22Z</time>
      </trkpt>
      <trkpt lat="50.44" lon="1.67833">
        <ele>18</ele>
        <time>2009-04-21T07:58:24Z</time>
      </trkpt>
      <trkpt lat="50.4399" lon="1.67828">
        <ele>18</ele>
        <time>2009-04-21T07:58:26Z</time>
      </trkpt>
      <trkpt lat="50.43981" lon="1.67823">
        <ele>18</ele>
        <time>2009-04-21T07:58:28Z</time>
      </trkpt>
      <trkpt lat="50.43971" lon="1.67819">
        <ele>18</ele>
        <time>2009-04-21T07:58:30Z</time>
      </trkpt>
      <trkpt lat="50.43962" lon="1.67813">
        <ele>18</ele>
        <time>2009-04-21T07:58:32Z</time>
      </trkpt>
      <trkpt lat="50.43952" lon="1.6781">
        <ele>24</ele>
        <time>2009-04-21T07:58:34Z</time>
      </trkpt>
      <trkpt lat="50.43943" lon="1.67804">
        <ele>24</ele>
        <time>2009-04-21T07:58:36Z</time>
      </trkpt>
      <trkpt lat="50.43935" lon="1.67798">
        <ele>24</ele>
        <time>2009-04-21T07:58:38Z</time>
      </trkpt>
      <trkpt lat="50.43927" lon="1.67792">
        <ele>24</ele>
        <time>2009-04-21T07:58:40Z</time>
      </trkpt>
      <trkpt lat="50.43915" lon="1.67786">
        <ele>24</ele>
        <time>2009-04-21T07:58:43Z</time>
      </trkpt>
      <trkpt lat="50.43903" lon="1.67783">
        <ele>24</ele>
        <time>2009-04-21T07:58:46Z</time>
      </trkpt>
      <trkpt lat="50.4389" lon="1.6778">
        <ele>24</ele>
        <time>2009-04-21T07:58:49Z</time>
      </trkpt>
      <trkpt lat="50.43877" lon="1.67776">
        <ele>24</ele>
        <time>2009-04-21T07:58:52Z</time>
      </trkpt>
      <trkpt lat="50.43864" lon="1.67772">
        <ele>24</ele>
        <time>2009-04-21T07:58:55Z</time>
      </trkpt>
      <trkpt lat="50.43851" lon="1.67768">
        <ele>24</ele>
        <time>2009-04-21T07:58:58Z</time>
      </trkpt>
      <trkpt lat="50.43838" lon="1.67765">
        <ele>24</ele>
        <time>2009-04-21T07:59:01Z</time>
      </trkpt>
      <trkpt lat="50.43825" lon="1.6776">
        <ele>29</ele>
        <time>2009-04-21T07:59:04Z</time>
      </trkpt>
      <trkpt lat="50.43813" lon="1.67758">
        <ele>29</ele>
        <time>2009-04-21T07:59:07Z</time>
      </trkpt>
      <trkpt lat="50.438" lon="1.67754">
        <ele>29</ele>
        <time>2009-04-21T07:59:10Z</time>
      </trkpt>
      <trkpt lat="50.43787" lon="1.67751">
        <ele>29</ele>
        <time>2009-04-21T07:59:13Z</time>
      </trkpt>
      <trkpt lat="50.43775" lon="1.67748">
        <ele>29</ele>
        <time>2009-04-21T07:59:16Z</time>
      </trkpt>
      <trkpt lat="50.43766" lon="1.67745">
        <ele>29</ele>
        <time>2009-04-21T07:59:18Z</time>
      </trkpt>
      <trkpt lat="50.43752" lon="1.67741">
        <ele>29</ele>
        <time>2009-04-21T07:59:21Z</time>
      </trkpt>
      <trkpt lat="50.43739" lon="1.67738">
        <ele>35</ele>
        <time>2009-04-21T07:59:24Z</time>
      </trkpt>
      <trkpt lat="50.43731" lon="1.67734">
        <ele>35</ele>
        <time>2009-04-21T07:59:26Z</time>
      </trkpt>
      <trkpt lat="50.43717" lon="1.6773">
        <ele>35</ele>
        <time>2009-04-21T07:59:29Z</time>
      </trkpt>
      <trkpt lat="50.43705" lon="1.67725">
        <ele>35</ele>
        <time>2009-04-21T07:59:32Z</time>
      </trkpt>
      <trkpt lat="50.43696" lon="1.67724">
        <ele>35</ele>
        <time>2009-04-21T07:59:34Z</time>
      </trkpt>
      <trkpt lat="50.43683" lon="1.67721">
        <ele>35</ele>
        <time>2009-04-21T07:59:37Z</time>
      </trkpt>
      <trkpt lat="50.43674" lon="1.67718">
        <ele>35</ele>
        <time>2009-04-21T07:59:39Z</time>
      </trkpt>
      <trkpt lat="50.43661" lon="1.67715">
        <ele>35</ele>
        <time>2009-04-21T07:59:42Z</time>
      </trkpt>
      <trkpt lat="50.43652" lon="1.67711">
        <ele>35</ele>
        <time>2009-04-21T07:59:44Z</time>
      </trkpt>
      <trkpt lat="50.4364" lon="1.67709">
        <ele>35</ele>
        <time>2009-04-21T07:59:47Z</time>
      </trkpt>
      <trkpt lat="50.4363" lon="1.67704">
        <ele>41</ele>
        <time>2009-04-21T07:59:50Z</time>
      </trkpt>
      <trkpt lat="50.43617" lon="1.67698">
        <ele>41</ele>
        <time>2009-04-21T07:59:53Z</time>
      </trkpt>
      <trkpt lat="50.43608" lon="1.67695">
        <ele>41</ele>
        <time>2009-04-21T07:59:55Z</time>
      </trkpt>
      <trkpt lat="50.43595" lon="1.67692">
        <ele>41</ele>
        <time>2009-04-21T07:59:58Z</time>
      </trkpt>
      <trkpt lat="50.43586" lon="1.67688">
        <ele>41</ele>
        <time>2009-04-21T08:00:00Z</time>
      </trkpt>
      <trkpt lat="50.43577" lon="1.67683">
        <ele>41</ele>
        <time>2009-04-21T08:00:02Z</time>
      </trkpt>
      <trkpt lat="50.43568" lon="1.67676">
        <ele>41</ele>
        <time>2009-04-21T08:00:04Z</time>
      </trkpt>
      <trkpt lat="50.43559" lon="1.67669">
        <ele>41</ele>
        <time>2009-04-21T08:00:06Z</time>
      </trkpt>
      <trkpt lat="50.43549" lon="1.67662">
        <ele>41</ele>
        <time>2009-04-21T08:00:08Z</time>
      </trkpt>
      <trkpt lat="50.43539" lon="1.67654">
        <ele>41</ele>
        <time>2009-04-21T08:00:10Z</time>
      </trkpt>
      <trkpt lat="50.4353" lon="1.67645">
        <ele>41</ele>
        <time>2009-04-21T08:00:12Z</time>
      </trkpt>
      <trkpt lat="50.4352" lon="1.67638">
        <ele>41</ele>
        <time>2009-04-21T08:00:14Z</time>
      </trkpt>
      <trkpt lat="50.4351" lon="1.6763">
        <ele>41</ele>
        <time>2009-04-21T08:00:16Z</time>
      </trkpt>
      <trkpt lat="50.43499" lon="1.6762">
        <ele>41</ele>
        <time>2009-04-21T08:00:18Z</time>
      </trkpt>
      <trkpt lat="50.43488" lon="1.67612">
        <ele>41</ele>
        <time>2009-04-21T08:00:20Z</time>
      </trkpt>
      <trkpt lat="50.43476" lon="1.67603">
        <ele>41</ele>
        <time>2009-04-21T08:00:22Z</time>
      </trkpt>
      <trkpt lat="50.43465" lon="1.67594">
        <ele>41</ele>
        <time>2009-04-21T08:00:24Z</time>
      </trkpt>
      <trkpt lat="50.43453" lon="1.67583">
        <ele>41</ele>
        <time>2009-04-21T08:00:26Z</time>
      </trkpt>
      <trkpt lat="50.4344" lon="1.67573">
        <ele>41</ele>
        <time>2009-04-21T08:00:28Z</time>
      </trkpt>
      <trkpt lat="50.43426" lon="1.6756">
        <ele>41</ele>
        <time>2009-04-21T08:00:30Z</time>
      </trkpt>
      <trkpt lat="50.43412" lon="1.67547">
        <ele>41</ele>
        <time>2009-04-21T08:00:32Z</time>
      </trkpt>
      <trkpt lat="50.43397" lon="1.6753">
        <ele>41</ele>
        <time>2009-04-21T08:00:34Z</time>
      </trkpt>
      <trkpt lat="50.43383" lon="1.67512">
        <ele>34</ele>
        <time>2009-04-21T08:00:36Z</time>
      </trkpt>
      <trkpt lat="50.43376" lon="1.67503">
        <ele>34</ele>
        <time>2009-04-21T08:00:37Z</time>
      </trkpt>
      <trkpt lat="50.43368" lon="1.67493">
        <ele>34</ele>
        <time>2009-04-21T08:00:38Z</time>
      </trkpt>
      <trkpt lat="50.4336" lon="1.67483">
        <ele>34</ele>
        <time>2009-04-21T08:00:39Z</time>
      </trkpt>
      <trkpt lat="50.43352" lon="1.67473">
        <ele>34</ele>
        <time>2009-04-21T08:00:40Z</time>
      </trkpt>
      <trkpt lat="50.43343" lon="1.67464">
        <ele>28</ele>
        <time>2009-04-21T08:00:41Z</time>
      </trkpt>
      <trkpt lat="50.43333" lon="1.67455">
        <ele>28</ele>
        <time>2009-04-21T08:00:42Z</time>
      </trkpt>
      <trkpt lat="50.43323" lon="1.67446">
        <ele>28</ele>
        <time>2009-04-21T08:00:43Z</time>
      </trkpt>
      <trkpt lat="50.43311" lon="1.67436">
        <ele>28</ele>
        <time>2009-04-21T08:00:44Z</time>
      </trkpt>
      <trkpt lat="50.433" lon="1.67427">
        <ele>22</ele>
        <time>2009-04-21T08:00:45Z</time>
      </trkpt>
      <trkpt lat="50.43288" lon="1.67416">
        <ele>22</ele>
        <time>2009-04-21T08:00:46Z</time>
      </trkpt>
      <trkpt lat="50.43278" lon="1.67408">
        <ele>22</ele>
        <time>2009-04-21T08:00:47Z</time>
      </trkpt>
      <trkpt lat="50.43269" lon="1.67403">
        <ele>22</ele>
        <time>2009-04-21T08:00:48Z</time>
      </trkpt>
      <trkpt lat="50.4326" lon="1.67396">
        <ele>17</ele>
        <time>2009-04-21T08:00:49Z</time>
      </trkpt>
      <trkpt lat="50.43251" lon="1.67389">
        <ele>17</ele>
        <time>2009-04-21T08:00:50Z</time>
      </trkpt>
      <trkpt lat="50.43242" lon="1.6738">
        <ele>17</ele>
        <time>2009-04-21T08:00:51Z</time>
      </trkpt>
      <trkpt lat="50.43234" lon="1.67371">
        <ele>17</ele>
        <time>2009-04-21T08:00:52Z</time>
      </trkpt>
      <trkpt lat="50.43226" lon="1.67362">
        <ele>17</ele>
        <time>2009-04-21T08:00:53Z</time>
      </trkpt>
      <trkpt lat="50.43215" lon="1.67344">
        <ele>11</ele>
        <time>2009-04-21T08:00:55Z</time>
      </trkpt>
      <trkpt lat="50.43218" lon="1.67325">
        <ele>11</ele>
        <time>2009-04-21T08:00:57Z</time>
      </trkpt>
      <trkpt lat="50.43227" lon="1.67314">
        <ele>11</ele>
        <time>2009-04-21T08:00:59Z</time>
      </trkpt>
      <trkpt lat="50.43238" lon="1.67306">
        <ele>11</ele>
        <time>2009-04-21T08:01:01Z</time>
      </trkpt>
      <trkpt lat="50.43248" lon="1.67296">
        <ele>11</ele>
        <time>2009-04-21T08:01:03Z</time>
      </trkpt>
      <trkpt lat="50.43259" lon="1.67285">
        <ele>11</ele>
        <time>2009-04-21T08:01:05Z</time>
      </trkpt>
      <trkpt lat="50.43269" lon="1.67274">
        <ele>11</ele>
        <time>2009-04-21T08:01:07Z</time>
      </trkpt>
      <trkpt lat="50.4328" lon="1.67264">
        <ele>11</ele>
        <time>2009-04-21T08:01:09Z</time>
      </trkpt>
      <trkpt lat="50.43289" lon="1.67252">
        <ele>11</ele>
        <time>2009-04-21T08:01:11Z</time>
      </trkpt>
      <trkpt lat="50.43298" lon="1.6724">
        <ele>11</ele>
        <time>2009-04-21T08:01:13Z</time>
      </trkpt>
      <trkpt lat="50.43307" lon="1.67227">
        <ele>11</ele>
        <time>2009-04-21T08:01:15Z</time>
      </trkpt>
      <trkpt lat="50.43316" lon="1.67213">
        <ele>11</ele>
        <time>2009-04-21T08:01:17Z</time>
      </trkpt>
      <trkpt lat="50.43324" lon="1.672">
        <ele>11</ele>
        <time>2009-04-21T08:01:19Z</time>
      </trkpt>
      <trkpt lat="50.43333" lon="1.67186">
        <ele>11</ele>
        <time>2009-04-21T08:01:21Z</time>
      </trkpt>
      <trkpt lat="50.43342" lon="1.67174">
        <ele>16</ele>
        <time>2009-04-21T08:01:23Z</time>
      </trkpt>
      <trkpt lat="50.43351" lon="1.67161">
        <ele>16</ele>
        <time>2009-04-21T08:01:25Z</time>
      </trkpt>
      <trkpt lat="50.43359" lon="1.67149">
        <ele>16</ele>
        <time>2009-04-21T08:01:27Z</time>
      </trkpt>
      <trkpt lat="50.43368" lon="1.67136">
        <ele>16</ele>
        <time>2009-04-21T08:01:29Z</time>
      </trkpt>
      <trkpt lat="50.43377" lon="1.67124">
        <ele>16</ele>
        <time>2009-04-21T08:01:31Z</time>
      </trkpt>
      <trkpt lat="50.43385" lon="1.67111">
        <ele>16</ele>
        <time>2009-04-21T08:01:33Z</time>
      </trkpt>
      <trkpt lat="50.43394" lon="1.67098">
        <ele>16</ele>
        <time>2009-04-21T08:01:35Z</time>
      </trkpt>
      <trkpt lat="50.43402" lon="1.67086">
        <ele>16</ele>
        <time>2009-04-21T08:01:37Z</time>
      </trkpt>
      <trkpt lat="50.43411" lon="1.67074">
        <ele>16</ele>
        <time>2009-04-21T08:01:39Z</time>
      </trkpt>
      <trkpt lat="50.4342" lon="1.67062">
        <ele>16</ele>
        <time>2009-04-21T08:01:41Z</time>
      </trkpt>
      <trkpt lat="50.43429" lon="1.67049">
        <ele>16</ele>
        <time>2009-04-21T08:01:43Z</time>
      </trkpt>
      <trkpt lat="50.43438" lon="1.67035">
        <ele>16</ele>
        <time>2009-04-21T08:01:45Z</time>
      </trkpt>
      <trkpt lat="50.43447" lon="1.67021">
        <ele>16</ele>
        <time>2009-04-21T08:01:47Z</time>
      </trkpt>
      <trkpt lat="50.43456" lon="1.67007">
        <ele>16</ele>
        <time>2009-04-21T08:01:49Z</time>
      </trkpt>
      <trkpt lat="50.43465" lon="1.66992">
        <ele>16</ele>
        <time>2009-04-21T08:01:51Z</time>
      </trkpt>
      <trkpt lat="50.43474" lon="1.66979">
        <ele>16</ele>
        <time>2009-04-21T08:01:53Z</time>
      </trkpt>
      <trkpt lat="50.43483" lon="1.66965">
        <ele>16</ele>
        <time>2009-04-21T08:01:55Z</time>
      </trkpt>
      <trkpt lat="50.43492" lon="1.66952">
        <ele>16</ele>
        <time>2009-04-21T08:01:57Z</time>
      </trkpt>
      <trkpt lat="50.43501" lon="1.66939">
        <ele>16</ele>
        <time>2009-04-21T08:01:59Z</time>
      </trkpt>
      <trkpt lat="50.4351" lon="1.66927">
        <ele>16</ele>
        <time>2009-04-21T08:02:01Z</time>
      </trkpt>
      <trkpt lat="50.4352" lon="1.66913">
        <ele>16</ele>
        <time>2009-04-21T08:02:03Z</time>
      </trkpt>
      <trkpt lat="50.43529" lon="1.66901">
        <ele>16</ele>
        <time>2009-04-21T08:02:05Z</time>
      </trkpt>
      <trkpt lat="50.43538" lon="1.66889">
        <ele>16</ele>
        <time>2009-04-21T08:02:07Z</time>
      </trkpt>
      <trkpt lat="50.43549" lon="1.66878">
        <ele>16</ele>
        <time>2009-04-21T08:02:09Z</time>
      </trkpt>
      <trkpt lat="50.43559" lon="1.66868">
        <ele>16</ele>
        <time>2009-04-21T08:02:11Z</time>
      </trkpt>
      <trkpt lat="50.43569" lon="1.6686">
        <ele>21</ele>
        <time>2009-04-21T08:02:13Z</time>
      </trkpt>
      <trkpt lat="50.4358" lon="1.66854">
        <ele>21</ele>
        <time>2009-04-21T08:02:15Z</time>
      </trkpt>
      <trkpt lat="50.43591" lon="1.66848">
        <ele>21</ele>
        <time>2009-04-21T08:02:17Z</time>
      </trkpt>
      <trkpt lat="50.43603" lon="1.66842">
        <ele>21</ele>
        <time>2009-04-21T08:02:19Z</time>
      </trkpt>
      <trkpt lat="50.43614" lon="1.66839">
        <ele>21</ele>
        <time>2009-04-21T08:02:21Z</time>
      </trkpt>
      <trkpt lat="50.43625" lon="1.66835">
        <ele>21</ele>
        <time>2009-04-21T08:02:23Z</time>
      </trkpt>
      <trkpt lat="50.43636" lon="1.66832">
        <ele>21</ele>
        <time>2009-04-21T08:02:25Z</time>
      </trkpt>
      <trkpt lat="50.43648" lon="1.6683">
        <ele>21</ele>
        <time>2009-04-21T08:02:27Z</time>
      </trkpt>
      <trkpt lat="50.43659" lon="1.66828">
        <ele>21</ele>
        <time>2009-04-21T08:02:29Z</time>
      </trkpt>
      <trkpt lat="50.43671" lon="1.66827">
        <ele>21</ele>
        <time>2009-04-21T08:02:31Z</time>
      </trkpt>
      <trkpt lat="50.43685" lon="1.66825">
        <ele>21</ele>
        <time>2009-04-21T08:02:33Z</time>
      </trkpt>
      <trkpt lat="50.43698" lon="1.66825">
        <ele>21</ele>
        <time>2009-04-21T08:02:35Z</time>
      </trkpt>
      <trkpt lat="50.43712" lon="1.66824">
        <ele>21</ele>
        <time>2009-04-21T08:02:37Z</time>
      </trkpt>
      <trkpt lat="50.43726" lon="1.66824">
        <ele>21</ele>
        <time>2009-04-21T08:02:39Z</time>
      </trkpt>
      <trkpt lat="50.4374" lon="1.66823">
        <ele>21</ele>
        <time>2009-04-21T08:02:41Z</time>
      </trkpt>
      <trkpt lat="50.43755" lon="1.66821">
        <ele>21</ele>
        <time>2009-04-21T08:02:43Z</time>
      </trkpt>
      <trkpt lat="50.4377" lon="1.66816">
        <ele>21</ele>
        <time>2009-04-21T08:02:45Z</time>
      </trkpt>
      <trkpt lat="50.43784" lon="1.66807">
        <ele>21</ele>
        <time>2009-04-21T08:02:47Z</time>
      </trkpt>
      <trkpt lat="50.43799" lon="1.66797">
        <ele>21</ele>
        <time>2009-04-21T08:02:49Z</time>
      </trkpt>
      <trkpt lat="50.43814" lon="1.66785">
        <ele>21</ele>
        <time>2009-04-21T08:02:51Z</time>
      </trkpt>
      <trkpt lat="50.43829" lon="1.66771">
        <ele>16</ele>
        <time>2009-04-21T08:02:53Z</time>
      </trkpt>
      <trkpt lat="50.43842" lon="1.66756">
        <ele>16</ele>
        <time>2009-04-21T08:02:55Z</time>
      </trkpt>
      <trkpt lat="50.43856" lon="1.66739">
        <ele>16</ele>
        <time>2009-04-21T08:02:57Z</time>
      </trkpt>
      <trkpt lat="50.43868" lon="1.6672">
        <ele>16</ele>
        <time>2009-04-21T08:02:59Z</time>
      </trkpt>
      <trkpt lat="50.4388" lon="1.66702">
        <ele>16</ele>
        <time>2009-04-21T08:03:01Z</time>
      </trkpt>
      <trkpt lat="50.43893" lon="1.66687">
        <ele>11</ele>
        <time>2009-04-21T08:03:03Z</time>
      </trkpt>
      <trkpt lat="50.43908" lon="1.66675">
        <ele>11</ele>
        <time>2009-04-21T08:03:05Z</time>
      </trkpt>
      <trkpt lat="50.43923" lon="1.66666">
        <ele>11</ele>
        <time>2009-04-21T08:03:07Z</time>
      </trkpt>
      <trkpt lat="50.43938" lon="1.6666">
        <ele>11</ele>
        <time>2009-04-21T08:03:09Z</time>
      </trkpt>
      <trkpt lat="50.43953" lon="1.66655">
        <ele>11</ele>
        <time>2009-04-21T08:03:11Z</time>
      </trkpt>
      <trkpt lat="50.43967" lon="1.6665">
        <ele>11</ele>
        <time>2009-04-21T08:03:13Z</time>
      </trkpt>
      <trkpt lat="50.4398" lon="1.66646">
        <ele>11</ele>
        <time>2009-04-21T08:03:15Z</time>
      </trkpt>
      <trkpt lat="50.43992" lon="1.6664">
        <ele>11</ele>
        <time>2009-04-21T08:03:17Z</time>
      </trkpt>
      <trkpt lat="50.44004" lon="1.66634">
        <ele>11</ele>
        <time>2009-04-21T08:03:19Z</time>
      </trkpt>
      <trkpt lat="50.44013" lon="1.66624">
        <ele>11</ele>
        <time>2009-04-21T08:03:21Z</time>
      </trkpt>
      <trkpt lat="50.44019" lon="1.66612">
        <ele>11</ele>
        <time>2009-04-21T08:03:23Z</time>
      </trkpt>
      <trkpt lat="50.44021" lon="1.66598">
        <ele>11</ele>
        <time>2009-04-21T08:03:25Z</time>
      </trkpt>
      <trkpt lat="50.44021" lon="1.66584">
        <ele>11</ele>
        <time>2009-04-21T08:03:27Z</time>
      </trkpt>
      <trkpt lat="50.4402" lon="1.66568">
        <ele>11</ele>
        <time>2009-04-21T08:03:29Z</time>
      </trkpt>
      <trkpt lat="50.4402" lon="1.66553">
        <ele>11</ele>
        <time>2009-04-21T08:03:31Z</time>
      </trkpt>
      <trkpt lat="50.4402" lon="1.66538">
        <ele>11</ele>
        <time>2009-04-21T08:03:33Z</time>
      </trkpt>
      <trkpt lat="50.44024" lon="1.66523">
        <ele>11</ele>
        <time>2009-04-21T08:03:35Z</time>
      </trkpt>
      <trkpt lat="50.44031" lon="1.66513">
        <ele>11</ele>
        <time>2009-04-21T08:03:37Z</time>
      </trkpt>
      <trkpt lat="50.44039" lon="1.66505">
        <ele>11</ele>
        <time>2009-04-21T08:03:39Z</time>
      </trkpt>
      <trkpt lat="50.44048" lon="1.665">
        <ele>11</ele>
        <time>2009-04-21T08:03:41Z</time>
      </trkpt>
      <trkpt lat="50.44058" lon="1.66496">
        <ele>11</ele>
        <time>2009-04-21T08:03:43Z</time>
      </trkpt>
      <trkpt lat="50.44066" lon="1.66489">
        <ele>11</ele>
        <time>2009-04-21T08:03:45Z</time>
      </trkpt>
      <trkpt lat="50.44076" lon="1.66482">
        <ele>11</ele>
        <time>2009-04-21T08:03:47Z</time>
      </trkpt>
      <trkpt lat="50.44084" lon="1.66473">
        <ele>11</ele>
        <time>2009-04-21T08:03:49Z</time>
      </trkpt>
      <trkpt lat="50.44093" lon="1.66464">
        <ele>11</ele>
        <time>2009-04-21T08:03:51Z</time>
      </trkpt>
      <trkpt lat="50.44101" lon="1.66454">
        <ele>11</ele>
        <time>2009-04-21T08:03:53Z</time>
      </trkpt>
      <trkpt lat="50.44109" lon="1.66443">
        <ele>16</ele>
        <time>2009-04-21T08:03:55Z</time>
      </trkpt>
      <trkpt lat="50.44115" lon="1.66433">
        <ele>16</ele>
        <time>2009-04-21T08:03:57Z</time>
      </trkpt>
      <trkpt lat="50.44122" lon="1.66422">
        <ele>16</ele>
        <time>2009-04-21T08:03:59Z</time>
      </trkpt>
      <trkpt lat="50.44128" lon="1.66412">
        <ele>16</ele>
        <time>2009-04-21T08:04:01Z</time>
      </trkpt>
      <trkpt lat="50.44135" lon="1.66401">
        <ele>16</ele>
        <time>2009-04-21T08:04:03Z</time>
      </trkpt>
      <trkpt lat="50.44141" lon="1.6639">
        <ele>16</ele>
        <time>2009-04-21T08:04:05Z</time>
      </trkpt>
      <trkpt lat="50.44148" lon="1.66379">
        <ele>16</ele>
        <time>2009-04-21T08:04:07Z</time>
      </trkpt>
      <trkpt lat="50.44154" lon="1.66367">
        <ele>16</ele>
        <time>2009-04-21T08:04:09Z</time>
      </trkpt>
      <trkpt lat="50.44162" lon="1.66355">
        <ele>16</ele>
        <time>2009-04-21T08:04:11Z</time>
      </trkpt>
      <trkpt lat="50.44169" lon="1.66344">
        <ele>16</ele>
        <time>2009-04-21T08:04:13Z</time>
      </trkpt>
      <trkpt lat="50.44176" lon="1.66332">
        <ele>16</ele>
        <time>2009-04-21T08:04:15Z</time>
      </trkpt>
      <trkpt lat="50.44182" lon="1.6632">
        <ele>16</ele>
        <time>2009-04-21T08:04:17Z</time>
      </trkpt>
      <trkpt lat="50.44188" lon="1.66307">
        <ele>16</ele>
        <time>2009-04-21T08:04:19Z</time>
      </trkpt>
      <trkpt lat="50.44193" lon="1.66293">
        <ele>16</ele>
        <time>2009-04-21T08:04:21Z</time>
      </trkpt>
      <trkpt lat="50.44199" lon="1.6628">
        <ele>16</ele>
        <time>2009-04-21T08:04:23Z</time>
      </trkpt>
      <trkpt lat="50.44206" lon="1.66266">
        <ele>16</ele>
        <time>2009-04-21T08:04:25Z</time>
      </trkpt>
      <trkpt lat="50.44211" lon="1.6625">
        <ele>16</ele>
        <time>2009-04-21T08:04:27Z</time>
      </trkpt>
      <trkpt lat="50.44218" lon="1.66234">
        <ele>16</ele>
        <time>2009-04-21T08:04:29Z</time>
      </trkpt>
      <trkpt lat="50.44224" lon="1.66217">
        <ele>16</ele>
        <time>2009-04-21T08:04:31Z</time>
      </trkpt>
      <trkpt lat="50.44231" lon="1.66199">
        <ele>16</ele>
        <time>2009-04-21T08:04:33Z</time>
      </trkpt>
      <trkpt lat="50.44239" lon="1.66181">
        <ele>16</ele>
        <time>2009-04-21T08:04:35Z</time>
      </trkpt>
      <trkpt lat="50.44246" lon="1.66164">
        <ele>16</ele>
        <time>2009-04-21T08:04:37Z</time>
      </trkpt>
      <trkpt lat="50.44254" lon="1.66146">
        <ele>16</ele>
        <time>2009-04-21T08:04:39Z</time>
      </trkpt>
      <trkpt lat="50.44262" lon="1.66129">
        <ele>16</ele>
        <time>2009-04-21T08:04:41Z</time>
      </trkpt>
      <trkpt lat="50.4427" lon="1.66113">
        <ele>16</ele>
        <time>2009-04-21T08:04:43Z</time>
      </trkpt>
      <trkpt lat="50.44279" lon="1.66097">
        <ele>16</ele>
        <time>2009-04-21T08:04:45Z</time>
      </trkpt>
      <trkpt lat="50.44288" lon="1.66081">
        <ele>16</ele>
        <time>2009-04-21T08:04:47Z</time>
      </trkpt>
      <trkpt lat="50.44297" lon="1.66065">
        <ele>16</ele>
        <time>2009-04-21T08:04:49Z</time>
      </trkpt>
      <trkpt lat="50.44308" lon="1.66051">
        <ele>16</ele>
        <time>2009-04-21T08:04:51Z</time>
      </trkpt>
      <trkpt lat="50.44319" lon="1.66037">
        <ele>16</ele>
        <time>2009-04-21T08:04:53Z</time>
      </trkpt>
      <trkpt lat="50.44329" lon="1.66025">
        <ele>16</ele>
        <time>2009-04-21T08:04:55Z</time>
      </trkpt>
      <trkpt lat="50.44341" lon="1.66013">
        <ele>16</ele>
        <time>2009-04-21T08:04:57Z</time>
      </trkpt>
      <trkpt lat="50.44354" lon="1.66002">
        <ele>16</ele>
        <time>2009-04-21T08:04:59Z</time>
      </trkpt>
      <trkpt lat="50.44367" lon="1.65992">
        <ele>11</ele>
        <time>2009-04-21T08:05:01Z</time>
      </trkpt>
      <trkpt lat="50.4438" lon="1.65981">
        <ele>11</ele>
        <time>2009-04-21T08:05:03Z</time>
      </trkpt>
      <trkpt lat="50.44393" lon="1.6597">
        <ele>11</ele>
        <time>2009-04-21T08:05:05Z</time>
      </trkpt>
      <trkpt lat="50.44406" lon="1.65958">
        <ele>11</ele>
        <time>2009-04-21T08:05:07Z</time>
      </trkpt>
      <trkpt lat="50.44419" lon="1.65948">
        <ele>11</ele>
        <time>2009-04-21T08:05:09Z</time>
      </trkpt>
      <trkpt lat="50.44432" lon="1.65937">
        <ele>11</ele>
        <time>2009-04-21T08:05:11Z</time>
      </trkpt>
      <trkpt lat="50.44444" lon="1.65927">
        <ele>11</ele>
        <time>2009-04-21T08:05:13Z</time>
      </trkpt>
      <trkpt lat="50.44456" lon="1.65917">
        <ele>11</ele>
        <time>2009-04-21T08:05:15Z</time>
      </trkpt>
      <trkpt lat="50.44467" lon="1.65908">
        <ele>11</ele>
        <time>2009-04-21T08:05:17Z</time>
      </trkpt>
      <trkpt lat="50.44477" lon="1.659">
        <ele>11</ele>
        <time>2009-04-21T08:05:19Z</time>
      </trkpt>
      <trkpt lat="50.44488" lon="1.65891">
        <ele>11</ele>
        <time>2009-04-21T08:05:21Z</time>
      </trkpt>
      <trkpt lat="50.44498" lon="1.65883">
        <ele>11</ele>
        <time>2009-04-21T08:05:23Z</time>
      </trkpt>
      <trkpt lat="50.44508" lon="1.65873">
        <ele>11</ele>
        <time>2009-04-21T08:05:25Z</time>
      </trkpt>
      <trkpt lat="50.44518" lon="1.65864">
        <ele>11</ele>
        <time>2009-04-21T08:05:27Z</time>
      </trkpt>
      <trkpt lat="50.44527" lon="1.65855">
        <ele>11</ele>
        <time>2009-04-21T08:05:29Z</time>
      </trkpt>
      <trkpt lat="50.44534" lon="1.65844">
        <ele>11</ele>
        <time>2009-04-21T08:05:31Z</time>
      </trkpt>
      <trkpt lat="50.44534" lon="1.6583">
        <ele>11</ele>
        <time>2009-04-21T08:05:34Z</time>
      </trkpt>
      <trkpt lat="50.44521" lon="1.65825">
        <ele>5</ele>
        <time>2009-04-21T08:05:37Z</time>
      </trkpt>
      <trkpt lat="50.4451" lon="1.6582">
        <ele>5</ele>
        <time>2009-04-21T08:05:39Z</time>
      </trkpt>
      <trkpt lat="50.44499" lon="1.65815">
        <ele>5</ele>
        <time>2009-04-21T08:05:41Z</time>
      </trkpt>
      <trkpt lat="50.44488" lon="1.65808">
        <ele>5</ele>
        <time>2009-04-21T08:05:43Z</time>
      </trkpt>
      <trkpt lat="50.44476" lon="1.65799">
        <ele>5</ele>
        <time>2009-04-21T08:05:45Z</time>
      </trkpt>
      <trkpt lat="50.44465" lon="1.65791">
        <ele>5</ele>
        <time>2009-04-21T08:05:47Z</time>
      </trkpt>
      <trkpt lat="50.44454" lon="1.65784">
        <ele>5</ele>
        <time>2009-04-21T08:05:49Z</time>
      </trkpt>
      <trkpt lat="50.44443" lon="1.65778">
        <ele>5</ele>
        <time>2009-04-21T08:05:51Z</time>
      </trkpt>
      <trkpt lat="50.44433" lon="1.65771">
        <ele>10</ele>
        <time>2009-04-21T08:05:53Z</time>
      </trkpt>
      <trkpt lat="50.44422" lon="1.65764">
        <ele>10</ele>
        <time>2009-04-21T08:05:55Z</time>
      </trkpt>
      <trkpt lat="50.44411" lon="1.65757">
        <ele>10</ele>
        <time>2009-04-21T08:05:57Z</time>
      </trkpt>
      <trkpt lat="50.44401" lon="1.65751">
        <ele>10</ele>
        <time>2009-04-21T08:05:59Z</time>
      </trkpt>
      <trkpt lat="50.44391" lon="1.65744">
        <ele>10</ele>
        <time>2009-04-21T08:06:01Z</time>
      </trkpt>
      <trkpt lat="50.44381" lon="1.65737">
        <ele>10</ele>
        <time>2009-04-21T08:06:03Z</time>
      </trkpt>
      <trkpt lat="50.4437" lon="1.65731">
        <ele>10</ele>
        <time>2009-04-21T08:06:05Z</time>
      </trkpt>
      <trkpt lat="50.4436" lon="1.65725">
        <ele>10</ele>
        <time>2009-04-21T08:06:07Z</time>
      </trkpt>
      <trkpt lat="50.44352" lon="1.65719">
        <ele>10</ele>
        <time>2009-04-21T08:06:09Z</time>
      </trkpt>
      <trkpt lat="50.44343" lon="1.65713">
        <ele>10</ele>
        <time>2009-04-21T08:06:11Z</time>
      </trkpt>
      <trkpt lat="50.44333" lon="1.65708">
        <ele>15</ele>
        <time>2009-04-21T08:06:13Z</time>
      </trkpt>
      <trkpt lat="50.44324" lon="1.65701">
        <ele>15</ele>
        <time>2009-04-21T08:06:15Z</time>
      </trkpt>
      <trkpt lat="50.44316" lon="1.65696">
        <ele>15</ele>
        <time>2009-04-21T08:06:17Z</time>
      </trkpt>
      <trkpt lat="50.44307" lon="1.65691">
        <ele>15</ele>
        <time>2009-04-21T08:06:19Z</time>
      </trkpt>
      <trkpt lat="50.44298" lon="1.65684">
        <ele>15</ele>
        <time>2009-04-21T08:06:21Z</time>
      </trkpt>
      <trkpt lat="50.4429" lon="1.65678">
        <ele>15</ele>
        <time>2009-04-21T08:06:23Z</time>
      </trkpt>
      <trkpt lat="50.44281" lon="1.65673">
        <ele>15</ele>
        <time>2009-04-21T08:06:25Z</time>
      </trkpt>
      <trkpt lat="50.44273" lon="1.65667">
        <ele>15</ele>
        <time>2009-04-21T08:06:27Z</time>
      </trkpt>
      <trkpt lat="50.44261" lon="1.65659">
        <ele>15</ele>
        <time>2009-04-21T08:06:30Z</time>
      </trkpt>
      <trkpt lat="50.44252" lon="1.65654">
        <ele>15</ele>
        <time>2009-04-21T08:06:32Z</time>
      </trkpt>
      <trkpt lat="50.4424" lon="1.65646">
        <ele>15</ele>
        <time>2009-04-21T08:06:35Z</time>
      </trkpt>
      <trkpt lat="50.44228" lon="1.65638">
        <ele>21</ele>
        <time>2009-04-21T08:06:38Z</time>
      </trkpt>
      <trkpt lat="50.44217" lon="1.6563">
        <ele>21</ele>
        <time>2009-04-21T08:06:41Z</time>
      </trkpt>
      <trkpt lat="50.44206" lon="1.65622">
        <ele>21</ele>
        <time>2009-04-21T08:06:44Z</time>
      </trkpt>
      <trkpt lat="50.44195" lon="1.65615">
        <ele>21</ele>
        <time>2009-04-21T08:06:47Z</time>
      </trkpt>
      <trkpt lat="50.44184" lon="1.65607">
        <ele>21</ele>
        <time>2009-04-21T08:06:50Z</time>
      </trkpt>
      <trkpt lat="50.44174" lon="1.65598">
        <ele>27</ele>
        <time>2009-04-21T08:06:53Z</time>
      </trkpt>
      <trkpt lat="50.44165" lon="1.65588">
        <ele>27</ele>
        <time>2009-04-21T08:06:56Z</time>
      </trkpt>
      <trkpt lat="50.44157" lon="1.65577">
        <ele>27</ele>
        <time>2009-04-21T08:06:59Z</time>
      </trkpt>
      <trkpt lat="50.44149" lon="1.65564">
        <ele>27</ele>
        <time>2009-04-21T08:07:02Z</time>
      </trkpt>
      <trkpt lat="50.44141" lon="1.65551">
        <ele>27</ele>
        <time>2009-04-21T08:07:05Z</time>
      </trkpt>
      <trkpt lat="50.44133" lon="1.65541">
        <ele>27</ele>
        <time>2009-04-21T08:07:08Z</time>
      </trkpt>
      <trkpt lat="50.44123" lon="1.65531">
        <ele>32</ele>
        <time>2009-04-21T08:07:11Z</time>
      </trkpt>
      <trkpt lat="50.44113" lon="1.65521">
        <ele>32</ele>
        <time>2009-04-21T08:07:14Z</time>
      </trkpt>
      <trkpt lat="50.44105" lon="1.65515">
        <ele>32</ele>
        <time>2009-04-21T08:07:16Z</time>
      </trkpt>
      <trkpt lat="50.44097" lon="1.65508">
        <ele>32</ele>
        <time>2009-04-21T08:07:18Z</time>
      </trkpt>
      <trkpt lat="50.44085" lon="1.65498">
        <ele>32</ele>
        <time>2009-04-21T08:07:21Z</time>
      </trkpt>
      <trkpt lat="50.44074" lon="1.65489">
        <ele>32</ele>
        <time>2009-04-21T08:07:24Z</time>
      </trkpt>
      <trkpt lat="50.44064" lon="1.6548">
        <ele>32</ele>
        <time>2009-04-21T08:07:27Z</time>
      </trkpt>
      <trkpt lat="50.44055" lon="1.65472">
        <ele>32</ele>
        <time>2009-04-21T08:07:30Z</time>
      </trkpt>
      <trkpt lat="50.44045" lon="1.65463">
        <ele>32</ele>
        <time>2009-04-21T08:07:33Z</time>
      </trkpt>
      <trkpt lat="50.44035" lon="1.65455">
        <ele>32</ele>
        <time>2009-04-21T08:07:36Z</time>
      </trkpt>
      <trkpt lat="50.44023" lon="1.65447">
        <ele>32</ele>
        <time>2009-04-21T08:07:39Z</time>
      </trkpt>
      <trkpt lat="50.44014" lon="1.65441">
        <ele>32</ele>
        <time>2009-04-21T08:07:41Z</time>
      </trkpt>
      <trkpt lat="50.44004" lon="1.65436">
        <ele>32</ele>
        <time>2009-04-21T08:07:43Z</time>
      </trkpt>
      <trkpt lat="50.43994" lon="1.65429">
        <ele>32</ele>
        <time>2009-04-21T08:07:45Z</time>
      </trkpt>
      <trkpt lat="50.43983" lon="1.65424">
        <ele>32</ele>
        <time>2009-04-21T08:07:47Z</time>
      </trkpt>
      <trkpt lat="50.43972" lon="1.65419">
        <ele>32</ele>
        <time>2009-04-21T08:07:49Z</time>
      </trkpt>
      <trkpt lat="50.43961" lon="1.65415">
        <ele>32</ele>
        <time>2009-04-21T08:07:51Z</time>
      </trkpt>
      <trkpt lat="50.43949" lon="1.65412">
        <ele>32</ele>
        <time>2009-04-21T08:07:53Z</time>
      </trkpt>
      <trkpt lat="50.43936" lon="1.65411">
        <ele>32</ele>
        <time>2009-04-21T08:07:55Z</time>
      </trkpt>
      <trkpt lat="50.43924" lon="1.65413">
        <ele>32</ele>
        <time>2009-04-21T08:07:57Z</time>
      </trkpt>
      <trkpt lat="50.43911" lon="1.65414">
        <ele>32</ele>
        <time>2009-04-21T08:07:59Z</time>
      </trkpt>
      <trkpt lat="50.43898" lon="1.65415">
        <ele>32</ele>
        <time>2009-04-21T08:08:01Z</time>
      </trkpt>
      <trkpt lat="50.43884" lon="1.65412">
        <ele>32</ele>
        <time>2009-04-21T08:08:03Z</time>
      </trkpt>
      <trkpt lat="50.4387" lon="1.65403">
        <ele>32</ele>
        <time>2009-04-21T08:08:05Z</time>
      </trkpt>
      <trkpt lat="50.43857" lon="1.6539">
        <ele>32</ele>
        <time>2009-04-21T08:08:07Z</time>
      </trkpt>
      <trkpt lat="50.43844" lon="1.65375">
        <ele>32</ele>
        <time>2009-04-21T08:08:09Z</time>
      </trkpt>
      <trkpt lat="50.4383" lon="1.65361">
        <ele>32</ele>
        <time>2009-04-21T08:08:11Z</time>
      </trkpt>
      <trkpt lat="50.43814" lon="1.65348">
        <ele>26</ele>
        <time>2009-04-21T08:08:13Z</time>
      </trkpt>
      <trkpt lat="50.43806" lon="1.65342">
        <ele>26</ele>
        <time>2009-04-21T08:08:14Z</time>
      </trkpt>
      <trkpt lat="50.43798" lon="1.65337">
        <ele>26</ele>
        <time>2009-04-21T08:08:15Z</time>
      </trkpt>
      <trkpt lat="50.43788" lon="1.6533">
        <ele>26</ele>
        <time>2009-04-21T08:08:16Z</time>
      </trkpt>
      <trkpt lat="50.4378" lon="1.65325">
        <ele>26</ele>
        <time>2009-04-21T08:08:17Z</time>
      </trkpt>
      <trkpt lat="50.43771" lon="1.65321">
        <ele>26</ele>
        <time>2009-04-21T08:08:18Z</time>
      </trkpt>
      <trkpt lat="50.43754" lon="1.65316">
        <ele>26</ele>
        <time>2009-04-21T08:08:20Z</time>
      </trkpt>
      <trkpt lat="50.4374" lon="1.65314">
        <ele>20</ele>
        <time>2009-04-21T08:08:22Z</time>
      </trkpt>
      <trkpt lat="50.43731" lon="1.65306">
        <ele>20</ele>
        <time>2009-04-21T08:08:24Z</time>
      </trkpt>
      <trkpt lat="50.4373" lon="1.65291">
        <ele>20</ele>
        <time>2009-04-21T08:08:26Z</time>
      </trkpt>
      <trkpt lat="50.43735" lon="1.65276">
        <ele>20</ele>
        <time>2009-04-21T08:08:28Z</time>
      </trkpt>
      <trkpt lat="50.4374" lon="1.65261">
        <ele>20</ele>
        <time>2009-04-21T08:08:30Z</time>
      </trkpt>
      <trkpt lat="50.43745" lon="1.65248">
        <ele>20</ele>
        <time>2009-04-21T08:08:32Z</time>
      </trkpt>
      <trkpt lat="50.43751" lon="1.65234">
        <ele>20</ele>
        <time>2009-04-21T08:08:34Z</time>
      </trkpt>
      <trkpt lat="50.43755" lon="1.65222">
        <ele>20</ele>
        <time>2009-04-21T08:08:36Z</time>
      </trkpt>
      <trkpt lat="50.43759" lon="1.65208">
        <ele>20</ele>
        <time>2009-04-21T08:08:38Z</time>
      </trkpt>
      <trkpt lat="50.43764" lon="1.65196">
        <ele>20</ele>
        <time>2009-04-21T08:08:40Z</time>
      </trkpt>
      <trkpt lat="50.4377" lon="1.65184">
        <ele>20</ele>
        <time>2009-04-21T08:08:42Z</time>
      </trkpt>
      <trkpt lat="50.43775" lon="1.65171">
        <ele>20</ele>
        <time>2009-04-21T08:08:44Z</time>
      </trkpt>
      <trkpt lat="50.43782" lon="1.65159">
        <ele>20</ele>
        <time>2009-04-21T08:08:46Z</time>
      </trkpt>
      <trkpt lat="50.43787" lon="1.65145">
        <ele>20</ele>
        <time>2009-04-21T08:08:48Z</time>
      </trkpt>
      <trkpt lat="50.43792" lon="1.65133">
        <ele>20</ele>
        <time>2009-04-21T08:08:50Z</time>
      </trkpt>
      <trkpt lat="50.43798" lon="1.6512">
        <ele>20</ele>
        <time>2009-04-21T08:08:52Z</time>
      </trkpt>
      <trkpt lat="50.43802" lon="1.65101">
        <ele>20</ele>
        <time>2009-04-21T08:08:55Z</time>
      </trkpt>
      <trkpt lat="50.43805" lon="1.65085">
        <ele>20</ele>
        <time>2009-04-21T08:08:57Z</time>
      </trkpt>
      <trkpt lat="50.4381" lon="1.65066">
        <ele>14</ele>
        <time>2009-04-21T08:08:59Z</time>
      </trkpt>
      <trkpt lat="50.43815" lon="1.65045">
        <ele>14</ele>
        <time>2009-04-21T08:09:01Z</time>
      </trkpt>
      <trkpt lat="50.43821" lon="1.65021">
        <ele>14</ele>
        <time>2009-04-21T08:09:03Z</time>
      </trkpt>
      <trkpt lat="50.43826" lon="1.64997">
        <ele>14</ele>
        <time>2009-04-21T08:09:05Z</time>
      </trkpt>
      <trkpt lat="50.4383" lon="1.64973">
        <ele>14</ele>
        <time>2009-04-21T08:09:07Z</time>
      </trkpt>
      <trkpt lat="50.43834" lon="1.64949">
        <ele>9</ele>
        <time>2009-04-21T08:09:09Z</time>
      </trkpt>
      <trkpt lat="50.43839" lon="1.64924">
        <ele>9</ele>
        <time>2009-04-21T08:09:11Z</time>
      </trkpt>
      <trkpt lat="50.43842" lon="1.64898">
        <ele>9</ele>
        <time>2009-04-21T08:09:13Z</time>
      </trkpt>
      <trkpt lat="50.43845" lon="1.64873">
        <ele>9</ele>
        <time>2009-04-21T08:09:15Z</time>
      </trkpt>
      <trkpt lat="50.43845" lon="1.64848">
        <ele>9</ele>
        <time>2009-04-21T08:09:17Z</time>
      </trkpt>
      <trkpt lat="50.43847" lon="1.64822">
        <ele>9</ele>
        <time>2009-04-21T08:09:19Z</time>
      </trkpt>
      <trkpt lat="50.43849" lon="1.64798">
        <ele>9</ele>
        <time>2009-04-21T08:09:21Z</time>
      </trkpt>
      <trkpt lat="50.43849" lon="1.64774">
        <ele>9</ele>
        <time>2009-04-21T08:09:23Z</time>
      </trkpt>
      <trkpt lat="50.43848" lon="1.64751">
        <ele>9</ele>
        <time>2009-04-21T08:09:25Z</time>
      </trkpt>
      <trkpt lat="50.43844" lon="1.64729">
        <ele>9</ele>
        <time>2009-04-21T08:09:27Z</time>
      </trkpt>
      <trkpt lat="50.43838" lon="1.64707">
        <ele>9</ele>
        <time>2009-04-21T08:09:29Z</time>
      </trkpt>
      <trkpt lat="50.43833" lon="1.64684">
        <ele>9</ele>
        <time>2009-04-21T08:09:31Z</time>
      </trkpt>
      <trkpt lat="50.43829" lon="1.6466">
        <ele>9</ele>
        <time>2009-04-21T08:09:33Z</time>
      </trkpt>
      <trkpt lat="50.43829" lon="1.64639">
        <ele>9</ele>
        <time>2009-04-21T08:09:35Z</time>
      </trkpt>
      <trkpt lat="50.43829" lon="1.64619">
        <ele>9</ele>
        <time>2009-04-21T08:09:37Z</time>
      </trkpt>
      <trkpt lat="50.43827" lon="1.64599">
        <ele>4</ele>
        <time>2009-04-21T08:09:39Z</time>
      </trkpt>
      <trkpt lat="50.43825" lon="1.64579">
        <ele>4</ele>
        <time>2009-04-21T08:09:41Z</time>
      </trkpt>
      <trkpt lat="50.43822" lon="1.64562">
        <ele>4</ele>
        <time>2009-04-21T08:09:43Z</time>
      </trkpt>
      <trkpt lat="50.43821" lon="1.64543">
        <ele>4</ele>
        <time>2009-04-21T08:09:45Z</time>
      </trkpt>
      <trkpt lat="50.43818" lon="1.64523">
        <ele>4</ele>
        <time>2009-04-21T08:09:47Z</time>
      </trkpt>
      <trkpt lat="50.43816" lon="1.64503">
        <ele>4</ele>
        <time>2009-04-21T08:09:49Z</time>
      </trkpt>
      <trkpt lat="50.43813" lon="1.64483">
        <ele>4</ele>
        <time>2009-04-21T08:09:51Z</time>
      </trkpt>
      <trkpt lat="50.4381" lon="1.64464">
        <ele>4</ele>
        <time>2009-04-21T08:09:53Z</time>
      </trkpt>
      <trkpt lat="50.4381" lon="1.64443">
        <ele>4</ele>
        <time>2009-04-21T08:09:55Z</time>
      </trkpt>
      <trkpt lat="50.43813" lon="1.64424">
        <ele>4</ele>
        <time>2009-04-21T08:09:57Z</time>
      </trkpt>
      <trkpt lat="50.43816" lon="1.64404">
        <ele>4</ele>
        <time>2009-04-21T08:09:59Z</time>
      </trkpt>
      <trkpt lat="50.43819" lon="1.64385">
        <ele>4</ele>
        <time>2009-04-21T08:10:01Z</time>
      </trkpt>
      <trkpt lat="50.43822" lon="1.64367">
        <ele>4</ele>
        <time>2009-04-21T08:10:03Z</time>
      </trkpt>
      <trkpt lat="50.43826" lon="1.64349">
        <ele>4</ele>
        <time>2009-04-21T08:10:05Z</time>
      </trkpt>
      <trkpt lat="50.43829" lon="1.6433">
        <ele>4</ele>
        <time>2009-04-21T08:10:07Z</time>
      </trkpt>
      <trkpt lat="50.43831" lon="1.6431">
        <ele>4</ele>
        <time>2009-04-21T08:10:09Z</time>
      </trkpt>
      <trkpt lat="50.43833" lon="1.64292">
        <ele>4</ele>
        <time>2009-04-21T08:10:11Z</time>
      </trkpt>
      <trkpt lat="50.43836" lon="1.64274">
        <ele>4</ele>
        <time>2009-04-21T08:10:13Z</time>
      </trkpt>
      <trkpt lat="50.4384" lon="1.64257">
        <ele>4</ele>
        <time>2009-04-21T08:10:15Z</time>
      </trkpt>
      <trkpt lat="50.43843" lon="1.6424">
        <ele>4</ele>
        <time>2009-04-21T08:10:17Z</time>
      </trkpt>
      <trkpt lat="50.43845" lon="1.64224">
        <ele>4</ele>
        <time>2009-04-21T08:10:19Z</time>
      </trkpt>
      <trkpt lat="50.43848" lon="1.64208">
        <ele>4</ele>
        <time>2009-04-21T08:10:21Z</time>
      </trkpt>
      <trkpt lat="50.43851" lon="1.64191">
        <ele>4</ele>
        <time>2009-04-21T08:10:23Z</time>
      </trkpt>
      <trkpt lat="50.43854" lon="1.64174">
        <ele>4</ele>
        <time>2009-04-21T08:10:25Z</time>
      </trkpt>
      <trkpt lat="50.43857" lon="1.64157">
        <ele>4</ele>
        <time>2009-04-21T08:10:27Z</time>
      </trkpt>
      <trkpt lat="50.4386" lon="1.6414">
        <ele>4</ele>
        <time>2009-04-21T08:10:29Z</time>
      </trkpt>
      <trkpt lat="50.43864" lon="1.64125">
        <ele>4</ele>
        <time>2009-04-21T08:10:31Z</time>
      </trkpt>
      <trkpt lat="50.43868" lon="1.64111">
        <ele>4</ele>
        <time>2009-04-21T08:10:33Z</time>
      </trkpt>
      <trkpt lat="50.43873" lon="1.64096">
        <ele>4</ele>
        <time>2009-04-21T08:10:35Z</time>
      </trkpt>
      <trkpt lat="50.43879" lon="1.64084">
        <ele>4</ele>
        <time>2009-04-21T08:10:37Z</time>
      </trkpt>
      <trkpt lat="50.43887" lon="1.64071">
        <ele>4</ele>
        <time>2009-04-21T08:10:40Z</time>
      </trkpt>
      <trkpt lat="50.43897" lon="1.64061">
        <ele>4</ele>
        <time>2009-04-21T08:10:43Z</time>
      </trkpt>
      <trkpt lat="50.43909" lon="1.64052">
        <ele>4</ele>
        <time>2009-04-21T08:10:46Z</time>
      </trkpt>
      <trkpt lat="50.43921" lon="1.64042">
        <ele>4</ele>
        <time>2009-04-21T08:10:49Z</time>
      </trkpt>
      <trkpt lat="50.43928" lon="1.64026">
        <ele>4</ele>
        <time>2009-04-21T08:10:52Z</time>
      </trkpt>
      <trkpt lat="50.43927" lon="1.64005">
        <ele>4</ele>
        <time>2009-04-21T08:10:55Z</time>
      </trkpt>
      <trkpt lat="50.43921" lon="1.63992">
        <ele>4</ele>
        <time>2009-04-21T08:10:57Z</time>
      </trkpt>
      <trkpt lat="50.43914" lon="1.63977">
        <ele>4</ele>
        <time>2009-04-21T08:10:59Z</time>
      </trkpt>
      <trkpt lat="50.43911" lon="1.63961">
        <ele>4</ele>
        <time>2009-04-21T08:11:01Z</time>
      </trkpt>
      <trkpt lat="50.43912" lon="1.63943">
        <ele>4</ele>
        <time>2009-04-21T08:11:03Z</time>
      </trkpt>
      <trkpt lat="50.43915" lon="1.63925">
        <ele>4</ele>
        <time>2009-04-21T08:11:05Z</time>
      </trkpt>
      <trkpt lat="50.43919" lon="1.63906">
        <ele>4</ele>
        <time>2009-04-21T08:11:07Z</time>
      </trkpt>
      <trkpt lat="50.43923" lon="1.63886">
        <ele>4</ele>
        <time>2009-04-21T08:11:09Z</time>
      </trkpt>
      <trkpt lat="50.43927" lon="1.63867">
        <ele>4</ele>
        <time>2009-04-21T08:11:11Z</time>
      </trkpt>
      <trkpt lat="50.43931" lon="1.63847">
        <ele>4</ele>
        <time>2009-04-21T08:11:13Z</time>
      </trkpt>
      <trkpt lat="50.43935" lon="1.63829">
        <ele>4</ele>
        <time>2009-04-21T08:11:15Z</time>
      </trkpt>
      <trkpt lat="50.43938" lon="1.63809">
        <ele>4</ele>
        <time>2009-04-21T08:11:17Z</time>
      </trkpt>
      <trkpt lat="50.4394" lon="1.6379">
        <ele>4</ele>
        <time>2009-04-21T08:11:19Z</time>
      </trkpt>
      <trkpt lat="50.43943" lon="1.6377">
        <ele>4</ele>
        <time>2009-04-21T08:11:21Z</time>
      </trkpt>
      <trkpt lat="50.43945" lon="1.63751">
        <ele>4</ele>
        <time>2009-04-21T08:11:23Z</time>
      </trkpt>
      <trkpt lat="50.43945" lon="1.63731">
        <ele>4</ele>
        <time>2009-04-21T08:11:25Z</time>
      </trkpt>
      <trkpt lat="50.43943" lon="1.63712">
        <ele>4</ele>
        <time>2009-04-21T08:11:27Z</time>
      </trkpt>
      <trkpt lat="50.43942" lon="1.63692">
        <ele>4</ele>
        <time>2009-04-21T08:11:29Z</time>
      </trkpt>
      <trkpt lat="50.4394" lon="1.63672">
        <ele>4</ele>
        <time>2009-04-21T08:11:31Z</time>
      </trkpt>
      <trkpt lat="50.43939" lon="1.63653">
        <ele>4</ele>
        <time>2009-04-21T08:11:33Z</time>
      </trkpt>
      <trkpt lat="50.4394" lon="1.63634">
        <ele>4</ele>
        <time>2009-04-21T08:11:35Z</time>
      </trkpt>
      <trkpt lat="50.43943" lon="1.63615">
        <ele>4</ele>
        <time>2009-04-21T08:11:37Z</time>
      </trkpt>
      <trkpt lat="50.43949" lon="1.63597">
        <ele>4</ele>
        <time>2009-04-21T08:11:39Z</time>
      </trkpt>
      <trkpt lat="50.43955" lon="1.63579">
        <ele>4</ele>
        <time>2009-04-21T08:11:41Z</time>
      </trkpt>
      <trkpt lat="50.43962" lon="1.63561">
        <ele>4</ele>
        <time>2009-04-21T08:11:43Z</time>
      </trkpt>
      <trkpt lat="50.43969" lon="1.63542">
        <ele>4</ele>
        <time>2009-04-21T08:11:45Z</time>
      </trkpt>
      <trkpt lat="50.43975" lon="1.63523">
        <ele>4</ele>
        <time>2009-04-21T08:11:47Z</time>
      </trkpt>
      <trkpt lat="50.43984" lon="1.63504">
        <ele>4</ele>
        <time>2009-04-21T08:11:49Z</time>
      </trkpt>
      <trkpt lat="50.4399" lon="1.63484">
        <ele>4</ele>
        <time>2009-04-21T08:11:51Z</time>
      </trkpt>
      <trkpt lat="50.43997" lon="1.63465">
        <ele>4</ele>
        <time>2009-04-21T08:11:53Z</time>
      </trkpt>
      <trkpt lat="50.44005" lon="1.63445">
        <ele>4</ele>
        <time>2009-04-21T08:11:55Z</time>
      </trkpt>
      <trkpt lat="50.44012" lon="1.63425">
        <ele>4</ele>
        <time>2009-04-21T08:11:57Z</time>
      </trkpt>
      <trkpt lat="50.44019" lon="1.63404">
        <ele>4</ele>
        <time>2009-04-21T08:11:59Z</time>
      </trkpt>
      <trkpt lat="50.44026" lon="1.63383">
        <ele>4</ele>
        <time>2009-04-21T08:12:01Z</time>
      </trkpt>
      <trkpt lat="50.44033" lon="1.63362">
        <ele>4</ele>
        <time>2009-04-21T08:12:03Z</time>
      </trkpt>
      <trkpt lat="50.4404" lon="1.63341">
        <ele>4</ele>
        <time>2009-04-21T08:12:05Z</time>
      </trkpt>
      <trkpt lat="50.44047" lon="1.6332">
        <ele>4</ele>
        <time>2009-04-21T08:12:07Z</time>
      </trkpt>
      <trkpt lat="50.44054" lon="1.63298">
        <ele>4</ele>
        <time>2009-04-21T08:12:09Z</time>
      </trkpt>
      <trkpt lat="50.4406" lon="1.63277">
        <ele>4</ele>
        <time>2009-04-21T08:12:11Z</time>
      </trkpt>
      <trkpt lat="50.44064" lon="1.63254">
        <ele>4</ele>
        <time>2009-04-21T08:12:13Z</time>
      </trkpt>
      <trkpt lat="50.44066" lon="1.6323">
        <ele>4</ele>
        <time>2009-04-21T08:12:15Z</time>
      </trkpt>
      <trkpt lat="50.44068" lon="1.63206">
        <ele>4</ele>
        <time>2009-04-21T08:12:17Z</time>
      </trkpt>
      <trkpt lat="50.4407" lon="1.63182">
        <ele>4</ele>
        <time>2009-04-21T08:12:19Z</time>
      </trkpt>
      <trkpt lat="50.44074" lon="1.63158">
        <ele>4</ele>
        <time>2009-04-21T08:12:21Z</time>
      </trkpt>
      <trkpt lat="50.44082" lon="1.63137">
        <ele>4</ele>
        <time>2009-04-21T08:12:23Z</time>
      </trkpt>
      <trkpt lat="50.44092" lon="1.63118">
        <ele>4</ele>
        <time>2009-04-21T08:12:25Z</time>
      </trkpt>
      <trkpt lat="50.44102" lon="1.63098">
        <ele>4</ele>
        <time>2009-04-21T08:12:27Z</time>
      </trkpt>
      <trkpt lat="50.44112" lon="1.63079">
        <ele>4</ele>
        <time>2009-04-21T08:12:29Z</time>
      </trkpt>
      <trkpt lat="50.44122" lon="1.63061">
        <ele>4</ele>
        <time>2009-04-21T08:12:31Z</time>
      </trkpt>
      <trkpt lat="50.4413" lon="1.63041">
        <ele>4</ele>
        <time>2009-04-21T08:12:33Z</time>
      </trkpt>
      <trkpt lat="50.44138" lon="1.63019">
        <ele>4</ele>
        <time>2009-04-21T08:12:35Z</time>
      </trkpt>
      <trkpt lat="50.44146" lon="1.62998">
        <ele>4</ele>
        <time>2009-04-21T08:12:37Z</time>
      </trkpt>
      <trkpt lat="50.44153" lon="1.62977">
        <ele>4</ele>
        <time>2009-04-21T08:12:39Z</time>
      </trkpt>
      <trkpt lat="50.44161" lon="1.62955">
        <ele>4</ele>
        <time>2009-04-21T08:12:41Z</time>
      </trkpt>
      <trkpt lat="50.44168" lon="1.62934">
        <ele>4</ele>
        <time>2009-04-21T08:12:43Z</time>
      </trkpt>
      <trkpt lat="50.44176" lon="1.62912">
        <ele>4</ele>
        <time>2009-04-21T08:12:45Z</time>
      </trkpt>
      <trkpt lat="50.44185" lon="1.62892">
        <ele>4</ele>
        <time>2009-04-21T08:12:47Z</time>
      </trkpt>
      <trkpt lat="50.44195" lon="1.62873">
        <ele>4</ele>
        <time>2009-04-21T08:12:49Z</time>
      </trkpt>
      <trkpt lat="50.44208" lon="1.62857">
        <ele>4</ele>
        <time>2009-04-21T08:12:51Z</time>
      </trkpt>
      <trkpt lat="50.44222" lon="1.62846">
        <ele>4</ele>
        <time>2009-04-21T08:12:53Z</time>
      </trkpt>
      <trkpt lat="50.44236" lon="1.62836">
        <ele>4</ele>
        <time>2009-04-21T08:12:55Z</time>
      </trkpt>
      <trkpt lat="50.44251" lon="1.62826">
        <ele>4</ele>
        <time>2009-04-21T08:12:57Z</time>
      </trkpt>
      <trkpt lat="50.44265" lon="1.62816">
        <ele>4</ele>
        <time>2009-04-21T08:12:59Z</time>
      </trkpt>
      <trkpt lat="50.44278" lon="1.62804">
        <ele>4</ele>
        <time>2009-04-21T08:13:01Z</time>
      </trkpt>
      <trkpt lat="50.4429" lon="1.62788">
        <ele>4</ele>
        <time>2009-04-21T08:13:03Z</time>
      </trkpt>
      <trkpt lat="50.44298" lon="1.62768">
        <ele>4</ele>
        <time>2009-04-21T08:13:05Z</time>
      </trkpt>
      <trkpt lat="50.44305" lon="1.62748">
        <ele>4</ele>
        <time>2009-04-21T08:13:07Z</time>
      </trkpt>
      <trkpt lat="50.4431" lon="1.62726">
        <ele>4</ele>
        <time>2009-04-21T08:13:09Z</time>
      </trkpt>
      <trkpt lat="50.44315" lon="1.62707">
        <ele>4</ele>
        <time>2009-04-21T08:13:11Z</time>
      </trkpt>
      <trkpt lat="50.4432" lon="1.62689">
        <ele>4</ele>
        <time>2009-04-21T08:13:13Z</time>
      </trkpt>
      <trkpt lat="50.44324" lon="1.62671">
        <ele>4</ele>
        <time>2009-04-21T08:13:15Z</time>
      </trkpt>
      <trkpt lat="50.44328" lon="1.62654">
        <ele>4</ele>
        <time>2009-04-21T08:13:17Z</time>
      </trkpt>
      <trkpt lat="50.44332" lon="1.62639">
        <ele>4</ele>
        <time>2009-04-21T08:13:19Z</time>
      </trkpt>
      <trkpt lat="50.44336" lon="1.62622">
        <ele>4</ele>
        <time>2009-04-21T08:13:21Z</time>
      </trkpt>
      <trkpt lat="50.44339" lon="1.62606">
        <ele>4</ele>
        <time>2009-04-21T08:13:23Z</time>
      </trkpt>
      <trkpt lat="50.4434" lon="1.62589">
        <ele>4</ele>
        <time>2009-04-21T08:13:25Z</time>
      </trkpt>
      <trkpt lat="50.44339" lon="1.62573">
        <ele>4</ele>
        <time>2009-04-21T08:13:27Z</time>
      </trkpt>
      <trkpt lat="50.44336" lon="1.62556">
        <ele>4</ele>
        <time>2009-04-21T08:13:29Z</time>
      </trkpt>
      <trkpt lat="50.44335" lon="1.62542">
        <ele>4</ele>
        <time>2009-04-21T08:13:31Z</time>
      </trkpt>
      <trkpt lat="50.44333" lon="1.62527">
        <ele>4</ele>
        <time>2009-04-21T08:13:33Z</time>
      </trkpt>
      <trkpt lat="50.44335" lon="1.62511">
        <ele>4</ele>
        <time>2009-04-21T08:13:35Z</time>
      </trkpt>
      <trkpt lat="50.44339" lon="1.62495">
        <ele>4</ele>
        <time>2009-04-21T08:13:37Z</time>
      </trkpt>
      <trkpt lat="50.44347" lon="1.62481">
        <ele>4</ele>
        <time>2009-04-21T08:13:39Z</time>
      </trkpt>
      <trkpt lat="50.44358" lon="1.62471">
        <ele>4</ele>
        <time>2009-04-21T08:13:41Z</time>
      </trkpt>
      <trkpt lat="50.44368" lon="1.62462">
        <ele>4</ele>
        <time>2009-04-21T08:13:43Z</time>
      </trkpt>
      <trkpt lat="50.44379" lon="1.62451">
        <ele>4</ele>
        <time>2009-04-21T08:13:45Z</time>
      </trkpt>
      <trkpt lat="50.44389" lon="1.6244">
        <ele>4</ele>
        <time>2009-04-21T08:13:47Z</time>
      </trkpt>
      <trkpt lat="50.44399" lon="1.62426">
        <ele>4</ele>
        <time>2009-04-21T08:13:49Z</time>
      </trkpt>
      <trkpt lat="50.44407" lon="1.62412">
        <ele>4</ele>
        <time>2009-04-21T08:13:51Z</time>
      </trkpt>
      <trkpt lat="50.44415" lon="1.62396">
        <ele>4</ele>
        <time>2009-04-21T08:13:53Z</time>
      </trkpt>
      <trkpt lat="50.44423" lon="1.6238">
        <ele>4</ele>
        <time>2009-04-21T08:13:55Z</time>
      </trkpt>
      <trkpt lat="50.4443" lon="1.62362">
        <ele>4</ele>
        <time>2009-04-21T08:13:57Z</time>
      </trkpt>
      <trkpt lat="50.44437" lon="1.62344">
        <ele>4</ele>
        <time>2009-04-21T08:13:59Z</time>
      </trkpt>
      <trkpt lat="50.44443" lon="1.62326">
        <ele>4</ele>
        <time>2009-04-21T08:14:01Z</time>
      </trkpt>
      <trkpt lat="50.44448" lon="1.62306">
        <ele>4</ele>
        <time>2009-04-21T08:14:03Z</time>
      </trkpt>
      <trkpt lat="50.44452" lon="1.62286">
        <ele>4</ele>
        <time>2009-04-21T08:14:05Z</time>
      </trkpt>
      <trkpt lat="50.44457" lon="1.62266">
        <ele>4</ele>
        <time>2009-04-21T08:14:07Z</time>
      </trkpt>
      <trkpt lat="50.44463" lon="1.62247">
        <ele>4</ele>
        <time>2009-04-21T08:14:09Z</time>
      </trkpt>
      <trkpt lat="50.44468" lon="1.62228">
        <ele>4</ele>
        <time>2009-04-21T08:14:11Z</time>
      </trkpt>
      <trkpt lat="50.44472" lon="1.6221">
        <ele>4</ele>
        <time>2009-04-21T08:14:13Z</time>
      </trkpt>
      <trkpt lat="50.44477" lon="1.62192">
        <ele>4</ele>
        <time>2009-04-21T08:14:15Z</time>
      </trkpt>
      <trkpt lat="50.44484" lon="1.62177">
        <ele>4</ele>
        <time>2009-04-21T08:14:17Z</time>
      </trkpt>
      <trkpt lat="50.44492" lon="1.62168">
        <ele>4</ele>
        <time>2009-04-21T08:14:19Z</time>
      </trkpt>
      <trkpt lat="50.445" lon="1.6215">
        <ele>4</ele>
        <time>2009-04-21T08:14:22Z</time>
      </trkpt>
      <trkpt lat="50.44506" lon="1.62139">
        <ele>4</ele>
        <time>2009-04-21T08:14:24Z</time>
      </trkpt>
      <trkpt lat="50.44512" lon="1.62127">
        <ele>4</ele>
        <time>2009-04-21T08:14:26Z</time>
      </trkpt>
      <trkpt lat="50.44518" lon="1.62114">
        <ele>4</ele>
        <time>2009-04-21T08:14:28Z</time>
      </trkpt>
      <trkpt lat="50.44522" lon="1.62098">
        <ele>4</ele>
        <time>2009-04-21T08:14:30Z</time>
      </trkpt>
      <trkpt lat="50.44523" lon="1.62082">
        <ele>4</ele>
        <time>2009-04-21T08:14:32Z</time>
      </trkpt>
      <trkpt lat="50.44523" lon="1.62066">
        <ele>4</ele>
        <time>2009-04-21T08:14:34Z</time>
      </trkpt>
      <trkpt lat="50.44522" lon="1.6205">
        <ele>4</ele>
        <time>2009-04-21T08:14:36Z</time>
      </trkpt>
      <trkpt lat="50.44522" lon="1.62034">
        <ele>4</ele>
        <time>2009-04-21T08:14:38Z</time>
      </trkpt>
      <trkpt lat="50.44522" lon="1.62017">
        <ele>4</ele>
        <time>2009-04-21T08:14:40Z</time>
      </trkpt>
      <trkpt lat="50.4452" lon="1.62001">
        <ele>4</ele>
        <time>2009-04-21T08:14:42Z</time>
      </trkpt>
      <trkpt lat="50.4452" lon="1.61986">
        <ele>4</ele>
        <time>2009-04-21T08:14:44Z</time>
      </trkpt>
      <trkpt lat="50.4452" lon="1.61971">
        <ele>4</ele>
        <time>2009-04-21T08:14:46Z</time>
      </trkpt>
      <trkpt lat="50.4452" lon="1.61951">
        <ele>4</ele>
        <time>2009-04-21T08:14:49Z</time>
      </trkpt>
      <trkpt lat="50.4452" lon="1.6193">
        <ele>4</ele>
        <time>2009-04-21T08:14:52Z</time>
      </trkpt>
      <trkpt lat="50.44521" lon="1.61916">
        <ele>4</ele>
        <time>2009-04-21T08:14:54Z</time>
      </trkpt>
      <trkpt lat="50.4452" lon="1.61901">
        <ele>4</ele>
        <time>2009-04-21T08:14:56Z</time>
      </trkpt>
      <trkpt lat="50.4452" lon="1.61885">
        <ele>4</ele>
        <time>2009-04-21T08:14:58Z</time>
      </trkpt>
      <trkpt lat="50.4452" lon="1.6187">
        <ele>4</ele>
        <time>2009-04-21T08:15:00Z</time>
      </trkpt>
      <trkpt lat="50.4452" lon="1.61853">
        <ele>4</ele>
        <time>2009-04-21T08:15:03Z</time>
      </trkpt>
      <trkpt lat="50.44522" lon="1.61839">
        <ele>4</ele>
        <time>2009-04-21T08:15:06Z</time>
      </trkpt>
      <trkpt lat="50.4452" lon="1.61824">
        <ele>4</ele>
        <time>2009-04-21T08:15:09Z</time>
      </trkpt>
      <trkpt lat="50.4452" lon="1.61807">
        <ele>4</ele>
        <time>2009-04-21T08:15:13Z</time>
      </trkpt>
      <trkpt lat="50.4452" lon="1.61791">
        <ele>4</ele>
        <time>2009-04-21T08:15:17Z</time>
      </trkpt>
      <trkpt lat="50.44522" lon="1.61774">
        <ele>4</ele>
        <time>2009-04-21T08:15:22Z</time>
      </trkpt>
      <trkpt lat="50.44533" lon="1.61769">
        <ele>4</ele>
        <time>2009-04-21T08:15:27Z</time>
      </trkpt>
      <trkpt lat="50.44542" lon="1.6177">
        <ele>4</ele>
        <time>2009-04-21T08:15:30Z</time>
      </trkpt>
      <trkpt lat="50.44553" lon="1.6177">
        <ele>4</ele>
        <time>2009-04-21T08:15:33Z</time>
      </trkpt>
      <trkpt lat="50.44564" lon="1.61769">
        <ele>4</ele>
        <time>2009-04-21T08:15:36Z</time>
      </trkpt>
      <trkpt lat="50.44575" lon="1.61768">
        <ele>4</ele>
        <time>2009-04-21T08:15:39Z</time>
      </trkpt>
      <trkpt lat="50.44586" lon="1.61766">
        <ele>4</ele>
        <time>2009-04-21T08:15:42Z</time>
      </trkpt>
      <trkpt lat="50.44598" lon="1.61764">
        <ele>4</ele>
        <time>2009-04-21T08:15:45Z</time>
      </trkpt>
      <trkpt lat="50.44611" lon="1.61761">
        <ele>4</ele>
        <time>2009-04-21T08:15:48Z</time>
      </trkpt>
      <trkpt lat="50.44623" lon="1.61752">
        <ele>4</ele>
        <time>2009-04-21T08:15:51Z</time>
      </trkpt>
      <trkpt lat="50.44631" lon="1.61746">
        <ele>4</ele>
        <time>2009-04-21T08:15:53Z</time>
      </trkpt>
      <trkpt lat="50.4464" lon="1.61739">
        <ele>4</ele>
        <time>2009-04-21T08:15:55Z</time>
      </trkpt>
      <trkpt lat="50.4465" lon="1.61732">
        <ele>4</ele>
        <time>2009-04-21T08:15:57Z</time>
      </trkpt>
      <trkpt lat="50.44659" lon="1.61725">
        <ele>4</ele>
        <time>2009-04-21T08:15:59Z</time>
      </trkpt>
      <trkpt lat="50.4467" lon="1.61717">
        <ele>4</ele>
        <time>2009-04-21T08:16:01Z</time>
      </trkpt>
      <trkpt lat="50.4468" lon="1.6171">
        <ele>4</ele>
        <time>2009-04-21T08:16:03Z</time>
      </trkpt>
      <trkpt lat="50.44691" lon="1.61703">
        <ele>4</ele>
        <time>2009-04-21T08:16:05Z</time>
      </trkpt>
      <trkpt lat="50.44702" lon="1.61695">
        <ele>4</ele>
        <time>2009-04-21T08:16:07Z</time>
      </trkpt>
      <trkpt lat="50.44714" lon="1.61687">
        <ele>4</ele>
        <time>2009-04-21T08:16:09Z</time>
      </trkpt>
      <trkpt lat="50.44726" lon="1.61678">
        <ele>4</ele>
        <time>2009-04-21T08:16:11Z</time>
      </trkpt>
      <trkpt lat="50.44737" lon="1.61669">
        <ele>4</ele>
        <time>2009-04-21T08:16:13Z</time>
      </trkpt>
      <trkpt lat="50.44748" lon="1.61661">
        <ele>4</ele>
        <time>2009-04-21T08:16:15Z</time>
      </trkpt>
      <trkpt lat="50.4476" lon="1.61654">
        <ele>4</ele>
        <time>2009-04-21T08:16:17Z</time>
      </trkpt>
      <trkpt lat="50.44771" lon="1.61646">
        <ele>4</ele>
        <time>2009-04-21T08:16:19Z</time>
      </trkpt>
      <trkpt lat="50.44783" lon="1.61638">
        <ele>4</ele>
        <time>2009-04-21T08:16:21Z</time>
      </trkpt>
      <trkpt lat="50.44795" lon="1.6163">
        <ele>4</ele>
        <time>2009-04-21T08:16:23Z</time>
      </trkpt>
      <trkpt lat="50.44806" lon="1.61621">
        <ele>4</ele>
        <time>2009-04-21T08:16:25Z</time>
      </trkpt>
      <trkpt lat="50.44818" lon="1.61613">
        <ele>4</ele>
        <time>2009-04-21T08:16:27Z</time>
      </trkpt>
      <trkpt lat="50.4483" lon="1.61604">
        <ele>4</ele>
        <time>2009-04-21T08:16:29Z</time>
      </trkpt>
      <trkpt lat="50.44842" lon="1.61596">
        <ele>4</ele>
        <time>2009-04-21T08:16:31Z</time>
      </trkpt>
      <trkpt lat="50.44854" lon="1.61588">
        <ele>4</ele>
        <time>2009-04-21T08:16:33Z</time>
      </trkpt>
      <trkpt lat="50.44866" lon="1.61579">
        <ele>4</ele>
        <time>2009-04-21T08:16:35Z</time>
      </trkpt>
      <trkpt lat="50.44878" lon="1.61572">
        <ele>4</ele>
        <time>2009-04-21T08:16:37Z</time>
      </trkpt>
      <trkpt lat="50.4489" lon="1.61564">
        <ele>4</ele>
        <time>2009-04-21T08:16:39Z</time>
      </trkpt>
      <trkpt lat="50.44903" lon="1.61557">
        <ele>4</ele>
        <time>2009-04-21T08:16:41Z</time>
      </trkpt>
      <trkpt lat="50.44916" lon="1.61551">
        <ele>4</ele>
        <time>2009-04-21T08:16:43Z</time>
      </trkpt>
      <trkpt lat="50.44929" lon="1.61547">
        <ele>4</ele>
        <time>2009-04-21T08:16:45Z</time>
      </trkpt>
      <trkpt lat="50.44943" lon="1.61543">
        <ele>4</ele>
        <time>2009-04-21T08:16:47Z</time>
      </trkpt>
      <trkpt lat="50.44956" lon="1.6154">
        <ele>4</ele>
        <time>2009-04-21T08:16:49Z</time>
      </trkpt>
      <trkpt lat="50.4497" lon="1.61537">
        <ele>4</ele>
        <time>2009-04-21T08:16:51Z</time>
      </trkpt>
      <trkpt lat="50.44983" lon="1.61533">
        <ele>4</ele>
        <time>2009-04-21T08:16:53Z</time>
      </trkpt>
      <trkpt lat="50.44996" lon="1.61527">
        <ele>4</ele>
        <time>2009-04-21T08:16:55Z</time>
      </trkpt>
      <trkpt lat="50.45009" lon="1.61522">
        <ele>4</ele>
        <time>2009-04-21T08:16:57Z</time>
      </trkpt>
      <trkpt lat="50.45018" lon="1.61516">
        <ele>4</ele>
        <time>2009-04-21T08:16:59Z</time>
      </trkpt>
      <trkpt lat="50.45023" lon="1.61499">
        <ele>4</ele>
        <time>2009-04-21T08:17:02Z</time>
      </trkpt>
      <trkpt lat="50.45022" lon="1.61483">
        <ele>4</ele>
        <time>2009-04-21T08:17:04Z</time>
      </trkpt>
      <trkpt lat="50.45023" lon="1.61466">
        <ele>4</ele>
        <time>2009-04-21T08:17:06Z</time>
      </trkpt>
      <trkpt lat="50.45024" lon="1.61448">
        <ele>4</ele>
        <time>2009-04-21T08:17:08Z</time>
      </trkpt>
      <trkpt lat="50.45026" lon="1.61432">
        <ele>4</ele>
        <time>2009-04-21T08:17:10Z</time>
      </trkpt>
      <trkpt lat="50.45028" lon="1.61413">
        <ele>4</ele>
        <time>2009-04-21T08:17:12Z</time>
      </trkpt>
      <trkpt lat="50.4503" lon="1.61393">
        <ele>4</ele>
        <time>2009-04-21T08:17:14Z</time>
      </trkpt>
      <trkpt lat="50.45034" lon="1.61374">
        <ele>4</ele>
        <time>2009-04-21T08:17:16Z</time>
      </trkpt>
      <trkpt lat="50.45038" lon="1.61355">
        <ele>4</ele>
        <time>2009-04-21T08:17:18Z</time>
      </trkpt>
      <trkpt lat="50.45045" lon="1.61338">
        <ele>4</ele>
        <time>2009-04-21T08:17:20Z</time>
      </trkpt>
      <trkpt lat="50.45054" lon="1.61326">
        <ele>4</ele>
        <time>2009-04-21T08:17:22Z</time>
      </trkpt>
      <trkpt lat="50.45064" lon="1.61312">
        <ele>4</ele>
        <time>2009-04-21T08:17:24Z</time>
      </trkpt>
      <trkpt lat="50.45072" lon="1.61297">
        <ele>4</ele>
        <time>2009-04-21T08:17:26Z</time>
      </trkpt>
      <trkpt lat="50.45081" lon="1.61282">
        <ele>4</ele>
        <time>2009-04-21T08:17:28Z</time>
      </trkpt>
      <trkpt lat="50.45091" lon="1.61269">
        <ele>4</ele>
        <time>2009-04-21T08:17:30Z</time>
      </trkpt>
      <trkpt lat="50.45101" lon="1.61255">
        <ele>4</ele>
        <time>2009-04-21T08:17:32Z</time>
      </trkpt>
      <trkpt lat="50.4511" lon="1.6124">
        <ele>4</ele>
        <time>2009-04-21T08:17:34Z</time>
      </trkpt>
      <trkpt lat="50.45119" lon="1.61225">
        <ele>4</ele>
        <time>2009-04-21T08:17:36Z</time>
      </trkpt>
      <trkpt lat="50.4513" lon="1.61213">
        <ele>4</ele>
        <time>2009-04-21T08:17:38Z</time>
      </trkpt>
      <trkpt lat="50.45139" lon="1.61201">
        <ele>4</ele>
        <time>2009-04-21T08:17:40Z</time>
      </trkpt>
      <trkpt lat="50.45149" lon="1.6119">
        <ele>4</ele>
        <time>2009-04-21T08:17:42Z</time>
      </trkpt>
      <trkpt lat="50.45158" lon="1.61178">
        <ele>4</ele>
        <time>2009-04-21T08:17:44Z</time>
      </trkpt>
      <trkpt lat="50.45169" lon="1.61167">
        <ele>4</ele>
        <time>2009-04-21T08:17:46Z</time>
      </trkpt>
      <trkpt lat="50.45179" lon="1.61155">
        <ele>4</ele>
        <time>2009-04-21T08:17:48Z</time>
      </trkpt>
      <trkpt lat="50.45189" lon="1.61147">
        <ele>4</ele>
        <time>2009-04-21T08:17:50Z</time>
      </trkpt>
      <trkpt lat="50.45198" lon="1.61136">
        <ele>4</ele>
        <time>2009-04-21T08:17:52Z</time>
      </trkpt>
      <trkpt lat="50.45201" lon="1.61123">
        <ele>4</ele>
        <time>2009-04-21T08:17:54Z</time>
      </trkpt>
      <trkpt lat="50.45197" lon="1.61106">
        <ele>4</ele>
        <time>2009-04-21T08:17:56Z</time>
      </trkpt>
      <trkpt lat="50.45192" lon="1.61085">
        <ele>4</ele>
        <time>2009-04-21T08:17:58Z</time>
      </trkpt>
      <trkpt lat="50.45189" lon="1.61065">
        <ele>4</ele>
        <time>2009-04-21T08:18:00Z</time>
      </trkpt>
      <trkpt lat="50.45185" lon="1.61044">
        <ele>4</ele>
        <time>2009-04-21T08:18:02Z</time>
      </trkpt>
      <trkpt lat="50.45179" lon="1.61026">
        <ele>4</ele>
        <time>2009-04-21T08:18:04Z</time>
      </trkpt>
      <trkpt lat="50.45175" lon="1.61006">
        <ele>4</ele>
        <time>2009-04-21T08:18:06Z</time>
      </trkpt>
      <trkpt lat="50.45176" lon="1.60984">
        <ele>4</ele>
        <time>2009-04-21T08:18:08Z</time>
      </trkpt>
      <trkpt lat="50.45182" lon="1.60967">
        <ele>4</ele>
        <time>2009-04-21T08:18:10Z</time>
      </trkpt>
      <trkpt lat="50.45188" lon="1.60951">
        <ele>4</ele>
        <time>2009-04-21T08:18:12Z</time>
      </trkpt>
      <trkpt lat="50.45194" lon="1.60937">
        <ele>4</ele>
        <time>2009-04-21T08:18:14Z</time>
      </trkpt>
      <trkpt lat="50.45201" lon="1.60923">
        <ele>4</ele>
        <time>2009-04-21T08:18:16Z</time>
      </trkpt>
      <trkpt lat="50.4521" lon="1.6091">
        <ele>4</ele>
        <time>2009-04-21T08:18:18Z</time>
      </trkpt>
      <trkpt lat="50.45217" lon="1.60895">
        <ele>4</ele>
        <time>2009-04-21T08:18:20Z</time>
      </trkpt>
      <trkpt lat="50.45224" lon="1.60878">
        <ele>4</ele>
        <time>2009-04-21T08:18:22Z</time>
      </trkpt>
      <trkpt lat="50.45231" lon="1.60861">
        <ele>4</ele>
        <time>2009-04-21T08:18:24Z</time>
      </trkpt>
      <trkpt lat="50.45237" lon="1.60844">
        <ele>4</ele>
        <time>2009-04-21T08:18:26Z</time>
      </trkpt>
      <trkpt lat="50.45243" lon="1.60825">
        <ele>4</ele>
        <time>2009-04-21T08:18:28Z</time>
      </trkpt>
      <trkpt lat="50.45247" lon="1.60807">
        <ele>4</ele>
        <time>2009-04-21T08:18:30Z</time>
      </trkpt>
      <trkpt lat="50.45251" lon="1.60791">
        <ele>4</ele>
        <time>2009-04-21T08:18:32Z</time>
      </trkpt>
      <trkpt lat="50.45255" lon="1.60778">
        <ele>4</ele>
        <time>2009-04-21T08:18:34Z</time>
      </trkpt>
      <trkpt lat="50.45261" lon="1.60767">
        <ele>4</ele>
        <time>2009-04-21T08:18:36Z</time>
      </trkpt>
      <trkpt lat="50.45271" lon="1.60755">
        <ele>4</ele>
        <time>2009-04-21T08:18:39Z</time>
      </trkpt>
      <trkpt lat="50.45281" lon="1.60745">
        <ele>4</ele>
        <time>2009-04-21T08:18:42Z</time>
      </trkpt>
      <trkpt lat="50.45291" lon="1.60738">
        <ele>4</ele>
        <time>2009-04-21T08:18:45Z</time>
      </trkpt>
      <trkpt lat="50.45302" lon="1.60735">
        <ele>4</ele>
        <time>2009-04-21T08:18:48Z</time>
      </trkpt>
      <trkpt lat="50.4531" lon="1.60727">
        <ele>4</ele>
        <time>2009-04-21T08:18:51Z</time>
      </trkpt>
      <trkpt lat="50.45317" lon="1.6071">
        <ele>4</ele>
        <time>2009-04-21T08:18:54Z</time>
      </trkpt>
      <trkpt lat="50.45322" lon="1.60694">
        <ele>4</ele>
        <time>2009-04-21T08:18:57Z</time>
      </trkpt>
      <trkpt lat="50.45327" lon="1.60677">
        <ele>4</ele>
        <time>2009-04-21T08:19:00Z</time>
      </trkpt>
      <trkpt lat="50.45334" lon="1.60661">
        <ele>4</ele>
        <time>2009-04-21T08:19:03Z</time>
      </trkpt>
      <trkpt lat="50.45341" lon="1.60646">
        <ele>4</ele>
        <time>2009-04-21T08:19:06Z</time>
      </trkpt>
      <trkpt lat="50.45346" lon="1.60629">
        <ele>4</ele>
        <time>2009-04-21T08:19:09Z</time>
      </trkpt>
      <trkpt lat="50.45351" lon="1.60611">
        <ele>4</ele>
        <time>2009-04-21T08:19:12Z</time>
      </trkpt>
      <trkpt lat="50.45356" lon="1.60592">
        <ele>4</ele>
        <time>2009-04-21T08:19:15Z</time>
      </trkpt>
      <trkpt lat="50.4536" lon="1.60572">
        <ele>4</ele>
        <time>2009-04-21T08:19:18Z</time>
      </trkpt>
      <trkpt lat="50.45361" lon="1.60556">
        <ele>4</ele>
        <time>2009-04-21T08:19:20Z</time>
      </trkpt>
      <trkpt lat="50.45364" lon="1.60542">
        <ele>9</ele>
        <time>2009-04-21T08:19:22Z</time>
      </trkpt>
      <trkpt lat="50.4537" lon="1.6053">
        <ele>9</ele>
        <time>2009-04-21T08:19:24Z</time>
      </trkpt>
      <trkpt lat="50.45379" lon="1.60521">
        <ele>9</ele>
        <time>2009-04-21T08:19:26Z</time>
      </trkpt>
      <trkpt lat="50.4539" lon="1.60517">
        <ele>9</ele>
        <time>2009-04-21T08:19:28Z</time>
      </trkpt>
      <trkpt lat="50.45401" lon="1.60515">
        <ele>9</ele>
        <time>2009-04-21T08:19:30Z</time>
      </trkpt>
      <trkpt lat="50.45414" lon="1.60511">
        <ele>9</ele>
        <time>2009-04-21T08:19:32Z</time>
      </trkpt>
      <trkpt lat="50.45426" lon="1.60507">
        <ele>9</ele>
        <time>2009-04-21T08:19:34Z</time>
      </trkpt>
      <trkpt lat="50.45439" lon="1.60504">
        <ele>9</ele>
        <time>2009-04-21T08:19:36Z</time>
      </trkpt>
      <trkpt lat="50.45451" lon="1.60499">
        <ele>9</ele>
        <time>2009-04-21T08:19:38Z</time>
      </trkpt>
      <trkpt lat="50.45463" lon="1.60496">
        <ele>9</ele>
        <time>2009-04-21T08:19:40Z</time>
      </trkpt>
      <trkpt lat="50.45476" lon="1.60492">
        <ele>9</ele>
        <time>2009-04-21T08:19:42Z</time>
      </trkpt>
      <trkpt lat="50.45488" lon="1.60487">
        <ele>9</ele>
        <time>2009-04-21T08:19:44Z</time>
      </trkpt>
      <trkpt lat="50.455" lon="1.60481">
        <ele>9</ele>
        <time>2009-04-21T08:19:46Z</time>
      </trkpt>
      <trkpt lat="50.45512" lon="1.60476">
        <ele>9</ele>
        <time>2009-04-21T08:19:48Z</time>
      </trkpt>
      <trkpt lat="50.45523" lon="1.60469">
        <ele>9</ele>
        <time>2009-04-21T08:19:50Z</time>
      </trkpt>
      <trkpt lat="50.45534" lon="1.60462">
        <ele>9</ele>
        <time>2009-04-21T08:19:52Z</time>
      </trkpt>
      <trkpt lat="50.45545" lon="1.60458">
        <ele>9</ele>
        <time>2009-04-21T08:19:54Z</time>
      </trkpt>
      <trkpt lat="50.45556" lon="1.60456">
        <ele>9</ele>
        <time>2009-04-21T08:19:56Z</time>
      </trkpt>
      <trkpt lat="50.45567" lon="1.60457">
        <ele>9</ele>
        <time>2009-04-21T08:19:58Z</time>
      </trkpt>
      <trkpt lat="50.45578" lon="1.60459">
        <ele>9</ele>
        <time>2009-04-21T08:20:00Z</time>
      </trkpt>
      <trkpt lat="50.45588" lon="1.60463">
        <ele>9</ele>
        <time>2009-04-21T08:20:02Z</time>
      </trkpt>
      <trkpt lat="50.45599" lon="1.60472">
        <ele>9</ele>
        <time>2009-04-21T08:20:04Z</time>
      </trkpt>
      <trkpt lat="50.45608" lon="1.60484">
        <ele>9</ele>
        <time>2009-04-21T08:20:06Z</time>
      </trkpt>
      <trkpt lat="50.45616" lon="1.60497">
        <ele>9</ele>
        <time>2009-04-21T08:20:08Z</time>
      </trkpt>
      <trkpt lat="50.45623" lon="1.6051">
        <ele>9</ele>
        <time>2009-04-21T08:20:10Z</time>
      </trkpt>
      <trkpt lat="50.4563" lon="1.60523">
        <ele>9</ele>
        <time>2009-04-21T08:20:12Z</time>
      </trkpt>
      <trkpt lat="50.45636" lon="1.60534">
        <ele>9</ele>
        <time>2009-04-21T08:20:14Z</time>
      </trkpt>
      <trkpt lat="50.45643" lon="1.6055">
        <ele>9</ele>
        <time>2009-04-21T08:20:17Z</time>
      </trkpt>
      <trkpt lat="50.4565" lon="1.6056">
        <ele>9</ele>
        <time>2009-04-21T08:20:20Z</time>
      </trkpt>
      <trkpt lat="50.45658" lon="1.60554">
        <ele>9</ele>
        <time>2009-04-21T08:20:23Z</time>
      </trkpt>
      <trkpt lat="50.45666" lon="1.60538">
        <ele>9</ele>
        <time>2009-04-21T08:20:26Z</time>
      </trkpt>
      <trkpt lat="50.45673" lon="1.60526">
        <ele>9</ele>
        <time>2009-04-21T08:20:28Z</time>
      </trkpt>
      <trkpt lat="50.45679" lon="1.60514">
        <ele>9</ele>
        <time>2009-04-21T08:20:30Z</time>
      </trkpt>
      <trkpt lat="50.45686" lon="1.60501">
        <ele>9</ele>
        <time>2009-04-21T08:20:32Z</time>
      </trkpt>
      <trkpt lat="50.45693" lon="1.60488">
        <ele>9</ele>
        <time>2009-04-21T08:20:34Z</time>
      </trkpt>
      <trkpt lat="50.45701" lon="1.60473">
        <ele>9</ele>
        <time>2009-04-21T08:20:36Z</time>
      </trkpt>
      <trkpt lat="50.45709" lon="1.60459">
        <ele>9</ele>
        <time>2009-04-21T08:20:38Z</time>
      </trkpt>
      <trkpt lat="50.45717" lon="1.60445">
        <ele>9</ele>
        <time>2009-04-21T08:20:40Z</time>
      </trkpt>
      <trkpt lat="50.45726" lon="1.60429">
        <ele>9</ele>
        <time>2009-04-21T08:20:42Z</time>
      </trkpt>
      <trkpt lat="50.45734" lon="1.60415">
        <ele>9</ele>
        <time>2009-04-21T08:20:44Z</time>
      </trkpt>
      <trkpt lat="50.45742" lon="1.604">
        <ele>9</ele>
        <time>2009-04-21T08:20:46Z</time>
      </trkpt>
      <trkpt lat="50.45751" lon="1.60384">
        <ele>9</ele>
        <time>2009-04-21T08:20:48Z</time>
      </trkpt>
      <trkpt lat="50.45759" lon="1.60368">
        <ele>9</ele>
        <time>2009-04-21T08:20:50Z</time>
      </trkpt>
      <trkpt lat="50.45768" lon="1.60351">
        <ele>9</ele>
        <time>2009-04-21T08:20:52Z</time>
      </trkpt>
      <trkpt lat="50.45777" lon="1.60335">
        <ele>9</ele>
        <time>2009-04-21T08:20:54Z</time>
      </trkpt>
      <trkpt lat="50.45786" lon="1.60318">
        <ele>9</ele>
        <time>2009-04-21T08:20:56Z</time>
      </trkpt>
      <trkpt lat="50.45794" lon="1.60301">
        <ele>9</ele>
        <time>2009-04-21T08:20:58Z</time>
      </trkpt>
      <trkpt lat="50.45802" lon="1.60283">
        <ele>15</ele>
        <time>2009-04-21T08:21:00Z</time>
      </trkpt>
      <trkpt lat="50.45811" lon="1.60267">
        <ele>15</ele>
        <time>2009-04-21T08:21:02Z</time>
      </trkpt>
      <trkpt lat="50.45819" lon="1.6025">
        <ele>15</ele>
        <time>2009-04-21T08:21:04Z</time>
      </trkpt>
      <trkpt lat="50.45825" lon="1.60231">
        <ele>15</ele>
        <time>2009-04-21T08:21:06Z</time>
      </trkpt>
      <trkpt lat="50.45829" lon="1.60211">
        <ele>15</ele>
        <time>2009-04-21T08:21:08Z</time>
      </trkpt>
      <trkpt lat="50.45833" lon="1.6019">
        <ele>15</ele>
        <time>2009-04-21T08:21:10Z</time>
      </trkpt>
      <trkpt lat="50.45836" lon="1.60169">
        <ele>15</ele>
        <time>2009-04-21T08:21:12Z</time>
      </trkpt>
      <trkpt lat="50.45839" lon="1.60146">
        <ele>15</ele>
        <time>2009-04-21T08:21:14Z</time>
      </trkpt>
      <trkpt lat="50.45842" lon="1.60125">
        <ele>15</ele>
        <time>2009-04-21T08:21:16Z</time>
      </trkpt>
      <trkpt lat="50.45847" lon="1.60103">
        <ele>15</ele>
        <time>2009-04-21T08:21:18Z</time>
      </trkpt>
      <trkpt lat="50.45851" lon="1.60082">
        <ele>15</ele>
        <time>2009-04-21T08:21:20Z</time>
      </trkpt>
      <trkpt lat="50.45855" lon="1.6006">
        <ele>15</ele>
        <time>2009-04-21T08:21:22Z</time>
      </trkpt>
      <trkpt lat="50.45858" lon="1.60039">
        <ele>15</ele>
        <time>2009-04-21T08:21:24Z</time>
      </trkpt>
      <trkpt lat="50.45861" lon="1.60018">
        <ele>15</ele>
        <time>2009-04-21T08:21:26Z</time>
      </trkpt>
      <trkpt lat="50.45866" lon="1.59997">
        <ele>15</ele>
        <time>2009-04-21T08:21:28Z</time>
      </trkpt>
      <trkpt lat="50.45871" lon="1.59976">
        <ele>15</ele>
        <time>2009-04-21T08:21:30Z</time>
      </trkpt>
      <trkpt lat="50.45875" lon="1.59955">
        <ele>15</ele>
        <time>2009-04-21T08:21:32Z</time>
      </trkpt>
      <trkpt lat="50.45879" lon="1.59934">
        <ele>15</ele>
        <time>2009-04-21T08:21:34Z</time>
      </trkpt>
      <trkpt lat="50.45882" lon="1.59914">
        <ele>10</ele>
        <time>2009-04-21T08:21:36Z</time>
      </trkpt>
      <trkpt lat="50.45885" lon="1.59894">
        <ele>10</ele>
        <time>2009-04-21T08:21:38Z</time>
      </trkpt>
      <trkpt lat="50.45889" lon="1.59873">
        <ele>10</ele>
        <time>2009-04-21T08:21:40Z</time>
      </trkpt>
      <trkpt lat="50.45892" lon="1.59853">
        <ele>10</ele>
        <time>2009-04-21T08:21:42Z</time>
      </trkpt>
      <trkpt lat="50.45896" lon="1.59832">
        <ele>10</ele>
        <time>2009-04-21T08:21:44Z</time>
      </trkpt>
      <trkpt lat="50.45899" lon="1.59811">
        <ele>10</ele>
        <time>2009-04-21T08:21:46Z</time>
      </trkpt>
      <trkpt lat="50.45902" lon="1.59791">
        <ele>10</ele>
        <time>2009-04-21T08:21:48Z</time>
      </trkpt>
      <trkpt lat="50.45906" lon="1.59771">
        <ele>10</ele>
        <time>2009-04-21T08:21:50Z</time>
      </trkpt>
      <trkpt lat="50.45909" lon="1.59751">
        <ele>4</ele>
        <time>2009-04-21T08:21:52Z</time>
      </trkpt>
      <trkpt lat="50.45912" lon="1.59732">
        <ele>4</ele>
        <time>2009-04-21T08:21:54Z</time>
      </trkpt>
      <trkpt lat="50.45915" lon="1.59712">
        <ele>4</ele>
        <time>2009-04-21T08:21:56Z</time>
      </trkpt>
      <trkpt lat="50.45919" lon="1.59693">
        <ele>4</ele>
        <time>2009-04-21T08:21:58Z</time>
      </trkpt>
      <trkpt lat="50.45922" lon="1.59673">
        <ele>4</ele>
        <time>2009-04-21T08:22:00Z</time>
      </trkpt>
      <trkpt lat="50.45926" lon="1.59655">
        <ele>4</ele>
        <time>2009-04-21T08:22:02Z</time>
      </trkpt>
      <trkpt lat="50.45926" lon="1.59636">
        <ele>4</ele>
        <time>2009-04-21T08:22:04Z</time>
      </trkpt>
      <trkpt lat="50.45928" lon="1.59617">
        <ele>4</ele>
        <time>2009-04-21T08:22:06Z</time>
      </trkpt>
      <trkpt lat="50.45929" lon="1.59595">
        <ele>4</ele>
        <time>2009-04-21T08:22:08Z</time>
      </trkpt>
      <trkpt lat="50.45931" lon="1.59572">
        <ele>4</ele>
        <time>2009-04-21T08:22:10Z</time>
      </trkpt>
      <trkpt lat="50.45934" lon="1.59553">
        <ele>4</ele>
        <time>2009-04-21T08:22:12Z</time>
      </trkpt>
      <trkpt lat="50.45938" lon="1.59533">
        <ele>4</ele>
        <time>2009-04-21T08:22:14Z</time>
      </trkpt>
      <trkpt lat="50.45941" lon="1.59513">
        <ele>4</ele>
        <time>2009-04-21T08:22:16Z</time>
      </trkpt>
      <trkpt lat="50.45945" lon="1.59492">
        <ele>4</ele>
        <time>2009-04-21T08:22:18Z</time>
      </trkpt>
      <trkpt lat="50.45949" lon="1.59472">
        <ele>4</ele>
        <time>2009-04-21T08:22:20Z</time>
      </trkpt>
      <trkpt lat="50.45952" lon="1.59451">
        <ele>4</ele>
        <time>2009-04-21T08:22:22Z</time>
      </trkpt>
      <trkpt lat="50.45955" lon="1.5943">
        <ele>4</ele>
        <time>2009-04-21T08:22:24Z</time>
      </trkpt>
      <trkpt lat="50.45958" lon="1.5941">
        <ele>4</ele>
        <time>2009-04-21T08:22:26Z</time>
      </trkpt>
      <trkpt lat="50.45962" lon="1.59388">
        <ele>4</ele>
        <time>2009-04-21T08:22:28Z</time>
      </trkpt>
      <trkpt lat="50.45966" lon="1.59367">
        <ele>4</ele>
        <time>2009-04-21T08:22:30Z</time>
      </trkpt>
      <trkpt lat="50.45969" lon="1.59346">
        <ele>4</ele>
        <time>2009-04-21T08:22:32Z</time>
      </trkpt>
      <trkpt lat="50.45973" lon="1.59323">
        <ele>4</ele>
        <time>2009-04-21T08:22:34Z</time>
      </trkpt>
      <trkpt lat="50.45976" lon="1.59302">
        <ele>4</ele>
        <time>2009-04-21T08:22:36Z</time>
      </trkpt>
      <trkpt lat="50.4598" lon="1.5928">
        <ele>4</ele>
        <time>2009-04-21T08:22:38Z</time>
      </trkpt>
      <trkpt lat="50.45982" lon="1.59258">
        <ele>4</ele>
        <time>2009-04-21T08:22:40Z</time>
      </trkpt>
      <trkpt lat="50.45986" lon="1.59236">
        <ele>4</ele>
        <time>2009-04-21T08:22:42Z</time>
      </trkpt>
      <trkpt lat="50.45989" lon="1.59214">
        <ele>4</ele>
        <time>2009-04-21T08:22:44Z</time>
      </trkpt>
      <trkpt lat="50.45992" lon="1.59192">
        <ele>4</ele>
        <time>2009-04-21T08:22:46Z</time>
      </trkpt>
      <trkpt lat="50.45996" lon="1.5917">
        <ele>4</ele>
        <time>2009-04-21T08:22:48Z</time>
      </trkpt>
      <trkpt lat="50.45999" lon="1.59148">
        <ele>4</ele>
        <time>2009-04-21T08:22:50Z</time>
      </trkpt>
      <trkpt lat="50.46002" lon="1.59127">
        <ele>4</ele>
        <time>2009-04-21T08:22:52Z</time>
      </trkpt>
      <trkpt lat="50.46006" lon="1.59104">
        <ele>4</ele>
        <time>2009-04-21T08:22:54Z</time>
      </trkpt>
      <trkpt lat="50.46009" lon="1.59083">
        <ele>4</ele>
        <time>2009-04-21T08:22:56Z</time>
      </trkpt>
      <trkpt lat="50.46013" lon="1.59061">
        <ele>4</ele>
        <time>2009-04-21T08:22:58Z</time>
      </trkpt>
      <trkpt lat="50.46016" lon="1.59039">
        <ele>4</ele>
        <time>2009-04-21T08:23:00Z</time>
      </trkpt>
      <trkpt lat="50.4602" lon="1.59016">
        <ele>4</ele>
        <time>2009-04-21T08:23:02Z</time>
      </trkpt>
      <trkpt lat="50.46024" lon="1.58995">
        <ele>4</ele>
        <time>2009-04-21T08:23:04Z</time>
      </trkpt>
      <trkpt lat="50.46027" lon="1.58973">
        <ele>4</ele>
        <time>2009-04-21T08:23:06Z</time>
      </trkpt>
      <trkpt lat="50.46031" lon="1.58952">
        <ele>4</ele>
        <time>2009-04-21T08:23:08Z</time>
      </trkpt>
      <trkpt lat="50.46034" lon="1.5893">
        <ele>4</ele>
        <time>2009-04-21T08:23:10Z</time>
      </trkpt>
      <trkpt lat="50.46037" lon="1.58908">
        <ele>4</ele>
        <time>2009-04-21T08:23:12Z</time>
      </trkpt>
      <trkpt lat="50.46041" lon="1.58886">
        <ele>4</ele>
        <time>2009-04-21T08:23:14Z</time>
      </trkpt>
      <trkpt lat="50.46044" lon="1.58864">
        <ele>4</ele>
        <time>2009-04-21T08:23:16Z</time>
      </trkpt>
      <trkpt lat="50.46048" lon="1.58844">
        <ele>4</ele>
        <time>2009-04-21T08:23:18Z</time>
      </trkpt>
      <trkpt lat="50.46051" lon="1.58822">
        <ele>4</ele>
        <time>2009-04-21T08:23:20Z</time>
      </trkpt>
      <trkpt lat="50.46055" lon="1.58801">
        <ele>4</ele>
        <time>2009-04-21T08:23:22Z</time>
      </trkpt>
      <trkpt lat="50.46058" lon="1.58779">
        <ele>4</ele>
        <time>2009-04-21T08:23:24Z</time>
      </trkpt>
      <trkpt lat="50.46061" lon="1.58758">
        <ele>4</ele>
        <time>2009-04-21T08:23:26Z</time>
      </trkpt>
      <trkpt lat="50.46064" lon="1.58739">
        <ele>4</ele>
        <time>2009-04-21T08:23:28Z</time>
      </trkpt>
      <trkpt lat="50.46066" lon="1.5872">
        <ele>4</ele>
        <time>2009-04-21T08:23:30Z</time>
      </trkpt>
      <trkpt lat="50.46067" lon="1.58701">
        <ele>4</ele>
        <time>2009-04-21T08:23:32Z</time>
      </trkpt>
      <trkpt lat="50.46065" lon="1.58685">
        <ele>4</ele>
        <time>2009-04-21T08:23:34Z</time>
      </trkpt>
      <trkpt lat="50.46057" lon="1.58673">
        <ele>4</ele>
        <time>2009-04-21T08:23:36Z</time>
      </trkpt>
      <trkpt lat="50.46045" lon="1.58667">
        <ele>4</ele>
        <time>2009-04-21T08:23:38Z</time>
      </trkpt>
      <trkpt lat="50.46033" lon="1.58663">
        <ele>4</ele>
        <time>2009-04-21T08:23:40Z</time>
      </trkpt>
      <trkpt lat="50.46023" lon="1.58659">
        <ele>4</ele>
        <time>2009-04-21T08:23:42Z</time>
      </trkpt>
      <trkpt lat="50.46012" lon="1.58654">
        <ele>4</ele>
        <time>2009-04-21T08:23:44Z</time>
      </trkpt>
      <trkpt lat="50.46001" lon="1.58651">
        <ele>10</ele>
        <time>2009-04-21T08:23:46Z</time>
      </trkpt>
      <trkpt lat="50.45992" lon="1.58647">
        <ele>10</ele>
        <time>2009-04-21T08:23:48Z</time>
      </trkpt>
      <trkpt lat="50.45983" lon="1.58642">
        <ele>10</ele>
        <time>2009-04-21T08:23:50Z</time>
      </trkpt>
      <trkpt lat="50.45974" lon="1.58631">
        <ele>10</ele>
        <time>2009-04-21T08:23:53Z</time>
      </trkpt>
      <trkpt lat="50.45974" lon="1.58615">
        <ele>10</ele>
        <time>2009-04-21T08:23:56Z</time>
      </trkpt>
      <trkpt lat="50.45977" lon="1.58595">
        <ele>10</ele>
        <time>2009-04-21T08:23:59Z</time>
      </trkpt>
      <trkpt lat="50.4598" lon="1.58581">
        <ele>10</ele>
        <time>2009-04-21T08:24:01Z</time>
      </trkpt>
      <trkpt lat="50.45982" lon="1.58568">
        <ele>10</ele>
        <time>2009-04-21T08:24:03Z</time>
      </trkpt>
      <trkpt lat="50.45986" lon="1.58549">
        <ele>10</ele>
        <time>2009-04-21T08:24:06Z</time>
      </trkpt>
      <trkpt lat="50.4599" lon="1.58531">
        <ele>10</ele>
        <time>2009-04-21T08:24:09Z</time>
      </trkpt>
      <trkpt lat="50.45992" lon="1.58515">
        <ele>10</ele>
        <time>2009-04-21T08:24:12Z</time>
      </trkpt>
      <trkpt lat="50.45994" lon="1.58499">
        <ele>10</ele>
        <time>2009-04-21T08:24:15Z</time>
      </trkpt>
      <trkpt lat="50.45997" lon="1.58482">
        <ele>10</ele>
        <time>2009-04-21T08:24:18Z</time>
      </trkpt>
      <trkpt lat="50.46" lon="1.58466">
        <ele>10</ele>
        <time>2009-04-21T08:24:21Z</time>
      </trkpt>
      <trkpt lat="50.46002" lon="1.58448">
        <ele>10</ele>
        <time>2009-04-21T08:24:24Z</time>
      </trkpt>
      <trkpt lat="50.46005" lon="1.58429">
        <ele>10</ele>
        <time>2009-04-21T08:24:27Z</time>
      </trkpt>
      <trkpt lat="50.46007" lon="1.58414">
        <ele>10</ele>
        <time>2009-04-21T08:24:29Z</time>
      </trkpt>
      <trkpt lat="50.46009" lon="1.58395">
        <ele>10</ele>
        <time>2009-04-21T08:24:32Z</time>
      </trkpt>
      <trkpt lat="50.46014" lon="1.58377">
        <ele>10</ele>
        <time>2009-04-21T08:24:35Z</time>
      </trkpt>
      <trkpt lat="50.46025" lon="1.58368">
        <ele>10</ele>
        <time>2009-04-21T08:24:38Z</time>
      </trkpt>
      <trkpt lat="50.46038" lon="1.58372">
        <ele>10</ele>
        <time>2009-04-21T08:24:41Z</time>
      </trkpt>
      <trkpt lat="50.46048" lon="1.58375">
        <ele>10</ele>
        <time>2009-04-21T08:24:43Z</time>
      </trkpt>
      <trkpt lat="50.46058" lon="1.5838">
        <ele>10</ele>
        <time>2009-04-21T08:24:45Z</time>
      </trkpt>
      <trkpt lat="50.46069" lon="1.58385">
        <ele>10</ele>
        <time>2009-04-21T08:24:47Z</time>
      </trkpt>
      <trkpt lat="50.4608" lon="1.58388">
        <ele>10</ele>
        <time>2009-04-21T08:24:49Z</time>
      </trkpt>
      <trkpt lat="50.4609" lon="1.58392">
        <ele>10</ele>
        <time>2009-04-21T08:24:51Z</time>
      </trkpt>
      <trkpt lat="50.46099" lon="1.58395">
        <ele>10</ele>
        <time>2009-04-21T08:24:53Z</time>
      </trkpt>
      <trkpt lat="50.46107" lon="1.58404">
        <ele>10</ele>
        <time>2009-04-21T08:24:55Z</time>
      </trkpt>
      <trkpt lat="50.46107" lon="1.58424">
        <ele>10</ele>
        <time>2009-04-21T08:24:58Z</time>
      </trkpt>
      <trkpt lat="50.46105" lon="1.58439">
        <ele>10</ele>
        <time>2009-04-21T08:25:00Z</time>
      </trkpt>
      <trkpt lat="50.46102" lon="1.58455">
        <ele>10</ele>
        <time>2009-04-21T08:25:02Z</time>
      </trkpt>
      <trkpt lat="50.46099" lon="1.5847">
        <ele>10</ele>
        <time>2009-04-21T08:25:04Z</time>
      </trkpt>
      <trkpt lat="50.46097" lon="1.58485">
        <ele>10</ele>
        <time>2009-04-21T08:25:06Z</time>
      </trkpt>
      <trkpt lat="50.46095" lon="1.58501">
        <ele>10</ele>
        <time>2009-04-21T08:25:08Z</time>
      </trkpt>
      <trkpt lat="50.46093" lon="1.58516">
        <ele>10</ele>
        <time>2009-04-21T08:25:10Z</time>
      </trkpt>
      <trkpt lat="50.46091" lon="1.58531">
        <ele>10</ele>
        <time>2009-04-21T08:25:12Z</time>
      </trkpt>
      <trkpt lat="50.46089" lon="1.58547">
        <ele>10</ele>
        <time>2009-04-21T08:25:14Z</time>
      </trkpt>
      <trkpt lat="50.46095" lon="1.58564">
        <ele>10</ele>
        <time>2009-04-21T08:25:17Z</time>
      </trkpt>
      <trkpt lat="50.46109" lon="1.58568">
        <ele>10</ele>
        <time>2009-04-21T08:25:20Z</time>
      </trkpt>
      <trkpt lat="50.46119" lon="1.58571">
        <ele>10</ele>
        <time>2009-04-21T08:25:22Z</time>
      </trkpt>
      <trkpt lat="50.4613" lon="1.58574">
        <ele>10</ele>
        <time>2009-04-21T08:25:24Z</time>
      </trkpt>
      <trkpt lat="50.46141" lon="1.58579">
        <ele>10</ele>
        <time>2009-04-21T08:25:26Z</time>
      </trkpt>
      <trkpt lat="50.46152" lon="1.58582">
        <ele>10</ele>
        <time>2009-04-21T08:25:28Z</time>
      </trkpt>
      <trkpt lat="50.46163" lon="1.58586">
        <ele>10</ele>
        <time>2009-04-21T08:25:30Z</time>
      </trkpt>
      <trkpt lat="50.46175" lon="1.5859">
        <ele>10</ele>
        <time>2009-04-21T08:25:32Z</time>
      </trkpt>
      <trkpt lat="50.46187" lon="1.58595">
        <ele>10</ele>
        <time>2009-04-21T08:25:34Z</time>
      </trkpt>
      <trkpt lat="50.46197" lon="1.58599">
        <ele>10</ele>
        <time>2009-04-21T08:25:36Z</time>
      </trkpt>
      <trkpt lat="50.46209" lon="1.58603">
        <ele>10</ele>
        <time>2009-04-21T08:25:38Z</time>
      </trkpt>
      <trkpt lat="50.4622" lon="1.58607">
        <ele>10</ele>
        <time>2009-04-21T08:25:40Z</time>
      </trkpt>
      <trkpt lat="50.46232" lon="1.58612">
        <ele>10</ele>
        <time>2009-04-21T08:25:42Z</time>
      </trkpt>
      <trkpt lat="50.46244" lon="1.58617">
        <ele>10</ele>
        <time>2009-04-21T08:25:44Z</time>
      </trkpt>
      <trkpt lat="50.46256" lon="1.58622">
        <ele>10</ele>
        <time>2009-04-21T08:25:46Z</time>
      </trkpt>
      <trkpt lat="50.46268" lon="1.58626">
        <ele>10</ele>
        <time>2009-04-21T08:25:48Z</time>
      </trkpt>
      <trkpt lat="50.46279" lon="1.5863">
        <ele>10</ele>
        <time>2009-04-21T08:25:50Z</time>
      </trkpt>
      <trkpt lat="50.46292" lon="1.58634">
        <ele>10</ele>
        <time>2009-04-21T08:25:52Z</time>
      </trkpt>
      <trkpt lat="50.46305" lon="1.58639">
        <ele>10</ele>
        <time>2009-04-21T08:25:54Z</time>
      </trkpt>
      <trkpt lat="50.46317" lon="1.58644">
        <ele>10</ele>
        <time>2009-04-21T08:25:56Z</time>
      </trkpt>
      <trkpt lat="50.4633" lon="1.58649">
        <ele>10</ele>
        <time>2009-04-21T08:25:58Z</time>
      </trkpt>
      <trkpt lat="50.46343" lon="1.58654">
        <ele>10</ele>
        <time>2009-04-21T08:26:00Z</time>
      </trkpt>
      <trkpt lat="50.46356" lon="1.5866">
        <ele>10</ele>
        <time>2009-04-21T08:26:02Z</time>
      </trkpt>
      <trkpt lat="50.46368" lon="1.58664">
        <ele>10</ele>
        <time>2009-04-21T08:26:04Z</time>
      </trkpt>
      <trkpt lat="50.46381" lon="1.58669">
        <ele>10</ele>
        <time>2009-04-21T08:26:06Z</time>
      </trkpt>
      <trkpt lat="50.46394" lon="1.58674">
        <ele>10</ele>
        <time>2009-04-21T08:26:08Z</time>
      </trkpt>
      <trkpt lat="50.46406" lon="1.58679">
        <ele>10</ele>
        <time>2009-04-21T08:26:10Z</time>
      </trkpt>
      <trkpt lat="50.46419" lon="1.58685">
        <ele>10</ele>
        <time>2009-04-21T08:26:12Z</time>
      </trkpt>
      <trkpt lat="50.46431" lon="1.58689">
        <ele>10</ele>
        <time>2009-04-21T08:26:14Z</time>
      </trkpt>
      <trkpt lat="50.46443" lon="1.58695">
        <ele>10</ele>
        <time>2009-04-21T08:26:16Z</time>
      </trkpt>
      <trkpt lat="50.46456" lon="1.58701">
        <ele>10</ele>
        <time>2009-04-21T08:26:18Z</time>
      </trkpt>
      <trkpt lat="50.46469" lon="1.58707">
        <ele>10</ele>
        <time>2009-04-21T08:26:20Z</time>
      </trkpt>
      <trkpt lat="50.4648" lon="1.58713">
        <ele>10</ele>
        <time>2009-04-21T08:26:22Z</time>
      </trkpt>
      <trkpt lat="50.46492" lon="1.58719">
        <ele>10</ele>
        <time>2009-04-21T08:26:24Z</time>
      </trkpt>
      <trkpt lat="50.46504" lon="1.58725">
        <ele>10</ele>
        <time>2009-04-21T08:26:26Z</time>
      </trkpt>
      <trkpt lat="50.46515" lon="1.58732">
        <ele>10</ele>
        <time>2009-04-21T08:26:28Z</time>
      </trkpt>
      <trkpt lat="50.46527" lon="1.58739">
        <ele>10</ele>
        <time>2009-04-21T08:26:30Z</time>
      </trkpt>
      <trkpt lat="50.46539" lon="1.58746">
        <ele>10</ele>
        <time>2009-04-21T08:26:32Z</time>
      </trkpt>
      <trkpt lat="50.4655" lon="1.58753">
        <ele>10</ele>
        <time>2009-04-21T08:26:34Z</time>
      </trkpt>
      <trkpt lat="50.46562" lon="1.58759">
        <ele>10</ele>
        <time>2009-04-21T08:26:36Z</time>
      </trkpt>
      <trkpt lat="50.46574" lon="1.58766">
        <ele>10</ele>
        <time>2009-04-21T08:26:38Z</time>
      </trkpt>
      <trkpt lat="50.46584" lon="1.58774">
        <ele>10</ele>
        <time>2009-04-21T08:26:40Z</time>
      </trkpt>
      <trkpt lat="50.46597" lon="1.5878">
        <ele>10</ele>
        <time>2009-04-21T08:26:42Z</time>
      </trkpt>
      <trkpt lat="50.46609" lon="1.58787">
        <ele>10</ele>
        <time>2009-04-21T08:26:44Z</time>
      </trkpt>
      <trkpt lat="50.4662" lon="1.58793">
        <ele>10</ele>
        <time>2009-04-21T08:26:46Z</time>
      </trkpt>
      <trkpt lat="50.46632" lon="1.58801">
        <ele>10</ele>
        <time>2009-04-21T08:26:48Z</time>
      </trkpt>
      <trkpt lat="50.46644" lon="1.58807">
        <ele>10</ele>
        <time>2009-04-21T08:26:50Z</time>
      </trkpt>
      <trkpt lat="50.46656" lon="1.58814">
        <ele>10</ele>
        <time>2009-04-21T08:26:52Z</time>
      </trkpt>
      <trkpt lat="50.46668" lon="1.58821">
        <ele>10</ele>
        <time>2009-04-21T08:26:54Z</time>
      </trkpt>
      <trkpt lat="50.4668" lon="1.58828">
        <ele>10</ele>
        <time>2009-04-21T08:26:56Z</time>
      </trkpt>
      <trkpt lat="50.46693" lon="1.58836">
        <ele>10</ele>
        <time>2009-04-21T08:26:58Z</time>
      </trkpt>
      <trkpt lat="50.46705" lon="1.58843">
        <ele>10</ele>
        <time>2009-04-21T08:27:00Z</time>
      </trkpt>
      <trkpt lat="50.46719" lon="1.58849">
        <ele>10</ele>
        <time>2009-04-21T08:27:02Z</time>
      </trkpt>
      <trkpt lat="50.46731" lon="1.58856">
        <ele>10</ele>
        <time>2009-04-21T08:27:04Z</time>
      </trkpt>
      <trkpt lat="50.46744" lon="1.58864">
        <ele>10</ele>
        <time>2009-04-21T08:27:06Z</time>
      </trkpt>
      <trkpt lat="50.46757" lon="1.58872">
        <ele>10</ele>
        <time>2009-04-21T08:27:08Z</time>
      </trkpt>
      <trkpt lat="50.4677" lon="1.58879">
        <ele>10</ele>
        <time>2009-04-21T08:27:10Z</time>
      </trkpt>
      <trkpt lat="50.46783" lon="1.58886">
        <ele>10</ele>
        <time>2009-04-21T08:27:12Z</time>
      </trkpt>
      <trkpt lat="50.46796" lon="1.58893">
        <ele>10</ele>
        <time>2009-04-21T08:27:14Z</time>
      </trkpt>
      <trkpt lat="50.46809" lon="1.589">
        <ele>10</ele>
        <time>2009-04-21T08:27:16Z</time>
      </trkpt>
      <trkpt lat="50.46822" lon="1.58908">
        <ele>10</ele>
        <time>2009-04-21T08:27:18Z</time>
      </trkpt>
      <trkpt lat="50.46835" lon="1.58915">
        <ele>10</ele>
        <time>2009-04-21T08:27:20Z</time>
      </trkpt>
      <trkpt lat="50.46848" lon="1.58922">
        <ele>10</ele>
        <time>2009-04-21T08:27:22Z</time>
      </trkpt>
      <trkpt lat="50.46861" lon="1.58929">
        <ele>10</ele>
        <time>2009-04-21T08:27:24Z</time>
      </trkpt>
      <trkpt lat="50.46873" lon="1.58936">
        <ele>10</ele>
        <time>2009-04-21T08:27:26Z</time>
      </trkpt>
      <trkpt lat="50.46887" lon="1.58943">
        <ele>10</ele>
        <time>2009-04-21T08:27:28Z</time>
      </trkpt>
      <trkpt lat="50.469" lon="1.58951">
        <ele>10</ele>
        <time>2009-04-21T08:27:30Z</time>
      </trkpt>
      <trkpt lat="50.46912" lon="1.58958">
        <ele>10</ele>
        <time>2009-04-21T08:27:32Z</time>
      </trkpt>
      <trkpt lat="50.46926" lon="1.58965">
        <ele>10</ele>
        <time>2009-04-21T08:27:34Z</time>
      </trkpt>
      <trkpt lat="50.46938" lon="1.58972">
        <ele>10</ele>
        <time>2009-04-21T08:27:36Z</time>
      </trkpt>
      <trkpt lat="50.46951" lon="1.5898">
        <ele>10</ele>
        <time>2009-04-21T08:27:38Z</time>
      </trkpt>
      <trkpt lat="50.46963" lon="1.58987">
        <ele>10</ele>
        <time>2009-04-21T08:27:40Z</time>
      </trkpt>
      <trkpt lat="50.46976" lon="1.58994">
        <ele>10</ele>
        <time>2009-04-21T08:27:42Z</time>
      </trkpt>
      <trkpt lat="50.46988" lon="1.59001">
        <ele>10</ele>
        <time>2009-04-21T08:27:44Z</time>
      </trkpt>
      <trkpt lat="50.47001" lon="1.59008">
        <ele>10</ele>
        <time>2009-04-21T08:27:46Z</time>
      </trkpt>
      <trkpt lat="50.47013" lon="1.59015">
        <ele>10</ele>
        <time>2009-04-21T08:27:48Z</time>
      </trkpt>
      <trkpt lat="50.47026" lon="1.59023">
        <ele>10</ele>
        <time>2009-04-21T08:27:50Z</time>
      </trkpt>
      <trkpt lat="50.47039" lon="1.5903">
        <ele>10</ele>
        <time>2009-04-21T08:27:52Z</time>
      </trkpt>
      <trkpt lat="50.47051" lon="1.59037">
        <ele>10</ele>
        <time>2009-04-21T08:27:54Z</time>
      </trkpt>
      <trkpt lat="50.47064" lon="1.59044">
        <ele>10</ele>
        <time>2009-04-21T08:27:56Z</time>
      </trkpt>
      <trkpt lat="50.47077" lon="1.59051">
        <ele>10</ele>
        <time>2009-04-21T08:27:58Z</time>
      </trkpt>
      <trkpt lat="50.4709" lon="1.59058">
        <ele>10</ele>
        <time>2009-04-21T08:28:00Z</time>
      </trkpt>
      <trkpt lat="50.47102" lon="1.59066">
        <ele>10</ele>
        <time>2009-04-21T08:28:02Z</time>
      </trkpt>
      <trkpt lat="50.47115" lon="1.59073">
        <ele>10</ele>
        <time>2009-04-21T08:28:04Z</time>
      </trkpt>
      <trkpt lat="50.47129" lon="1.5908">
        <ele>10</ele>
        <time>2009-04-21T08:28:06Z</time>
      </trkpt>
      <trkpt lat="50.47141" lon="1.59087">
        <ele>10</ele>
        <time>2009-04-21T08:28:08Z</time>
      </trkpt>
      <trkpt lat="50.47154" lon="1.59094">
        <ele>10</ele>
        <time>2009-04-21T08:28:10Z</time>
      </trkpt>
      <trkpt lat="50.47166" lon="1.59102">
        <ele>10</ele>
        <time>2009-04-21T08:28:12Z</time>
      </trkpt>
      <trkpt lat="50.47179" lon="1.59109">
        <ele>10</ele>
        <time>2009-04-21T08:28:14Z</time>
      </trkpt>
      <trkpt lat="50.47192" lon="1.59116">
        <ele>10</ele>
        <time>2009-04-21T08:28:16Z</time>
      </trkpt>
      <trkpt lat="50.47205" lon="1.59123">
        <ele>10</ele>
        <time>2009-04-21T08:28:18Z</time>
      </trkpt>
      <trkpt lat="50.47217" lon="1.5913">
        <ele>10</ele>
        <time>2009-04-21T08:28:20Z</time>
      </trkpt>
      <trkpt lat="50.47231" lon="1.59138">
        <ele>10</ele>
        <time>2009-04-21T08:28:22Z</time>
      </trkpt>
      <trkpt lat="50.47244" lon="1.59145">
        <ele>10</ele>
        <time>2009-04-21T08:28:24Z</time>
      </trkpt>
      <trkpt lat="50.47256" lon="1.59152">
        <ele>10</ele>
        <time>2009-04-21T08:28:26Z</time>
      </trkpt>
      <trkpt lat="50.4727" lon="1.59159">
        <ele>10</ele>
        <time>2009-04-21T08:28:28Z</time>
      </trkpt>
      <trkpt lat="50.47283" lon="1.59166">
        <ele>10</ele>
        <time>2009-04-21T08:28:30Z</time>
      </trkpt>
      <trkpt lat="50.47295" lon="1.59173">
        <ele>10</ele>
        <time>2009-04-21T08:28:32Z</time>
      </trkpt>
      <trkpt lat="50.47309" lon="1.5918">
        <ele>10</ele>
        <time>2009-04-21T08:28:34Z</time>
      </trkpt>
      <trkpt lat="50.47322" lon="1.59188">
        <ele>10</ele>
        <time>2009-04-21T08:28:36Z</time>
      </trkpt>
      <trkpt lat="50.47335" lon="1.59195">
        <ele>10</ele>
        <time>2009-04-21T08:28:38Z</time>
      </trkpt>
      <trkpt lat="50.47348" lon="1.59202">
        <ele>10</ele>
        <time>2009-04-21T08:28:40Z</time>
      </trkpt>
      <trkpt lat="50.47361" lon="1.59209">
        <ele>10</ele>
        <time>2009-04-21T08:28:42Z</time>
      </trkpt>
      <trkpt lat="50.47375" lon="1.59217">
        <ele>10</ele>
        <time>2009-04-21T08:28:44Z</time>
      </trkpt>
      <trkpt lat="50.47388" lon="1.59224">
        <ele>10</ele>
        <time>2009-04-21T08:28:46Z</time>
      </trkpt>
      <trkpt lat="50.474" lon="1.59231">
        <ele>10</ele>
        <time>2009-04-21T08:28:48Z</time>
      </trkpt>
      <trkpt lat="50.47413" lon="1.59237">
        <ele>10</ele>
        <time>2009-04-21T08:28:50Z</time>
      </trkpt>
      <trkpt lat="50.47427" lon="1.59244">
        <ele>10</ele>
        <time>2009-04-21T08:28:52Z</time>
      </trkpt>
      <trkpt lat="50.47439" lon="1.59252">
        <ele>10</ele>
        <time>2009-04-21T08:28:54Z</time>
      </trkpt>
      <trkpt lat="50.47453" lon="1.59259">
        <ele>10</ele>
        <time>2009-04-21T08:28:56Z</time>
      </trkpt>
      <trkpt lat="50.47465" lon="1.59265">
        <ele>10</ele>
        <time>2009-04-21T08:28:58Z</time>
      </trkpt>
      <trkpt lat="50.47478" lon="1.59272">
        <ele>10</ele>
        <time>2009-04-21T08:29:00Z</time>
      </trkpt>
      <trkpt lat="50.4749" lon="1.59279">
        <ele>10</ele>
        <time>2009-04-21T08:29:02Z</time>
      </trkpt>
      <trkpt lat="50.47502" lon="1.59287">
        <ele>10</ele>
        <time>2009-04-21T08:29:04Z</time>
      </trkpt>
      <trkpt lat="50.47515" lon="1.59294">
        <ele>10</ele>
        <time>2009-04-21T08:29:06Z</time>
      </trkpt>
      <trkpt lat="50.47528" lon="1.59301">
        <ele>10</ele>
        <time>2009-04-21T08:29:08Z</time>
      </trkpt>
      <trkpt lat="50.4754" lon="1.59307">
        <ele>10</ele>
        <time>2009-04-21T08:29:10Z</time>
      </trkpt>
      <trkpt lat="50.47553" lon="1.59314">
        <ele>10</ele>
        <time>2009-04-21T08:29:12Z</time>
      </trkpt>
      <trkpt lat="50.47565" lon="1.5932">
        <ele>10</ele>
        <time>2009-04-21T08:29:14Z</time>
      </trkpt>
      <trkpt lat="50.47578" lon="1.59327">
        <ele>10</ele>
        <time>2009-04-21T08:29:16Z</time>
      </trkpt>
      <trkpt lat="50.47591" lon="1.59333">
        <ele>10</ele>
        <time>2009-04-21T08:29:18Z</time>
      </trkpt>
      <trkpt lat="50.47603" lon="1.5934">
        <ele>10</ele>
        <time>2009-04-21T08:29:20Z</time>
      </trkpt>
      <trkpt lat="50.47615" lon="1.59347">
        <ele>10</ele>
        <time>2009-04-21T08:29:22Z</time>
      </trkpt>
      <trkpt lat="50.47628" lon="1.59354">
        <ele>10</ele>
        <time>2009-04-21T08:29:24Z</time>
      </trkpt>
      <trkpt lat="50.4764" lon="1.5936">
        <ele>10</ele>
        <time>2009-04-21T08:29:26Z</time>
      </trkpt>
      <trkpt lat="50.47652" lon="1.59367">
        <ele>10</ele>
        <time>2009-04-21T08:29:28Z</time>
      </trkpt>
      <trkpt lat="50.47663" lon="1.59373">
        <ele>10</ele>
        <time>2009-04-21T08:29:30Z</time>
      </trkpt>
      <trkpt lat="50.47674" lon="1.59379">
        <ele>10</ele>
        <time>2009-04-21T08:29:32Z</time>
      </trkpt>
      <trkpt lat="50.47685" lon="1.59385">
        <ele>10</ele>
        <time>2009-04-21T08:29:34Z</time>
      </trkpt>
      <trkpt lat="50.47696" lon="1.59391">
        <ele>10</ele>
        <time>2009-04-21T08:29:36Z</time>
      </trkpt>
      <trkpt lat="50.47708" lon="1.59396">
        <ele>10</ele>
        <time>2009-04-21T08:29:38Z</time>
      </trkpt>
      <trkpt lat="50.47719" lon="1.59403">
        <ele>10</ele>
        <time>2009-04-21T08:29:40Z</time>
      </trkpt>
      <trkpt lat="50.47731" lon="1.5941">
        <ele>10</ele>
        <time>2009-04-21T08:29:42Z</time>
      </trkpt>
      <trkpt lat="50.47743" lon="1.59416">
        <ele>10</ele>
        <time>2009-04-21T08:29:44Z</time>
      </trkpt>
      <trkpt lat="50.47755" lon="1.59422">
        <ele>10</ele>
        <time>2009-04-21T08:29:46Z</time>
      </trkpt>
      <trkpt lat="50.47767" lon="1.59429">
        <ele>10</ele>
        <time>2009-04-21T08:29:48Z</time>
      </trkpt>
      <trkpt lat="50.47779" lon="1.59436">
        <ele>10</ele>
        <time>2009-04-21T08:29:50Z</time>
      </trkpt>
      <trkpt lat="50.47791" lon="1.59442">
        <ele>10</ele>
        <time>2009-04-21T08:29:52Z</time>
      </trkpt>
      <trkpt lat="50.47803" lon="1.59448">
        <ele>10</ele>
        <time>2009-04-21T08:29:54Z</time>
      </trkpt>
      <trkpt lat="50.47814" lon="1.59455">
        <ele>10</ele>
        <time>2009-04-21T08:29:56Z</time>
      </trkpt>
      <trkpt lat="50.47826" lon="1.5946">
        <ele>10</ele>
        <time>2009-04-21T08:29:58Z</time>
      </trkpt>
      <trkpt lat="50.47838" lon="1.59466">
        <ele>10</ele>
        <time>2009-04-21T08:30:00Z</time>
      </trkpt>
      <trkpt lat="50.47849" lon="1.59471">
        <ele>10</ele>
        <time>2009-04-21T08:30:02Z</time>
      </trkpt>
      <trkpt lat="50.47861" lon="1.59476">
        <ele>10</ele>
        <time>2009-04-21T08:30:04Z</time>
      </trkpt>
      <trkpt lat="50.47873" lon="1.59481">
        <ele>10</ele>
        <time>2009-04-21T08:30:06Z</time>
      </trkpt>
      <trkpt lat="50.47885" lon="1.59486">
        <ele>10</ele>
        <time>2009-04-21T08:30:08Z</time>
      </trkpt>
      <trkpt lat="50.47897" lon="1.59491">
        <ele>10</ele>
        <time>2009-04-21T08:30:10Z</time>
      </trkpt>
      <trkpt lat="50.47909" lon="1.59496">
        <ele>10</ele>
        <time>2009-04-21T08:30:12Z</time>
      </trkpt>
      <trkpt lat="50.47921" lon="1.595">
        <ele>10</ele>
        <time>2009-04-21T08:30:14Z</time>
      </trkpt>
      <trkpt lat="50.47933" lon="1.59505">
        <ele>10</ele>
        <time>2009-04-21T08:30:16Z</time>
      </trkpt>
      <trkpt lat="50.47946" lon="1.59509">
        <ele>10</ele>
        <time>2009-04-21T08:30:18Z</time>
      </trkpt>
      <trkpt lat="50.47959" lon="1.59515">
        <ele>10</ele>
        <time>2009-04-21T08:30:20Z</time>
      </trkpt>
      <trkpt lat="50.47971" lon="1.59519">
        <ele>10</ele>
        <time>2009-04-21T08:30:22Z</time>
      </trkpt>
      <trkpt lat="50.47984" lon="1.59525">
        <ele>10</ele>
        <time>2009-04-21T08:30:24Z</time>
      </trkpt>
      <trkpt lat="50.47997" lon="1.5953">
        <ele>10</ele>
        <time>2009-04-21T08:30:26Z</time>
      </trkpt>
      <trkpt lat="50.4801" lon="1.59535">
        <ele>10</ele>
        <time>2009-04-21T08:30:28Z</time>
      </trkpt>
      <trkpt lat="50.48023" lon="1.5954">
        <ele>10</ele>
        <time>2009-04-21T08:30:30Z</time>
      </trkpt>
      <trkpt lat="50.48036" lon="1.59545">
        <ele>10</ele>
        <time>2009-04-21T08:30:32Z</time>
      </trkpt>
      <trkpt lat="50.48049" lon="1.59551">
        <ele>10</ele>
        <time>2009-04-21T08:30:34Z</time>
      </trkpt>
      <trkpt lat="50.48062" lon="1.59556">
        <ele>10</ele>
        <time>2009-04-21T08:30:36Z</time>
      </trkpt>
      <trkpt lat="50.48076" lon="1.59562">
        <ele>10</ele>
        <time>2009-04-21T08:30:38Z</time>
      </trkpt>
      <trkpt lat="50.4809" lon="1.59567">
        <ele>10</ele>
        <time>2009-04-21T08:30:40Z</time>
      </trkpt>
      <trkpt lat="50.48104" lon="1.59572">
        <ele>10</ele>
        <time>2009-04-21T08:30:42Z</time>
      </trkpt>
      <trkpt lat="50.48116" lon="1.59577">
        <ele>10</ele>
        <time>2009-04-21T08:30:44Z</time>
      </trkpt>
      <trkpt lat="50.48128" lon="1.59581">
        <ele>10</ele>
        <time>2009-04-21T08:30:46Z</time>
      </trkpt>
      <trkpt lat="50.48139" lon="1.59585">
        <ele>10</ele>
        <time>2009-04-21T08:30:48Z</time>
      </trkpt>
      <trkpt lat="50.4815" lon="1.59588">
        <ele>10</ele>
        <time>2009-04-21T08:30:50Z</time>
      </trkpt>
      <trkpt lat="50.4816" lon="1.59593">
        <ele>10</ele>
        <time>2009-04-21T08:30:52Z</time>
      </trkpt>
      <trkpt lat="50.4817" lon="1.59597">
        <ele>10</ele>
        <time>2009-04-21T08:30:54Z</time>
      </trkpt>
      <trkpt lat="50.48181" lon="1.59603">
        <ele>10</ele>
        <time>2009-04-21T08:30:57Z</time>
      </trkpt>
      <trkpt lat="50.4819" lon="1.59615">
        <ele>10</ele>
        <time>2009-04-21T08:31:00Z</time>
      </trkpt>
      <trkpt lat="50.48197" lon="1.59632">
        <ele>10</ele>
        <time>2009-04-21T08:31:03Z</time>
      </trkpt>
      <trkpt lat="50.48196" lon="1.59654">
        <ele>10</ele>
        <time>2009-04-21T08:31:06Z</time>
      </trkpt>
      <trkpt lat="50.48197" lon="1.59669">
        <ele>10</ele>
        <time>2009-04-21T08:31:08Z</time>
      </trkpt>
      <trkpt lat="50.48197" lon="1.59685">
        <ele>10</ele>
        <time>2009-04-21T08:31:10Z</time>
      </trkpt>
      <trkpt lat="50.48198" lon="1.59699">
        <ele>10</ele>
        <time>2009-04-21T08:31:12Z</time>
      </trkpt>
      <trkpt lat="50.48199" lon="1.59715">
        <ele>10</ele>
        <time>2009-04-21T08:31:14Z</time>
      </trkpt>
      <trkpt lat="50.48201" lon="1.5973">
        <ele>10</ele>
        <time>2009-04-21T08:31:16Z</time>
      </trkpt>
      <trkpt lat="50.48203" lon="1.59747">
        <ele>10</ele>
        <time>2009-04-21T08:31:18Z</time>
      </trkpt>
      <trkpt lat="50.48205" lon="1.59762">
        <ele>10</ele>
        <time>2009-04-21T08:31:20Z</time>
      </trkpt>
      <trkpt lat="50.48206" lon="1.59778">
        <ele>10</ele>
        <time>2009-04-21T08:31:22Z</time>
      </trkpt>
      <trkpt lat="50.48208" lon="1.59793">
        <ele>10</ele>
        <time>2009-04-21T08:31:24Z</time>
      </trkpt>
      <trkpt lat="50.4821" lon="1.59809">
        <ele>10</ele>
        <time>2009-04-21T08:31:26Z</time>
      </trkpt>
      <trkpt lat="50.48211" lon="1.59825">
        <ele>10</ele>
        <time>2009-04-21T08:31:28Z</time>
      </trkpt>
      <trkpt lat="50.48214" lon="1.59841">
        <ele>10</ele>
        <time>2009-04-21T08:31:30Z</time>
      </trkpt>
      <trkpt lat="50.48215" lon="1.59857">
        <ele>10</ele>
        <time>2009-04-21T08:31:32Z</time>
      </trkpt>
      <trkpt lat="50.48218" lon="1.59873">
        <ele>10</ele>
        <time>2009-04-21T08:31:34Z</time>
      </trkpt>
      <trkpt lat="50.48219" lon="1.5989">
        <ele>10</ele>
        <time>2009-04-21T08:31:36Z</time>
      </trkpt>
      <trkpt lat="50.48222" lon="1.59907">
        <ele>10</ele>
        <time>2009-04-21T08:31:38Z</time>
      </trkpt>
      <trkpt lat="50.48224" lon="1.59924">
        <ele>10</ele>
        <time>2009-04-21T08:31:40Z</time>
      </trkpt>
      <trkpt lat="50.48226" lon="1.59941">
        <ele>10</ele>
        <time>2009-04-21T08:31:42Z</time>
      </trkpt>
      <trkpt lat="50.48227" lon="1.59959">
        <ele>10</ele>
        <time>2009-04-21T08:31:44Z</time>
      </trkpt>
      <trkpt lat="50.4823" lon="1.59977">
        <ele>10</ele>
        <time>2009-04-21T08:31:46Z</time>
      </trkpt>
      <trkpt lat="50.48232" lon="1.59994">
        <ele>10</ele>
        <time>2009-04-21T08:31:48Z</time>
      </trkpt>
      <trkpt lat="50.48234" lon="1.60012">
        <ele>10</ele>
        <time>2009-04-21T08:31:50Z</time>
      </trkpt>
      <trkpt lat="50.48236" lon="1.6003">
        <ele>10</ele>
        <time>2009-04-21T08:31:52Z</time>
      </trkpt>
      <trkpt lat="50.48238" lon="1.60047">
        <ele>10</ele>
        <time>2009-04-21T08:31:54Z</time>
      </trkpt>
      <trkpt lat="50.48241" lon="1.60065">
        <ele>10</ele>
        <time>2009-04-21T08:31:56Z</time>
      </trkpt>
      <trkpt lat="50.48242" lon="1.60084">
        <ele>10</ele>
        <time>2009-04-21T08:31:58Z</time>
      </trkpt>
      <trkpt lat="50.48245" lon="1.60102">
        <ele>10</ele>
        <time>2009-04-21T08:32:00Z</time>
      </trkpt>
      <trkpt lat="50.48247" lon="1.60121">
        <ele>10</ele>
        <time>2009-04-21T08:32:02Z</time>
      </trkpt>
      <trkpt lat="50.48248" lon="1.60139">
        <ele>10</ele>
        <time>2009-04-21T08:32:04Z</time>
      </trkpt>
      <trkpt lat="50.4825" lon="1.60157">
        <ele>10</ele>
        <time>2009-04-21T08:32:06Z</time>
      </trkpt>
      <trkpt lat="50.48252" lon="1.60175">
        <ele>10</ele>
        <time>2009-04-21T08:32:08Z</time>
      </trkpt>
      <trkpt lat="50.48254" lon="1.60192">
        <ele>10</ele>
        <time>2009-04-21T08:32:10Z</time>
      </trkpt>
      <trkpt lat="50.48256" lon="1.60208">
        <ele>10</ele>
        <time>2009-04-21T08:32:12Z</time>
      </trkpt>
      <trkpt lat="50.48257" lon="1.60224">
        <ele>10</ele>
        <time>2009-04-21T08:32:14Z</time>
      </trkpt>
      <trkpt lat="50.48259" lon="1.60238">
        <ele>10</ele>
        <time>2009-04-21T08:32:16Z</time>
      </trkpt>
      <trkpt lat="50.48261" lon="1.60253">
        <ele>10</ele>
        <time>2009-04-21T08:32:18Z</time>
      </trkpt>
      <trkpt lat="50.48262" lon="1.60268">
        <ele>10</ele>
        <time>2009-04-21T08:32:20Z</time>
      </trkpt>
      <trkpt lat="50.48265" lon="1.60281">
        <ele>10</ele>
        <time>2009-04-21T08:32:22Z</time>
      </trkpt>
      <trkpt lat="50.48268" lon="1.60298">
        <ele>10</ele>
        <time>2009-04-21T08:32:25Z</time>
      </trkpt>
      <trkpt lat="50.48272" lon="1.60312">
        <ele>10</ele>
        <time>2009-04-21T08:32:28Z</time>
      </trkpt>
      <trkpt lat="50.48277" lon="1.60329">
        <ele>10</ele>
        <time>2009-04-21T08:32:32Z</time>
      </trkpt>
      <trkpt lat="50.48279" lon="1.60344">
        <ele>10</ele>
        <time>2009-04-21T08:32:36Z</time>
      </trkpt>
      <trkpt lat="50.4828" lon="1.60358">
        <ele>20</ele>
        <time>2009-04-21T08:33:23Z</time>
      </trkpt>
      <trkpt lat="50.48281" lon="1.60373">
        <ele>20</ele>
        <time>2009-04-21T08:33:32Z</time>
      </trkpt>
      <trkpt lat="50.48285" lon="1.60387">
        <ele>20</ele>
        <time>2009-04-21T08:33:38Z</time>
      </trkpt>
      <trkpt lat="50.48295" lon="1.60399">
        <ele>20</ele>
        <time>2009-04-21T08:33:41Z</time>
      </trkpt>
      <trkpt lat="50.48303" lon="1.60411">
        <ele>20</ele>
        <time>2009-04-21T08:33:44Z</time>
      </trkpt>
      <trkpt lat="50.48305" lon="1.60427">
        <ele>20</ele>
        <time>2009-04-21T08:33:47Z</time>
      </trkpt>
      <trkpt lat="50.48307" lon="1.60445">
        <ele>20</ele>
        <time>2009-04-21T08:33:51Z</time>
      </trkpt>
      <trkpt lat="50.48308" lon="1.60459">
        <ele>20</ele>
        <time>2009-04-21T08:33:54Z</time>
      </trkpt>
      <trkpt lat="50.48308" lon="1.60477">
        <ele>20</ele>
        <time>2009-04-21T08:33:58Z</time>
      </trkpt>
      <trkpt lat="50.48309" lon="1.60493">
        <ele>20</ele>
        <time>2009-04-21T08:34:01Z</time>
      </trkpt>
      <trkpt lat="50.4831" lon="1.60507">
        <ele>20</ele>
        <time>2009-04-21T08:34:04Z</time>
      </trkpt>
      <trkpt lat="50.48312" lon="1.60522">
        <ele>20</ele>
        <time>2009-04-21T08:34:07Z</time>
      </trkpt>
      <trkpt lat="50.48313" lon="1.60536">
        <ele>20</ele>
        <time>2009-04-21T08:34:10Z</time>
      </trkpt>
      <trkpt lat="50.48315" lon="1.60552">
        <ele>20</ele>
        <time>2009-04-21T08:34:14Z</time>
      </trkpt>
      <trkpt lat="50.48316" lon="1.60569">
        <ele>20</ele>
        <time>2009-04-21T08:34:17Z</time>
      </trkpt>
      <trkpt lat="50.48317" lon="1.60586">
        <ele>20</ele>
        <time>2009-04-21T08:34:20Z</time>
      </trkpt>
      <trkpt lat="50.48319" lon="1.60602">
        <ele>20</ele>
        <time>2009-04-21T08:34:22Z</time>
      </trkpt>
      <trkpt lat="50.4832" lon="1.60617">
        <ele>20</ele>
        <time>2009-04-21T08:34:24Z</time>
      </trkpt>
      <trkpt lat="50.48321" lon="1.60634">
        <ele>20</ele>
        <time>2009-04-21T08:34:26Z</time>
      </trkpt>
      <trkpt lat="50.48322" lon="1.60651">
        <ele>20</ele>
        <time>2009-04-21T08:34:28Z</time>
      </trkpt>
      <trkpt lat="50.48324" lon="1.60669">
        <ele>20</ele>
        <time>2009-04-21T08:34:30Z</time>
      </trkpt>
      <trkpt lat="50.48325" lon="1.60687">
        <ele>20</ele>
        <time>2009-04-21T08:34:32Z</time>
      </trkpt>
      <trkpt lat="50.48326" lon="1.60706">
        <ele>20</ele>
        <time>2009-04-21T08:34:34Z</time>
      </trkpt>
      <trkpt lat="50.48328" lon="1.60725">
        <ele>14</ele>
        <time>2009-04-21T08:34:36Z</time>
      </trkpt>
      <trkpt lat="50.48329" lon="1.60745">
        <ele>14</ele>
        <time>2009-04-21T08:34:38Z</time>
      </trkpt>
      <trkpt lat="50.4833" lon="1.60764">
        <ele>14</ele>
        <time>2009-04-21T08:34:40Z</time>
      </trkpt>
      <trkpt lat="50.4833" lon="1.60784">
        <ele>14</ele>
        <time>2009-04-21T08:34:42Z</time>
      </trkpt>
      <trkpt lat="50.48331" lon="1.60804">
        <ele>14</ele>
        <time>2009-04-21T08:34:44Z</time>
      </trkpt>
      <trkpt lat="50.48335" lon="1.60822">
        <ele>14</ele>
        <time>2009-04-21T08:34:46Z</time>
      </trkpt>
      <trkpt lat="50.48342" lon="1.60837">
        <ele>14</ele>
        <time>2009-04-21T08:34:48Z</time>
      </trkpt>
      <trkpt lat="50.48352" lon="1.60847">
        <ele>14</ele>
        <time>2009-04-21T08:34:50Z</time>
      </trkpt>
      <trkpt lat="50.48364" lon="1.60851">
        <ele>14</ele>
        <time>2009-04-21T08:34:52Z</time>
      </trkpt>
      <trkpt lat="50.48378" lon="1.60856">
        <ele>14</ele>
        <time>2009-04-21T08:34:54Z</time>
      </trkpt>
      <trkpt lat="50.4839" lon="1.6086">
        <ele>14</ele>
        <time>2009-04-21T08:34:56Z</time>
      </trkpt>
      <trkpt lat="50.48403" lon="1.60864">
        <ele>14</ele>
        <time>2009-04-21T08:34:58Z</time>
      </trkpt>
      <trkpt lat="50.48415" lon="1.60869">
        <ele>14</ele>
        <time>2009-04-21T08:35:00Z</time>
      </trkpt>
      <trkpt lat="50.48428" lon="1.60873">
        <ele>14</ele>
        <time>2009-04-21T08:35:02Z</time>
      </trkpt>
      <trkpt lat="50.48441" lon="1.60877">
        <ele>14</ele>
        <time>2009-04-21T08:35:04Z</time>
      </trkpt>
      <trkpt lat="50.48453" lon="1.60882">
        <ele>14</ele>
        <time>2009-04-21T08:35:06Z</time>
      </trkpt>
      <trkpt lat="50.48465" lon="1.60887">
        <ele>14</ele>
        <time>2009-04-21T08:35:08Z</time>
      </trkpt>
      <trkpt lat="50.48478" lon="1.60891">
        <ele>14</ele>
        <time>2009-04-21T08:35:10Z</time>
      </trkpt>
      <trkpt lat="50.4849" lon="1.60896">
        <ele>14</ele>
        <time>2009-04-21T08:35:12Z</time>
      </trkpt>
      <trkpt lat="50.48503" lon="1.609">
        <ele>14</ele>
        <time>2009-04-21T08:35:14Z</time>
      </trkpt>
      <trkpt lat="50.48515" lon="1.60905">
        <ele>14</ele>
        <time>2009-04-21T08:35:16Z</time>
      </trkpt>
      <trkpt lat="50.48527" lon="1.60911">
        <ele>14</ele>
        <time>2009-04-21T08:35:18Z</time>
      </trkpt>
      <trkpt lat="50.48539" lon="1.60914">
        <ele>14</ele>
        <time>2009-04-21T08:35:20Z</time>
      </trkpt>
      <trkpt lat="50.48551" lon="1.60919">
        <ele>14</ele>
        <time>2009-04-21T08:35:22Z</time>
      </trkpt>
      <trkpt lat="50.48563" lon="1.60923">
        <ele>14</ele>
        <time>2009-04-21T08:35:24Z</time>
      </trkpt>
      <trkpt lat="50.48574" lon="1.60931">
        <ele>14</ele>
        <time>2009-04-21T08:35:26Z</time>
      </trkpt>
      <trkpt lat="50.48585" lon="1.60943">
        <ele>14</ele>
        <time>2009-04-21T08:35:28Z</time>
      </trkpt>
      <trkpt lat="50.48594" lon="1.60949">
        <ele>14</ele>
        <time>2009-04-21T08:35:30Z</time>
      </trkpt>
      <trkpt lat="50.48603" lon="1.60945">
        <ele>14</ele>
        <time>2009-04-21T08:35:32Z</time>
      </trkpt>
      <trkpt lat="50.48613" lon="1.60934">
        <ele>14</ele>
        <time>2009-04-21T08:35:34Z</time>
      </trkpt>
      <trkpt lat="50.48622" lon="1.60923">
        <ele>14</ele>
        <time>2009-04-21T08:35:36Z</time>
      </trkpt>
      <trkpt lat="50.48631" lon="1.60912">
        <ele>14</ele>
        <time>2009-04-21T08:35:38Z</time>
      </trkpt>
      <trkpt lat="50.4864" lon="1.60899">
        <ele>14</ele>
        <time>2009-04-21T08:35:40Z</time>
      </trkpt>
      <trkpt lat="50.48648" lon="1.60887">
        <ele>14</ele>
        <time>2009-04-21T08:35:42Z</time>
      </trkpt>
      <trkpt lat="50.48657" lon="1.60875">
        <ele>14</ele>
        <time>2009-04-21T08:35:44Z</time>
      </trkpt>
      <trkpt lat="50.48666" lon="1.60862">
        <ele>9</ele>
        <time>2009-04-21T08:35:46Z</time>
      </trkpt>
      <trkpt lat="50.48675" lon="1.60849">
        <ele>9</ele>
        <time>2009-04-21T08:35:48Z</time>
      </trkpt>
      <trkpt lat="50.48684" lon="1.60836">
        <ele>9</ele>
        <time>2009-04-21T08:35:50Z</time>
      </trkpt>
      <trkpt lat="50.48694" lon="1.60824">
        <ele>9</ele>
        <time>2009-04-21T08:35:52Z</time>
      </trkpt>
      <trkpt lat="50.48703" lon="1.60811">
        <ele>9</ele>
        <time>2009-04-21T08:35:54Z</time>
      </trkpt>
      <trkpt lat="50.48713" lon="1.60798">
        <ele>9</ele>
        <time>2009-04-21T08:35:56Z</time>
      </trkpt>
      <trkpt lat="50.48723" lon="1.60789">
        <ele>9</ele>
        <time>2009-04-21T08:35:58Z</time>
      </trkpt>
      <trkpt lat="50.48735" lon="1.60782">
        <ele>9</ele>
        <time>2009-04-21T08:36:00Z</time>
      </trkpt>
      <trkpt lat="50.48746" lon="1.60777">
        <ele>9</ele>
        <time>2009-04-21T08:36:02Z</time>
      </trkpt>
      <trkpt lat="50.48758" lon="1.60773">
        <ele>9</ele>
        <time>2009-04-21T08:36:04Z</time>
      </trkpt>
      <trkpt lat="50.4877" lon="1.60773">
        <ele>9</ele>
        <time>2009-04-21T08:36:06Z</time>
      </trkpt>
      <trkpt lat="50.48782" lon="1.60775">
        <ele>9</ele>
        <time>2009-04-21T08:36:08Z</time>
      </trkpt>
      <trkpt lat="50.48793" lon="1.6078">
        <ele>9</ele>
        <time>2009-04-21T08:36:10Z</time>
      </trkpt>
      <trkpt lat="50.48805" lon="1.60783">
        <ele>15</ele>
        <time>2009-04-21T08:36:12Z</time>
      </trkpt>
      <trkpt lat="50.48816" lon="1.60787">
        <ele>15</ele>
        <time>2009-04-21T08:36:14Z</time>
      </trkpt>
      <trkpt lat="50.48828" lon="1.6079">
        <ele>15</ele>
        <time>2009-04-21T08:36:16Z</time>
      </trkpt>
      <trkpt lat="50.4884" lon="1.6079">
        <ele>15</ele>
        <time>2009-04-21T08:36:18Z</time>
      </trkpt>
      <trkpt lat="50.48852" lon="1.60788">
        <ele>15</ele>
        <time>2009-04-21T08:36:20Z</time>
      </trkpt>
      <trkpt lat="50.48863" lon="1.60783">
        <ele>15</ele>
        <time>2009-04-21T08:36:22Z</time>
      </trkpt>
      <trkpt lat="50.48874" lon="1.60776">
        <ele>15</ele>
        <time>2009-04-21T08:36:24Z</time>
      </trkpt>
      <trkpt lat="50.48884" lon="1.60767">
        <ele>15</ele>
        <time>2009-04-21T08:36:26Z</time>
      </trkpt>
      <trkpt lat="50.48892" lon="1.60754">
        <ele>15</ele>
        <time>2009-04-21T08:36:28Z</time>
      </trkpt>
      <trkpt lat="50.489" lon="1.60742">
        <ele>15</ele>
        <time>2009-04-21T08:36:30Z</time>
      </trkpt>
      <trkpt lat="50.48909" lon="1.60728">
        <ele>15</ele>
        <time>2009-04-21T08:36:32Z</time>
      </trkpt>
      <trkpt lat="50.48917" lon="1.60716">
        <ele>15</ele>
        <time>2009-04-21T08:36:34Z</time>
      </trkpt>
      <trkpt lat="50.48925" lon="1.60703">
        <ele>15</ele>
        <time>2009-04-21T08:36:36Z</time>
      </trkpt>
      <trkpt lat="50.48932" lon="1.6069">
        <ele>15</ele>
        <time>2009-04-21T08:36:38Z</time>
      </trkpt>
      <trkpt lat="50.4894" lon="1.60675">
        <ele>15</ele>
        <time>2009-04-21T08:36:40Z</time>
      </trkpt>
      <trkpt lat="50.48948" lon="1.60663">
        <ele>15</ele>
        <time>2009-04-21T08:36:42Z</time>
      </trkpt>
      <trkpt lat="50.48958" lon="1.60657">
        <ele>20</ele>
        <time>2009-04-21T08:36:44Z</time>
      </trkpt>
      <trkpt lat="50.48967" lon="1.60656">
        <ele>20</ele>
        <time>2009-04-21T08:36:46Z</time>
      </trkpt>
      <trkpt lat="50.48978" lon="1.60649">
        <ele>20</ele>
        <time>2009-04-21T08:36:49Z</time>
      </trkpt>
      <trkpt lat="50.48986" lon="1.60631">
        <ele>20</ele>
        <time>2009-04-21T08:36:52Z</time>
      </trkpt>
      <trkpt lat="50.48994" lon="1.60622">
        <ele>20</ele>
        <time>2009-04-21T08:36:54Z</time>
      </trkpt>
      <trkpt lat="50.49" lon="1.6061">
        <ele>20</ele>
        <time>2009-04-21T08:36:56Z</time>
      </trkpt>
      <trkpt lat="50.49005" lon="1.60595">
        <ele>20</ele>
        <time>2009-04-21T08:36:58Z</time>
      </trkpt>
      <trkpt lat="50.49014" lon="1.60586">
        <ele>20</ele>
        <time>2009-04-21T08:37:00Z</time>
      </trkpt>
      <trkpt lat="50.49022" lon="1.60574">
        <ele>20</ele>
        <time>2009-04-21T08:37:02Z</time>
      </trkpt>
      <trkpt lat="50.49028" lon="1.60556">
        <ele>14</ele>
        <time>2009-04-21T08:37:04Z</time>
      </trkpt>
      <trkpt lat="50.49037" lon="1.6054">
        <ele>14</ele>
        <time>2009-04-21T08:37:06Z</time>
      </trkpt>
      <trkpt lat="50.49045" lon="1.60521">
        <ele>14</ele>
        <time>2009-04-21T08:37:08Z</time>
      </trkpt>
      <trkpt lat="50.49053" lon="1.60499">
        <ele>14</ele>
        <time>2009-04-21T08:37:10Z</time>
      </trkpt>
      <trkpt lat="50.49061" lon="1.60478">
        <ele>14</ele>
        <time>2009-04-21T08:37:12Z</time>
      </trkpt>
      <trkpt lat="50.49072" lon="1.60458">
        <ele>14</ele>
        <time>2009-04-21T08:37:14Z</time>
      </trkpt>
      <trkpt lat="50.49083" lon="1.60438">
        <ele>14</ele>
        <time>2009-04-21T08:37:16Z</time>
      </trkpt>
      <trkpt lat="50.49092" lon="1.60417">
        <ele>14</ele>
        <time>2009-04-21T08:37:18Z</time>
      </trkpt>
      <trkpt lat="50.49102" lon="1.60396">
        <ele>14</ele>
        <time>2009-04-21T08:37:20Z</time>
      </trkpt>
      <trkpt lat="50.49111" lon="1.60375">
        <ele>14</ele>
        <time>2009-04-21T08:37:22Z</time>
      </trkpt>
      <trkpt lat="50.4912" lon="1.60355">
        <ele>14</ele>
        <time>2009-04-21T08:37:24Z</time>
      </trkpt>
      <trkpt lat="50.4913" lon="1.60336">
        <ele>14</ele>
        <time>2009-04-21T08:37:26Z</time>
      </trkpt>
      <trkpt lat="50.49139" lon="1.60317">
        <ele>14</ele>
        <time>2009-04-21T08:37:28Z</time>
      </trkpt>
      <trkpt lat="50.49147" lon="1.60298">
        <ele>9</ele>
        <time>2009-04-21T08:37:30Z</time>
      </trkpt>
      <trkpt lat="50.49156" lon="1.60281">
        <ele>9</ele>
        <time>2009-04-21T08:37:32Z</time>
      </trkpt>
      <trkpt lat="50.49166" lon="1.60265">
        <ele>9</ele>
        <time>2009-04-21T08:37:34Z</time>
      </trkpt>
      <trkpt lat="50.49175" lon="1.60247">
        <ele>9</ele>
        <time>2009-04-21T08:37:36Z</time>
      </trkpt>
      <trkpt lat="50.49182" lon="1.60227">
        <ele>9</ele>
        <time>2009-04-21T08:37:38Z</time>
      </trkpt>
      <trkpt lat="50.49191" lon="1.60209">
        <ele>9</ele>
        <time>2009-04-21T08:37:40Z</time>
      </trkpt>
      <trkpt lat="50.49199" lon="1.60191">
        <ele>9</ele>
        <time>2009-04-21T08:37:42Z</time>
      </trkpt>
      <trkpt lat="50.49209" lon="1.60173">
        <ele>9</ele>
        <time>2009-04-21T08:37:44Z</time>
      </trkpt>
      <trkpt lat="50.49219" lon="1.60156">
        <ele>9</ele>
        <time>2009-04-21T08:37:46Z</time>
      </trkpt>
      <trkpt lat="50.49229" lon="1.60137">
        <ele>9</ele>
        <time>2009-04-21T08:37:48Z</time>
      </trkpt>
      <trkpt lat="50.49236" lon="1.60118">
        <ele>4</ele>
        <time>2009-04-21T08:37:50Z</time>
      </trkpt>
      <trkpt lat="50.49245" lon="1.60101">
        <ele>4</ele>
        <time>2009-04-21T08:37:52Z</time>
      </trkpt>
      <trkpt lat="50.49255" lon="1.60085">
        <ele>4</ele>
        <time>2009-04-21T08:37:54Z</time>
      </trkpt>
      <trkpt lat="50.49261" lon="1.60065">
        <ele>4</ele>
        <time>2009-04-21T08:37:56Z</time>
      </trkpt>
      <trkpt lat="50.49269" lon="1.60048">
        <ele>4</ele>
        <time>2009-04-21T08:37:58Z</time>
      </trkpt>
      <trkpt lat="50.49276" lon="1.60028">
        <ele>4</ele>
        <time>2009-04-21T08:38:00Z</time>
      </trkpt>
      <trkpt lat="50.49285" lon="1.60009">
        <ele>4</ele>
        <time>2009-04-21T08:38:02Z</time>
      </trkpt>
      <trkpt lat="50.49296" lon="1.59991">
        <ele>4</ele>
        <time>2009-04-21T08:38:04Z</time>
      </trkpt>
      <trkpt lat="50.49304" lon="1.59972">
        <ele>4</ele>
        <time>2009-04-21T08:38:06Z</time>
      </trkpt>
      <trkpt lat="50.49313" lon="1.59953">
        <ele>4</ele>
        <time>2009-04-21T08:38:08Z</time>
      </trkpt>
      <trkpt lat="50.49323" lon="1.59935">
        <ele>4</ele>
        <time>2009-04-21T08:38:10Z</time>
      </trkpt>
      <trkpt lat="50.49332" lon="1.59917">
        <ele>4</ele>
        <time>2009-04-21T08:38:12Z</time>
      </trkpt>
      <trkpt lat="50.49341" lon="1.59898">
        <ele>4</ele>
        <time>2009-04-21T08:38:14Z</time>
      </trkpt>
      <trkpt lat="50.4935" lon="1.5988">
        <ele>4</ele>
        <time>2009-04-21T08:38:16Z</time>
      </trkpt>
      <trkpt lat="50.49357" lon="1.59858">
        <ele>4</ele>
        <time>2009-04-21T08:38:18Z</time>
      </trkpt>
      <trkpt lat="50.49365" lon="1.5984">
        <ele>4</ele>
        <time>2009-04-21T08:38:20Z</time>
      </trkpt>
      <trkpt lat="50.49373" lon="1.59823">
        <ele>4</ele>
        <time>2009-04-21T08:38:22Z</time>
      </trkpt>
      <trkpt lat="50.49379" lon="1.59802">
        <ele>4</ele>
        <time>2009-04-21T08:38:24Z</time>
      </trkpt>
      <trkpt lat="50.49385" lon="1.59781">
        <ele>4</ele>
        <time>2009-04-21T08:38:26Z</time>
      </trkpt>
      <trkpt lat="50.49393" lon="1.5976">
        <ele>4</ele>
        <time>2009-04-21T08:38:28Z</time>
      </trkpt>
      <trkpt lat="50.49402" lon="1.5974">
        <ele>4</ele>
        <time>2009-04-21T08:38:30Z</time>
      </trkpt>
      <trkpt lat="50.49412" lon="1.59722">
        <ele>4</ele>
        <time>2009-04-21T08:38:32Z</time>
      </trkpt>
      <trkpt lat="50.49421" lon="1.59703">
        <ele>4</ele>
        <time>2009-04-21T08:38:34Z</time>
      </trkpt>
      <trkpt lat="50.4943" lon="1.59685">
        <ele>4</ele>
        <time>2009-04-21T08:38:36Z</time>
      </trkpt>
      <trkpt lat="50.49439" lon="1.59667">
        <ele>4</ele>
        <time>2009-04-21T08:38:38Z</time>
      </trkpt>
      <trkpt lat="50.49449" lon="1.59652">
        <ele>4</ele>
        <time>2009-04-21T08:38:40Z</time>
      </trkpt>
      <trkpt lat="50.49458" lon="1.59634">
        <ele>4</ele>
        <time>2009-04-21T08:38:42Z</time>
      </trkpt>
      <trkpt lat="50.49463" lon="1.59612">
        <ele>4</ele>
        <time>2009-04-21T08:38:44Z</time>
      </trkpt>
      <trkpt lat="50.49469" lon="1.59589">
        <ele>4</ele>
        <time>2009-04-21T08:38:46Z</time>
      </trkpt>
      <trkpt lat="50.49476" lon="1.59568">
        <ele>4</ele>
        <time>2009-04-21T08:38:48Z</time>
      </trkpt>
      <trkpt lat="50.49484" lon="1.59547">
        <ele>4</ele>
        <time>2009-04-21T08:38:50Z</time>
      </trkpt>
      <trkpt lat="50.49492" lon="1.59526">
        <ele>4</ele>
        <time>2009-04-21T08:38:52Z</time>
      </trkpt>
      <trkpt lat="50.495" lon="1.59506">
        <ele>4</ele>
        <time>2009-04-21T08:38:54Z</time>
      </trkpt>
      <trkpt lat="50.4951" lon="1.5949">
        <ele>4</ele>
        <time>2009-04-21T08:38:56Z</time>
      </trkpt>
      <trkpt lat="50.49516" lon="1.59467">
        <ele>4</ele>
        <time>2009-04-21T08:38:58Z</time>
      </trkpt>
      <trkpt lat="50.49523" lon="1.59447">
        <ele>4</ele>
        <time>2009-04-21T08:39:00Z</time>
      </trkpt>
      <trkpt lat="50.49533" lon="1.59429">
        <ele>4</ele>
        <time>2009-04-21T08:39:02Z</time>
      </trkpt>
      <trkpt lat="50.4954" lon="1.59411">
        <ele>4</ele>
        <time>2009-04-21T08:39:04Z</time>
      </trkpt>
      <trkpt lat="50.49548" lon="1.59391">
        <ele>4</ele>
        <time>2009-04-21T08:39:06Z</time>
      </trkpt>
      <trkpt lat="50.49555" lon="1.59368">
        <ele>4</ele>
        <time>2009-04-21T08:39:08Z</time>
      </trkpt>
      <trkpt lat="50.49565" lon="1.59348">
        <ele>4</ele>
        <time>2009-04-21T08:39:10Z</time>
      </trkpt>
      <trkpt lat="50.49574" lon="1.59328">
        <ele>9</ele>
        <time>2009-04-21T08:39:12Z</time>
      </trkpt>
      <trkpt lat="50.49583" lon="1.59309">
        <ele>9</ele>
        <time>2009-04-21T08:39:14Z</time>
      </trkpt>
      <trkpt lat="50.4959" lon="1.59288">
        <ele>9</ele>
        <time>2009-04-21T08:39:16Z</time>
      </trkpt>
      <trkpt lat="50.49597" lon="1.59268">
        <ele>9</ele>
        <time>2009-04-21T08:39:18Z</time>
      </trkpt>
      <trkpt lat="50.49607" lon="1.5925">
        <ele>9</ele>
        <time>2009-04-21T08:39:20Z</time>
      </trkpt>
      <trkpt lat="50.49619" lon="1.59234">
        <ele>9</ele>
        <time>2009-04-21T08:39:22Z</time>
      </trkpt>
      <trkpt lat="50.49631" lon="1.59219">
        <ele>9</ele>
        <time>2009-04-21T08:39:24Z</time>
      </trkpt>
      <trkpt lat="50.49644" lon="1.59205">
        <ele>9</ele>
        <time>2009-04-21T08:39:26Z</time>
      </trkpt>
      <trkpt lat="50.49657" lon="1.59192">
        <ele>9</ele>
        <time>2009-04-21T08:39:28Z</time>
      </trkpt>
      <trkpt lat="50.49671" lon="1.59181">
        <ele>9</ele>
        <time>2009-04-21T08:39:30Z</time>
      </trkpt>
      <trkpt lat="50.49685" lon="1.59173">
        <ele>9</ele>
        <time>2009-04-21T08:39:32Z</time>
      </trkpt>
      <trkpt lat="50.497" lon="1.59166">
        <ele>9</ele>
        <time>2009-04-21T08:39:34Z</time>
      </trkpt>
      <trkpt lat="50.49715" lon="1.59158">
        <ele>9</ele>
        <time>2009-04-21T08:39:36Z</time>
      </trkpt>
      <trkpt lat="50.4973" lon="1.59151">
        <ele>9</ele>
        <time>2009-04-21T08:39:38Z</time>
      </trkpt>
      <trkpt lat="50.49744" lon="1.59146">
        <ele>9</ele>
        <time>2009-04-21T08:39:40Z</time>
      </trkpt>
      <trkpt lat="50.4976" lon="1.59142">
        <ele>9</ele>
        <time>2009-04-21T08:39:42Z</time>
      </trkpt>
      <trkpt lat="50.49774" lon="1.59141">
        <ele>9</ele>
        <time>2009-04-21T08:39:44Z</time>
      </trkpt>
      <trkpt lat="50.49789" lon="1.59137">
        <ele>9</ele>
        <time>2009-04-21T08:39:46Z</time>
      </trkpt>
      <trkpt lat="50.49803" lon="1.59135">
        <ele>9</ele>
        <time>2009-04-21T08:39:48Z</time>
      </trkpt>
      <trkpt lat="50.49818" lon="1.59132">
        <ele>9</ele>
        <time>2009-04-21T08:39:50Z</time>
      </trkpt>
      <trkpt lat="50.49833" lon="1.59129">
        <ele>9</ele>
        <time>2009-04-21T08:39:52Z</time>
      </trkpt>
      <trkpt lat="50.49848" lon="1.59129">
        <ele>9</ele>
        <time>2009-04-21T08:39:54Z</time>
      </trkpt>
      <trkpt lat="50.49864" lon="1.59129">
        <ele>9</ele>
        <time>2009-04-21T08:39:56Z</time>
      </trkpt>
      <trkpt lat="50.49879" lon="1.59128">
        <ele>9</ele>
        <time>2009-04-21T08:39:58Z</time>
      </trkpt>
      <trkpt lat="50.49895" lon="1.59129">
        <ele>9</ele>
        <time>2009-04-21T08:40:00Z</time>
      </trkpt>
      <trkpt lat="50.49905" lon="1.59131">
        <ele>15</ele>
        <time>2009-04-21T08:40:01Z</time>
      </trkpt>
      <trkpt lat="50.4992" lon="1.59136">
        <ele>15</ele>
        <time>2009-04-21T08:40:03Z</time>
      </trkpt>
      <trkpt lat="50.4993" lon="1.59139">
        <ele>15</ele>
        <time>2009-04-21T08:40:04Z</time>
      </trkpt>
      <trkpt lat="50.49938" lon="1.59144">
        <ele>15</ele>
        <time>2009-04-21T08:40:05Z</time>
      </trkpt>
      <trkpt lat="50.49952" lon="1.59152">
        <ele>20</ele>
        <time>2009-04-21T08:40:07Z</time>
      </trkpt>
      <trkpt lat="50.49966" lon="1.59163">
        <ele>20</ele>
        <time>2009-04-21T08:40:09Z</time>
      </trkpt>
      <trkpt lat="50.49979" lon="1.59174">
        <ele>20</ele>
        <time>2009-04-21T08:40:11Z</time>
      </trkpt>
      <trkpt lat="50.49991" lon="1.5919">
        <ele>20</ele>
        <time>2009-04-21T08:40:13Z</time>
      </trkpt>
      <trkpt lat="50.49998" lon="1.59207">
        <ele>20</ele>
        <time>2009-04-21T08:40:15Z</time>
      </trkpt>
      <trkpt lat="50.50007" lon="1.5922">
        <ele>20</ele>
        <time>2009-04-21T08:40:17Z</time>
      </trkpt>
      <trkpt lat="50.50017" lon="1.59233">
        <ele>20</ele>
        <time>2009-04-21T08:40:19Z</time>
      </trkpt>
      <trkpt lat="50.50027" lon="1.59246">
        <ele>20</ele>
        <time>2009-04-21T08:40:21Z</time>
      </trkpt>
      <trkpt lat="50.50033" lon="1.59263">
        <ele>20</ele>
        <time>2009-04-21T08:40:23Z</time>
      </trkpt>
      <trkpt lat="50.50039" lon="1.59279">
        <ele>20</ele>
        <time>2009-04-21T08:40:25Z</time>
      </trkpt>
      <trkpt lat="50.50048" lon="1.59294">
        <ele>20</ele>
        <time>2009-04-21T08:40:27Z</time>
      </trkpt>
      <trkpt lat="50.50058" lon="1.59306">
        <ele>20</ele>
        <time>2009-04-21T08:40:29Z</time>
      </trkpt>
      <trkpt lat="50.50069" lon="1.59319">
        <ele>20</ele>
        <time>2009-04-21T08:40:31Z</time>
      </trkpt>
      <trkpt lat="50.50077" lon="1.59331">
        <ele>20</ele>
        <time>2009-04-21T08:40:33Z</time>
      </trkpt>
      <trkpt lat="50.50085" lon="1.59341">
        <ele>20</ele>
        <time>2009-04-21T08:40:35Z</time>
      </trkpt>
      <trkpt lat="50.50091" lon="1.59353">
        <ele>20</ele>
        <time>2009-04-21T08:40:37Z</time>
      </trkpt>
      <trkpt lat="50.50103" lon="1.59358">
        <ele>20</ele>
        <time>2009-04-21T08:40:40Z</time>
      </trkpt>
      <trkpt lat="50.50111" lon="1.5935">
        <ele>20</ele>
        <time>2009-04-21T08:40:42Z</time>
      </trkpt>
      <trkpt lat="50.50118" lon="1.59336">
        <ele>20</ele>
        <time>2009-04-21T08:40:44Z</time>
      </trkpt>
      <trkpt lat="50.50128" lon="1.59323">
        <ele>20</ele>
        <time>2009-04-21T08:40:46Z</time>
      </trkpt>
      <trkpt lat="50.5014" lon="1.59314">
        <ele>15</ele>
        <time>2009-04-21T08:40:48Z</time>
      </trkpt>
      <trkpt lat="50.50152" lon="1.59309">
        <ele>15</ele>
        <time>2009-04-21T08:40:50Z</time>
      </trkpt>
      <trkpt lat="50.50165" lon="1.59305">
        <ele>15</ele>
        <time>2009-04-21T08:40:52Z</time>
      </trkpt>
      <trkpt lat="50.50179" lon="1.59301">
        <ele>15</ele>
        <time>2009-04-21T08:40:54Z</time>
      </trkpt>
      <trkpt lat="50.50192" lon="1.59297">
        <ele>15</ele>
        <time>2009-04-21T08:40:56Z</time>
      </trkpt>
      <trkpt lat="50.50206" lon="1.59293">
        <ele>15</ele>
        <time>2009-04-21T08:40:58Z</time>
      </trkpt>
      <trkpt lat="50.5022" lon="1.5929">
        <ele>15</ele>
        <time>2009-04-21T08:41:00Z</time>
      </trkpt>
      <trkpt lat="50.50234" lon="1.59287">
        <ele>15</ele>
        <time>2009-04-21T08:41:02Z</time>
      </trkpt>
      <trkpt lat="50.50247" lon="1.59282">
        <ele>15</ele>
        <time>2009-04-21T08:41:04Z</time>
      </trkpt>
      <trkpt lat="50.50261" lon="1.59279">
        <ele>15</ele>
        <time>2009-04-21T08:41:06Z</time>
      </trkpt>
      <trkpt lat="50.50274" lon="1.59276">
        <ele>15</ele>
        <time>2009-04-21T08:41:08Z</time>
      </trkpt>
      <trkpt lat="50.50288" lon="1.59272">
        <ele>15</ele>
        <time>2009-04-21T08:41:10Z</time>
      </trkpt>
      <trkpt lat="50.50302" lon="1.5927">
        <ele>15</ele>
        <time>2009-04-21T08:41:12Z</time>
      </trkpt>
      <trkpt lat="50.50316" lon="1.59268">
        <ele>15</ele>
        <time>2009-04-21T08:41:14Z</time>
      </trkpt>
      <trkpt lat="50.50329" lon="1.59268">
        <ele>15</ele>
        <time>2009-04-21T08:41:16Z</time>
      </trkpt>
      <trkpt lat="50.50342" lon="1.59266">
        <ele>15</ele>
        <time>2009-04-21T08:41:18Z</time>
      </trkpt>
      <trkpt lat="50.50355" lon="1.59261">
        <ele>15</ele>
        <time>2009-04-21T08:41:20Z</time>
      </trkpt>
      <trkpt lat="50.50368" lon="1.59261">
        <ele>15</ele>
        <time>2009-04-21T08:41:22Z</time>
      </trkpt>
      <trkpt lat="50.50382" lon="1.59261">
        <ele>15</ele>
        <time>2009-04-21T08:41:24Z</time>
      </trkpt>
      <trkpt lat="50.50395" lon="1.59259">
        <ele>15</ele>
        <time>2009-04-21T08:41:26Z</time>
      </trkpt>
      <trkpt lat="50.50409" lon="1.59255">
        <ele>15</ele>
        <time>2009-04-21T08:41:28Z</time>
      </trkpt>
      <trkpt lat="50.50422" lon="1.59252">
        <ele>15</ele>
        <time>2009-04-21T08:41:30Z</time>
      </trkpt>
      <trkpt lat="50.50435" lon="1.59253">
        <ele>15</ele>
        <time>2009-04-21T08:41:32Z</time>
      </trkpt>
      <trkpt lat="50.50447" lon="1.59256">
        <ele>15</ele>
        <time>2009-04-21T08:41:34Z</time>
      </trkpt>
      <trkpt lat="50.5046" lon="1.59251">
        <ele>15</ele>
        <time>2009-04-21T08:41:36Z</time>
      </trkpt>
      <trkpt lat="50.50473" lon="1.59246">
        <ele>15</ele>
        <time>2009-04-21T08:41:38Z</time>
      </trkpt>
      <trkpt lat="50.50487" lon="1.59244">
        <ele>15</ele>
        <time>2009-04-21T08:41:40Z</time>
      </trkpt>
      <trkpt lat="50.50501" lon="1.59244">
        <ele>15</ele>
        <time>2009-04-21T08:41:42Z</time>
      </trkpt>
      <trkpt lat="50.50514" lon="1.59244">
        <ele>15</ele>
        <time>2009-04-21T08:41:44Z</time>
      </trkpt>
      <trkpt lat="50.50529" lon="1.5924">
        <ele>15</ele>
        <time>2009-04-21T08:41:46Z</time>
      </trkpt>
      <trkpt lat="50.50542" lon="1.59236">
        <ele>15</ele>
        <time>2009-04-21T08:41:48Z</time>
      </trkpt>
      <trkpt lat="50.50556" lon="1.59233">
        <ele>15</ele>
        <time>2009-04-21T08:41:50Z</time>
      </trkpt>
      <trkpt lat="50.5057" lon="1.59231">
        <ele>15</ele>
        <time>2009-04-21T08:41:52Z</time>
      </trkpt>
      <trkpt lat="50.50584" lon="1.59228">
        <ele>15</ele>
        <time>2009-04-21T08:41:54Z</time>
      </trkpt>
      <trkpt lat="50.50597" lon="1.59226">
        <ele>15</ele>
        <time>2009-04-21T08:41:56Z</time>
      </trkpt>
      <trkpt lat="50.50609" lon="1.59227">
        <ele>15</ele>
        <time>2009-04-21T08:41:58Z</time>
      </trkpt>
      <trkpt lat="50.5062" lon="1.59228">
        <ele>15</ele>
        <time>2009-04-21T08:42:00Z</time>
      </trkpt>
      <trkpt lat="50.50632" lon="1.59225">
        <ele>15</ele>
        <time>2009-04-21T08:42:02Z</time>
      </trkpt>
      <trkpt lat="50.50644" lon="1.59221">
        <ele>15</ele>
        <time>2009-04-21T08:42:04Z</time>
      </trkpt>
      <trkpt lat="50.50655" lon="1.59218">
        <ele>15</ele>
        <time>2009-04-21T08:42:06Z</time>
      </trkpt>
      <trkpt lat="50.50666" lon="1.59217">
        <ele>15</ele>
        <time>2009-04-21T08:42:08Z</time>
      </trkpt>
      <trkpt lat="50.50675" lon="1.59219">
        <ele>15</ele>
        <time>2009-04-21T08:42:10Z</time>
      </trkpt>
      <trkpt lat="50.50687" lon="1.59226">
        <ele>15</ele>
        <time>2009-04-21T08:42:13Z</time>
      </trkpt>
      <trkpt lat="50.50693" lon="1.59238">
        <ele>10</ele>
        <time>2009-04-21T08:42:16Z</time>
      </trkpt>
      <trkpt lat="50.50697" lon="1.59257">
        <ele>10</ele>
        <time>2009-04-21T08:42:19Z</time>
      </trkpt>
      <trkpt lat="50.50702" lon="1.59269">
        <ele>10</ele>
        <time>2009-04-21T08:42:21Z</time>
      </trkpt>
      <trkpt lat="50.50709" lon="1.59278">
        <ele>10</ele>
        <time>2009-04-21T08:42:23Z</time>
      </trkpt>
      <trkpt lat="50.50718" lon="1.59288">
        <ele>10</ele>
        <time>2009-04-21T08:42:25Z</time>
      </trkpt>
      <trkpt lat="50.50725" lon="1.59297">
        <ele>10</ele>
        <time>2009-04-21T08:42:27Z</time>
      </trkpt>
      <trkpt lat="50.50732" lon="1.59307">
        <ele>10</ele>
        <time>2009-04-21T08:42:29Z</time>
      </trkpt>
      <trkpt lat="50.5074" lon="1.59317">
        <ele>10</ele>
        <time>2009-04-21T08:42:31Z</time>
      </trkpt>
      <trkpt lat="50.50748" lon="1.59327">
        <ele>10</ele>
        <time>2009-04-21T08:42:33Z</time>
      </trkpt>
      <trkpt lat="50.50755" lon="1.59338">
        <ele>10</ele>
        <time>2009-04-21T08:42:35Z</time>
      </trkpt>
      <trkpt lat="50.50762" lon="1.59349">
        <ele>10</ele>
        <time>2009-04-21T08:42:37Z</time>
      </trkpt>
      <trkpt lat="50.5077" lon="1.59358">
        <ele>10</ele>
        <time>2009-04-21T08:42:39Z</time>
      </trkpt>
      <trkpt lat="50.50779" lon="1.59368">
        <ele>10</ele>
        <time>2009-04-21T08:42:41Z</time>
      </trkpt>
      <trkpt lat="50.50785" lon="1.59379">
        <ele>10</ele>
        <time>2009-04-21T08:42:43Z</time>
      </trkpt>
      <trkpt lat="50.50787" lon="1.59394">
        <ele>10</ele>
        <time>2009-04-21T08:42:45Z</time>
      </trkpt>
      <trkpt lat="50.50785" lon="1.5941">
        <ele>10</ele>
        <time>2009-04-21T08:42:47Z</time>
      </trkpt>
      <trkpt lat="50.50785" lon="1.59425">
        <ele>10</ele>
        <time>2009-04-21T08:42:49Z</time>
      </trkpt>
      <trkpt lat="50.50786" lon="1.59439">
        <ele>10</ele>
        <time>2009-04-21T08:42:51Z</time>
      </trkpt>
      <trkpt lat="50.50788" lon="1.59454">
        <ele>10</ele>
        <time>2009-04-21T08:42:54Z</time>
      </trkpt>
      <trkpt lat="50.50791" lon="1.59468">
        <ele>10</ele>
        <time>2009-04-21T08:43:55Z</time>
      </trkpt>
      <trkpt lat="50.50791" lon="1.59484">
        <ele>10</ele>
        <time>2009-04-21T08:44:04Z</time>
      </trkpt>
      <trkpt lat="50.50792" lon="1.59499">
        <ele>15</ele>
        <time>2009-04-21T08:44:09Z</time>
      </trkpt>
      <trkpt lat="50.50792" lon="1.59513">
        <ele>15</ele>
        <time>2009-04-21T08:44:12Z</time>
      </trkpt>
      <trkpt lat="50.50789" lon="1.59529">
        <ele>15</ele>
        <time>2009-04-21T08:44:17Z</time>
      </trkpt>
      <trkpt lat="50.50784" lon="1.59541">
        <ele>15</ele>
        <time>2009-04-21T08:44:22Z</time>
      </trkpt>
      <trkpt lat="50.50779" lon="1.59553">
        <ele>20</ele>
        <time>2009-04-21T08:44:31Z</time>
      </trkpt>
      <trkpt lat="50.50772" lon="1.59566">
        <ele>20</ele>
        <time>2009-04-21T08:44:38Z</time>
      </trkpt>
      <trkpt lat="50.50769" lon="1.59582">
        <ele>20</ele>
        <time>2009-04-21T08:44:42Z</time>
      </trkpt>
      <trkpt lat="50.50766" lon="1.59596">
        <ele>20</ele>
        <time>2009-04-21T08:44:45Z</time>
      </trkpt>
      <trkpt lat="50.50761" lon="1.59615">
        <ele>20</ele>
        <time>2009-04-21T08:44:48Z</time>
      </trkpt>
      <trkpt lat="50.50761" lon="1.59629">
        <ele>20</ele>
        <time>2009-04-21T08:44:50Z</time>
      </trkpt>
      <trkpt lat="50.50761" lon="1.59643">
        <ele>20</ele>
        <time>2009-04-21T08:44:52Z</time>
      </trkpt>
      <trkpt lat="50.50762" lon="1.59659">
        <ele>20</ele>
        <time>2009-04-21T08:44:54Z</time>
      </trkpt>
      <trkpt lat="50.50763" lon="1.59676">
        <ele>20</ele>
        <time>2009-04-21T08:44:56Z</time>
      </trkpt>
      <trkpt lat="50.50764" lon="1.59691">
        <ele>20</ele>
        <time>2009-04-21T08:44:58Z</time>
      </trkpt>
      <trkpt lat="50.5077" lon="1.59709">
        <ele>20</ele>
        <time>2009-04-21T08:45:01Z</time>
      </trkpt>
      <trkpt lat="50.50772" lon="1.59724">
        <ele>20</ele>
        <time>2009-04-21T08:45:03Z</time>
      </trkpt>
      <trkpt lat="50.50778" lon="1.59736">
        <ele>20</ele>
        <time>2009-04-21T08:45:05Z</time>
      </trkpt>
      <trkpt lat="50.50787" lon="1.59746">
        <ele>20</ele>
        <time>2009-04-21T08:45:07Z</time>
      </trkpt>
      <trkpt lat="50.50795" lon="1.59756">
        <ele>20</ele>
        <time>2009-04-21T08:45:09Z</time>
      </trkpt>
      <trkpt lat="50.50804" lon="1.59763">
        <ele>20</ele>
        <time>2009-04-21T08:45:11Z</time>
      </trkpt>
      <trkpt lat="50.50811" lon="1.59774">
        <ele>20</ele>
        <time>2009-04-21T08:45:14Z</time>
      </trkpt>
      <trkpt lat="50.50819" lon="1.59786">
        <ele>20</ele>
        <time>2009-04-21T08:45:17Z</time>
      </trkpt>
      <trkpt lat="50.50824" lon="1.59799">
        <ele>20</ele>
        <time>2009-04-21T08:45:20Z</time>
      </trkpt>
      <trkpt lat="50.50834" lon="1.59802">
        <ele>20</ele>
        <time>2009-04-21T08:45:25Z</time>
      </trkpt>
      <trkpt lat="50.50844" lon="1.59809">
        <ele>20</ele>
        <time>2009-04-21T08:45:29Z</time>
      </trkpt>
      <trkpt lat="50.50852" lon="1.59817">
        <ele>20</ele>
        <time>2009-04-21T08:45:32Z</time>
      </trkpt>
      <trkpt lat="50.50859" lon="1.59826">
        <ele>20</ele>
        <time>2009-04-21T08:45:34Z</time>
      </trkpt>
      <trkpt lat="50.50867" lon="1.59835">
        <ele>20</ele>
        <time>2009-04-21T08:45:37Z</time>
      </trkpt>
      <trkpt lat="50.50878" lon="1.59837">
        <ele>26</ele>
        <time>2009-04-21T08:45:41Z</time>
      </trkpt>
      <trkpt lat="50.50889" lon="1.59839">
        <ele>26</ele>
        <time>2009-04-21T08:45:44Z</time>
      </trkpt>
      <trkpt lat="50.50898" lon="1.59838">
        <ele>26</ele>
        <time>2009-04-21T08:45:46Z</time>
      </trkpt>
      <trkpt lat="50.50908" lon="1.59836">
        <ele>26</ele>
        <time>2009-04-21T08:45:48Z</time>
      </trkpt>
      <trkpt lat="50.50919" lon="1.59837">
        <ele>26</ele>
        <time>2009-04-21T08:45:51Z</time>
      </trkpt>
      <trkpt lat="50.50928" lon="1.59832">
        <ele>20</ele>
        <time>2009-04-21T08:45:55Z</time>
      </trkpt>
      <trkpt lat="50.5094" lon="1.59831">
        <ele>20</ele>
        <time>2009-04-21T08:45:59Z</time>
      </trkpt>
      <trkpt lat="50.50948" lon="1.59835">
        <ele>20</ele>
        <time>2009-04-21T08:46:02Z</time>
      </trkpt>
      <trkpt lat="50.50959" lon="1.59841">
        <ele>20</ele>
        <time>2009-04-21T08:46:05Z</time>
      </trkpt>
      <trkpt lat="50.50969" lon="1.59845">
        <ele>20</ele>
        <time>2009-04-21T08:46:08Z</time>
      </trkpt>
      <trkpt lat="50.50978" lon="1.59849">
        <ele>15</ele>
        <time>2009-04-21T08:46:11Z</time>
      </trkpt>
      <trkpt lat="50.50989" lon="1.59855">
        <ele>15</ele>
        <time>2009-04-21T08:46:15Z</time>
      </trkpt>
      <trkpt lat="50.50999" lon="1.59866">
        <ele>15</ele>
        <time>2009-04-21T08:46:18Z</time>
      </trkpt>
      <trkpt lat="50.5101" lon="1.59877">
        <ele>15</ele>
        <time>2009-04-21T08:46:21Z</time>
      </trkpt>
      <trkpt lat="50.51021" lon="1.59888">
        <ele>21</ele>
        <time>2009-04-21T08:46:24Z</time>
      </trkpt>
      <trkpt lat="50.51032" lon="1.599">
        <ele>21</ele>
        <time>2009-04-21T08:46:27Z</time>
      </trkpt>
      <trkpt lat="50.51043" lon="1.59912">
        <ele>21</ele>
        <time>2009-04-21T08:46:30Z</time>
      </trkpt>
      <trkpt lat="50.51053" lon="1.59923">
        <ele>21</ele>
        <time>2009-04-21T08:46:33Z</time>
      </trkpt>
      <trkpt lat="50.51063" lon="1.59928">
        <ele>21</ele>
        <time>2009-04-21T08:46:36Z</time>
      </trkpt>
      <trkpt lat="50.51073" lon="1.59935">
        <ele>21</ele>
        <time>2009-04-21T08:46:39Z</time>
      </trkpt>
      <trkpt lat="50.51084" lon="1.59939">
        <ele>21</ele>
        <time>2009-04-21T08:46:42Z</time>
      </trkpt>
      <trkpt lat="50.51095" lon="1.59942">
        <ele>21</ele>
        <time>2009-04-21T08:46:44Z</time>
      </trkpt>
      <trkpt lat="50.51106" lon="1.59949">
        <ele>21</ele>
        <time>2009-04-21T08:46:46Z</time>
      </trkpt>
      <trkpt lat="50.51117" lon="1.59957">
        <ele>21</ele>
        <time>2009-04-21T08:46:48Z</time>
      </trkpt>
      <trkpt lat="50.51131" lon="1.59967">
        <ele>21</ele>
        <time>2009-04-21T08:46:50Z</time>
      </trkpt>
      <trkpt lat="50.51143" lon="1.5998">
        <ele>21</ele>
        <time>2009-04-21T08:46:52Z</time>
      </trkpt>
      <trkpt lat="50.51154" lon="1.59998">
        <ele>21</ele>
        <time>2009-04-21T08:46:54Z</time>
      </trkpt>
      <trkpt lat="50.5116" lon="1.60015">
        <ele>21</ele>
        <time>2009-04-21T08:46:56Z</time>
      </trkpt>
      <trkpt lat="50.51162" lon="1.60033">
        <ele>21</ele>
        <time>2009-04-21T08:46:58Z</time>
      </trkpt>
      <trkpt lat="50.51164" lon="1.60052">
        <ele>21</ele>
        <time>2009-04-21T08:47:00Z</time>
      </trkpt>
      <trkpt lat="50.51163" lon="1.60068">
        <ele>21</ele>
        <time>2009-04-21T08:47:02Z</time>
      </trkpt>
      <trkpt lat="50.51166" lon="1.60083">
        <ele>21</ele>
        <time>2009-04-21T08:47:04Z</time>
      </trkpt>
      <trkpt lat="50.51178" lon="1.60085">
        <ele>21</ele>
        <time>2009-04-21T08:47:07Z</time>
      </trkpt>
      <trkpt lat="50.51188" lon="1.60084">
        <ele>15</ele>
        <time>2009-04-21T08:47:09Z</time>
      </trkpt>
      <trkpt lat="50.51196" lon="1.60081">
        <ele>15</ele>
        <time>2009-04-21T08:47:11Z</time>
      </trkpt>
      <trkpt lat="50.51206" lon="1.60074">
        <ele>15</ele>
        <time>2009-04-21T08:47:13Z</time>
      </trkpt>
      <trkpt lat="50.51216" lon="1.60068">
        <ele>15</ele>
        <time>2009-04-21T08:47:15Z</time>
      </trkpt>
      <trkpt lat="50.51226" lon="1.60062">
        <ele>15</ele>
        <time>2009-04-21T08:47:17Z</time>
      </trkpt>
      <trkpt lat="50.51237" lon="1.60054">
        <ele>15</ele>
        <time>2009-04-21T08:47:20Z</time>
      </trkpt>
      <trkpt lat="50.51246" lon="1.60047">
        <ele>15</ele>
        <time>2009-04-21T08:47:23Z</time>
      </trkpt>
      <trkpt lat="50.51255" lon="1.60039">
        <ele>15</ele>
        <time>2009-04-21T08:47:26Z</time>
      </trkpt>
      <trkpt lat="50.51264" lon="1.60032">
        <ele>15</ele>
        <time>2009-04-21T08:47:29Z</time>
      </trkpt>
      <trkpt lat="50.51274" lon="1.60028">
        <ele>15</ele>
        <time>2009-04-21T08:47:32Z</time>
      </trkpt>
      <trkpt lat="50.51284" lon="1.60022">
        <ele>15</ele>
        <time>2009-04-21T08:47:35Z</time>
      </trkpt>
      <trkpt lat="50.51295" lon="1.60016">
        <ele>15</ele>
        <time>2009-04-21T08:47:38Z</time>
      </trkpt>
      <trkpt lat="50.51306" lon="1.60012">
        <ele>15</ele>
        <time>2009-04-21T08:47:41Z</time>
      </trkpt>
      <trkpt lat="50.51317" lon="1.60001">
        <ele>15</ele>
        <time>2009-04-21T08:47:44Z</time>
      </trkpt>
      <trkpt lat="50.51324" lon="1.59986">
        <ele>15</ele>
        <time>2009-04-21T08:47:46Z</time>
      </trkpt>
      <trkpt lat="50.5133" lon="1.59968">
        <ele>15</ele>
        <time>2009-04-21T08:47:48Z</time>
      </trkpt>
      <trkpt lat="50.51335" lon="1.59953">
        <ele>15</ele>
        <time>2009-04-21T08:47:50Z</time>
      </trkpt>
      <trkpt lat="50.51341" lon="1.59939">
        <ele>15</ele>
        <time>2009-04-21T08:47:52Z</time>
      </trkpt>
      <trkpt lat="50.51347" lon="1.59927">
        <ele>15</ele>
        <time>2009-04-21T08:47:54Z</time>
      </trkpt>
      <trkpt lat="50.51356" lon="1.59918">
        <ele>15</ele>
        <time>2009-04-21T08:47:56Z</time>
      </trkpt>
      <trkpt lat="50.51367" lon="1.59909">
        <ele>15</ele>
        <time>2009-04-21T08:47:58Z</time>
      </trkpt>
      <trkpt lat="50.51379" lon="1.59899">
        <ele>15</ele>
        <time>2009-04-21T08:48:00Z</time>
      </trkpt>
      <trkpt lat="50.51392" lon="1.59888">
        <ele>15</ele>
        <time>2009-04-21T08:48:02Z</time>
      </trkpt>
      <trkpt lat="50.51402" lon="1.59876">
        <ele>15</ele>
        <time>2009-04-21T08:48:04Z</time>
      </trkpt>
      <trkpt lat="50.51414" lon="1.59862">
        <ele>15</ele>
        <time>2009-04-21T08:48:06Z</time>
      </trkpt>
      <trkpt lat="50.51423" lon="1.59848">
        <ele>15</ele>
        <time>2009-04-21T08:48:08Z</time>
      </trkpt>
      <trkpt lat="50.51434" lon="1.59837">
        <ele>15</ele>
        <time>2009-04-21T08:48:10Z</time>
      </trkpt>
      <trkpt lat="50.51444" lon="1.59833">
        <ele>15</ele>
        <time>2009-04-21T08:48:12Z</time>
      </trkpt>
      <trkpt lat="50.51454" lon="1.59832">
        <ele>15</ele>
        <time>2009-04-21T08:48:14Z</time>
      </trkpt>
      <trkpt lat="50.51464" lon="1.59835">
        <ele>15</ele>
        <time>2009-04-21T08:48:16Z</time>
      </trkpt>
      <trkpt lat="50.51473" lon="1.59846">
        <ele>15</ele>
        <time>2009-04-21T08:48:18Z</time>
      </trkpt>
      <trkpt lat="50.51481" lon="1.59858">
        <ele>15</ele>
        <time>2009-04-21T08:48:20Z</time>
      </trkpt>
      <trkpt lat="50.51491" lon="1.59871">
        <ele>15</ele>
        <time>2009-04-21T08:48:22Z</time>
      </trkpt>
      <trkpt lat="50.51499" lon="1.59884">
        <ele>15</ele>
        <time>2009-04-21T08:48:24Z</time>
      </trkpt>
      <trkpt lat="50.51507" lon="1.59898">
        <ele>15</ele>
        <time>2009-04-21T08:48:26Z</time>
      </trkpt>
      <trkpt lat="50.51516" lon="1.59912">
        <ele>15</ele>
        <time>2009-04-21T08:48:28Z</time>
      </trkpt>
      <trkpt lat="50.51526" lon="1.59925">
        <ele>15</ele>
        <time>2009-04-21T08:48:30Z</time>
      </trkpt>
      <trkpt lat="50.51534" lon="1.59937">
        <ele>15</ele>
        <time>2009-04-21T08:48:32Z</time>
      </trkpt>
      <trkpt lat="50.51543" lon="1.59949">
        <ele>15</ele>
        <time>2009-04-21T08:48:34Z</time>
      </trkpt>
      <trkpt lat="50.51554" lon="1.59961">
        <ele>15</ele>
        <time>2009-04-21T08:48:36Z</time>
      </trkpt>
      <trkpt lat="50.51565" lon="1.59974">
        <ele>15</ele>
        <time>2009-04-21T08:48:38Z</time>
      </trkpt>
      <trkpt lat="50.51576" lon="1.59985">
        <ele>15</ele>
        <time>2009-04-21T08:48:40Z</time>
      </trkpt>
      <trkpt lat="50.51586" lon="1.59994">
        <ele>15</ele>
        <time>2009-04-21T08:48:42Z</time>
      </trkpt>
      <trkpt lat="50.51596" lon="1.60006">
        <ele>15</ele>
        <time>2009-04-21T08:48:44Z</time>
      </trkpt>
      <trkpt lat="50.51605" lon="1.60017">
        <ele>15</ele>
        <time>2009-04-21T08:48:46Z</time>
      </trkpt>
      <trkpt lat="50.51616" lon="1.60027">
        <ele>15</ele>
        <time>2009-04-21T08:48:48Z</time>
      </trkpt>
      <trkpt lat="50.51629" lon="1.60038">
        <ele>15</ele>
        <time>2009-04-21T08:48:50Z</time>
      </trkpt>
      <trkpt lat="50.5164" lon="1.60048">
        <ele>15</ele>
        <time>2009-04-21T08:48:52Z</time>
      </trkpt>
      <trkpt lat="50.51651" lon="1.60058">
        <ele>15</ele>
        <time>2009-04-21T08:48:54Z</time>
      </trkpt>
      <trkpt lat="50.51661" lon="1.60067">
        <ele>15</ele>
        <time>2009-04-21T08:48:56Z</time>
      </trkpt>
      <trkpt lat="50.51672" lon="1.60075">
        <ele>15</ele>
        <time>2009-04-21T08:48:58Z</time>
      </trkpt>
      <trkpt lat="50.51681" lon="1.60085">
        <ele>15</ele>
        <time>2009-04-21T08:49:00Z</time>
      </trkpt>
      <trkpt lat="50.51693" lon="1.60094">
        <ele>15</ele>
        <time>2009-04-21T08:49:02Z</time>
      </trkpt>
      <trkpt lat="50.51707" lon="1.60103">
        <ele>15</ele>
        <time>2009-04-21T08:49:04Z</time>
      </trkpt>
      <trkpt lat="50.51718" lon="1.60112">
        <ele>15</ele>
        <time>2009-04-21T08:49:06Z</time>
      </trkpt>
      <trkpt lat="50.5173" lon="1.6012">
        <ele>15</ele>
        <time>2009-04-21T08:49:08Z</time>
      </trkpt>
      <trkpt lat="50.51744" lon="1.60128">
        <ele>15</ele>
        <time>2009-04-21T08:49:10Z</time>
      </trkpt>
      <trkpt lat="50.51756" lon="1.60137">
        <ele>15</ele>
        <time>2009-04-21T08:49:12Z</time>
      </trkpt>
      <trkpt lat="50.51767" lon="1.60146">
        <ele>15</ele>
        <time>2009-04-21T08:49:14Z</time>
      </trkpt>
      <trkpt lat="50.51778" lon="1.60155">
        <ele>15</ele>
        <time>2009-04-21T08:49:16Z</time>
      </trkpt>
      <trkpt lat="50.51788" lon="1.60163">
        <ele>15</ele>
        <time>2009-04-21T08:49:18Z</time>
      </trkpt>
      <trkpt lat="50.51799" lon="1.60172">
        <ele>15</ele>
        <time>2009-04-21T08:49:20Z</time>
      </trkpt>
      <trkpt lat="50.51811" lon="1.60181">
        <ele>15</ele>
        <time>2009-04-21T08:49:22Z</time>
      </trkpt>
      <trkpt lat="50.51823" lon="1.60189">
        <ele>15</ele>
        <time>2009-04-21T08:49:24Z</time>
      </trkpt>
      <trkpt lat="50.51836" lon="1.60198">
        <ele>15</ele>
        <time>2009-04-21T08:49:26Z</time>
      </trkpt>
      <trkpt lat="50.5185" lon="1.60207">
        <ele>15</ele>
        <time>2009-04-21T08:49:28Z</time>
      </trkpt>
      <trkpt lat="50.51861" lon="1.60216">
        <ele>15</ele>
        <time>2009-04-21T08:49:30Z</time>
      </trkpt>
      <trkpt lat="50.51871" lon="1.60224">
        <ele>15</ele>
        <time>2009-04-21T08:49:32Z</time>
      </trkpt>
      <trkpt lat="50.51885" lon="1.60233">
        <ele>15</ele>
        <time>2009-04-21T08:49:34Z</time>
      </trkpt>
      <trkpt lat="50.51899" lon="1.60242">
        <ele>21</ele>
        <time>2009-04-21T08:49:36Z</time>
      </trkpt>
      <trkpt lat="50.5191" lon="1.6025">
        <ele>21</ele>
        <time>2009-04-21T08:49:38Z</time>
      </trkpt>
      <trkpt lat="50.51921" lon="1.60259">
        <ele>21</ele>
        <time>2009-04-21T08:49:40Z</time>
      </trkpt>
      <trkpt lat="50.51934" lon="1.60269">
        <ele>21</ele>
        <time>2009-04-21T08:49:42Z</time>
      </trkpt>
      <trkpt lat="50.51944" lon="1.60277">
        <ele>21</ele>
        <time>2009-04-21T08:49:44Z</time>
      </trkpt>
      <trkpt lat="50.51956" lon="1.60286">
        <ele>21</ele>
        <time>2009-04-21T08:49:46Z</time>
      </trkpt>
      <trkpt lat="50.51968" lon="1.60295">
        <ele>21</ele>
        <time>2009-04-21T08:49:48Z</time>
      </trkpt>
      <trkpt lat="50.51979" lon="1.60302">
        <ele>21</ele>
        <time>2009-04-21T08:49:50Z</time>
      </trkpt>
      <trkpt lat="50.5199" lon="1.60307">
        <ele>21</ele>
        <time>2009-04-21T08:49:52Z</time>
      </trkpt>
      <trkpt lat="50.51993" lon="1.60326">
        <ele>21</ele>
        <time>2009-04-21T08:49:55Z</time>
      </trkpt>
      <trkpt lat="50.5199" lon="1.60342">
        <ele>21</ele>
        <time>2009-04-21T08:49:57Z</time>
      </trkpt>
      <trkpt lat="50.51989" lon="1.60361">
        <ele>14</ele>
        <time>2009-04-21T08:49:59Z</time>
      </trkpt>
      <trkpt lat="50.51985" lon="1.6038">
        <ele>14</ele>
        <time>2009-04-21T08:50:01Z</time>
      </trkpt>
      <trkpt lat="50.51979" lon="1.60395">
        <ele>14</ele>
        <time>2009-04-21T08:50:03Z</time>
      </trkpt>
      <trkpt lat="50.51972" lon="1.60409">
        <ele>14</ele>
        <time>2009-04-21T08:50:05Z</time>
      </trkpt>
      <trkpt lat="50.51965" lon="1.60423">
        <ele>14</ele>
        <time>2009-04-21T08:50:07Z</time>
      </trkpt>
      <trkpt lat="50.51957" lon="1.60438">
        <ele>14</ele>
        <time>2009-04-21T08:50:09Z</time>
      </trkpt>
      <trkpt lat="50.5195" lon="1.60454">
        <ele>14</ele>
        <time>2009-04-21T08:50:11Z</time>
      </trkpt>
      <trkpt lat="50.51944" lon="1.6047">
        <ele>9</ele>
        <time>2009-04-21T08:50:13Z</time>
      </trkpt>
      <trkpt lat="50.51937" lon="1.60483">
        <ele>9</ele>
        <time>2009-04-21T08:50:15Z</time>
      </trkpt>
      <trkpt lat="50.5193" lon="1.60498">
        <ele>9</ele>
        <time>2009-04-21T08:50:17Z</time>
      </trkpt>
      <trkpt lat="50.51922" lon="1.60514">
        <ele>9</ele>
        <time>2009-04-21T08:50:19Z</time>
      </trkpt>
      <trkpt lat="50.51914" lon="1.60529">
        <ele>9</ele>
        <time>2009-04-21T08:50:21Z</time>
      </trkpt>
      <trkpt lat="50.51906" lon="1.60542">
        <ele>9</ele>
        <time>2009-04-21T08:50:23Z</time>
      </trkpt>
      <trkpt lat="50.519" lon="1.60558">
        <ele>9</ele>
        <time>2009-04-21T08:50:25Z</time>
      </trkpt>
      <trkpt lat="50.51893" lon="1.60572">
        <ele>9</ele>
        <time>2009-04-21T08:50:27Z</time>
      </trkpt>
      <trkpt lat="50.51885" lon="1.60586">
        <ele>9</ele>
        <time>2009-04-21T08:50:29Z</time>
      </trkpt>
      <trkpt lat="50.51877" lon="1.606">
        <ele>9</ele>
        <time>2009-04-21T08:50:31Z</time>
      </trkpt>
      <trkpt lat="50.5187" lon="1.60613">
        <ele>9</ele>
        <time>2009-04-21T08:50:33Z</time>
      </trkpt>
      <trkpt lat="50.51864" lon="1.60628">
        <ele>9</ele>
        <time>2009-04-21T08:50:35Z</time>
      </trkpt>
      <trkpt lat="50.51863" lon="1.60642">
        <ele>9</ele>
        <time>2009-04-21T08:50:37Z</time>
      </trkpt>
      <trkpt lat="50.51869" lon="1.60658">
        <ele>9</ele>
        <time>2009-04-21T08:50:40Z</time>
      </trkpt>
      <trkpt lat="50.51873" lon="1.60671">
        <ele>9</ele>
        <time>2009-04-21T08:50:42Z</time>
      </trkpt>
      <trkpt lat="50.51877" lon="1.60685">
        <ele>18</ele>
        <time>2009-04-21T08:50:45Z</time>
      </trkpt>
      <trkpt lat="50.51884" lon="1.60696">
        <ele>18</ele>
        <time>2009-04-21T08:50:51Z</time>
      </trkpt>
      <trkpt lat="50.51892" lon="1.60702">
        <ele>23</ele>
        <time>2009-04-21T08:50:58Z</time>
      </trkpt>
      <trkpt lat="50.51898" lon="1.60714">
        <ele>23</ele>
        <time>2009-04-21T08:51:04Z</time>
      </trkpt>
      <trkpt lat="50.51903" lon="1.60726">
        <ele>29</ele>
        <time>2009-04-21T08:51:09Z</time>
      </trkpt>
      <trkpt lat="50.51909" lon="1.60737">
        <ele>29</ele>
        <time>2009-04-21T08:51:14Z</time>
      </trkpt>
      <trkpt lat="50.51916" lon="1.60748">
        <ele>29</ele>
        <time>2009-04-21T08:51:21Z</time>
      </trkpt>
      <trkpt lat="50.51925" lon="1.60754">
        <ele>29</ele>
        <time>2009-04-21T08:52:00Z</time>
      </trkpt>
      <trkpt lat="50.51931" lon="1.60764">
        <ele>29</ele>
        <time>2009-04-21T08:52:06Z</time>
      </trkpt>
      <trkpt lat="50.5194" lon="1.60771">
        <ele>34</ele>
        <time>2009-04-21T08:52:11Z</time>
      </trkpt>
      <trkpt lat="50.5195" lon="1.60778">
        <ele>34</ele>
        <time>2009-04-21T08:52:15Z</time>
      </trkpt>
      <trkpt lat="50.51959" lon="1.60771">
        <ele>34</ele>
        <time>2009-04-21T08:52:19Z</time>
      </trkpt>
      <trkpt lat="50.51968" lon="1.60777">
        <ele>34</ele>
        <time>2009-04-21T08:52:28Z</time>
      </trkpt>
      <trkpt lat="50.51972" lon="1.60791">
        <ele>41</ele>
        <time>2009-04-21T08:52:33Z</time>
      </trkpt>
      <trkpt lat="50.51976" lon="1.60807">
        <ele>41</ele>
        <time>2009-04-21T08:52:37Z</time>
      </trkpt>
      <trkpt lat="50.51978" lon="1.60823">
        <ele>41</ele>
        <time>2009-04-21T08:52:41Z</time>
      </trkpt>
      <trkpt lat="50.51979" lon="1.6084">
        <ele>41</ele>
        <time>2009-04-21T08:52:44Z</time>
      </trkpt>
      <trkpt lat="50.51979" lon="1.60856">
        <ele>33</ele>
        <time>2009-04-21T08:52:47Z</time>
      </trkpt>
      <trkpt lat="50.51981" lon="1.60869">
        <ele>33</ele>
        <time>2009-04-21T08:52:50Z</time>
      </trkpt>
      <trkpt lat="50.51991" lon="1.60866">
        <ele>33</ele>
        <time>2009-04-21T08:52:53Z</time>
      </trkpt>
      <trkpt lat="50.52003" lon="1.60865">
        <ele>33</ele>
        <time>2009-04-21T08:52:55Z</time>
      </trkpt>
      <trkpt lat="50.52019" lon="1.60869">
        <ele>33</ele>
        <time>2009-04-21T08:52:57Z</time>
      </trkpt>
      <trkpt lat="50.52032" lon="1.60867">
        <ele>27</ele>
        <time>2009-04-21T08:52:59Z</time>
      </trkpt>
      <trkpt lat="50.52043" lon="1.60866">
        <ele>27</ele>
        <time>2009-04-21T08:53:01Z</time>
      </trkpt>
      <trkpt lat="50.52054" lon="1.60876">
        <ele>27</ele>
        <time>2009-04-21T08:53:03Z</time>
      </trkpt>
      <trkpt lat="50.52059" lon="1.60888">
        <ele>27</ele>
        <time>2009-04-21T08:53:05Z</time>
      </trkpt>
      <trkpt lat="50.52066" lon="1.60902">
        <ele>20</ele>
        <time>2009-04-21T08:53:08Z</time>
      </trkpt>
      <trkpt lat="50.52074" lon="1.60911">
        <ele>20</ele>
        <time>2009-04-21T08:53:11Z</time>
      </trkpt>
      <trkpt lat="50.52082" lon="1.60924">
        <ele>20</ele>
        <time>2009-04-21T08:53:13Z</time>
      </trkpt>
      <trkpt lat="50.5209" lon="1.60941">
        <ele>12</ele>
        <time>2009-04-21T08:53:15Z</time>
      </trkpt>
      <trkpt lat="50.52097" lon="1.6095">
        <ele>12</ele>
        <time>2009-04-21T08:53:17Z</time>
      </trkpt>
      <trkpt lat="50.52109" lon="1.60946">
        <ele>4</ele>
        <time>2009-04-21T08:53:20Z</time>
      </trkpt>
      <trkpt lat="50.52118" lon="1.60934">
        <ele>4</ele>
        <time>2009-04-21T08:53:23Z</time>
      </trkpt>
      <trkpt lat="50.52125" lon="1.60919">
        <ele>4</ele>
        <time>2009-04-21T08:53:26Z</time>
      </trkpt>
      <trkpt lat="50.5213" lon="1.60905">
        <ele>4</ele>
        <time>2009-04-21T08:53:28Z</time>
      </trkpt>
      <trkpt lat="50.52134" lon="1.60889">
        <ele>4</ele>
        <time>2009-04-21T08:53:30Z</time>
      </trkpt>
      <trkpt lat="50.52137" lon="1.60872">
        <ele>4</ele>
        <time>2009-04-21T08:53:32Z</time>
      </trkpt>
      <trkpt lat="50.5214" lon="1.60854">
        <ele>4</ele>
        <time>2009-04-21T08:53:34Z</time>
      </trkpt>
      <trkpt lat="50.52143" lon="1.60836">
        <ele>4</ele>
        <time>2009-04-21T08:53:36Z</time>
      </trkpt>
      <trkpt lat="50.52146" lon="1.60818">
        <ele>4</ele>
        <time>2009-04-21T08:53:38Z</time>
      </trkpt>
      <trkpt lat="50.52149" lon="1.60798">
        <ele>4</ele>
        <time>2009-04-21T08:53:40Z</time>
      </trkpt>
      <trkpt lat="50.52152" lon="1.6078">
        <ele>4</ele>
        <time>2009-04-21T08:53:42Z</time>
      </trkpt>
      <trkpt lat="50.52155" lon="1.6076">
        <ele>4</ele>
        <time>2009-04-21T08:53:44Z</time>
      </trkpt>
      <trkpt lat="50.52158" lon="1.6074">
        <ele>4</ele>
        <time>2009-04-21T08:53:46Z</time>
      </trkpt>
      <trkpt lat="50.52161" lon="1.60721">
        <ele>4</ele>
        <time>2009-04-21T08:53:48Z</time>
      </trkpt>
      <trkpt lat="50.52165" lon="1.60701">
        <ele>4</ele>
        <time>2009-04-21T08:53:50Z</time>
      </trkpt>
      <trkpt lat="50.52169" lon="1.60682">
        <ele>4</ele>
        <time>2009-04-21T08:53:52Z</time>
      </trkpt>
      <trkpt lat="50.52174" lon="1.60662">
        <ele>4</ele>
        <time>2009-04-21T08:53:54Z</time>
      </trkpt>
      <trkpt lat="50.52179" lon="1.60643">
        <ele>4</ele>
        <time>2009-04-21T08:53:56Z</time>
      </trkpt>
      <trkpt lat="50.52185" lon="1.60624">
        <ele>4</ele>
        <time>2009-04-21T08:53:58Z</time>
      </trkpt>
      <trkpt lat="50.52191" lon="1.60606">
        <ele>4</ele>
        <time>2009-04-21T08:54:00Z</time>
      </trkpt>
      <trkpt lat="50.52198" lon="1.60588">
        <ele>4</ele>
        <time>2009-04-21T08:54:02Z</time>
      </trkpt>
      <trkpt lat="50.52205" lon="1.60571">
        <ele>4</ele>
        <time>2009-04-21T08:54:04Z</time>
      </trkpt>
      <trkpt lat="50.52213" lon="1.60554">
        <ele>4</ele>
        <time>2009-04-21T08:54:06Z</time>
      </trkpt>
      <trkpt lat="50.52221" lon="1.60538">
        <ele>4</ele>
        <time>2009-04-21T08:54:08Z</time>
      </trkpt>
      <trkpt lat="50.52229" lon="1.60522">
        <ele>4</ele>
        <time>2009-04-21T08:54:10Z</time>
      </trkpt>
      <trkpt lat="50.52238" lon="1.60506">
        <ele>4</ele>
        <time>2009-04-21T08:54:12Z</time>
      </trkpt>
      <trkpt lat="50.52247" lon="1.6049">
        <ele>4</ele>
        <time>2009-04-21T08:54:14Z</time>
      </trkpt>
      <trkpt lat="50.52257" lon="1.60476">
        <ele>4</ele>
        <time>2009-04-21T08:54:16Z</time>
      </trkpt>
      <trkpt lat="50.52267" lon="1.60463">
        <ele>4</ele>
        <time>2009-04-21T08:54:18Z</time>
      </trkpt>
      <trkpt lat="50.52278" lon="1.60449">
        <ele>4</ele>
        <time>2009-04-21T08:54:20Z</time>
      </trkpt>
      <trkpt lat="50.52289" lon="1.60437">
        <ele>4</ele>
        <time>2009-04-21T08:54:22Z</time>
      </trkpt>
      <trkpt lat="50.52301" lon="1.60426">
        <ele>4</ele>
        <time>2009-04-21T08:54:24Z</time>
      </trkpt>
      <trkpt lat="50.52312" lon="1.60416">
        <ele>4</ele>
        <time>2009-04-21T08:54:26Z</time>
      </trkpt>
      <trkpt lat="50.52324" lon="1.60407">
        <ele>4</ele>
        <time>2009-04-21T08:54:28Z</time>
      </trkpt>
      <trkpt lat="50.52336" lon="1.60398">
        <ele>4</ele>
        <time>2009-04-21T08:54:30Z</time>
      </trkpt>
      <trkpt lat="50.52348" lon="1.6039">
        <ele>4</ele>
        <time>2009-04-21T08:54:32Z</time>
      </trkpt>
      <trkpt lat="50.52359" lon="1.60382">
        <ele>4</ele>
        <time>2009-04-21T08:54:34Z</time>
      </trkpt>
      <trkpt lat="50.52372" lon="1.60375">
        <ele>4</ele>
        <time>2009-04-21T08:54:36Z</time>
      </trkpt>
      <trkpt lat="50.52383" lon="1.60369">
        <ele>4</ele>
        <time>2009-04-21T08:54:38Z</time>
      </trkpt>
      <trkpt lat="50.52396" lon="1.60363">
        <ele>4</ele>
        <time>2009-04-21T08:54:40Z</time>
      </trkpt>
      <trkpt lat="50.52409" lon="1.60353">
        <ele>4</ele>
        <time>2009-04-21T08:54:42Z</time>
      </trkpt>
      <trkpt lat="50.52418" lon="1.60339">
        <ele>4</ele>
        <time>2009-04-21T08:54:44Z</time>
      </trkpt>
      <trkpt lat="50.52428" lon="1.60325">
        <ele>4</ele>
        <time>2009-04-21T08:54:46Z</time>
      </trkpt>
      <trkpt lat="50.52436" lon="1.60311">
        <ele>4</ele>
        <time>2009-04-21T08:54:48Z</time>
      </trkpt>
      <trkpt lat="50.52438" lon="1.60294">
        <ele>4</ele>
        <time>2009-04-21T08:54:51Z</time>
      </trkpt>
      <trkpt lat="50.52442" lon="1.6028">
        <ele>4</ele>
        <time>2009-04-21T08:54:53Z</time>
      </trkpt>
      <trkpt lat="50.52449" lon="1.60271">
        <ele>4</ele>
        <time>2009-04-21T08:54:55Z</time>
      </trkpt>
      <trkpt lat="50.52457" lon="1.60261">
        <ele>4</ele>
        <time>2009-04-21T08:54:57Z</time>
      </trkpt>
      <trkpt lat="50.52465" lon="1.60249">
        <ele>4</ele>
        <time>2009-04-21T08:54:59Z</time>
      </trkpt>
      <trkpt lat="50.52472" lon="1.60234">
        <ele>4</ele>
        <time>2009-04-21T08:55:01Z</time>
      </trkpt>
      <trkpt lat="50.52481" lon="1.60221">
        <ele>4</ele>
        <time>2009-04-21T08:55:03Z</time>
      </trkpt>
      <trkpt lat="50.52489" lon="1.60206">
        <ele>4</ele>
        <time>2009-04-21T08:55:05Z</time>
      </trkpt>
      <trkpt lat="50.52495" lon="1.60191">
        <ele>4</ele>
        <time>2009-04-21T08:55:07Z</time>
      </trkpt>
      <trkpt lat="50.525" lon="1.60174">
        <ele>4</ele>
        <time>2009-04-21T08:55:09Z</time>
      </trkpt>
      <trkpt lat="50.52504" lon="1.60156">
        <ele>4</ele>
        <time>2009-04-21T08:55:11Z</time>
      </trkpt>
      <trkpt lat="50.52508" lon="1.6014">
        <ele>4</ele>
        <time>2009-04-21T08:55:13Z</time>
      </trkpt>
      <trkpt lat="50.52512" lon="1.60126">
        <ele>4</ele>
        <time>2009-04-21T08:55:15Z</time>
      </trkpt>
      <trkpt lat="50.52517" lon="1.60113">
        <ele>4</ele>
        <time>2009-04-21T08:55:17Z</time>
      </trkpt>
      <trkpt lat="50.52524" lon="1.601">
        <ele>9</ele>
        <time>2009-04-21T08:55:20Z</time>
      </trkpt>
      <trkpt lat="50.52529" lon="1.60084">
        <ele>9</ele>
        <time>2009-04-21T08:55:23Z</time>
      </trkpt>
      <trkpt lat="50.52533" lon="1.60072">
        <ele>9</ele>
        <time>2009-04-21T08:55:25Z</time>
      </trkpt>
      <trkpt lat="50.5254" lon="1.60059">
        <ele>9</ele>
        <time>2009-04-21T08:55:27Z</time>
      </trkpt>
      <trkpt lat="50.52546" lon="1.60047">
        <ele>9</ele>
        <time>2009-04-21T08:55:29Z</time>
      </trkpt>
      <trkpt lat="50.52552" lon="1.60033">
        <ele>9</ele>
        <time>2009-04-21T08:55:31Z</time>
      </trkpt>
      <trkpt lat="50.52557" lon="1.60018">
        <ele>9</ele>
        <time>2009-04-21T08:55:33Z</time>
      </trkpt>
      <trkpt lat="50.52562" lon="1.60003">
        <ele>9</ele>
        <time>2009-04-21T08:55:35Z</time>
      </trkpt>
      <trkpt lat="50.52568" lon="1.59987">
        <ele>9</ele>
        <time>2009-04-21T08:55:37Z</time>
      </trkpt>
      <trkpt lat="50.52574" lon="1.59971">
        <ele>9</ele>
        <time>2009-04-21T08:55:39Z</time>
      </trkpt>
      <trkpt lat="50.52579" lon="1.59953">
        <ele>9</ele>
        <time>2009-04-21T08:55:41Z</time>
      </trkpt>
      <trkpt lat="50.52586" lon="1.59937">
        <ele>4</ele>
        <time>2009-04-21T08:55:43Z</time>
      </trkpt>
      <trkpt lat="50.52592" lon="1.59921">
        <ele>4</ele>
        <time>2009-04-21T08:55:45Z</time>
      </trkpt>
      <trkpt lat="50.52596" lon="1.59905">
        <ele>4</ele>
        <time>2009-04-21T08:55:47Z</time>
      </trkpt>
      <trkpt lat="50.52602" lon="1.59888">
        <ele>4</ele>
        <time>2009-04-21T08:55:49Z</time>
      </trkpt>
      <trkpt lat="50.52608" lon="1.59874">
        <ele>4</ele>
        <time>2009-04-21T08:55:51Z</time>
      </trkpt>
      <trkpt lat="50.52617" lon="1.59861">
        <ele>4</ele>
        <time>2009-04-21T08:55:53Z</time>
      </trkpt>
      <trkpt lat="50.52626" lon="1.59847">
        <ele>4</ele>
        <time>2009-04-21T08:55:55Z</time>
      </trkpt>
      <trkpt lat="50.52636" lon="1.59842">
        <ele>4</ele>
        <time>2009-04-21T08:55:57Z</time>
      </trkpt>
      <trkpt lat="50.52643" lon="1.5985">
        <ele>4</ele>
        <time>2009-04-21T08:55:59Z</time>
      </trkpt>
      <trkpt lat="50.5265" lon="1.59864">
        <ele>4</ele>
        <time>2009-04-21T08:56:01Z</time>
      </trkpt>
      <trkpt lat="50.52657" lon="1.5988">
        <ele>4</ele>
        <time>2009-04-21T08:56:03Z</time>
      </trkpt>
      <trkpt lat="50.52663" lon="1.59896">
        <ele>4</ele>
        <time>2009-04-21T08:56:05Z</time>
      </trkpt>
      <trkpt lat="50.52671" lon="1.59906">
        <ele>4</ele>
        <time>2009-04-21T08:56:07Z</time>
      </trkpt>
      <trkpt lat="50.52682" lon="1.59903">
        <ele>4</ele>
        <time>2009-04-21T08:56:09Z</time>
      </trkpt>
      <trkpt lat="50.52691" lon="1.59889">
        <ele>4</ele>
        <time>2009-04-21T08:56:12Z</time>
      </trkpt>
      <trkpt lat="50.52696" lon="1.59875">
        <ele>4</ele>
        <time>2009-04-21T08:56:15Z</time>
      </trkpt>
      <trkpt lat="50.52702" lon="1.59859">
        <ele>4</ele>
        <time>2009-04-21T08:56:18Z</time>
      </trkpt>
      <trkpt lat="50.52712" lon="1.59844">
        <ele>4</ele>
        <time>2009-04-21T08:56:21Z</time>
      </trkpt>
      <trkpt lat="50.5272" lon="1.5983">
        <ele>4</ele>
        <time>2009-04-21T08:56:24Z</time>
      </trkpt>
      <trkpt lat="50.52729" lon="1.59818">
        <ele>4</ele>
        <time>2009-04-21T08:56:27Z</time>
      </trkpt>
      <trkpt lat="50.52738" lon="1.59804">
        <ele>4</ele>
        <time>2009-04-21T08:56:30Z</time>
      </trkpt>
      <trkpt lat="50.52746" lon="1.59791">
        <ele>4</ele>
        <time>2009-04-21T08:56:33Z</time>
      </trkpt>
      <trkpt lat="50.52755" lon="1.5978">
        <ele>4</ele>
        <time>2009-04-21T08:56:37Z</time>
      </trkpt>
      <trkpt lat="50.52763" lon="1.59773">
        <ele>4</ele>
        <time>2009-04-21T08:56:40Z</time>
      </trkpt>
      <trkpt lat="50.52765" lon="1.5979">
        <ele>4</ele>
        <time>2009-04-21T08:56:46Z</time>
      </trkpt>
      <trkpt lat="50.52761" lon="1.59802">
        <ele>4</ele>
        <time>2009-04-21T08:56:49Z</time>
      </trkpt>
      <trkpt lat="50.52757" lon="1.59818">
        <ele>4</ele>
        <time>2009-04-21T08:56:52Z</time>
      </trkpt>
      <trkpt lat="50.52751" lon="1.59831">
        <ele>4</ele>
        <time>2009-04-21T08:56:54Z</time>
      </trkpt>
      <trkpt lat="50.52739" lon="1.59837">
        <ele>4</ele>
        <time>2009-04-21T08:56:57Z</time>
      </trkpt>
      <trkpt lat="50.5273" lon="1.59841">
        <ele>4</ele>
        <time>2009-04-21T08:56:59Z</time>
      </trkpt>
      <trkpt lat="50.5272" lon="1.59845">
        <ele>4</ele>
        <time>2009-04-21T08:57:02Z</time>
      </trkpt>
      <trkpt lat="50.5271" lon="1.59852">
        <ele>4</ele>
        <time>2009-04-21T08:57:06Z</time>
      </trkpt>
      <trkpt lat="50.52705" lon="1.59867">
        <ele>4</ele>
        <time>2009-04-21T08:57:09Z</time>
      </trkpt>
      <trkpt lat="50.52704" lon="1.59884">
        <ele>4</ele>
        <time>2009-04-21T08:57:12Z</time>
      </trkpt>
      <trkpt lat="50.52698" lon="1.59899">
        <ele>4</ele>
        <time>2009-04-21T08:57:15Z</time>
      </trkpt>
      <trkpt lat="50.52703" lon="1.59913">
        <ele>4</ele>
        <time>2009-04-21T08:57:18Z</time>
      </trkpt>
      <trkpt lat="50.5271" lon="1.59924">
        <ele>4</ele>
        <time>2009-04-21T08:57:21Z</time>
      </trkpt>
      <trkpt lat="50.52721" lon="1.59934">
        <ele>4</ele>
        <time>2009-04-21T08:57:24Z</time>
      </trkpt>
      <trkpt lat="50.52729" lon="1.59944">
        <ele>4</ele>
        <time>2009-04-21T08:57:26Z</time>
      </trkpt>
      <trkpt lat="50.52737" lon="1.59952">
        <ele>4</ele>
        <time>2009-04-21T08:57:28Z</time>
      </trkpt>
      <trkpt lat="50.52746" lon="1.59965">
        <ele>4</ele>
        <time>2009-04-21T08:57:31Z</time>
      </trkpt>
      <trkpt lat="50.52756" lon="1.59977">
        <ele>4</ele>
        <time>2009-04-21T08:57:34Z</time>
      </trkpt>
      <trkpt lat="50.52764" lon="1.59986">
        <ele>4</ele>
        <time>2009-04-21T08:57:36Z</time>
      </trkpt>
      <trkpt lat="50.52771" lon="1.59996">
        <ele>4</ele>
        <time>2009-04-21T08:57:38Z</time>
      </trkpt>
      <trkpt lat="50.52777" lon="1.60006">
        <ele>4</ele>
        <time>2009-04-21T08:57:40Z</time>
      </trkpt>
      <trkpt lat="50.52784" lon="1.60017">
        <ele>4</ele>
        <time>2009-04-21T08:57:42Z</time>
      </trkpt>
      <trkpt lat="50.52791" lon="1.60026">
        <ele>4</ele>
        <time>2009-04-21T08:57:44Z</time>
      </trkpt>
      <trkpt lat="50.52797" lon="1.60036">
        <ele>4</ele>
        <time>2009-04-21T08:57:46Z</time>
      </trkpt>
      <trkpt lat="50.52807" lon="1.60047">
        <ele>4</ele>
        <time>2009-04-21T08:57:49Z</time>
      </trkpt>
      <trkpt lat="50.52813" lon="1.60058">
        <ele>4</ele>
        <time>2009-04-21T08:57:53Z</time>
      </trkpt>
      <trkpt lat="50.52821" lon="1.60067">
        <ele>4</ele>
        <time>2009-04-21T08:57:58Z</time>
      </trkpt>
      <trkpt lat="50.52827" lon="1.60079">
        <ele>4</ele>
        <time>2009-04-21T08:58:01Z</time>
      </trkpt>
      <trkpt lat="50.52834" lon="1.6009">
        <ele>4</ele>
        <time>2009-04-21T08:58:05Z</time>
      </trkpt>
      <trkpt lat="50.52841" lon="1.601">
        <ele>4</ele>
        <time>2009-04-21T08:58:09Z</time>
      </trkpt>
      <trkpt lat="50.52848" lon="1.60111">
        <ele>4</ele>
        <time>2009-04-21T08:58:13Z</time>
      </trkpt>
      <trkpt lat="50.52855" lon="1.60122">
        <ele>4</ele>
        <time>2009-04-21T08:58:16Z</time>
      </trkpt>
      <trkpt lat="50.52862" lon="1.60132">
        <ele>4</ele>
        <time>2009-04-21T08:58:19Z</time>
      </trkpt>
      <trkpt lat="50.52868" lon="1.60142">
        <ele>4</ele>
        <time>2009-04-21T08:58:22Z</time>
      </trkpt>
      <trkpt lat="50.52876" lon="1.60151">
        <ele>4</ele>
        <time>2009-04-21T08:58:25Z</time>
      </trkpt>
      <trkpt lat="50.52883" lon="1.60162">
        <ele>4</ele>
        <time>2009-04-21T08:58:28Z</time>
      </trkpt>
      <trkpt lat="50.52891" lon="1.60174">
        <ele>4</ele>
        <time>2009-04-21T08:58:32Z</time>
      </trkpt>
      <trkpt lat="50.52893" lon="1.60189">
        <ele>4</ele>
        <time>2009-04-21T08:58:37Z</time>
      </trkpt>
      <trkpt lat="50.52886" lon="1.602">
        <ele>4</ele>
        <time>2009-04-21T08:58:42Z</time>
      </trkpt>
      <trkpt lat="50.5288" lon="1.60214">
        <ele>4</ele>
        <time>2009-04-21T08:58:45Z</time>
      </trkpt>
      <trkpt lat="50.52872" lon="1.60229">
        <ele>4</ele>
        <time>2009-04-21T08:58:48Z</time>
      </trkpt>
      <trkpt lat="50.52866" lon="1.6024">
        <ele>4</ele>
        <time>2009-04-21T08:58:50Z</time>
      </trkpt>
      <trkpt lat="50.5286" lon="1.60251">
        <ele>4</ele>
        <time>2009-04-21T08:58:52Z</time>
      </trkpt>
      <trkpt lat="50.52852" lon="1.60264">
        <ele>4</ele>
        <time>2009-04-21T08:58:55Z</time>
      </trkpt>
      <trkpt lat="50.52844" lon="1.60279">
        <ele>4</ele>
        <time>2009-04-21T08:58:58Z</time>
      </trkpt>
      <trkpt lat="50.52835" lon="1.60293">
        <ele>4</ele>
        <time>2009-04-21T08:59:01Z</time>
      </trkpt>
      <trkpt lat="50.52826" lon="1.60306">
        <ele>4</ele>
        <time>2009-04-21T08:59:04Z</time>
      </trkpt>
      <trkpt lat="50.52818" lon="1.6032">
        <ele>4</ele>
        <time>2009-04-21T08:59:07Z</time>
      </trkpt>
      <trkpt lat="50.52809" lon="1.60334">
        <ele>4</ele>
        <time>2009-04-21T08:59:10Z</time>
      </trkpt>
      <trkpt lat="50.528" lon="1.60348">
        <ele>4</ele>
        <time>2009-04-21T08:59:13Z</time>
      </trkpt>
      <trkpt lat="50.52793" lon="1.60357">
        <ele>4</ele>
        <time>2009-04-21T08:59:15Z</time>
      </trkpt>
      <trkpt lat="50.52784" lon="1.60367">
        <ele>4</ele>
        <time>2009-04-21T08:59:18Z</time>
      </trkpt>
      <trkpt lat="50.52777" lon="1.60382">
        <ele>4</ele>
        <time>2009-04-21T08:59:21Z</time>
      </trkpt>
      <trkpt lat="50.52779" lon="1.60398">
        <ele>4</ele>
        <time>2009-04-21T08:59:24Z</time>
      </trkpt>
      <trkpt lat="50.52791" lon="1.60399">
        <ele>4</ele>
        <time>2009-04-21T08:59:27Z</time>
      </trkpt>
      <trkpt lat="50.52801" lon="1.60391">
        <ele>4</ele>
        <time>2009-04-21T08:59:30Z</time>
      </trkpt>
      <trkpt lat="50.52812" lon="1.6039">
        <ele>4</ele>
        <time>2009-04-21T08:59:33Z</time>
      </trkpt>
      <trkpt lat="50.52822" lon="1.60394">
        <ele>4</ele>
        <time>2009-04-21T08:59:36Z</time>
      </trkpt>
      <trkpt lat="50.52832" lon="1.60399">
        <ele>4</ele>
        <time>2009-04-21T08:59:39Z</time>
      </trkpt>
      <trkpt lat="50.52841" lon="1.60403">
        <ele>4</ele>
        <time>2009-04-21T08:59:42Z</time>
      </trkpt>
      <trkpt lat="50.5285" lon="1.60409">
        <ele>4</ele>
        <time>2009-04-21T08:59:45Z</time>
      </trkpt>
      <trkpt lat="50.5286" lon="1.60413">
        <ele>4</ele>
        <time>2009-04-21T08:59:49Z</time>
      </trkpt>
      <trkpt lat="50.52868" lon="1.60421">
        <ele>4</ele>
        <time>2009-04-21T08:59:54Z</time>
      </trkpt>
      <trkpt lat="50.52863" lon="1.60436">
        <ele>4</ele>
        <time>2009-04-21T08:59:58Z</time>
      </trkpt>
      <trkpt lat="50.52855" lon="1.6045">
        <ele>4</ele>
        <time>2009-04-21T09:00:01Z</time>
      </trkpt>
      <trkpt lat="50.52848" lon="1.60465">
        <ele>4</ele>
        <time>2009-04-21T09:00:04Z</time>
      </trkpt>
      <trkpt lat="50.5284" lon="1.60481">
        <ele>4</ele>
        <time>2009-04-21T09:00:07Z</time>
      </trkpt>
      <trkpt lat="50.52835" lon="1.60492">
        <ele>4</ele>
        <time>2009-04-21T09:00:09Z</time>
      </trkpt>
      <trkpt lat="50.52827" lon="1.60509">
        <ele>4</ele>
        <time>2009-04-21T09:00:12Z</time>
      </trkpt>
      <trkpt lat="50.52819" lon="1.60525">
        <ele>4</ele>
        <time>2009-04-21T09:00:15Z</time>
      </trkpt>
      <trkpt lat="50.52813" lon="1.60536">
        <ele>4</ele>
        <time>2009-04-21T09:00:17Z</time>
      </trkpt>
      <trkpt lat="50.52805" lon="1.60551">
        <ele>4</ele>
        <time>2009-04-21T09:00:20Z</time>
      </trkpt>
      <trkpt lat="50.52804" lon="1.60567">
        <ele>4</ele>
        <time>2009-04-21T09:00:23Z</time>
      </trkpt>
      <trkpt lat="50.52811" lon="1.60577">
        <ele>4</ele>
        <time>2009-04-21T09:00:34Z</time>
      </trkpt>
      <trkpt lat="50.52803" lon="1.60589">
        <ele>4</ele>
        <time>2009-04-21T09:03:04Z</time>
      </trkpt>
      <trkpt lat="50.52796" lon="1.60602">
        <ele>4</ele>
        <time>2009-04-21T09:03:07Z</time>
      </trkpt>
      <trkpt lat="50.52791" lon="1.60613">
        <ele>4</ele>
        <time>2009-04-21T09:03:10Z</time>
      </trkpt>
      <trkpt lat="50.52785" lon="1.60625">
        <ele>4</ele>
        <time>2009-04-21T09:03:13Z</time>
      </trkpt>
      <trkpt lat="50.52779" lon="1.60637">
        <ele>4</ele>
        <time>2009-04-21T09:03:16Z</time>
      </trkpt>
      <trkpt lat="50.52773" lon="1.60647">
        <ele>4</ele>
        <time>2009-04-21T09:03:20Z</time>
      </trkpt>
      <trkpt lat="50.52766" lon="1.60658">
        <ele>4</ele>
        <time>2009-04-21T09:07:06Z</time>
      </trkpt>
      <trkpt lat="50.52759" lon="1.60674">
        <ele>4</ele>
        <time>2009-04-21T09:07:09Z</time>
      </trkpt>
      <trkpt lat="50.52753" lon="1.60684">
        <ele>4</ele>
        <time>2009-04-21T09:07:11Z</time>
      </trkpt>
      <trkpt lat="50.52746" lon="1.60697">
        <ele>4</ele>
        <time>2009-04-21T09:07:13Z</time>
      </trkpt>
      <trkpt lat="50.5274" lon="1.6071">
        <ele>4</ele>
        <time>2009-04-21T09:07:15Z</time>
      </trkpt>
      <trkpt lat="50.52733" lon="1.60725">
        <ele>4</ele>
        <time>2009-04-21T09:07:17Z</time>
      </trkpt>
      <trkpt lat="50.52725" lon="1.6074">
        <ele>4</ele>
        <time>2009-04-21T09:07:19Z</time>
      </trkpt>
      <trkpt lat="50.52717" lon="1.60754">
        <ele>4</ele>
        <time>2009-04-21T09:07:21Z</time>
      </trkpt>
      <trkpt lat="50.5271" lon="1.6077">
        <ele>4</ele>
        <time>2009-04-21T09:07:23Z</time>
      </trkpt>
      <trkpt lat="50.52704" lon="1.60787">
        <ele>4</ele>
        <time>2009-04-21T09:07:25Z</time>
      </trkpt>
      <trkpt lat="50.527" lon="1.60807">
        <ele>4</ele>
        <time>2009-04-21T09:07:27Z</time>
      </trkpt>
      <trkpt lat="50.52698" lon="1.60825">
        <ele>4</ele>
        <time>2009-04-21T09:07:29Z</time>
      </trkpt>
      <trkpt lat="50.52699" lon="1.60845">
        <ele>4</ele>
        <time>2009-04-21T09:07:31Z</time>
      </trkpt>
      <trkpt lat="50.527" lon="1.60865">
        <ele>4</ele>
        <time>2009-04-21T09:07:33Z</time>
      </trkpt>
      <trkpt lat="50.52702" lon="1.60884">
        <ele>4</ele>
        <time>2009-04-21T09:07:35Z</time>
      </trkpt>
      <trkpt lat="50.52702" lon="1.60903">
        <ele>4</ele>
        <time>2009-04-21T09:07:37Z</time>
      </trkpt>
      <trkpt lat="50.52699" lon="1.60921">
        <ele>4</ele>
        <time>2009-04-21T09:07:39Z</time>
      </trkpt>
      <trkpt lat="50.52694" lon="1.60939">
        <ele>4</ele>
        <time>2009-04-21T09:07:41Z</time>
      </trkpt>
      <trkpt lat="50.5269" lon="1.60953">
        <ele>4</ele>
        <time>2009-04-21T09:07:43Z</time>
      </trkpt>
      <trkpt lat="50.52684" lon="1.60966">
        <ele>4</ele>
        <time>2009-04-21T09:07:45Z</time>
      </trkpt>
      <trkpt lat="50.52677" lon="1.60978">
        <ele>4</ele>
        <time>2009-04-21T09:07:47Z</time>
      </trkpt>
      <trkpt lat="50.5267" lon="1.60989">
        <ele>4</ele>
        <time>2009-04-21T09:07:49Z</time>
      </trkpt>
      <trkpt lat="50.52662" lon="1.61002">
        <ele>4</ele>
        <time>2009-04-21T09:07:51Z</time>
      </trkpt>
      <trkpt lat="50.52655" lon="1.61014">
        <ele>4</ele>
        <time>2009-04-21T09:07:53Z</time>
      </trkpt>
      <trkpt lat="50.52647" lon="1.61027">
        <ele>4</ele>
        <time>2009-04-21T09:07:55Z</time>
      </trkpt>
      <trkpt lat="50.52639" lon="1.61039">
        <ele>4</ele>
        <time>2009-04-21T09:07:57Z</time>
      </trkpt>
      <trkpt lat="50.52632" lon="1.61052">
        <ele>4</ele>
        <time>2009-04-21T09:07:59Z</time>
      </trkpt>
      <trkpt lat="50.52625" lon="1.61064">
        <ele>4</ele>
        <time>2009-04-21T09:08:01Z</time>
      </trkpt>
      <trkpt lat="50.52617" lon="1.61077">
        <ele>4</ele>
        <time>2009-04-21T09:08:03Z</time>
      </trkpt>
      <trkpt lat="50.52609" lon="1.6109">
        <ele>4</ele>
        <time>2009-04-21T09:08:05Z</time>
      </trkpt>
      <trkpt lat="50.52602" lon="1.61103">
        <ele>4</ele>
        <time>2009-04-21T09:08:07Z</time>
      </trkpt>
      <trkpt lat="50.52594" lon="1.61115">
        <ele>4</ele>
        <time>2009-04-21T09:08:09Z</time>
      </trkpt>
      <trkpt lat="50.52586" lon="1.61126">
        <ele>4</ele>
        <time>2009-04-21T09:08:11Z</time>
      </trkpt>
      <trkpt lat="50.52578" lon="1.61138">
        <ele>4</ele>
        <time>2009-04-21T09:08:13Z</time>
      </trkpt>
      <trkpt lat="50.52571" lon="1.6115">
        <ele>4</ele>
        <time>2009-04-21T09:08:15Z</time>
      </trkpt>
      <trkpt lat="50.52563" lon="1.61163">
        <ele>4</ele>
        <time>2009-04-21T09:08:17Z</time>
      </trkpt>
      <trkpt lat="50.52555" lon="1.61178">
        <ele>4</ele>
        <time>2009-04-21T09:08:19Z</time>
      </trkpt>
      <trkpt lat="50.52547" lon="1.6119">
        <ele>4</ele>
        <time>2009-04-21T09:08:21Z</time>
      </trkpt>
      <trkpt lat="50.52539" lon="1.61203">
        <ele>4</ele>
        <time>2009-04-21T09:08:23Z</time>
      </trkpt>
      <trkpt lat="50.52531" lon="1.61215">
        <ele>4</ele>
        <time>2009-04-21T09:08:25Z</time>
      </trkpt>
      <trkpt lat="50.52523" lon="1.61229">
        <ele>4</ele>
        <time>2009-04-21T09:08:27Z</time>
      </trkpt>
      <trkpt lat="50.52515" lon="1.6124">
        <ele>4</ele>
        <time>2009-04-21T09:08:29Z</time>
      </trkpt>
      <trkpt lat="50.52508" lon="1.61252">
        <ele>4</ele>
        <time>2009-04-21T09:08:31Z</time>
      </trkpt>
      <trkpt lat="50.52501" lon="1.61264">
        <ele>4</ele>
        <time>2009-04-21T09:08:33Z</time>
      </trkpt>
      <trkpt lat="50.52495" lon="1.61275">
        <ele>4</ele>
        <time>2009-04-21T09:08:35Z</time>
      </trkpt>
      <trkpt lat="50.52488" lon="1.61286">
        <ele>4</ele>
        <time>2009-04-21T09:08:37Z</time>
      </trkpt>
      <trkpt lat="50.52481" lon="1.61297">
        <ele>4</ele>
        <time>2009-04-21T09:08:39Z</time>
      </trkpt>
      <trkpt lat="50.52473" lon="1.61309">
        <ele>4</ele>
        <time>2009-04-21T09:08:41Z</time>
      </trkpt>
      <trkpt lat="50.52466" lon="1.61321">
        <ele>4</ele>
        <time>2009-04-21T09:08:43Z</time>
      </trkpt>
      <trkpt lat="50.52458" lon="1.61334">
        <ele>4</ele>
        <time>2009-04-21T09:08:45Z</time>
      </trkpt>
      <trkpt lat="50.52451" lon="1.61346">
        <ele>4</ele>
        <time>2009-04-21T09:08:47Z</time>
      </trkpt>
      <trkpt lat="50.52443" lon="1.6136">
        <ele>4</ele>
        <time>2009-04-21T09:08:49Z</time>
      </trkpt>
      <trkpt lat="50.52435" lon="1.61372">
        <ele>4</ele>
        <time>2009-04-21T09:08:51Z</time>
      </trkpt>
      <trkpt lat="50.52428" lon="1.61383">
        <ele>4</ele>
        <time>2009-04-21T09:08:53Z</time>
      </trkpt>
      <trkpt lat="50.5242" lon="1.61397">
        <ele>4</ele>
        <time>2009-04-21T09:08:55Z</time>
      </trkpt>
      <trkpt lat="50.52412" lon="1.61409">
        <ele>4</ele>
        <time>2009-04-21T09:08:57Z</time>
      </trkpt>
      <trkpt lat="50.52404" lon="1.61423">
        <ele>4</ele>
        <time>2009-04-21T09:08:59Z</time>
      </trkpt>
      <trkpt lat="50.52397" lon="1.61436">
        <ele>4</ele>
        <time>2009-04-21T09:09:01Z</time>
      </trkpt>
      <trkpt lat="50.52389" lon="1.61449">
        <ele>4</ele>
        <time>2009-04-21T09:09:03Z</time>
      </trkpt>
      <trkpt lat="50.52381" lon="1.61461">
        <ele>4</ele>
        <time>2009-04-21T09:09:05Z</time>
      </trkpt>
      <trkpt lat="50.52373" lon="1.61473">
        <ele>4</ele>
        <time>2009-04-21T09:09:07Z</time>
      </trkpt>
      <trkpt lat="50.52365" lon="1.61487">
        <ele>4</ele>
        <time>2009-04-21T09:09:09Z</time>
      </trkpt>
      <trkpt lat="50.52357" lon="1.61501">
        <ele>4</ele>
        <time>2009-04-21T09:09:11Z</time>
      </trkpt>
      <trkpt lat="50.52349" lon="1.61514">
        <ele>4</ele>
        <time>2009-04-21T09:09:13Z</time>
      </trkpt>
      <trkpt lat="50.52342" lon="1.61527">
        <ele>4</ele>
        <time>2009-04-21T09:09:15Z</time>
      </trkpt>
      <trkpt lat="50.52334" lon="1.6154">
        <ele>4</ele>
        <time>2009-04-21T09:09:17Z</time>
      </trkpt>
      <trkpt lat="50.52326" lon="1.61551">
        <ele>4</ele>
        <time>2009-04-21T09:09:19Z</time>
      </trkpt>
      <trkpt lat="50.52319" lon="1.61564">
        <ele>4</ele>
        <time>2009-04-21T09:09:21Z</time>
      </trkpt>
      <trkpt lat="50.52311" lon="1.61577">
        <ele>4</ele>
        <time>2009-04-21T09:09:23Z</time>
      </trkpt>
      <trkpt lat="50.52303" lon="1.61589">
        <ele>4</ele>
        <time>2009-04-21T09:09:25Z</time>
      </trkpt>
      <trkpt lat="50.52296" lon="1.61602">
        <ele>4</ele>
        <time>2009-04-21T09:09:27Z</time>
      </trkpt>
      <trkpt lat="50.52288" lon="1.61615">
        <ele>4</ele>
        <time>2009-04-21T09:09:29Z</time>
      </trkpt>
      <trkpt lat="50.5228" lon="1.61629">
        <ele>4</ele>
        <time>2009-04-21T09:09:31Z</time>
      </trkpt>
      <trkpt lat="50.52272" lon="1.61641">
        <ele>4</ele>
        <time>2009-04-21T09:09:33Z</time>
      </trkpt>
      <trkpt lat="50.52264" lon="1.61655">
        <ele>4</ele>
        <time>2009-04-21T09:09:35Z</time>
      </trkpt>
      <trkpt lat="50.52256" lon="1.61668">
        <ele>4</ele>
        <time>2009-04-21T09:09:37Z</time>
      </trkpt>
      <trkpt lat="50.52248" lon="1.6168">
        <ele>4</ele>
        <time>2009-04-21T09:09:39Z</time>
      </trkpt>
      <trkpt lat="50.5224" lon="1.61693">
        <ele>4</ele>
        <time>2009-04-21T09:09:41Z</time>
      </trkpt>
      <trkpt lat="50.52232" lon="1.61706">
        <ele>4</ele>
        <time>2009-04-21T09:09:43Z</time>
      </trkpt>
      <trkpt lat="50.52225" lon="1.61718">
        <ele>4</ele>
        <time>2009-04-21T09:09:45Z</time>
      </trkpt>
      <trkpt lat="50.52217" lon="1.61732">
        <ele>4</ele>
        <time>2009-04-21T09:09:47Z</time>
      </trkpt>
      <trkpt lat="50.52209" lon="1.61744">
        <ele>4</ele>
        <time>2009-04-21T09:09:49Z</time>
      </trkpt>
      <trkpt lat="50.52201" lon="1.61758">
        <ele>4</ele>
        <time>2009-04-21T09:09:51Z</time>
      </trkpt>
      <trkpt lat="50.52193" lon="1.61772">
        <ele>4</ele>
        <time>2009-04-21T09:09:53Z</time>
      </trkpt>
      <trkpt lat="50.52185" lon="1.61785">
        <ele>4</ele>
        <time>2009-04-21T09:09:55Z</time>
      </trkpt>
      <trkpt lat="50.52177" lon="1.61797">
        <ele>4</ele>
        <time>2009-04-21T09:09:57Z</time>
      </trkpt>
      <trkpt lat="50.52169" lon="1.61811">
        <ele>4</ele>
        <time>2009-04-21T09:09:59Z</time>
      </trkpt>
      <trkpt lat="50.52157" lon="1.61832">
        <ele>4</ele>
        <time>2009-04-21T09:10:02Z</time>
      </trkpt>
      <trkpt lat="50.5215" lon="1.61844">
        <ele>4</ele>
        <time>2009-04-21T09:10:04Z</time>
      </trkpt>
      <trkpt lat="50.52143" lon="1.61857">
        <ele>4</ele>
        <time>2009-04-21T09:10:07Z</time>
      </trkpt>
      <trkpt lat="50.52135" lon="1.61867">
        <ele>4</ele>
        <time>2009-04-21T09:10:15Z</time>
      </trkpt>
      <trkpt lat="50.52129" lon="1.61876">
        <ele>4</ele>
        <time>2009-04-21T09:10:18Z</time>
      </trkpt>
      <trkpt lat="50.52121" lon="1.61888">
        <ele>4</ele>
        <time>2009-04-21T09:10:21Z</time>
      </trkpt>
      <trkpt lat="50.52113" lon="1.619">
        <ele>4</ele>
        <time>2009-04-21T09:10:24Z</time>
      </trkpt>
      <trkpt lat="50.52106" lon="1.61915">
        <ele>4</ele>
        <time>2009-04-21T09:10:27Z</time>
      </trkpt>
      <trkpt lat="50.52098" lon="1.61929">
        <ele>4</ele>
        <time>2009-04-21T09:10:30Z</time>
      </trkpt>
      <trkpt lat="50.5209" lon="1.61943">
        <ele>4</ele>
        <time>2009-04-21T09:10:33Z</time>
      </trkpt>
      <trkpt lat="50.52081" lon="1.61956">
        <ele>4</ele>
        <time>2009-04-21T09:10:36Z</time>
      </trkpt>
      <trkpt lat="50.52075" lon="1.61966">
        <ele>4</ele>
        <time>2009-04-21T09:10:38Z</time>
      </trkpt>
      <trkpt lat="50.52066" lon="1.61981">
        <ele>4</ele>
        <time>2009-04-21T09:10:41Z</time>
      </trkpt>
      <trkpt lat="50.5206" lon="1.61991">
        <ele>4</ele>
        <time>2009-04-21T09:10:43Z</time>
      </trkpt>
      <trkpt lat="50.52051" lon="1.62006">
        <ele>4</ele>
        <time>2009-04-21T09:10:46Z</time>
      </trkpt>
      <trkpt lat="50.52042" lon="1.62021">
        <ele>4</ele>
        <time>2009-04-21T09:10:49Z</time>
      </trkpt>
      <trkpt lat="50.52036" lon="1.62032">
        <ele>4</ele>
        <time>2009-04-21T09:10:51Z</time>
      </trkpt>
      <trkpt lat="50.52028" lon="1.62044">
        <ele>4</ele>
        <time>2009-04-21T09:10:53Z</time>
      </trkpt>
      <trkpt lat="50.5202" lon="1.62059">
        <ele>4</ele>
        <time>2009-04-21T09:10:55Z</time>
      </trkpt>
      <trkpt lat="50.52012" lon="1.62072">
        <ele>4</ele>
        <time>2009-04-21T09:10:57Z</time>
      </trkpt>
      <trkpt lat="50.52004" lon="1.62084">
        <ele>4</ele>
        <time>2009-04-21T09:10:59Z</time>
      </trkpt>
      <trkpt lat="50.51996" lon="1.62097">
        <ele>4</ele>
        <time>2009-04-21T09:11:01Z</time>
      </trkpt>
      <trkpt lat="50.51989" lon="1.6211">
        <ele>4</ele>
        <time>2009-04-21T09:11:03Z</time>
      </trkpt>
      <trkpt lat="50.51981" lon="1.62123">
        <ele>4</ele>
        <time>2009-04-21T09:11:05Z</time>
      </trkpt>
      <trkpt lat="50.51973" lon="1.62135">
        <ele>4</ele>
        <time>2009-04-21T09:11:07Z</time>
      </trkpt>
      <trkpt lat="50.51965" lon="1.62147">
        <ele>4</ele>
        <time>2009-04-21T09:11:09Z</time>
      </trkpt>
      <trkpt lat="50.51956" lon="1.62157">
        <ele>4</ele>
        <time>2009-04-21T09:11:11Z</time>
      </trkpt>
      <trkpt lat="50.51946" lon="1.62167">
        <ele>4</ele>
        <time>2009-04-21T09:11:13Z</time>
      </trkpt>
      <trkpt lat="50.51937" lon="1.62176">
        <ele>4</ele>
        <time>2009-04-21T09:11:15Z</time>
      </trkpt>
      <trkpt lat="50.51929" lon="1.62186">
        <ele>4</ele>
        <time>2009-04-21T09:11:17Z</time>
      </trkpt>
      <trkpt lat="50.51921" lon="1.62199">
        <ele>4</ele>
        <time>2009-04-21T09:11:19Z</time>
      </trkpt>
      <trkpt lat="50.51913" lon="1.62212">
        <ele>4</ele>
        <time>2009-04-21T09:11:21Z</time>
      </trkpt>
      <trkpt lat="50.51905" lon="1.62227">
        <ele>4</ele>
        <time>2009-04-21T09:11:23Z</time>
      </trkpt>
      <trkpt lat="50.51898" lon="1.6224">
        <ele>4</ele>
        <time>2009-04-21T09:11:25Z</time>
      </trkpt>
      <trkpt lat="50.5189" lon="1.62254">
        <ele>4</ele>
        <time>2009-04-21T09:11:27Z</time>
      </trkpt>
      <trkpt lat="50.51883" lon="1.62265">
        <ele>4</ele>
        <time>2009-04-21T09:11:29Z</time>
      </trkpt>
      <trkpt lat="50.51877" lon="1.62276">
        <ele>4</ele>
        <time>2009-04-21T09:11:31Z</time>
      </trkpt>
      <trkpt lat="50.51869" lon="1.62289">
        <ele>4</ele>
        <time>2009-04-21T09:11:33Z</time>
      </trkpt>
      <trkpt lat="50.51861" lon="1.62301">
        <ele>4</ele>
        <time>2009-04-21T09:11:35Z</time>
      </trkpt>
      <trkpt lat="50.51853" lon="1.62314">
        <ele>4</ele>
        <time>2009-04-21T09:11:37Z</time>
      </trkpt>
      <trkpt lat="50.51845" lon="1.62327">
        <ele>4</ele>
        <time>2009-04-21T09:11:39Z</time>
      </trkpt>
      <trkpt lat="50.51838" lon="1.62342">
        <ele>4</ele>
        <time>2009-04-21T09:11:41Z</time>
      </trkpt>
      <trkpt lat="50.5183" lon="1.62355">
        <ele>4</ele>
        <time>2009-04-21T09:11:43Z</time>
      </trkpt>
      <trkpt lat="50.51822" lon="1.62368">
        <ele>4</ele>
        <time>2009-04-21T09:11:45Z</time>
      </trkpt>
      <trkpt lat="50.51814" lon="1.62381">
        <ele>4</ele>
        <time>2009-04-21T09:11:47Z</time>
      </trkpt>
      <trkpt lat="50.51806" lon="1.62395">
        <ele>4</ele>
        <time>2009-04-21T09:11:49Z</time>
      </trkpt>
      <trkpt lat="50.51798" lon="1.62406">
        <ele>4</ele>
        <time>2009-04-21T09:11:51Z</time>
      </trkpt>
      <trkpt lat="50.51791" lon="1.62419">
        <ele>4</ele>
        <time>2009-04-21T09:11:53Z</time>
      </trkpt>
      <trkpt lat="50.51783" lon="1.62432">
        <ele>4</ele>
        <time>2009-04-21T09:11:55Z</time>
      </trkpt>
      <trkpt lat="50.51776" lon="1.62445">
        <ele>4</ele>
        <time>2009-04-21T09:11:57Z</time>
      </trkpt>
      <trkpt lat="50.51769" lon="1.62457">
        <ele>4</ele>
        <time>2009-04-21T09:11:59Z</time>
      </trkpt>
      <trkpt lat="50.51761" lon="1.62471">
        <ele>4</ele>
        <time>2009-04-21T09:12:01Z</time>
      </trkpt>
      <trkpt lat="50.51753" lon="1.62485">
        <ele>4</ele>
        <time>2009-04-21T09:12:03Z</time>
      </trkpt>
      <trkpt lat="50.51745" lon="1.62497">
        <ele>4</ele>
        <time>2009-04-21T09:12:05Z</time>
      </trkpt>
      <trkpt lat="50.51737" lon="1.62511">
        <ele>4</ele>
        <time>2009-04-21T09:12:07Z</time>
      </trkpt>
      <trkpt lat="50.51729" lon="1.62523">
        <ele>4</ele>
        <time>2009-04-21T09:12:09Z</time>
      </trkpt>
      <trkpt lat="50.51722" lon="1.62536">
        <ele>4</ele>
        <time>2009-04-21T09:12:11Z</time>
      </trkpt>
      <trkpt lat="50.51715" lon="1.62548">
        <ele>4</ele>
        <time>2009-04-21T09:12:13Z</time>
      </trkpt>
      <trkpt lat="50.51707" lon="1.62559">
        <ele>4</ele>
        <time>2009-04-21T09:12:15Z</time>
      </trkpt>
      <trkpt lat="50.517" lon="1.62568">
        <ele>4</ele>
        <time>2009-04-21T09:12:17Z</time>
      </trkpt>
      <trkpt lat="50.51694" lon="1.62579">
        <ele>4</ele>
        <time>2009-04-21T09:12:19Z</time>
      </trkpt>
      <trkpt lat="50.51685" lon="1.62592">
        <ele>4</ele>
        <time>2009-04-21T09:12:22Z</time>
      </trkpt>
      <trkpt lat="50.51677" lon="1.62607">
        <ele>4</ele>
        <time>2009-04-21T09:12:25Z</time>
      </trkpt>
      <trkpt lat="50.5167" lon="1.62618">
        <ele>4</ele>
        <time>2009-04-21T09:12:27Z</time>
      </trkpt>
      <trkpt lat="50.51663" lon="1.6263">
        <ele>4</ele>
        <time>2009-04-21T09:12:29Z</time>
      </trkpt>
      <trkpt lat="50.51656" lon="1.62643">
        <ele>4</ele>
        <time>2009-04-21T09:12:31Z</time>
      </trkpt>
      <trkpt lat="50.51649" lon="1.62655">
        <ele>4</ele>
        <time>2009-04-21T09:12:33Z</time>
      </trkpt>
      <trkpt lat="50.51641" lon="1.62667">
        <ele>4</ele>
        <time>2009-04-21T09:12:35Z</time>
      </trkpt>
      <trkpt lat="50.51633" lon="1.62679">
        <ele>4</ele>
        <time>2009-04-21T09:12:37Z</time>
      </trkpt>
      <trkpt lat="50.51626" lon="1.6269">
        <ele>4</ele>
        <time>2009-04-21T09:12:39Z</time>
      </trkpt>
      <trkpt lat="50.51619" lon="1.62701">
        <ele>4</ele>
        <time>2009-04-21T09:12:41Z</time>
      </trkpt>
      <trkpt lat="50.51612" lon="1.62711">
        <ele>4</ele>
        <time>2009-04-21T09:12:43Z</time>
      </trkpt>
      <trkpt lat="50.51605" lon="1.62722">
        <ele>4</ele>
        <time>2009-04-21T09:12:45Z</time>
      </trkpt>
      <trkpt lat="50.51598" lon="1.62733">
        <ele>4</ele>
        <time>2009-04-21T09:12:47Z</time>
      </trkpt>
      <trkpt lat="50.51592" lon="1.62743">
        <ele>4</ele>
        <time>2009-04-21T09:12:49Z</time>
      </trkpt>
      <trkpt lat="50.51586" lon="1.62755">
        <ele>4</ele>
        <time>2009-04-21T09:12:51Z</time>
      </trkpt>
      <trkpt lat="50.51579" lon="1.62768">
        <ele>4</ele>
        <time>2009-04-21T09:12:53Z</time>
      </trkpt>
      <trkpt lat="50.51572" lon="1.62781">
        <ele>4</ele>
        <time>2009-04-21T09:12:55Z</time>
      </trkpt>
      <trkpt lat="50.51566" lon="1.62795">
        <ele>4</ele>
        <time>2009-04-21T09:12:57Z</time>
      </trkpt>
      <trkpt lat="50.51559" lon="1.62806">
        <ele>4</ele>
        <time>2009-04-21T09:12:59Z</time>
      </trkpt>
      <trkpt lat="50.51551" lon="1.62818">
        <ele>4</ele>
        <time>2009-04-21T09:13:01Z</time>
      </trkpt>
      <trkpt lat="50.51543" lon="1.6283">
        <ele>4</ele>
        <time>2009-04-21T09:13:03Z</time>
      </trkpt>
      <trkpt lat="50.51537" lon="1.62841">
        <ele>4</ele>
        <time>2009-04-21T09:13:05Z</time>
      </trkpt>
      <trkpt lat="50.5153" lon="1.62852">
        <ele>4</ele>
        <time>2009-04-21T09:13:07Z</time>
      </trkpt>
      <trkpt lat="50.51523" lon="1.62864">
        <ele>4</ele>
        <time>2009-04-21T09:13:09Z</time>
      </trkpt>
      <trkpt lat="50.51516" lon="1.62875">
        <ele>4</ele>
        <time>2009-04-21T09:13:11Z</time>
      </trkpt>
      <trkpt lat="50.51509" lon="1.62886">
        <ele>4</ele>
        <time>2009-04-21T09:13:13Z</time>
      </trkpt>
      <trkpt lat="50.51501" lon="1.62899">
        <ele>4</ele>
        <time>2009-04-21T09:13:15Z</time>
      </trkpt>
      <trkpt lat="50.51494" lon="1.6291">
        <ele>4</ele>
        <time>2009-04-21T09:13:17Z</time>
      </trkpt>
      <trkpt lat="50.51486" lon="1.62922">
        <ele>4</ele>
        <time>2009-04-21T09:13:19Z</time>
      </trkpt>
      <trkpt lat="50.51478" lon="1.62935">
        <ele>4</ele>
        <time>2009-04-21T09:13:21Z</time>
      </trkpt>
      <trkpt lat="50.5147" lon="1.62948">
        <ele>4</ele>
        <time>2009-04-21T09:13:23Z</time>
      </trkpt>
      <trkpt lat="50.51462" lon="1.6296">
        <ele>4</ele>
        <time>2009-04-21T09:13:25Z</time>
      </trkpt>
      <trkpt lat="50.51454" lon="1.62973">
        <ele>4</ele>
        <time>2009-04-21T09:13:27Z</time>
      </trkpt>
      <trkpt lat="50.51446" lon="1.62986">
        <ele>4</ele>
        <time>2009-04-21T09:13:29Z</time>
      </trkpt>
      <trkpt lat="50.51439" lon="1.62998">
        <ele>4</ele>
        <time>2009-04-21T09:13:31Z</time>
      </trkpt>
      <trkpt lat="50.51431" lon="1.63011">
        <ele>4</ele>
        <time>2009-04-21T09:13:33Z</time>
      </trkpt>
      <trkpt lat="50.51424" lon="1.63024">
        <ele>4</ele>
        <time>2009-04-21T09:13:35Z</time>
      </trkpt>
      <trkpt lat="50.51416" lon="1.63036">
        <ele>4</ele>
        <time>2009-04-21T09:13:37Z</time>
      </trkpt>
      <trkpt lat="50.51408" lon="1.63048">
        <ele>4</ele>
        <time>2009-04-21T09:13:39Z</time>
      </trkpt>
      <trkpt lat="50.514" lon="1.6306">
        <ele>4</ele>
        <time>2009-04-21T09:13:41Z</time>
      </trkpt>
      <trkpt lat="50.51392" lon="1.63073">
        <ele>4</ele>
        <time>2009-04-21T09:13:43Z</time>
      </trkpt>
      <trkpt lat="50.51385" lon="1.63086">
        <ele>4</ele>
        <time>2009-04-21T09:13:45Z</time>
      </trkpt>
      <trkpt lat="50.51377" lon="1.63097">
        <ele>4</ele>
        <time>2009-04-21T09:13:47Z</time>
      </trkpt>
      <trkpt lat="50.51369" lon="1.63111">
        <ele>4</ele>
        <time>2009-04-21T09:13:49Z</time>
      </trkpt>
      <trkpt lat="50.51361" lon="1.63123">
        <ele>4</ele>
        <time>2009-04-21T09:13:51Z</time>
      </trkpt>
      <trkpt lat="50.51353" lon="1.63136">
        <ele>4</ele>
        <time>2009-04-21T09:13:53Z</time>
      </trkpt>
      <trkpt lat="50.51345" lon="1.63148">
        <ele>4</ele>
        <time>2009-04-21T09:13:55Z</time>
      </trkpt>
      <trkpt lat="50.51337" lon="1.6316">
        <ele>4</ele>
        <time>2009-04-21T09:13:57Z</time>
      </trkpt>
      <trkpt lat="50.51328" lon="1.63174">
        <ele>4</ele>
        <time>2009-04-21T09:13:59Z</time>
      </trkpt>
      <trkpt lat="50.5132" lon="1.63187">
        <ele>4</ele>
        <time>2009-04-21T09:14:01Z</time>
      </trkpt>
      <trkpt lat="50.51311" lon="1.63201">
        <ele>4</ele>
        <time>2009-04-21T09:14:03Z</time>
      </trkpt>
      <trkpt lat="50.51302" lon="1.63215">
        <ele>4</ele>
        <time>2009-04-21T09:14:05Z</time>
      </trkpt>
      <trkpt lat="50.51293" lon="1.63228">
        <ele>4</ele>
        <time>2009-04-21T09:14:07Z</time>
      </trkpt>
      <trkpt lat="50.51284" lon="1.63244">
        <ele>4</ele>
        <time>2009-04-21T09:14:09Z</time>
      </trkpt>
      <trkpt lat="50.51275" lon="1.63257">
        <ele>4</ele>
        <time>2009-04-21T09:14:11Z</time>
      </trkpt>
      <trkpt lat="50.51265" lon="1.63272">
        <ele>4</ele>
        <time>2009-04-21T09:14:13Z</time>
      </trkpt>
      <trkpt lat="50.51258" lon="1.63285">
        <ele>4</ele>
        <time>2009-04-21T09:14:15Z</time>
      </trkpt>
      <trkpt lat="50.51252" lon="1.63298">
        <ele>4</ele>
        <time>2009-04-21T09:14:17Z</time>
      </trkpt>
      <trkpt lat="50.51244" lon="1.63312">
        <ele>4</ele>
        <time>2009-04-21T09:14:19Z</time>
      </trkpt>
      <trkpt lat="50.51237" lon="1.63325">
        <ele>4</ele>
        <time>2009-04-21T09:14:21Z</time>
      </trkpt>
      <trkpt lat="50.51229" lon="1.63338">
        <ele>4</ele>
        <time>2009-04-21T09:14:23Z</time>
      </trkpt>
      <trkpt lat="50.5122" lon="1.63351">
        <ele>4</ele>
        <time>2009-04-21T09:14:25Z</time>
      </trkpt>
      <trkpt lat="50.51211" lon="1.63361">
        <ele>4</ele>
        <time>2009-04-21T09:14:27Z</time>
      </trkpt>
      <trkpt lat="50.51204" lon="1.63373">
        <ele>4</ele>
        <time>2009-04-21T09:14:29Z</time>
      </trkpt>
      <trkpt lat="50.512" lon="1.63387">
        <ele>4</ele>
        <time>2009-04-21T09:14:31Z</time>
      </trkpt>
      <trkpt lat="50.51196" lon="1.63399">
        <ele>4</ele>
        <time>2009-04-21T09:14:33Z</time>
      </trkpt>
      <trkpt lat="50.51188" lon="1.63415">
        <ele>4</ele>
        <time>2009-04-21T09:14:36Z</time>
      </trkpt>
      <trkpt lat="50.51181" lon="1.63426">
        <ele>4</ele>
        <time>2009-04-21T09:14:39Z</time>
      </trkpt>
      <trkpt lat="50.51182" lon="1.63442">
        <ele>4</ele>
        <time>2009-04-21T09:14:44Z</time>
      </trkpt>
      <trkpt lat="50.51189" lon="1.63452">
        <ele>4</ele>
        <time>2009-04-21T09:14:49Z</time>
      </trkpt>
      <trkpt lat="50.51196" lon="1.63464">
        <ele>4</ele>
        <time>2009-04-21T09:14:53Z</time>
      </trkpt>
      <trkpt lat="50.51202" lon="1.63474">
        <ele>4</ele>
        <time>2009-04-21T09:14:56Z</time>
      </trkpt>
      <trkpt lat="50.5121" lon="1.63485">
        <ele>4</ele>
        <time>2009-04-21T09:15:00Z</time>
      </trkpt>
      <trkpt lat="50.51217" lon="1.63496">
        <ele>4</ele>
        <time>2009-04-21T09:15:05Z</time>
      </trkpt>
      <trkpt lat="50.51225" lon="1.63508">
        <ele>10</ele>
        <time>2009-04-21T09:15:09Z</time>
      </trkpt>
      <trkpt lat="50.51231" lon="1.63518">
        <ele>10</ele>
        <time>2009-04-21T09:15:12Z</time>
      </trkpt>
      <trkpt lat="50.51237" lon="1.63528">
        <ele>10</ele>
        <time>2009-04-21T09:15:15Z</time>
      </trkpt>
      <trkpt lat="50.51244" lon="1.63539">
        <ele>10</ele>
        <time>2009-04-21T09:15:18Z</time>
      </trkpt>
      <trkpt lat="50.51252" lon="1.6355">
        <ele>10</ele>
        <time>2009-04-21T09:15:22Z</time>
      </trkpt>
      <trkpt lat="50.5126" lon="1.63561">
        <ele>10</ele>
        <time>2009-04-21T09:15:26Z</time>
      </trkpt>
      <trkpt lat="50.51265" lon="1.63572">
        <ele>10</ele>
        <time>2009-04-21T09:15:31Z</time>
      </trkpt>
      <trkpt lat="50.51272" lon="1.63583">
        <ele>10</ele>
        <time>2009-04-21T09:15:35Z</time>
      </trkpt>
      <trkpt lat="50.5128" lon="1.63597">
        <ele>10</ele>
        <time>2009-04-21T09:15:39Z</time>
      </trkpt>
      <trkpt lat="50.51287" lon="1.63608">
        <ele>10</ele>
        <time>2009-04-21T09:15:42Z</time>
      </trkpt>
      <trkpt lat="50.51295" lon="1.6362">
        <ele>10</ele>
        <time>2009-04-21T09:15:45Z</time>
      </trkpt>
      <trkpt lat="50.51304" lon="1.63626">
        <ele>10</ele>
        <time>2009-04-21T09:15:48Z</time>
      </trkpt>
      <trkpt lat="50.51315" lon="1.63624">
        <ele>10</ele>
        <time>2009-04-21T09:15:52Z</time>
      </trkpt>
      <trkpt lat="50.51323" lon="1.63613">
        <ele>10</ele>
        <time>2009-04-21T09:15:55Z</time>
      </trkpt>
      <trkpt lat="50.51331" lon="1.63602">
        <ele>10</ele>
        <time>2009-04-21T09:15:58Z</time>
      </trkpt>
      <trkpt lat="50.51332" lon="1.63588">
        <ele>10</ele>
        <time>2009-04-21T09:16:01Z</time>
      </trkpt>
      <trkpt lat="50.51327" lon="1.63572">
        <ele>10</ele>
        <time>2009-04-21T09:16:05Z</time>
      </trkpt>
      <trkpt lat="50.51332" lon="1.63558">
        <ele>10</ele>
        <time>2009-04-21T09:16:09Z</time>
      </trkpt>
      <trkpt lat="50.51339" lon="1.63549">
        <ele>10</ele>
        <time>2009-04-21T09:16:12Z</time>
      </trkpt>
      <trkpt lat="50.51347" lon="1.63539">
        <ele>10</ele>
        <time>2009-04-21T09:16:15Z</time>
      </trkpt>
      <trkpt lat="50.51357" lon="1.63528">
        <ele>10</ele>
        <time>2009-04-21T09:16:18Z</time>
      </trkpt>
      <trkpt lat="50.51366" lon="1.63516">
        <ele>10</ele>
        <time>2009-04-21T09:16:21Z</time>
      </trkpt>
      <trkpt lat="50.51377" lon="1.63503">
        <ele>10</ele>
        <time>2009-04-21T09:16:24Z</time>
      </trkpt>
      <trkpt lat="50.51384" lon="1.63495">
        <ele>10</ele>
        <time>2009-04-21T09:16:26Z</time>
      </trkpt>
      <trkpt lat="50.51394" lon="1.63483">
        <ele>10</ele>
        <time>2009-04-21T09:16:29Z</time>
      </trkpt>
      <trkpt lat="50.51402" lon="1.63475">
        <ele>10</ele>
        <time>2009-04-21T09:16:31Z</time>
      </trkpt>
      <trkpt lat="50.51409" lon="1.63465">
        <ele>10</ele>
        <time>2009-04-21T09:16:33Z</time>
      </trkpt>
      <trkpt lat="50.51414" lon="1.63452">
        <ele>10</ele>
        <time>2009-04-21T09:16:35Z</time>
      </trkpt>
      <trkpt lat="50.51422" lon="1.63443">
        <ele>10</ele>
        <time>2009-04-21T09:16:37Z</time>
      </trkpt>
      <trkpt lat="50.51432" lon="1.63438">
        <ele>10</ele>
        <time>2009-04-21T09:16:39Z</time>
      </trkpt>
      <trkpt lat="50.5144" lon="1.63429">
        <ele>10</ele>
        <time>2009-04-21T09:16:41Z</time>
      </trkpt>
      <trkpt lat="50.51447" lon="1.63421">
        <ele>10</ele>
        <time>2009-04-21T09:16:43Z</time>
      </trkpt>
      <trkpt lat="50.51456" lon="1.63409">
        <ele>10</ele>
        <time>2009-04-21T09:16:46Z</time>
      </trkpt>
      <trkpt lat="50.51454" lon="1.63393">
        <ele>10</ele>
        <time>2009-04-21T09:16:51Z</time>
      </trkpt>
      <trkpt lat="50.5146" lon="1.63381">
        <ele>10</ele>
        <time>2009-04-21T09:16:54Z</time>
      </trkpt>
      <trkpt lat="50.51468" lon="1.63371">
        <ele>10</ele>
        <time>2009-04-21T09:16:57Z</time>
      </trkpt>
      <trkpt lat="50.51475" lon="1.63361">
        <ele>10</ele>
        <time>2009-04-21T09:17:00Z</time>
      </trkpt>
      <trkpt lat="50.51481" lon="1.63351">
        <ele>10</ele>
        <time>2009-04-21T09:17:03Z</time>
      </trkpt>
      <trkpt lat="50.51488" lon="1.63342">
        <ele>10</ele>
        <time>2009-04-21T09:17:07Z</time>
      </trkpt>
      <trkpt lat="50.51497" lon="1.63334">
        <ele>10</ele>
        <time>2009-04-21T09:17:14Z</time>
      </trkpt>
      <trkpt lat="50.51506" lon="1.63325">
        <ele>10</ele>
        <time>2009-04-21T09:17:18Z</time>
      </trkpt>
      <trkpt lat="50.51515" lon="1.63315">
        <ele>10</ele>
        <time>2009-04-21T09:17:21Z</time>
      </trkpt>
      <trkpt lat="50.51524" lon="1.63305">
        <ele>10</ele>
        <time>2009-04-21T09:17:24Z</time>
      </trkpt>
      <trkpt lat="50.51534" lon="1.63294">
        <ele>10</ele>
        <time>2009-04-21T09:17:27Z</time>
      </trkpt>
      <trkpt lat="50.51543" lon="1.63281">
        <ele>10</ele>
        <time>2009-04-21T09:17:30Z</time>
      </trkpt>
      <trkpt lat="50.5155" lon="1.63272">
        <ele>10</ele>
        <time>2009-04-21T09:17:32Z</time>
      </trkpt>
      <trkpt lat="50.51558" lon="1.63264">
        <ele>10</ele>
        <time>2009-04-21T09:17:34Z</time>
      </trkpt>
      <trkpt lat="50.51565" lon="1.63254">
        <ele>10</ele>
        <time>2009-04-21T09:17:36Z</time>
      </trkpt>
      <trkpt lat="50.51572" lon="1.63245">
        <ele>10</ele>
        <time>2009-04-21T09:17:38Z</time>
      </trkpt>
      <trkpt lat="50.5158" lon="1.63237">
        <ele>10</ele>
        <time>2009-04-21T09:17:40Z</time>
      </trkpt>
      <trkpt lat="50.51588" lon="1.63228">
        <ele>10</ele>
        <time>2009-04-21T09:17:42Z</time>
      </trkpt>
      <trkpt lat="50.51595" lon="1.63219">
        <ele>10</ele>
        <time>2009-04-21T09:17:44Z</time>
      </trkpt>
      <trkpt lat="50.51602" lon="1.63209">
        <ele>10</ele>
        <time>2009-04-21T09:17:46Z</time>
      </trkpt>
      <trkpt lat="50.51608" lon="1.63199">
        <ele>10</ele>
        <time>2009-04-21T09:17:48Z</time>
      </trkpt>
      <trkpt lat="50.51619" lon="1.63196">
        <ele>10</ele>
        <time>2009-04-21T09:17:51Z</time>
      </trkpt>
      <trkpt lat="50.51629" lon="1.63201">
        <ele>10</ele>
        <time>2009-04-21T09:17:54Z</time>
      </trkpt>
      <trkpt lat="50.51637" lon="1.6321">
        <ele>10</ele>
        <time>2009-04-21T09:17:57Z</time>
      </trkpt>
      <trkpt lat="50.51644" lon="1.63221">
        <ele>10</ele>
        <time>2009-04-21T09:18:00Z</time>
      </trkpt>
      <trkpt lat="50.51652" lon="1.63232">
        <ele>10</ele>
        <time>2009-04-21T09:18:03Z</time>
      </trkpt>
      <trkpt lat="50.51659" lon="1.63244">
        <ele>10</ele>
        <time>2009-04-21T09:18:06Z</time>
      </trkpt>
      <trkpt lat="50.51668" lon="1.63243">
        <ele>10</ele>
        <time>2009-04-21T09:18:11Z</time>
      </trkpt>
      <trkpt lat="50.51672" lon="1.63229">
        <ele>10</ele>
        <time>2009-04-21T09:18:16Z</time>
      </trkpt>
      <trkpt lat="50.5168" lon="1.63221">
        <ele>10</ele>
        <time>2009-04-21T09:18:19Z</time>
      </trkpt>
      <trkpt lat="50.51686" lon="1.6321">
        <ele>10</ele>
        <time>2009-04-21T09:18:22Z</time>
      </trkpt>
      <trkpt lat="50.51692" lon="1.632">
        <ele>10</ele>
        <time>2009-04-21T09:18:25Z</time>
      </trkpt>
      <trkpt lat="50.51699" lon="1.63189">
        <ele>10</ele>
        <time>2009-04-21T09:18:28Z</time>
      </trkpt>
      <trkpt lat="50.51708" lon="1.63181">
        <ele>10</ele>
        <time>2009-04-21T09:18:31Z</time>
      </trkpt>
      <trkpt lat="50.51714" lon="1.63171">
        <ele>10</ele>
        <time>2009-04-21T09:18:34Z</time>
      </trkpt>
      <trkpt lat="50.51723" lon="1.63158">
        <ele>10</ele>
        <time>2009-04-21T09:18:38Z</time>
      </trkpt>
      <trkpt lat="50.51731" lon="1.63149">
        <ele>10</ele>
        <time>2009-04-21T09:18:41Z</time>
      </trkpt>
      <trkpt lat="50.5174" lon="1.63141">
        <ele>10</ele>
        <time>2009-04-21T09:18:44Z</time>
      </trkpt>
      <trkpt lat="50.51747" lon="1.63132">
        <ele>10</ele>
        <time>2009-04-21T09:18:47Z</time>
      </trkpt>
      <trkpt lat="50.51755" lon="1.63122">
        <ele>10</ele>
        <time>2009-04-21T09:18:50Z</time>
      </trkpt>
      <trkpt lat="50.51762" lon="1.63113">
        <ele>10</ele>
        <time>2009-04-21T09:18:53Z</time>
      </trkpt>
      <trkpt lat="50.51769" lon="1.63104">
        <ele>10</ele>
        <time>2009-04-21T09:18:56Z</time>
      </trkpt>
      <trkpt lat="50.51778" lon="1.63095">
        <ele>10</ele>
        <time>2009-04-21T09:19:00Z</time>
      </trkpt>
      <trkpt lat="50.51787" lon="1.63084">
        <ele>10</ele>
        <time>2009-04-21T09:19:05Z</time>
      </trkpt>
      <trkpt lat="50.51795" lon="1.63075">
        <ele>10</ele>
        <time>2009-04-21T09:19:09Z</time>
      </trkpt>
      <trkpt lat="50.51805" lon="1.63074">
        <ele>10</ele>
        <time>2009-04-21T09:19:13Z</time>
      </trkpt>
      <trkpt lat="50.51813" lon="1.63067">
        <ele>10</ele>
        <time>2009-04-21T09:19:16Z</time>
      </trkpt>
      <trkpt lat="50.51822" lon="1.63056">
        <ele>10</ele>
        <time>2009-04-21T09:19:19Z</time>
      </trkpt>
      <trkpt lat="50.51831" lon="1.63043">
        <ele>10</ele>
        <time>2009-04-21T09:19:22Z</time>
      </trkpt>
      <trkpt lat="50.51841" lon="1.63031">
        <ele>10</ele>
        <time>2009-04-21T09:19:25Z</time>
      </trkpt>
      <trkpt lat="50.51851" lon="1.63019">
        <ele>10</ele>
        <time>2009-04-21T09:19:28Z</time>
      </trkpt>
      <trkpt lat="50.51861" lon="1.63007">
        <ele>10</ele>
        <time>2009-04-21T09:19:31Z</time>
      </trkpt>
      <trkpt lat="50.5187" lon="1.62994">
        <ele>10</ele>
        <time>2009-04-21T09:19:34Z</time>
      </trkpt>
      <trkpt lat="50.5188" lon="1.62981">
        <ele>10</ele>
        <time>2009-04-21T09:19:37Z</time>
      </trkpt>
      <trkpt lat="50.51887" lon="1.62972">
        <ele>10</ele>
        <time>2009-04-21T09:19:39Z</time>
      </trkpt>
      <trkpt lat="50.51896" lon="1.62962">
        <ele>10</ele>
        <time>2009-04-21T09:19:41Z</time>
      </trkpt>
      <trkpt lat="50.51904" lon="1.62952">
        <ele>10</ele>
        <time>2009-04-21T09:19:43Z</time>
      </trkpt>
      <trkpt lat="50.51913" lon="1.6294">
        <ele>10</ele>
        <time>2009-04-21T09:19:45Z</time>
      </trkpt>
      <trkpt lat="50.51922" lon="1.62928">
        <ele>10</ele>
        <time>2009-04-21T09:19:47Z</time>
      </trkpt>
      <trkpt lat="50.51931" lon="1.62917">
        <ele>10</ele>
        <time>2009-04-21T09:19:49Z</time>
      </trkpt>
      <trkpt lat="50.5194" lon="1.62906">
        <ele>10</ele>
        <time>2009-04-21T09:19:51Z</time>
      </trkpt>
      <trkpt lat="50.51949" lon="1.62894">
        <ele>10</ele>
        <time>2009-04-21T09:19:53Z</time>
      </trkpt>
      <trkpt lat="50.51958" lon="1.62883">
        <ele>10</ele>
        <time>2009-04-21T09:19:55Z</time>
      </trkpt>
      <trkpt lat="50.51967" lon="1.62872">
        <ele>10</ele>
        <time>2009-04-21T09:19:57Z</time>
      </trkpt>
      <trkpt lat="50.51976" lon="1.62864">
        <ele>10</ele>
        <time>2009-04-21T09:19:59Z</time>
      </trkpt>
      <trkpt lat="50.51987" lon="1.62858">
        <ele>10</ele>
        <time>2009-04-21T09:20:01Z</time>
      </trkpt>
      <trkpt lat="50.52001" lon="1.62839">
        <ele>10</ele>
        <time>2009-04-21T09:20:05Z</time>
      </trkpt>
      <trkpt lat="50.5201" lon="1.62833">
        <ele>10</ele>
        <time>2009-04-21T09:20:07Z</time>
      </trkpt>
      <trkpt lat="50.5202" lon="1.6283">
        <ele>10</ele>
        <time>2009-04-21T09:20:09Z</time>
      </trkpt>
      <trkpt lat="50.5203" lon="1.62827">
        <ele>10</ele>
        <time>2009-04-21T09:20:11Z</time>
      </trkpt>
      <trkpt lat="50.5204" lon="1.62824">
        <ele>10</ele>
        <time>2009-04-21T09:20:13Z</time>
      </trkpt>
      <trkpt lat="50.5205" lon="1.62821">
        <ele>10</ele>
        <time>2009-04-21T09:20:15Z</time>
      </trkpt>
      <trkpt lat="50.5206" lon="1.6282">
        <ele>10</ele>
        <time>2009-04-21T09:20:17Z</time>
      </trkpt>
      <trkpt lat="50.52071" lon="1.62818">
        <ele>10</ele>
        <time>2009-04-21T09:20:19Z</time>
      </trkpt>
      <trkpt lat="50.52082" lon="1.62817">
        <ele>10</ele>
        <time>2009-04-21T09:20:21Z</time>
      </trkpt>
      <trkpt lat="50.52093" lon="1.62817">
        <ele>10</ele>
        <time>2009-04-21T09:20:23Z</time>
      </trkpt>
      <trkpt lat="50.52104" lon="1.62819">
        <ele>10</ele>
        <time>2009-04-21T09:20:25Z</time>
      </trkpt>
      <trkpt lat="50.52114" lon="1.62821">
        <ele>10</ele>
        <time>2009-04-21T09:20:27Z</time>
      </trkpt>
      <trkpt lat="50.52125" lon="1.62825">
        <ele>10</ele>
        <time>2009-04-21T09:20:29Z</time>
      </trkpt>
      <trkpt lat="50.52134" lon="1.62829">
        <ele>10</ele>
        <time>2009-04-21T09:20:31Z</time>
      </trkpt>
      <trkpt lat="50.52145" lon="1.62834">
        <ele>10</ele>
        <time>2009-04-21T09:20:33Z</time>
      </trkpt>
      <trkpt lat="50.52155" lon="1.62839">
        <ele>10</ele>
        <time>2009-04-21T09:20:35Z</time>
      </trkpt>
      <trkpt lat="50.52165" lon="1.62843">
        <ele>10</ele>
        <time>2009-04-21T09:20:37Z</time>
      </trkpt>
      <trkpt lat="50.52175" lon="1.62849">
        <ele>10</ele>
        <time>2009-04-21T09:20:39Z</time>
      </trkpt>
      <trkpt lat="50.52185" lon="1.62858">
        <ele>10</ele>
        <time>2009-04-21T09:20:41Z</time>
      </trkpt>
      <trkpt lat="50.52194" lon="1.62867">
        <ele>10</ele>
        <time>2009-04-21T09:20:43Z</time>
      </trkpt>
      <trkpt lat="50.52203" lon="1.62878">
        <ele>10</ele>
        <time>2009-04-21T09:20:45Z</time>
      </trkpt>
      <trkpt lat="50.52209" lon="1.62892">
        <ele>10</ele>
        <time>2009-04-21T09:20:47Z</time>
      </trkpt>
      <trkpt lat="50.52213" lon="1.6291">
        <ele>10</ele>
        <time>2009-04-21T09:20:49Z</time>
      </trkpt>
      <trkpt lat="50.52218" lon="1.62924">
        <ele>10</ele>
        <time>2009-04-21T09:20:51Z</time>
      </trkpt>
      <trkpt lat="50.52227" lon="1.62934">
        <ele>10</ele>
        <time>2009-04-21T09:20:53Z</time>
      </trkpt>
      <trkpt lat="50.52236" lon="1.62943">
        <ele>10</ele>
        <time>2009-04-21T09:20:55Z</time>
      </trkpt>
      <trkpt lat="50.52243" lon="1.62953">
        <ele>10</ele>
        <time>2009-04-21T09:20:57Z</time>
      </trkpt>
      <trkpt lat="50.52252" lon="1.62965">
        <ele>10</ele>
        <time>2009-04-21T09:20:59Z</time>
      </trkpt>
      <trkpt lat="50.52259" lon="1.62982">
        <ele>10</ele>
        <time>2009-04-21T09:21:02Z</time>
      </trkpt>
      <trkpt lat="50.52263" lon="1.62997">
        <ele>10</ele>
        <time>2009-04-21T09:21:04Z</time>
      </trkpt>
      <trkpt lat="50.52267" lon="1.63011">
        <ele>10</ele>
        <time>2009-04-21T09:21:06Z</time>
      </trkpt>
      <trkpt lat="50.52271" lon="1.63025">
        <ele>10</ele>
        <time>2009-04-21T09:21:08Z</time>
      </trkpt>
      <trkpt lat="50.52276" lon="1.63039">
        <ele>10</ele>
        <time>2009-04-21T09:21:10Z</time>
      </trkpt>
      <trkpt lat="50.52282" lon="1.63051">
        <ele>10</ele>
        <time>2009-04-21T09:21:12Z</time>
      </trkpt>
      <trkpt lat="50.52287" lon="1.63064">
        <ele>10</ele>
        <time>2009-04-21T09:21:14Z</time>
      </trkpt>
      <trkpt lat="50.52289" lon="1.63078">
        <ele>10</ele>
        <time>2009-04-21T09:21:16Z</time>
      </trkpt>
      <trkpt lat="50.52288" lon="1.63095">
        <ele>10</ele>
        <time>2009-04-21T09:21:19Z</time>
      </trkpt>
      <trkpt lat="50.52284" lon="1.63112">
        <ele>10</ele>
        <time>2009-04-21T09:21:22Z</time>
      </trkpt>
      <trkpt lat="50.52278" lon="1.63124">
        <ele>10</ele>
        <time>2009-04-21T09:21:24Z</time>
      </trkpt>
      <trkpt lat="50.52275" lon="1.63139">
        <ele>10</ele>
        <time>2009-04-21T09:21:26Z</time>
      </trkpt>
      <trkpt lat="50.52274" lon="1.63153">
        <ele>10</ele>
        <time>2009-04-21T09:21:28Z</time>
      </trkpt>
      <trkpt lat="50.52277" lon="1.63174">
        <ele>10</ele>
        <time>2009-04-21T09:21:31Z</time>
      </trkpt>
      <trkpt lat="50.5228" lon="1.63187">
        <ele>10</ele>
        <time>2009-04-21T09:21:33Z</time>
      </trkpt>
      <trkpt lat="50.52283" lon="1.63201">
        <ele>10</ele>
        <time>2009-04-21T09:21:35Z</time>
      </trkpt>
      <trkpt lat="50.52288" lon="1.63219">
        <ele>10</ele>
        <time>2009-04-21T09:21:38Z</time>
      </trkpt>
      <trkpt lat="50.52295" lon="1.63236">
        <ele>10</ele>
        <time>2009-04-21T09:21:41Z</time>
      </trkpt>
      <trkpt lat="50.52299" lon="1.63249">
        <ele>10</ele>
        <time>2009-04-21T09:21:43Z</time>
      </trkpt>
      <trkpt lat="50.52304" lon="1.63262">
        <ele>10</ele>
        <time>2009-04-21T09:21:45Z</time>
      </trkpt>
      <trkpt lat="50.5231" lon="1.63275">
        <ele>10</ele>
        <time>2009-04-21T09:21:47Z</time>
      </trkpt>
      <trkpt lat="50.52316" lon="1.63286">
        <ele>10</ele>
        <time>2009-04-21T09:21:49Z</time>
      </trkpt>
      <trkpt lat="50.52323" lon="1.63296">
        <ele>10</ele>
        <time>2009-04-21T09:21:51Z</time>
      </trkpt>
      <trkpt lat="50.52334" lon="1.63301">
        <ele>10</ele>
        <time>2009-04-21T09:21:54Z</time>
      </trkpt>
      <trkpt lat="50.52344" lon="1.63305">
        <ele>10</ele>
        <time>2009-04-21T09:21:57Z</time>
      </trkpt>
      <trkpt lat="50.52353" lon="1.6331">
        <ele>10</ele>
        <time>2009-04-21T09:22:00Z</time>
      </trkpt>
      <trkpt lat="50.52363" lon="1.63316">
        <ele>15</ele>
        <time>2009-04-21T09:22:03Z</time>
      </trkpt>
      <trkpt lat="50.52373" lon="1.63324">
        <ele>15</ele>
        <time>2009-04-21T09:22:06Z</time>
      </trkpt>
      <trkpt lat="50.52385" lon="1.63328">
        <ele>20</ele>
        <time>2009-04-21T09:22:09Z</time>
      </trkpt>
      <trkpt lat="50.52393" lon="1.63333">
        <ele>20</ele>
        <time>2009-04-21T09:22:12Z</time>
      </trkpt>
      <trkpt lat="50.52403" lon="1.63343">
        <ele>27</ele>
        <time>2009-04-21T09:22:16Z</time>
      </trkpt>
      <trkpt lat="50.52413" lon="1.63357">
        <ele>27</ele>
        <time>2009-04-21T09:22:19Z</time>
      </trkpt>
      <trkpt lat="50.52422" lon="1.63368">
        <ele>32</ele>
        <time>2009-04-21T09:22:23Z</time>
      </trkpt>
      <trkpt lat="50.52429" lon="1.63381">
        <ele>32</ele>
        <time>2009-04-21T09:22:26Z</time>
      </trkpt>
      <trkpt lat="50.52434" lon="1.63393">
        <ele>32</ele>
        <time>2009-04-21T09:22:28Z</time>
      </trkpt>
      <trkpt lat="50.5244" lon="1.6341">
        <ele>32</ele>
        <time>2009-04-21T09:22:31Z</time>
      </trkpt>
      <trkpt lat="50.52448" lon="1.63427">
        <ele>32</ele>
        <time>2009-04-21T09:22:34Z</time>
      </trkpt>
      <trkpt lat="50.52453" lon="1.6344">
        <ele>32</ele>
        <time>2009-04-21T09:22:36Z</time>
      </trkpt>
      <trkpt lat="50.52459" lon="1.63457">
        <ele>32</ele>
        <time>2009-04-21T09:22:39Z</time>
      </trkpt>
      <trkpt lat="50.52464" lon="1.63471">
        <ele>26</ele>
        <time>2009-04-21T09:22:41Z</time>
      </trkpt>
      <trkpt lat="50.52468" lon="1.63484">
        <ele>26</ele>
        <time>2009-04-21T09:22:43Z</time>
      </trkpt>
      <trkpt lat="50.52473" lon="1.63501">
        <ele>26</ele>
        <time>2009-04-21T09:22:46Z</time>
      </trkpt>
      <trkpt lat="50.52479" lon="1.63515">
        <ele>20</ele>
        <time>2009-04-21T09:22:49Z</time>
      </trkpt>
      <trkpt lat="50.52485" lon="1.63532">
        <ele>20</ele>
        <time>2009-04-21T09:22:52Z</time>
      </trkpt>
      <trkpt lat="50.52491" lon="1.63546">
        <ele>20</ele>
        <time>2009-04-21T09:22:55Z</time>
      </trkpt>
      <trkpt lat="50.52498" lon="1.63561">
        <ele>20</ele>
        <time>2009-04-21T09:22:59Z</time>
      </trkpt>
      <trkpt lat="50.52504" lon="1.63574">
        <ele>15</ele>
        <time>2009-04-21T09:23:02Z</time>
      </trkpt>
      <trkpt lat="50.52508" lon="1.63587">
        <ele>15</ele>
        <time>2009-04-21T09:23:05Z</time>
      </trkpt>
      <trkpt lat="50.52513" lon="1.63602">
        <ele>21</ele>
        <time>2009-04-21T09:23:09Z</time>
      </trkpt>
      <trkpt lat="50.52519" lon="1.63618">
        <ele>21</ele>
        <time>2009-04-21T09:23:13Z</time>
      </trkpt>
      <trkpt lat="50.52521" lon="1.63633">
        <ele>21</ele>
        <time>2009-04-21T09:23:17Z</time>
      </trkpt>
      <trkpt lat="50.52525" lon="1.63646">
        <ele>21</ele>
        <time>2009-04-21T09:23:20Z</time>
      </trkpt>
      <trkpt lat="50.52527" lon="1.63661">
        <ele>21</ele>
        <time>2009-04-21T09:23:24Z</time>
      </trkpt>
      <trkpt lat="50.52531" lon="1.63676">
        <ele>21</ele>
        <time>2009-04-21T09:23:29Z</time>
      </trkpt>
      <trkpt lat="50.52533" lon="1.63691">
        <ele>33</ele>
        <time>2009-04-21T09:23:35Z</time>
      </trkpt>
      <trkpt lat="50.52538" lon="1.63705">
        <ele>33</ele>
        <time>2009-04-21T09:23:39Z</time>
      </trkpt>
      <trkpt lat="50.52543" lon="1.63716">
        <ele>33</ele>
        <time>2009-04-21T09:23:42Z</time>
      </trkpt>
      <trkpt lat="50.52548" lon="1.6373">
        <ele>39</ele>
        <time>2009-04-21T09:23:46Z</time>
      </trkpt>
      <trkpt lat="50.52552" lon="1.63744">
        <ele>45</ele>
        <time>2009-04-21T09:23:51Z</time>
      </trkpt>
      <trkpt lat="50.52555" lon="1.63758">
        <ele>45</ele>
        <time>2009-04-21T09:23:55Z</time>
      </trkpt>
      <trkpt lat="50.52562" lon="1.63772">
        <ele>51</ele>
        <time>2009-04-21T09:24:01Z</time>
      </trkpt>
      <trkpt lat="50.52568" lon="1.63784">
        <ele>51</ele>
        <time>2009-04-21T09:24:06Z</time>
      </trkpt>
      <trkpt lat="50.52572" lon="1.63797">
        <ele>51</ele>
        <time>2009-04-21T09:24:13Z</time>
      </trkpt>
      <trkpt lat="50.52579" lon="1.63807">
        <ele>51</ele>
        <time>2009-04-21T09:24:25Z</time>
      </trkpt>
      <trkpt lat="50.52584" lon="1.63819">
        <ele>51</ele>
        <time>2009-04-21T09:24:33Z</time>
      </trkpt>
      <trkpt lat="50.52591" lon="1.63828">
        <ele>51</ele>
        <time>2009-04-21T09:24:38Z</time>
      </trkpt>
      <trkpt lat="50.52594" lon="1.63843">
        <ele>51</ele>
        <time>2009-04-21T09:24:44Z</time>
      </trkpt>
      <trkpt lat="50.52595" lon="1.63857">
        <ele>51</ele>
        <time>2009-04-21T09:25:04Z</time>
      </trkpt>
      <trkpt lat="50.526" lon="1.63871">
        <ele>51</ele>
        <time>2009-04-21T09:25:24Z</time>
      </trkpt>
      <trkpt lat="50.52604" lon="1.63883">
        <ele>51</ele>
        <time>2009-04-21T09:25:28Z</time>
      </trkpt>
      <trkpt lat="50.5261" lon="1.63897">
        <ele>51</ele>
        <time>2009-04-21T09:25:33Z</time>
      </trkpt>
      <trkpt lat="50.52614" lon="1.6391">
        <ele>51</ele>
        <time>2009-04-21T09:25:38Z</time>
      </trkpt>
      <trkpt lat="50.52624" lon="1.63923">
        <ele>51</ele>
        <time>2009-04-21T09:25:41Z</time>
      </trkpt>
      <trkpt lat="50.52632" lon="1.63932">
        <ele>57</ele>
        <time>2009-04-21T09:25:43Z</time>
      </trkpt>
      <trkpt lat="50.5263" lon="1.63946">
        <ele>57</ele>
        <time>2009-04-21T09:25:45Z</time>
      </trkpt>
      <trkpt lat="50.52626" lon="1.63959">
        <ele>57</ele>
        <time>2009-04-21T09:25:47Z</time>
      </trkpt>
      <trkpt lat="50.52621" lon="1.63973">
        <ele>57</ele>
        <time>2009-04-21T09:25:51Z</time>
      </trkpt>
      <trkpt lat="50.52616" lon="1.63986">
        <ele>57</ele>
        <time>2009-04-21T09:25:55Z</time>
      </trkpt>
      <trkpt lat="50.5261" lon="1.63997">
        <ele>57</ele>
        <time>2009-04-21T09:25:58Z</time>
      </trkpt>
      <trkpt lat="50.5261" lon="1.64013">
        <ele>57</ele>
        <time>2009-04-21T09:26:01Z</time>
      </trkpt>
      <trkpt lat="50.52615" lon="1.64024">
        <ele>57</ele>
        <time>2009-04-21T09:26:04Z</time>
      </trkpt>
      <trkpt lat="50.52623" lon="1.64033">
        <ele>57</ele>
        <time>2009-04-21T09:26:10Z</time>
      </trkpt>
      <trkpt lat="50.52629" lon="1.64048">
        <ele>57</ele>
        <time>2009-04-21T09:26:16Z</time>
      </trkpt>
      <trkpt lat="50.5263" lon="1.64063">
        <ele>57</ele>
        <time>2009-04-21T09:26:19Z</time>
      </trkpt>
      <trkpt lat="50.5263" lon="1.64079">
        <ele>57</ele>
        <time>2009-04-21T09:26:23Z</time>
      </trkpt>
      <trkpt lat="50.52632" lon="1.64095">
        <ele>57</ele>
        <time>2009-04-21T09:26:27Z</time>
      </trkpt>
      <trkpt lat="50.52632" lon="1.64112">
        <ele>57</ele>
        <time>2009-04-21T09:26:31Z</time>
      </trkpt>
      <trkpt lat="50.52632" lon="1.6413">
        <ele>57</ele>
        <time>2009-04-21T09:26:34Z</time>
      </trkpt>
      <trkpt lat="50.52637" lon="1.64145">
        <ele>57</ele>
        <time>2009-04-21T09:26:37Z</time>
      </trkpt>
      <trkpt lat="50.52643" lon="1.64158">
        <ele>57</ele>
        <time>2009-04-21T09:26:41Z</time>
      </trkpt>
      <trkpt lat="50.52647" lon="1.64171">
        <ele>57</ele>
        <time>2009-04-21T09:26:44Z</time>
      </trkpt>
      <trkpt lat="50.52651" lon="1.64187">
        <ele>57</ele>
        <time>2009-04-21T09:26:47Z</time>
      </trkpt>
      <trkpt lat="50.52654" lon="1.64206">
        <ele>57</ele>
        <time>2009-04-21T09:26:50Z</time>
      </trkpt>
      <trkpt lat="50.52655" lon="1.6422">
        <ele>57</ele>
        <time>2009-04-21T09:26:53Z</time>
      </trkpt>
      <trkpt lat="50.52653" lon="1.64236">
        <ele>57</ele>
        <time>2009-04-21T09:26:57Z</time>
      </trkpt>
      <trkpt lat="50.5265" lon="1.64253">
        <ele>57</ele>
        <time>2009-04-21T09:27:01Z</time>
      </trkpt>
      <trkpt lat="50.52642" lon="1.64261">
        <ele>57</ele>
        <time>2009-04-21T09:27:10Z</time>
      </trkpt>
      <trkpt lat="50.52633" lon="1.64265">
        <ele>57</ele>
        <time>2009-04-21T09:27:14Z</time>
      </trkpt>
      <trkpt lat="50.52623" lon="1.64268">
        <ele>57</ele>
        <time>2009-04-21T09:27:17Z</time>
      </trkpt>
      <trkpt lat="50.52614" lon="1.64275">
        <ele>57</ele>
        <time>2009-04-21T09:27:20Z</time>
      </trkpt>
      <trkpt lat="50.52614" lon="1.64292">
        <ele>57</ele>
        <time>2009-04-21T09:27:24Z</time>
      </trkpt>
      <trkpt lat="50.52614" lon="1.64308">
        <ele>57</ele>
        <time>2009-04-21T09:27:27Z</time>
      </trkpt>
      <trkpt lat="50.52613" lon="1.64327">
        <ele>52</ele>
        <time>2009-04-21T09:27:30Z</time>
      </trkpt>
      <trkpt lat="50.52611" lon="1.64348">
        <ele>52</ele>
        <time>2009-04-21T09:27:33Z</time>
      </trkpt>
      <trkpt lat="50.52612" lon="1.64368">
        <ele>52</ele>
        <time>2009-04-21T09:27:36Z</time>
      </trkpt>
      <trkpt lat="50.52613" lon="1.64385">
        <ele>52</ele>
        <time>2009-04-21T09:27:38Z</time>
      </trkpt>
      <trkpt lat="50.52611" lon="1.64402">
        <ele>52</ele>
        <time>2009-04-21T09:27:40Z</time>
      </trkpt>
      <trkpt lat="50.52608" lon="1.6442">
        <ele>46</ele>
        <time>2009-04-21T09:27:42Z</time>
      </trkpt>
      <trkpt lat="50.52599" lon="1.64431">
        <ele>46</ele>
        <time>2009-04-21T09:27:44Z</time>
      </trkpt>
      <trkpt lat="50.52586" lon="1.64431">
        <ele>46</ele>
        <time>2009-04-21T09:27:47Z</time>
      </trkpt>
      <trkpt lat="50.52576" lon="1.64419">
        <ele>46</ele>
        <time>2009-04-21T09:27:49Z</time>
      </trkpt>
      <trkpt lat="50.52567" lon="1.64408">
        <ele>46</ele>
        <time>2009-04-21T09:27:52Z</time>
      </trkpt>
      <trkpt lat="50.52555" lon="1.64411">
        <ele>40</ele>
        <time>2009-04-21T09:27:55Z</time>
      </trkpt>
      <trkpt lat="50.52554" lon="1.64426">
        <ele>40</ele>
        <time>2009-04-21T09:27:57Z</time>
      </trkpt>
      <trkpt lat="50.52554" lon="1.64445">
        <ele>40</ele>
        <time>2009-04-21T09:27:59Z</time>
      </trkpt>
      <trkpt lat="50.5255" lon="1.64467">
        <ele>40</ele>
        <time>2009-04-21T09:28:01Z</time>
      </trkpt>
      <trkpt lat="50.52546" lon="1.64481">
        <ele>40</ele>
        <time>2009-04-21T09:28:03Z</time>
      </trkpt>
      <trkpt lat="50.52543" lon="1.645">
        <ele>40</ele>
        <time>2009-04-21T09:28:06Z</time>
      </trkpt>
      <trkpt lat="50.52541" lon="1.64521">
        <ele>34</ele>
        <time>2009-04-21T09:28:09Z</time>
      </trkpt>
      <trkpt lat="50.52537" lon="1.64539">
        <ele>34</ele>
        <time>2009-04-21T09:28:11Z</time>
      </trkpt>
      <trkpt lat="50.52532" lon="1.64556">
        <ele>34</ele>
        <time>2009-04-21T09:28:13Z</time>
      </trkpt>
      <trkpt lat="50.52528" lon="1.64577">
        <ele>34</ele>
        <time>2009-04-21T09:28:15Z</time>
      </trkpt>
      <trkpt lat="50.52523" lon="1.64593">
        <ele>34</ele>
        <time>2009-04-21T09:28:17Z</time>
      </trkpt>
      <trkpt lat="50.52519" lon="1.64608">
        <ele>34</ele>
        <time>2009-04-21T09:28:19Z</time>
      </trkpt>
      <trkpt lat="50.52517" lon="1.64623">
        <ele>34</ele>
        <time>2009-04-21T09:28:21Z</time>
      </trkpt>
      <trkpt lat="50.52517" lon="1.64637">
        <ele>34</ele>
        <time>2009-04-21T09:28:23Z</time>
      </trkpt>
      <trkpt lat="50.52507" lon="1.64643">
        <ele>34</ele>
        <time>2009-04-21T09:28:29Z</time>
      </trkpt>
      <trkpt lat="50.52501" lon="1.64658">
        <ele>34</ele>
        <time>2009-04-21T09:28:33Z</time>
      </trkpt>
      <trkpt lat="50.52502" lon="1.64674">
        <ele>34</ele>
        <time>2009-04-21T09:28:35Z</time>
      </trkpt>
      <trkpt lat="50.52501" lon="1.64693">
        <ele>34</ele>
        <time>2009-04-21T09:28:37Z</time>
      </trkpt>
      <trkpt lat="50.52498" lon="1.64712">
        <ele>34</ele>
        <time>2009-04-21T09:28:39Z</time>
      </trkpt>
      <trkpt lat="50.52493" lon="1.6473">
        <ele>34</ele>
        <time>2009-04-21T09:28:41Z</time>
      </trkpt>
      <trkpt lat="50.52492" lon="1.64747">
        <ele>34</ele>
        <time>2009-04-21T09:28:43Z</time>
      </trkpt>
      <trkpt lat="50.52491" lon="1.64765">
        <ele>34</ele>
        <time>2009-04-21T09:28:45Z</time>
      </trkpt>
      <trkpt lat="50.52489" lon="1.64781">
        <ele>34</ele>
        <time>2009-04-21T09:28:47Z</time>
      </trkpt>
      <trkpt lat="50.52487" lon="1.64798">
        <ele>34</ele>
        <time>2009-04-21T09:28:49Z</time>
      </trkpt>
      <trkpt lat="50.52487" lon="1.64814">
        <ele>34</ele>
        <time>2009-04-21T09:28:51Z</time>
      </trkpt>
      <trkpt lat="50.52488" lon="1.64831">
        <ele>34</ele>
        <time>2009-04-21T09:28:53Z</time>
      </trkpt>
      <trkpt lat="50.52488" lon="1.64846">
        <ele>39</ele>
        <time>2009-04-21T09:28:55Z</time>
      </trkpt>
      <trkpt lat="50.52481" lon="1.6486">
        <ele>39</ele>
        <time>2009-04-21T09:28:57Z</time>
      </trkpt>
      <trkpt lat="50.52471" lon="1.64872">
        <ele>39</ele>
        <time>2009-04-21T09:28:59Z</time>
      </trkpt>
      <trkpt lat="50.52463" lon="1.64889">
        <ele>39</ele>
        <time>2009-04-21T09:29:01Z</time>
      </trkpt>
      <trkpt lat="50.52463" lon="1.64906">
        <ele>39</ele>
        <time>2009-04-21T09:29:03Z</time>
      </trkpt>
      <trkpt lat="50.52468" lon="1.6492">
        <ele>39</ele>
        <time>2009-04-21T09:29:06Z</time>
      </trkpt>
      <trkpt lat="50.52461" lon="1.64935">
        <ele>39</ele>
        <time>2009-04-21T09:29:09Z</time>
      </trkpt>
      <trkpt lat="50.52458" lon="1.6495">
        <ele>39</ele>
        <time>2009-04-21T09:29:11Z</time>
      </trkpt>
      <trkpt lat="50.52456" lon="1.64966">
        <ele>39</ele>
        <time>2009-04-21T09:29:13Z</time>
      </trkpt>
      <trkpt lat="50.52452" lon="1.64985">
        <ele>39</ele>
        <time>2009-04-21T09:29:15Z</time>
      </trkpt>
      <trkpt lat="50.52446" lon="1.64995">
        <ele>39</ele>
        <time>2009-04-21T09:29:17Z</time>
      </trkpt>
      <trkpt lat="50.52436" lon="1.65002">
        <ele>39</ele>
        <time>2009-04-21T09:29:24Z</time>
      </trkpt>
      <trkpt lat="50.52427" lon="1.6501">
        <ele>39</ele>
        <time>2009-04-21T09:29:27Z</time>
      </trkpt>
      <trkpt lat="50.52416" lon="1.65019">
        <ele>33</ele>
        <time>2009-04-21T09:29:30Z</time>
      </trkpt>
      <trkpt lat="50.52406" lon="1.65023">
        <ele>33</ele>
        <time>2009-04-21T09:29:33Z</time>
      </trkpt>
      <trkpt lat="50.52397" lon="1.65027">
        <ele>33</ele>
        <time>2009-04-21T09:29:45Z</time>
      </trkpt>
      <trkpt lat="50.52391" lon="1.65039">
        <ele>33</ele>
        <time>2009-04-21T09:29:49Z</time>
      </trkpt>
      <trkpt lat="50.5239" lon="1.65056">
        <ele>33</ele>
        <time>2009-04-21T09:29:52Z</time>
      </trkpt>
      <trkpt lat="50.52381" lon="1.6506">
        <ele>26</ele>
        <time>2009-04-21T09:29:59Z</time>
      </trkpt>
      <trkpt lat="50.52371" lon="1.65063">
        <ele>26</ele>
        <time>2009-04-21T09:30:03Z</time>
      </trkpt>
      <trkpt lat="50.52363" lon="1.65071">
        <ele>26</ele>
        <time>2009-04-21T09:30:07Z</time>
      </trkpt>
      <trkpt lat="50.52355" lon="1.6508">
        <ele>26</ele>
        <time>2009-04-21T09:30:10Z</time>
      </trkpt>
      <trkpt lat="50.52345" lon="1.65088">
        <ele>26</ele>
        <time>2009-04-21T09:30:13Z</time>
      </trkpt>
      <trkpt lat="50.52336" lon="1.65094">
        <ele>21</ele>
        <time>2009-04-21T09:30:17Z</time>
      </trkpt>
      <trkpt lat="50.52327" lon="1.651">
        <ele>21</ele>
        <time>2009-04-21T09:30:22Z</time>
      </trkpt>
      <trkpt lat="50.52319" lon="1.65091">
        <ele>21</ele>
        <time>2009-04-21T09:30:52Z</time>
      </trkpt>
      <trkpt lat="50.52314" lon="1.65078">
        <ele>21</ele>
        <time>2009-04-21T09:30:57Z</time>
      </trkpt>
      <trkpt lat="50.5231" lon="1.65065">
        <ele>21</ele>
        <time>2009-04-21T09:31:00Z</time>
      </trkpt>
      <trkpt lat="50.52306" lon="1.65048">
        <ele>21</ele>
        <time>2009-04-21T09:31:03Z</time>
      </trkpt>
      <trkpt lat="50.52302" lon="1.65035">
        <ele>21</ele>
        <time>2009-04-21T09:31:06Z</time>
      </trkpt>
      <trkpt lat="50.52293" lon="1.65021">
        <ele>21</ele>
        <time>2009-04-21T09:31:09Z</time>
      </trkpt>
      <trkpt lat="50.52286" lon="1.65004">
        <ele>21</ele>
        <time>2009-04-21T09:31:12Z</time>
      </trkpt>
      <trkpt lat="50.52282" lon="1.64991">
        <ele>21</ele>
        <time>2009-04-21T09:31:14Z</time>
      </trkpt>
      <trkpt lat="50.52278" lon="1.64977">
        <ele>21</ele>
        <time>2009-04-21T09:31:16Z</time>
      </trkpt>
      <trkpt lat="50.52272" lon="1.64964">
        <ele>21</ele>
        <time>2009-04-21T09:31:18Z</time>
      </trkpt>
      <trkpt lat="50.52265" lon="1.64953">
        <ele>21</ele>
        <time>2009-04-21T09:31:20Z</time>
      </trkpt>
      <trkpt lat="50.52258" lon="1.64943">
        <ele>21</ele>
        <time>2009-04-21T09:31:22Z</time>
      </trkpt>
      <trkpt lat="50.52251" lon="1.64933">
        <ele>21</ele>
        <time>2009-04-21T09:31:24Z</time>
      </trkpt>
      <trkpt lat="50.5224" lon="1.64927">
        <ele>21</ele>
        <time>2009-04-21T09:31:27Z</time>
      </trkpt>
      <trkpt lat="50.5223" lon="1.64939">
        <ele>27</ele>
        <time>2009-04-21T09:31:30Z</time>
      </trkpt>
      <trkpt lat="50.52225" lon="1.64951">
        <ele>27</ele>
        <time>2009-04-21T09:31:32Z</time>
      </trkpt>
      <trkpt lat="50.5222" lon="1.64965">
        <ele>27</ele>
        <time>2009-04-21T09:31:34Z</time>
      </trkpt>
      <trkpt lat="50.52214" lon="1.64977">
        <ele>27</ele>
        <time>2009-04-21T09:31:36Z</time>
      </trkpt>
      <trkpt lat="50.52208" lon="1.64995">
        <ele>27</ele>
        <time>2009-04-21T09:31:39Z</time>
      </trkpt>
      <trkpt lat="50.52202" lon="1.6501">
        <ele>27</ele>
        <time>2009-04-21T09:31:42Z</time>
      </trkpt>
      <trkpt lat="50.522" lon="1.65026">
        <ele>27</ele>
        <time>2009-04-21T09:31:46Z</time>
      </trkpt>
      <trkpt lat="50.52194" lon="1.65039">
        <ele>27</ele>
        <time>2009-04-21T09:31:49Z</time>
      </trkpt>
      <trkpt lat="50.52189" lon="1.65049">
        <ele>27</ele>
        <time>2009-04-21T09:31:51Z</time>
      </trkpt>
      <trkpt lat="50.5218" lon="1.65064">
        <ele>27</ele>
        <time>2009-04-21T09:31:54Z</time>
      </trkpt>
      <trkpt lat="50.52173" lon="1.65076">
        <ele>27</ele>
        <time>2009-04-21T09:31:57Z</time>
      </trkpt>
      <trkpt lat="50.52166" lon="1.65092">
        <ele>27</ele>
        <time>2009-04-21T09:32:01Z</time>
      </trkpt>
      <trkpt lat="50.5216" lon="1.65108">
        <ele>27</ele>
        <time>2009-04-21T09:32:04Z</time>
      </trkpt>
      <trkpt lat="50.52149" lon="1.65111">
        <ele>27</ele>
        <time>2009-04-21T09:32:07Z</time>
      </trkpt>
      <trkpt lat="50.52139" lon="1.651">
        <ele>27</ele>
        <time>2009-04-21T09:32:10Z</time>
      </trkpt>
      <trkpt lat="50.52131" lon="1.65085">
        <ele>27</ele>
        <time>2009-04-21T09:32:13Z</time>
      </trkpt>
      <trkpt lat="50.52123" lon="1.6507">
        <ele>27</ele>
        <time>2009-04-21T09:32:16Z</time>
      </trkpt>
      <trkpt lat="50.52115" lon="1.65055">
        <ele>32</ele>
        <time>2009-04-21T09:32:19Z</time>
      </trkpt>
      <trkpt lat="50.52106" lon="1.6504">
        <ele>32</ele>
        <time>2009-04-21T09:32:22Z</time>
      </trkpt>
      <trkpt lat="50.52098" lon="1.65024">
        <ele>32</ele>
        <time>2009-04-21T09:32:25Z</time>
      </trkpt>
      <trkpt lat="50.5209" lon="1.65009">
        <ele>32</ele>
        <time>2009-04-21T09:32:28Z</time>
      </trkpt>
      <trkpt lat="50.52085" lon="1.64998">
        <ele>32</ele>
        <time>2009-04-21T09:32:30Z</time>
      </trkpt>
      <trkpt lat="50.52079" lon="1.64987">
        <ele>32</ele>
        <time>2009-04-21T09:32:32Z</time>
      </trkpt>
      <trkpt lat="50.52071" lon="1.64974">
        <ele>32</ele>
        <time>2009-04-21T09:32:35Z</time>
      </trkpt>
      <trkpt lat="50.52062" lon="1.64968">
        <ele>37</ele>
        <time>2009-04-21T09:32:38Z</time>
      </trkpt>
      <trkpt lat="50.52056" lon="1.64979">
        <ele>37</ele>
        <time>2009-04-21T09:32:41Z</time>
      </trkpt>
      <trkpt lat="50.52049" lon="1.64996">
        <ele>37</ele>
        <time>2009-04-21T09:32:44Z</time>
      </trkpt>
      <trkpt lat="50.52043" lon="1.65008">
        <ele>37</ele>
        <time>2009-04-21T09:32:46Z</time>
      </trkpt>
      <trkpt lat="50.52037" lon="1.65021">
        <ele>37</ele>
        <time>2009-04-21T09:32:48Z</time>
      </trkpt>
      <trkpt lat="50.5203" lon="1.65031">
        <ele>37</ele>
        <time>2009-04-21T09:32:50Z</time>
      </trkpt>
      <trkpt lat="50.52023" lon="1.65041">
        <ele>37</ele>
        <time>2009-04-21T09:32:52Z</time>
      </trkpt>
      <trkpt lat="50.52018" lon="1.65052">
        <ele>37</ele>
        <time>2009-04-21T09:32:54Z</time>
      </trkpt>
      <trkpt lat="50.52012" lon="1.65063">
        <ele>37</ele>
        <time>2009-04-21T09:32:56Z</time>
      </trkpt>
      <trkpt lat="50.52005" lon="1.65074">
        <ele>37</ele>
        <time>2009-04-21T09:32:58Z</time>
      </trkpt>
      <trkpt lat="50.52" lon="1.65084">
        <ele>37</ele>
        <time>2009-04-21T09:33:00Z</time>
      </trkpt>
      <trkpt lat="50.51993" lon="1.65095">
        <ele>37</ele>
        <time>2009-04-21T09:33:02Z</time>
      </trkpt>
      <trkpt lat="50.51987" lon="1.65107">
        <ele>37</ele>
        <time>2009-04-21T09:33:04Z</time>
      </trkpt>
      <trkpt lat="50.5198" lon="1.65119">
        <ele>37</ele>
        <time>2009-04-21T09:33:06Z</time>
      </trkpt>
      <trkpt lat="50.51973" lon="1.65131">
        <ele>37</ele>
        <time>2009-04-21T09:33:08Z</time>
      </trkpt>
      <trkpt lat="50.51965" lon="1.6514">
        <ele>37</ele>
        <time>2009-04-21T09:33:10Z</time>
      </trkpt>
      <trkpt lat="50.51953" lon="1.65146">
        <ele>37</ele>
        <time>2009-04-21T09:33:13Z</time>
      </trkpt>
      <trkpt lat="50.51942" lon="1.65143">
        <ele>37</ele>
        <time>2009-04-21T09:33:16Z</time>
      </trkpt>
      <trkpt lat="50.51933" lon="1.65132">
        <ele>37</ele>
        <time>2009-04-21T09:33:19Z</time>
      </trkpt>
      <trkpt lat="50.51924" lon="1.65119">
        <ele>37</ele>
        <time>2009-04-21T09:33:22Z</time>
      </trkpt>
      <trkpt lat="50.51918" lon="1.6511">
        <ele>37</ele>
        <time>2009-04-21T09:33:24Z</time>
      </trkpt>
      <trkpt lat="50.51907" lon="1.65107">
        <ele>37</ele>
        <time>2009-04-21T09:33:27Z</time>
      </trkpt>
      <trkpt lat="50.51899" lon="1.65115">
        <ele>37</ele>
        <time>2009-04-21T09:33:29Z</time>
      </trkpt>
      <trkpt lat="50.5189" lon="1.65122">
        <ele>37</ele>
        <time>2009-04-21T09:33:31Z</time>
      </trkpt>
      <trkpt lat="50.51882" lon="1.65129">
        <ele>37</ele>
        <time>2009-04-21T09:33:33Z</time>
      </trkpt>
      <trkpt lat="50.51873" lon="1.65136">
        <ele>37</ele>
        <time>2009-04-21T09:33:35Z</time>
      </trkpt>
      <trkpt lat="50.51865" lon="1.65144">
        <ele>37</ele>
        <time>2009-04-21T09:33:37Z</time>
      </trkpt>
      <trkpt lat="50.51856" lon="1.65152">
        <ele>37</ele>
        <time>2009-04-21T09:33:39Z</time>
      </trkpt>
      <trkpt lat="50.51847" lon="1.65158">
        <ele>37</ele>
        <time>2009-04-21T09:33:41Z</time>
      </trkpt>
      <trkpt lat="50.51841" lon="1.6517">
        <ele>37</ele>
        <time>2009-04-21T09:33:43Z</time>
      </trkpt>
      <trkpt lat="50.51841" lon="1.65184">
        <ele>37</ele>
        <time>2009-04-21T09:33:45Z</time>
      </trkpt>
      <trkpt lat="50.51843" lon="1.65198">
        <ele>37</ele>
        <time>2009-04-21T09:33:47Z</time>
      </trkpt>
      <trkpt lat="50.51851" lon="1.65214">
        <ele>37</ele>
        <time>2009-04-21T09:33:50Z</time>
      </trkpt>
      <trkpt lat="50.51858" lon="1.65223">
        <ele>37</ele>
        <time>2009-04-21T09:33:52Z</time>
      </trkpt>
      <trkpt lat="50.51867" lon="1.65233">
        <ele>37</ele>
        <time>2009-04-21T09:33:55Z</time>
      </trkpt>
      <trkpt lat="50.51877" lon="1.65243">
        <ele>37</ele>
        <time>2009-04-21T09:33:58Z</time>
      </trkpt>
      <trkpt lat="50.51885" lon="1.65256">
        <ele>37</ele>
        <time>2009-04-21T09:34:01Z</time>
      </trkpt>
      <trkpt lat="50.51891" lon="1.65266">
        <ele>37</ele>
        <time>2009-04-21T09:34:03Z</time>
      </trkpt>
      <trkpt lat="50.51897" lon="1.65278">
        <ele>37</ele>
        <time>2009-04-21T09:34:05Z</time>
      </trkpt>
      <trkpt lat="50.51903" lon="1.65292">
        <ele>37</ele>
        <time>2009-04-21T09:34:07Z</time>
      </trkpt>
      <trkpt lat="50.51908" lon="1.65307">
        <ele>37</ele>
        <time>2009-04-21T09:34:09Z</time>
      </trkpt>
      <trkpt lat="50.51913" lon="1.65324">
        <ele>37</ele>
        <time>2009-04-21T09:34:11Z</time>
      </trkpt>
      <trkpt lat="50.51918" lon="1.65343">
        <ele>37</ele>
        <time>2009-04-21T09:34:13Z</time>
      </trkpt>
      <trkpt lat="50.51922" lon="1.65365">
        <ele>37</ele>
        <time>2009-04-21T09:34:15Z</time>
      </trkpt>
      <trkpt lat="50.51925" lon="1.65386">
        <ele>37</ele>
        <time>2009-04-21T09:34:17Z</time>
      </trkpt>
      <trkpt lat="50.51928" lon="1.6541">
        <ele>31</ele>
        <time>2009-04-21T09:34:19Z</time>
      </trkpt>
      <trkpt lat="50.5193" lon="1.65438">
        <ele>31</ele>
        <time>2009-04-21T09:34:21Z</time>
      </trkpt>
      <trkpt lat="50.51931" lon="1.65453">
        <ele>31</ele>
        <time>2009-04-21T09:34:22Z</time>
      </trkpt>
      <trkpt lat="50.51933" lon="1.65468">
        <ele>31</ele>
        <time>2009-04-21T09:34:23Z</time>
      </trkpt>
      <trkpt lat="50.51936" lon="1.65482">
        <ele>31</ele>
        <time>2009-04-21T09:34:24Z</time>
      </trkpt>
      <trkpt lat="50.5194" lon="1.65498">
        <ele>26</ele>
        <time>2009-04-21T09:34:25Z</time>
      </trkpt>
      <trkpt lat="50.51944" lon="1.65513">
        <ele>26</ele>
        <time>2009-04-21T09:34:26Z</time>
      </trkpt>
      <trkpt lat="50.51949" lon="1.65528">
        <ele>26</ele>
        <time>2009-04-21T09:34:27Z</time>
      </trkpt>
      <trkpt lat="50.51953" lon="1.65542">
        <ele>26</ele>
        <time>2009-04-21T09:34:28Z</time>
      </trkpt>
      <trkpt lat="50.51959" lon="1.65558">
        <ele>26</ele>
        <time>2009-04-21T09:34:29Z</time>
      </trkpt>
      <trkpt lat="50.51964" lon="1.65572">
        <ele>26</ele>
        <time>2009-04-21T09:34:30Z</time>
      </trkpt>
      <trkpt lat="50.51968" lon="1.65587">
        <ele>26</ele>
        <time>2009-04-21T09:34:31Z</time>
      </trkpt>
      <trkpt lat="50.51974" lon="1.65601">
        <ele>26</ele>
        <time>2009-04-21T09:34:32Z</time>
      </trkpt>
      <trkpt lat="50.51979" lon="1.65614">
        <ele>21</ele>
        <time>2009-04-21T09:34:33Z</time>
      </trkpt>
      <trkpt lat="50.51985" lon="1.65629">
        <ele>21</ele>
        <time>2009-04-21T09:34:34Z</time>
      </trkpt>
      <trkpt lat="50.51991" lon="1.65643">
        <ele>21</ele>
        <time>2009-04-21T09:34:35Z</time>
      </trkpt>
      <trkpt lat="50.51997" lon="1.65657">
        <ele>21</ele>
        <time>2009-04-21T09:34:36Z</time>
      </trkpt>
      <trkpt lat="50.52003" lon="1.65672">
        <ele>21</ele>
        <time>2009-04-21T09:34:37Z</time>
      </trkpt>
      <trkpt lat="50.52009" lon="1.65686">
        <ele>21</ele>
        <time>2009-04-21T09:34:38Z</time>
      </trkpt>
      <trkpt lat="50.52015" lon="1.65701">
        <ele>21</ele>
        <time>2009-04-21T09:34:39Z</time>
      </trkpt>
      <trkpt lat="50.52022" lon="1.65715">
        <ele>21</ele>
        <time>2009-04-21T09:34:40Z</time>
      </trkpt>
      <trkpt lat="50.52028" lon="1.65728">
        <ele>21</ele>
        <time>2009-04-21T09:34:41Z</time>
      </trkpt>
      <trkpt lat="50.52034" lon="1.65743">
        <ele>15</ele>
        <time>2009-04-21T09:34:42Z</time>
      </trkpt>
      <trkpt lat="50.52041" lon="1.65755">
        <ele>15</ele>
        <time>2009-04-21T09:34:43Z</time>
      </trkpt>
      <trkpt lat="50.52048" lon="1.65769">
        <ele>15</ele>
        <time>2009-04-21T09:34:44Z</time>
      </trkpt>
      <trkpt lat="50.52056" lon="1.65781">
        <ele>15</ele>
        <time>2009-04-21T09:34:45Z</time>
      </trkpt>
      <trkpt lat="50.52063" lon="1.65791">
        <ele>15</ele>
        <time>2009-04-21T09:34:46Z</time>
      </trkpt>
      <trkpt lat="50.52071" lon="1.65802">
        <ele>15</ele>
        <time>2009-04-21T09:34:47Z</time>
      </trkpt>
      <trkpt lat="50.52078" lon="1.65814">
        <ele>15</ele>
        <time>2009-04-21T09:34:48Z</time>
      </trkpt>
      <trkpt lat="50.52085" lon="1.65825">
        <ele>15</ele>
        <time>2009-04-21T09:34:49Z</time>
      </trkpt>
      <trkpt lat="50.52091" lon="1.65835">
        <ele>15</ele>
        <time>2009-04-21T09:34:50Z</time>
      </trkpt>
      <trkpt lat="50.52098" lon="1.65845">
        <ele>15</ele>
        <time>2009-04-21T09:34:51Z</time>
      </trkpt>
      <trkpt lat="50.52105" lon="1.65856">
        <ele>15</ele>
        <time>2009-04-21T09:34:52Z</time>
      </trkpt>
      <trkpt lat="50.52112" lon="1.65866">
        <ele>15</ele>
        <time>2009-04-21T09:34:53Z</time>
      </trkpt>
      <trkpt lat="50.52119" lon="1.65876">
        <ele>15</ele>
        <time>2009-04-21T09:34:54Z</time>
      </trkpt>
      <trkpt lat="50.52126" lon="1.65886">
        <ele>15</ele>
        <time>2009-04-21T09:34:55Z</time>
      </trkpt>
      <trkpt lat="50.52133" lon="1.65895">
        <ele>15</ele>
        <time>2009-04-21T09:34:56Z</time>
      </trkpt>
      <trkpt lat="50.52145" lon="1.65913">
        <ele>15</ele>
        <time>2009-04-21T09:34:58Z</time>
      </trkpt>
      <trkpt lat="50.52157" lon="1.65931">
        <ele>15</ele>
        <time>2009-04-21T09:35:00Z</time>
      </trkpt>
      <trkpt lat="50.52168" lon="1.65947">
        <ele>15</ele>
        <time>2009-04-21T09:35:02Z</time>
      </trkpt>
      <trkpt lat="50.52178" lon="1.65962">
        <ele>15</ele>
        <time>2009-04-21T09:35:04Z</time>
      </trkpt>
      <trkpt lat="50.52188" lon="1.65976">
        <ele>15</ele>
        <time>2009-04-21T09:35:06Z</time>
      </trkpt>
      <trkpt lat="50.52198" lon="1.6599">
        <ele>15</ele>
        <time>2009-04-21T09:35:08Z</time>
      </trkpt>
      <trkpt lat="50.52208" lon="1.66002">
        <ele>15</ele>
        <time>2009-04-21T09:35:10Z</time>
      </trkpt>
      <trkpt lat="50.52217" lon="1.66014">
        <ele>15</ele>
        <time>2009-04-21T09:35:12Z</time>
      </trkpt>
      <trkpt lat="50.52225" lon="1.66026">
        <ele>15</ele>
        <time>2009-04-21T09:35:14Z</time>
      </trkpt>
      <trkpt lat="50.52233" lon="1.66039">
        <ele>15</ele>
        <time>2009-04-21T09:35:16Z</time>
      </trkpt>
      <trkpt lat="50.5224" lon="1.66052">
        <ele>15</ele>
        <time>2009-04-21T09:35:18Z</time>
      </trkpt>
      <trkpt lat="50.52248" lon="1.66064">
        <ele>15</ele>
        <time>2009-04-21T09:35:20Z</time>
      </trkpt>
      <trkpt lat="50.52255" lon="1.66074">
        <ele>15</ele>
        <time>2009-04-21T09:35:22Z</time>
      </trkpt>
      <trkpt lat="50.52261" lon="1.66084">
        <ele>15</ele>
        <time>2009-04-21T09:35:24Z</time>
      </trkpt>
      <trkpt lat="50.52271" lon="1.66098">
        <ele>15</ele>
        <time>2009-04-21T09:35:27Z</time>
      </trkpt>
      <trkpt lat="50.5228" lon="1.66111">
        <ele>15</ele>
        <time>2009-04-21T09:35:30Z</time>
      </trkpt>
      <trkpt lat="50.5229" lon="1.66125">
        <ele>21</ele>
        <time>2009-04-21T09:35:33Z</time>
      </trkpt>
      <trkpt lat="50.52298" lon="1.66138">
        <ele>21</ele>
        <time>2009-04-21T09:35:36Z</time>
      </trkpt>
      <trkpt lat="50.52307" lon="1.66152">
        <ele>21</ele>
        <time>2009-04-21T09:35:39Z</time>
      </trkpt>
      <trkpt lat="50.52316" lon="1.66164">
        <ele>21</ele>
        <time>2009-04-21T09:35:42Z</time>
      </trkpt>
      <trkpt lat="50.52324" lon="1.66178">
        <ele>21</ele>
        <time>2009-04-21T09:35:45Z</time>
      </trkpt>
      <trkpt lat="50.52333" lon="1.6619">
        <ele>26</ele>
        <time>2009-04-21T09:35:48Z</time>
      </trkpt>
      <trkpt lat="50.52342" lon="1.66204">
        <ele>26</ele>
        <time>2009-04-21T09:35:51Z</time>
      </trkpt>
      <trkpt lat="50.5235" lon="1.66217">
        <ele>26</ele>
        <time>2009-04-21T09:35:54Z</time>
      </trkpt>
      <trkpt lat="50.52359" lon="1.66231">
        <ele>26</ele>
        <time>2009-04-21T09:35:57Z</time>
      </trkpt>
      <trkpt lat="50.52367" lon="1.66246">
        <ele>26</ele>
        <time>2009-04-21T09:36:00Z</time>
      </trkpt>
      <trkpt lat="50.52375" lon="1.66259">
        <ele>26</ele>
        <time>2009-04-21T09:36:03Z</time>
      </trkpt>
      <trkpt lat="50.52383" lon="1.66274">
        <ele>26</ele>
        <time>2009-04-21T09:36:06Z</time>
      </trkpt>
      <trkpt lat="50.5239" lon="1.66286">
        <ele>26</ele>
        <time>2009-04-21T09:36:09Z</time>
      </trkpt>
      <trkpt lat="50.52398" lon="1.66298">
        <ele>26</ele>
        <time>2009-04-21T09:36:12Z</time>
      </trkpt>
      <trkpt lat="50.52406" lon="1.66309">
        <ele>32</ele>
        <time>2009-04-21T09:36:15Z</time>
      </trkpt>
      <trkpt lat="50.52414" lon="1.66319">
        <ele>32</ele>
        <time>2009-04-21T09:36:18Z</time>
      </trkpt>
      <trkpt lat="50.52422" lon="1.66329">
        <ele>32</ele>
        <time>2009-04-21T09:36:21Z</time>
      </trkpt>
      <trkpt lat="50.5243" lon="1.66338">
        <ele>32</ele>
        <time>2009-04-21T09:36:24Z</time>
      </trkpt>
      <trkpt lat="50.52438" lon="1.66348">
        <ele>32</ele>
        <time>2009-04-21T09:36:27Z</time>
      </trkpt>
      <trkpt lat="50.52446" lon="1.66357">
        <ele>37</ele>
        <time>2009-04-21T09:36:30Z</time>
      </trkpt>
      <trkpt lat="50.52454" lon="1.66367">
        <ele>37</ele>
        <time>2009-04-21T09:36:33Z</time>
      </trkpt>
      <trkpt lat="50.52461" lon="1.66377">
        <ele>37</ele>
        <time>2009-04-21T09:36:36Z</time>
      </trkpt>
      <trkpt lat="50.52469" lon="1.66386">
        <ele>37</ele>
        <time>2009-04-21T09:36:39Z</time>
      </trkpt>
      <trkpt lat="50.52477" lon="1.66395">
        <ele>37</ele>
        <time>2009-04-21T09:36:42Z</time>
      </trkpt>
      <trkpt lat="50.52484" lon="1.66405">
        <ele>37</ele>
        <time>2009-04-21T09:36:45Z</time>
      </trkpt>
      <trkpt lat="50.52492" lon="1.66415">
        <ele>37</ele>
        <time>2009-04-21T09:36:48Z</time>
      </trkpt>
      <trkpt lat="50.52499" lon="1.66425">
        <ele>37</ele>
        <time>2009-04-21T09:36:51Z</time>
      </trkpt>
      <trkpt lat="50.52507" lon="1.66437">
        <ele>37</ele>
        <time>2009-04-21T09:36:55Z</time>
      </trkpt>
      <trkpt lat="50.52514" lon="1.66447">
        <ele>37</ele>
        <time>2009-04-21T09:36:58Z</time>
      </trkpt>
      <trkpt lat="50.52521" lon="1.66461">
        <ele>43</ele>
        <time>2009-04-21T09:37:02Z</time>
      </trkpt>
      <trkpt lat="50.52527" lon="1.66473">
        <ele>43</ele>
        <time>2009-04-21T09:37:06Z</time>
      </trkpt>
      <trkpt lat="50.52532" lon="1.66486">
        <ele>43</ele>
        <time>2009-04-21T09:37:10Z</time>
      </trkpt>
      <trkpt lat="50.52536" lon="1.665">
        <ele>43</ele>
        <time>2009-04-21T09:37:14Z</time>
      </trkpt>
      <trkpt lat="50.5254" lon="1.66514">
        <ele>43</ele>
        <time>2009-04-21T09:37:18Z</time>
      </trkpt>
      <trkpt lat="50.52543" lon="1.66527">
        <ele>43</ele>
        <time>2009-04-21T09:37:22Z</time>
      </trkpt>
      <trkpt lat="50.52546" lon="1.66541">
        <ele>43</ele>
        <time>2009-04-21T09:37:26Z</time>
      </trkpt>
      <trkpt lat="50.5255" lon="1.66555">
        <ele>43</ele>
        <time>2009-04-21T09:37:30Z</time>
      </trkpt>
      <trkpt lat="50.52554" lon="1.66568">
        <ele>49</ele>
        <time>2009-04-21T09:37:34Z</time>
      </trkpt>
      <trkpt lat="50.52559" lon="1.6658">
        <ele>49</ele>
        <time>2009-04-21T09:37:38Z</time>
      </trkpt>
      <trkpt lat="50.52565" lon="1.66593">
        <ele>49</ele>
        <time>2009-04-21T09:37:42Z</time>
      </trkpt>
      <trkpt lat="50.52571" lon="1.66606">
        <ele>49</ele>
        <time>2009-04-21T09:37:46Z</time>
      </trkpt>
      <trkpt lat="50.52579" lon="1.66618">
        <ele>49</ele>
        <time>2009-04-21T09:37:50Z</time>
      </trkpt>
      <trkpt lat="50.52587" lon="1.66628">
        <ele>55</ele>
        <time>2009-04-21T09:37:54Z</time>
      </trkpt>
      <trkpt lat="50.52595" lon="1.66638">
        <ele>55</ele>
        <time>2009-04-21T09:37:58Z</time>
      </trkpt>
      <trkpt lat="50.52603" lon="1.66647">
        <ele>55</ele>
        <time>2009-04-21T09:38:02Z</time>
      </trkpt>
      <trkpt lat="50.52611" lon="1.66656">
        <ele>55</ele>
        <time>2009-04-21T09:38:06Z</time>
      </trkpt>
      <trkpt lat="50.52619" lon="1.66667">
        <ele>61</ele>
        <time>2009-04-21T09:38:10Z</time>
      </trkpt>
      <trkpt lat="50.52627" lon="1.66677">
        <ele>61</ele>
        <time>2009-04-21T09:38:14Z</time>
      </trkpt>
      <trkpt lat="50.52635" lon="1.66689">
        <ele>61</ele>
        <time>2009-04-21T09:38:18Z</time>
      </trkpt>
      <trkpt lat="50.52644" lon="1.66699">
        <ele>61</ele>
        <time>2009-04-21T09:38:22Z</time>
      </trkpt>
      <trkpt lat="50.52651" lon="1.66708">
        <ele>61</ele>
        <time>2009-04-21T09:38:25Z</time>
      </trkpt>
      <trkpt lat="50.5266" lon="1.66718">
        <ele>61</ele>
        <time>2009-04-21T09:38:29Z</time>
      </trkpt>
      <trkpt lat="50.52669" lon="1.66729">
        <ele>61</ele>
        <time>2009-04-21T09:38:33Z</time>
      </trkpt>
      <trkpt lat="50.52677" lon="1.66741">
        <ele>66</ele>
        <time>2009-04-21T09:38:37Z</time>
      </trkpt>
      <trkpt lat="50.52684" lon="1.66751">
        <ele>66</ele>
        <time>2009-04-21T09:38:41Z</time>
      </trkpt>
      <trkpt lat="50.52691" lon="1.66762">
        <ele>66</ele>
        <time>2009-04-21T09:38:46Z</time>
      </trkpt>
      <trkpt lat="50.52698" lon="1.66771">
        <ele>66</ele>
        <time>2009-04-21T09:38:50Z</time>
      </trkpt>
      <trkpt lat="50.52706" lon="1.66782">
        <ele>66</ele>
        <time>2009-04-21T09:38:54Z</time>
      </trkpt>
      <trkpt lat="50.52714" lon="1.66791">
        <ele>66</ele>
        <time>2009-04-21T09:38:57Z</time>
      </trkpt>
      <trkpt lat="50.52724" lon="1.66801">
        <ele>66</ele>
        <time>2009-04-21T09:39:00Z</time>
      </trkpt>
      <trkpt lat="50.52733" lon="1.66811">
        <ele>66</ele>
        <time>2009-04-21T09:39:03Z</time>
      </trkpt>
      <trkpt lat="50.52742" lon="1.66822">
        <ele>66</ele>
        <time>2009-04-21T09:39:06Z</time>
      </trkpt>
      <trkpt lat="50.5275" lon="1.66832">
        <ele>66</ele>
        <time>2009-04-21T09:39:09Z</time>
      </trkpt>
      <trkpt lat="50.52759" lon="1.66841">
        <ele>66</ele>
        <time>2009-04-21T09:39:12Z</time>
      </trkpt>
      <trkpt lat="50.52768" lon="1.66852">
        <ele>66</ele>
        <time>2009-04-21T09:39:15Z</time>
      </trkpt>
      <trkpt lat="50.52777" lon="1.66863">
        <ele>66</ele>
        <time>2009-04-21T09:39:18Z</time>
      </trkpt>
      <trkpt lat="50.52786" lon="1.66875">
        <ele>66</ele>
        <time>2009-04-21T09:39:21Z</time>
      </trkpt>
      <trkpt lat="50.52796" lon="1.66887">
        <ele>66</ele>
        <time>2009-04-21T09:39:24Z</time>
      </trkpt>
      <trkpt lat="50.52807" lon="1.669">
        <ele>66</ele>
        <time>2009-04-21T09:39:27Z</time>
      </trkpt>
      <trkpt lat="50.52817" lon="1.66912">
        <ele>66</ele>
        <time>2009-04-21T09:39:30Z</time>
      </trkpt>
      <trkpt lat="50.52828" lon="1.66923">
        <ele>66</ele>
        <time>2009-04-21T09:39:33Z</time>
      </trkpt>
      <trkpt lat="50.52835" lon="1.66931">
        <ele>66</ele>
        <time>2009-04-21T09:39:35Z</time>
      </trkpt>
      <trkpt lat="50.52846" lon="1.66943">
        <ele>66</ele>
        <time>2009-04-21T09:39:38Z</time>
      </trkpt>
      <trkpt lat="50.52858" lon="1.66955">
        <ele>66</ele>
        <time>2009-04-21T09:39:41Z</time>
      </trkpt>
      <trkpt lat="50.52866" lon="1.66964">
        <ele>66</ele>
        <time>2009-04-21T09:39:43Z</time>
      </trkpt>
      <trkpt lat="50.52874" lon="1.66973">
        <ele>66</ele>
        <time>2009-04-21T09:39:45Z</time>
      </trkpt>
      <trkpt lat="50.52882" lon="1.66981">
        <ele>66</ele>
        <time>2009-04-21T09:39:47Z</time>
      </trkpt>
      <trkpt lat="50.5289" lon="1.66989">
        <ele>66</ele>
        <time>2009-04-21T09:39:49Z</time>
      </trkpt>
      <trkpt lat="50.52898" lon="1.66997">
        <ele>66</ele>
        <time>2009-04-21T09:39:51Z</time>
      </trkpt>
      <trkpt lat="50.52906" lon="1.67006">
        <ele>66</ele>
        <time>2009-04-21T09:39:53Z</time>
      </trkpt>
      <trkpt lat="50.52914" lon="1.67015">
        <ele>66</ele>
        <time>2009-04-21T09:39:55Z</time>
      </trkpt>
      <trkpt lat="50.52923" lon="1.67024">
        <ele>66</ele>
        <time>2009-04-21T09:39:57Z</time>
      </trkpt>
      <trkpt lat="50.52931" lon="1.67032">
        <ele>66</ele>
        <time>2009-04-21T09:39:59Z</time>
      </trkpt>
      <trkpt lat="50.52941" lon="1.67041">
        <ele>66</ele>
        <time>2009-04-21T09:40:01Z</time>
      </trkpt>
      <trkpt lat="50.5295" lon="1.6705">
        <ele>66</ele>
        <time>2009-04-21T09:40:03Z</time>
      </trkpt>
      <trkpt lat="50.52959" lon="1.67059">
        <ele>66</ele>
        <time>2009-04-21T09:40:05Z</time>
      </trkpt>
      <trkpt lat="50.52973" lon="1.67072">
        <ele>66</ele>
        <time>2009-04-21T09:40:08Z</time>
      </trkpt>
      <trkpt lat="50.52981" lon="1.67081">
        <ele>66</ele>
        <time>2009-04-21T09:40:10Z</time>
      </trkpt>
      <trkpt lat="50.5299" lon="1.6709">
        <ele>66</ele>
        <time>2009-04-21T09:40:12Z</time>
      </trkpt>
      <trkpt lat="50.52999" lon="1.67099">
        <ele>66</ele>
        <time>2009-04-21T09:40:14Z</time>
      </trkpt>
      <trkpt lat="50.53008" lon="1.67108">
        <ele>66</ele>
        <time>2009-04-21T09:40:16Z</time>
      </trkpt>
      <trkpt lat="50.53017" lon="1.67117">
        <ele>66</ele>
        <time>2009-04-21T09:40:18Z</time>
      </trkpt>
      <trkpt lat="50.53025" lon="1.67127">
        <ele>66</ele>
        <time>2009-04-21T09:40:20Z</time>
      </trkpt>
      <trkpt lat="50.53034" lon="1.67137">
        <ele>66</ele>
        <time>2009-04-21T09:40:22Z</time>
      </trkpt>
      <trkpt lat="50.53041" lon="1.67147">
        <ele>66</ele>
        <time>2009-04-21T09:40:24Z</time>
      </trkpt>
      <trkpt lat="50.53049" lon="1.67157">
        <ele>66</ele>
        <time>2009-04-21T09:40:26Z</time>
      </trkpt>
      <trkpt lat="50.53056" lon="1.67168">
        <ele>66</ele>
        <time>2009-04-21T09:40:28Z</time>
      </trkpt>
      <trkpt lat="50.53062" lon="1.67177">
        <ele>66</ele>
        <time>2009-04-21T09:40:30Z</time>
      </trkpt>
      <trkpt lat="50.53069" lon="1.67187">
        <ele>66</ele>
        <time>2009-04-21T09:40:32Z</time>
      </trkpt>
      <trkpt lat="50.53075" lon="1.67197">
        <ele>66</ele>
        <time>2009-04-21T09:40:34Z</time>
      </trkpt>
      <trkpt lat="50.5308" lon="1.67209">
        <ele>66</ele>
        <time>2009-04-21T09:40:36Z</time>
      </trkpt>
      <trkpt lat="50.53084" lon="1.67221">
        <ele>66</ele>
        <time>2009-04-21T09:40:38Z</time>
      </trkpt>
      <trkpt lat="50.53087" lon="1.67236">
        <ele>66</ele>
        <time>2009-04-21T09:40:40Z</time>
      </trkpt>
      <trkpt lat="50.53088" lon="1.67252">
        <ele>66</ele>
        <time>2009-04-21T09:40:42Z</time>
      </trkpt>
      <trkpt lat="50.53088" lon="1.67268">
        <ele>66</ele>
        <time>2009-04-21T09:40:44Z</time>
      </trkpt>
      <trkpt lat="50.53089" lon="1.67285">
        <ele>66</ele>
        <time>2009-04-21T09:40:46Z</time>
      </trkpt>
      <trkpt lat="50.5309" lon="1.67303">
        <ele>66</ele>
        <time>2009-04-21T09:40:48Z</time>
      </trkpt>
      <trkpt lat="50.53091" lon="1.67321">
        <ele>66</ele>
        <time>2009-04-21T09:40:50Z</time>
      </trkpt>
      <trkpt lat="50.53092" lon="1.67338">
        <ele>66</ele>
        <time>2009-04-21T09:40:52Z</time>
      </trkpt>
      <trkpt lat="50.53092" lon="1.67355">
        <ele>66</ele>
        <time>2009-04-21T09:40:54Z</time>
      </trkpt>
      <trkpt lat="50.53094" lon="1.67371">
        <ele>66</ele>
        <time>2009-04-21T09:40:56Z</time>
      </trkpt>
      <trkpt lat="50.53095" lon="1.67388">
        <ele>66</ele>
        <time>2009-04-21T09:40:58Z</time>
      </trkpt>
      <trkpt lat="50.53096" lon="1.67404">
        <ele>66</ele>
        <time>2009-04-21T09:41:00Z</time>
      </trkpt>
      <trkpt lat="50.53097" lon="1.6742">
        <ele>66</ele>
        <time>2009-04-21T09:41:02Z</time>
      </trkpt>
      <trkpt lat="50.53098" lon="1.67436">
        <ele>66</ele>
        <time>2009-04-21T09:41:04Z</time>
      </trkpt>
      <trkpt lat="50.53099" lon="1.67452">
        <ele>66</ele>
        <time>2009-04-21T09:41:06Z</time>
      </trkpt>
      <trkpt lat="50.53099" lon="1.67468">
        <ele>66</ele>
        <time>2009-04-21T09:41:08Z</time>
      </trkpt>
      <trkpt lat="50.53099" lon="1.67485">
        <ele>66</ele>
        <time>2009-04-21T09:41:10Z</time>
      </trkpt>
      <trkpt lat="50.531" lon="1.675">
        <ele>66</ele>
        <time>2009-04-21T09:41:12Z</time>
      </trkpt>
      <trkpt lat="50.531" lon="1.67515">
        <ele>66</ele>
        <time>2009-04-21T09:41:14Z</time>
      </trkpt>
      <trkpt lat="50.53101" lon="1.6753">
        <ele>66</ele>
        <time>2009-04-21T09:41:16Z</time>
      </trkpt>
      <trkpt lat="50.53102" lon="1.67546">
        <ele>66</ele>
        <time>2009-04-21T09:41:18Z</time>
      </trkpt>
      <trkpt lat="50.53102" lon="1.67561">
        <ele>66</ele>
        <time>2009-04-21T09:41:20Z</time>
      </trkpt>
      <trkpt lat="50.53102" lon="1.67575">
        <ele>66</ele>
        <time>2009-04-21T09:41:22Z</time>
      </trkpt>
      <trkpt lat="50.53102" lon="1.6759">
        <ele>66</ele>
        <time>2009-04-21T09:41:24Z</time>
      </trkpt>
      <trkpt lat="50.53102" lon="1.67604">
        <ele>66</ele>
        <time>2009-04-21T09:41:26Z</time>
      </trkpt>
      <trkpt lat="50.53101" lon="1.67619">
        <ele>66</ele>
        <time>2009-04-21T09:41:28Z</time>
      </trkpt>
      <trkpt lat="50.53101" lon="1.67634">
        <ele>66</ele>
        <time>2009-04-21T09:41:30Z</time>
      </trkpt>
      <trkpt lat="50.531" lon="1.67648">
        <ele>66</ele>
        <time>2009-04-21T09:41:32Z</time>
      </trkpt>
      <trkpt lat="50.531" lon="1.67663">
        <ele>66</ele>
        <time>2009-04-21T09:41:34Z</time>
      </trkpt>
      <trkpt lat="50.531" lon="1.67677">
        <ele>66</ele>
        <time>2009-04-21T09:41:36Z</time>
      </trkpt>
      <trkpt lat="50.531" lon="1.67692">
        <ele>66</ele>
        <time>2009-04-21T09:41:38Z</time>
      </trkpt>
      <trkpt lat="50.53102" lon="1.67713">
        <ele>66</ele>
        <time>2009-04-21T09:41:41Z</time>
      </trkpt>
      <trkpt lat="50.53103" lon="1.67733">
        <ele>66</ele>
        <time>2009-04-21T09:41:44Z</time>
      </trkpt>
      <trkpt lat="50.53105" lon="1.67753">
        <ele>66</ele>
        <time>2009-04-21T09:41:47Z</time>
      </trkpt>
      <trkpt lat="50.53108" lon="1.67772">
        <ele>71</ele>
        <time>2009-04-21T09:41:50Z</time>
      </trkpt>
      <trkpt lat="50.5311" lon="1.67792">
        <ele>71</ele>
        <time>2009-04-21T09:41:53Z</time>
      </trkpt>
      <trkpt lat="50.53114" lon="1.67811">
        <ele>71</ele>
        <time>2009-04-21T09:41:56Z</time>
      </trkpt>
      <trkpt lat="50.53118" lon="1.6783">
        <ele>71</ele>
        <time>2009-04-21T09:41:59Z</time>
      </trkpt>
      <trkpt lat="50.53123" lon="1.67848">
        <ele>71</ele>
        <time>2009-04-21T09:42:02Z</time>
      </trkpt>
      <trkpt lat="50.53126" lon="1.67862">
        <ele>71</ele>
        <time>2009-04-21T09:42:04Z</time>
      </trkpt>
      <trkpt lat="50.53131" lon="1.67881">
        <ele>71</ele>
        <time>2009-04-21T09:42:07Z</time>
      </trkpt>
      <trkpt lat="50.53136" lon="1.67894">
        <ele>71</ele>
        <time>2009-04-21T09:42:09Z</time>
      </trkpt>
      <trkpt lat="50.53141" lon="1.67908">
        <ele>71</ele>
        <time>2009-04-21T09:42:11Z</time>
      </trkpt>
      <trkpt lat="50.53147" lon="1.67922">
        <ele>71</ele>
        <time>2009-04-21T09:42:13Z</time>
      </trkpt>
      <trkpt lat="50.53154" lon="1.67936">
        <ele>71</ele>
        <time>2009-04-21T09:42:15Z</time>
      </trkpt>
      <trkpt lat="50.53159" lon="1.67951">
        <ele>71</ele>
        <time>2009-04-21T09:42:17Z</time>
      </trkpt>
      <trkpt lat="50.53166" lon="1.67966">
        <ele>71</ele>
        <time>2009-04-21T09:42:19Z</time>
      </trkpt>
      <trkpt lat="50.53173" lon="1.67982">
        <ele>71</ele>
        <time>2009-04-21T09:42:21Z</time>
      </trkpt>
      <trkpt lat="50.53179" lon="1.67998">
        <ele>71</ele>
        <time>2009-04-21T09:42:23Z</time>
      </trkpt>
      <trkpt lat="50.53186" lon="1.68016">
        <ele>71</ele>
        <time>2009-04-21T09:42:25Z</time>
      </trkpt>
      <trkpt lat="50.53192" lon="1.68033">
        <ele>71</ele>
        <time>2009-04-21T09:42:27Z</time>
      </trkpt>
      <trkpt lat="50.53197" lon="1.6805">
        <ele>66</ele>
        <time>2009-04-21T09:42:29Z</time>
      </trkpt>
      <trkpt lat="50.53197" lon="1.68066">
        <ele>66</ele>
        <time>2009-04-21T09:42:31Z</time>
      </trkpt>
      <trkpt lat="50.5319" lon="1.68075">
        <ele>66</ele>
        <time>2009-04-21T09:42:33Z</time>
      </trkpt>
      <trkpt lat="50.5318" lon="1.68081">
        <ele>66</ele>
        <time>2009-04-21T09:42:35Z</time>
      </trkpt>
      <trkpt lat="50.5317" lon="1.68088">
        <ele>66</ele>
        <time>2009-04-21T09:42:37Z</time>
      </trkpt>
      <trkpt lat="50.5316" lon="1.68096">
        <ele>66</ele>
        <time>2009-04-21T09:42:39Z</time>
      </trkpt>
      <trkpt lat="50.53151" lon="1.68104">
        <ele>66</ele>
        <time>2009-04-21T09:42:41Z</time>
      </trkpt>
      <trkpt lat="50.53142" lon="1.68113">
        <ele>66</ele>
        <time>2009-04-21T09:42:43Z</time>
      </trkpt>
      <trkpt lat="50.53132" lon="1.68122">
        <ele>66</ele>
        <time>2009-04-21T09:42:45Z</time>
      </trkpt>
      <trkpt lat="50.53123" lon="1.68131">
        <ele>66</ele>
        <time>2009-04-21T09:42:47Z</time>
      </trkpt>
      <trkpt lat="50.53115" lon="1.68139">
        <ele>66</ele>
        <time>2009-04-21T09:42:49Z</time>
      </trkpt>
      <trkpt lat="50.53106" lon="1.68147">
        <ele>66</ele>
        <time>2009-04-21T09:42:51Z</time>
      </trkpt>
      <trkpt lat="50.53098" lon="1.68154">
        <ele>66</ele>
        <time>2009-04-21T09:42:53Z</time>
      </trkpt>
      <trkpt lat="50.53089" lon="1.68161">
        <ele>66</ele>
        <time>2009-04-21T09:42:55Z</time>
      </trkpt>
      <trkpt lat="50.53081" lon="1.68166">
        <ele>66</ele>
        <time>2009-04-21T09:42:57Z</time>
      </trkpt>
      <trkpt lat="50.53071" lon="1.68172">
        <ele>66</ele>
        <time>2009-04-21T09:42:59Z</time>
      </trkpt>
      <trkpt lat="50.53061" lon="1.68176">
        <ele>66</ele>
        <time>2009-04-21T09:43:01Z</time>
      </trkpt>
      <trkpt lat="50.53051" lon="1.68179">
        <ele>66</ele>
        <time>2009-04-21T09:43:03Z</time>
      </trkpt>
      <trkpt lat="50.5304" lon="1.6818">
        <ele>66</ele>
        <time>2009-04-21T09:43:05Z</time>
      </trkpt>
      <trkpt lat="50.53029" lon="1.68179">
        <ele>66</ele>
        <time>2009-04-21T09:43:07Z</time>
      </trkpt>
      <trkpt lat="50.53017" lon="1.68178">
        <ele>66</ele>
        <time>2009-04-21T09:43:09Z</time>
      </trkpt>
      <trkpt lat="50.53005" lon="1.68175">
        <ele>66</ele>
        <time>2009-04-21T09:43:11Z</time>
      </trkpt>
      <trkpt lat="50.52992" lon="1.68173">
        <ele>66</ele>
        <time>2009-04-21T09:43:13Z</time>
      </trkpt>
      <trkpt lat="50.52977" lon="1.68169">
        <ele>66</ele>
        <time>2009-04-21T09:43:15Z</time>
      </trkpt>
      <trkpt lat="50.52963" lon="1.68165">
        <ele>66</ele>
        <time>2009-04-21T09:43:17Z</time>
      </trkpt>
      <trkpt lat="50.52949" lon="1.68157">
        <ele>66</ele>
        <time>2009-04-21T09:43:19Z</time>
      </trkpt>
      <trkpt lat="50.52934" lon="1.6815">
        <ele>66</ele>
        <time>2009-04-21T09:43:21Z</time>
      </trkpt>
      <trkpt lat="50.5292" lon="1.6814">
        <ele>60</ele>
        <time>2009-04-21T09:43:23Z</time>
      </trkpt>
      <trkpt lat="50.52906" lon="1.68131">
        <ele>60</ele>
        <time>2009-04-21T09:43:25Z</time>
      </trkpt>
      <trkpt lat="50.52893" lon="1.6812">
        <ele>60</ele>
        <time>2009-04-21T09:43:27Z</time>
      </trkpt>
      <trkpt lat="50.52879" lon="1.68109">
        <ele>60</ele>
        <time>2009-04-21T09:43:29Z</time>
      </trkpt>
      <trkpt lat="50.52864" lon="1.68098">
        <ele>60</ele>
        <time>2009-04-21T09:43:31Z</time>
      </trkpt>
      <trkpt lat="50.5285" lon="1.68086">
        <ele>60</ele>
        <time>2009-04-21T09:43:33Z</time>
      </trkpt>
      <trkpt lat="50.52835" lon="1.68074">
        <ele>60</ele>
        <time>2009-04-21T09:43:35Z</time>
      </trkpt>
      <trkpt lat="50.5282" lon="1.68062">
        <ele>60</ele>
        <time>2009-04-21T09:43:37Z</time>
      </trkpt>
      <trkpt lat="50.52812" lon="1.68056">
        <ele>55</ele>
        <time>2009-04-21T09:43:38Z</time>
      </trkpt>
      <trkpt lat="50.52797" lon="1.68044">
        <ele>55</ele>
        <time>2009-04-21T09:43:40Z</time>
      </trkpt>
      <trkpt lat="50.52781" lon="1.68031">
        <ele>55</ele>
        <time>2009-04-21T09:43:42Z</time>
      </trkpt>
      <trkpt lat="50.52773" lon="1.68024">
        <ele>55</ele>
        <time>2009-04-21T09:43:43Z</time>
      </trkpt>
      <trkpt lat="50.52765" lon="1.68016">
        <ele>55</ele>
        <time>2009-04-21T09:43:44Z</time>
      </trkpt>
      <trkpt lat="50.52757" lon="1.6801">
        <ele>55</ele>
        <time>2009-04-21T09:43:45Z</time>
      </trkpt>
      <trkpt lat="50.52749" lon="1.68003">
        <ele>55</ele>
        <time>2009-04-21T09:43:46Z</time>
      </trkpt>
      <trkpt lat="50.52741" lon="1.67997">
        <ele>55</ele>
        <time>2009-04-21T09:43:47Z</time>
      </trkpt>
      <trkpt lat="50.52733" lon="1.67989">
        <ele>55</ele>
        <time>2009-04-21T09:43:48Z</time>
      </trkpt>
      <trkpt lat="50.52718" lon="1.67975">
        <ele>55</ele>
        <time>2009-04-21T09:43:50Z</time>
      </trkpt>
      <trkpt lat="50.5271" lon="1.67968">
        <ele>55</ele>
        <time>2009-04-21T09:43:51Z</time>
      </trkpt>
      <trkpt lat="50.52696" lon="1.67952">
        <ele>55</ele>
        <time>2009-04-21T09:43:53Z</time>
      </trkpt>
      <trkpt lat="50.52689" lon="1.67944">
        <ele>55</ele>
        <time>2009-04-21T09:43:54Z</time>
      </trkpt>
      <trkpt lat="50.52681" lon="1.67935">
        <ele>50</ele>
        <time>2009-04-21T09:43:55Z</time>
      </trkpt>
      <trkpt lat="50.52674" lon="1.67927">
        <ele>50</ele>
        <time>2009-04-21T09:43:56Z</time>
      </trkpt>
      <trkpt lat="50.52659" lon="1.67911">
        <ele>50</ele>
        <time>2009-04-21T09:43:58Z</time>
      </trkpt>
      <trkpt lat="50.52646" lon="1.67897">
        <ele>50</ele>
        <time>2009-04-21T09:44:00Z</time>
      </trkpt>
      <trkpt lat="50.52634" lon="1.67882">
        <ele>50</ele>
        <time>2009-04-21T09:44:02Z</time>
      </trkpt>
      <trkpt lat="50.52621" lon="1.67867">
        <ele>50</ele>
        <time>2009-04-21T09:44:04Z</time>
      </trkpt>
      <trkpt lat="50.52609" lon="1.67854">
        <ele>50</ele>
        <time>2009-04-21T09:44:06Z</time>
      </trkpt>
      <trkpt lat="50.52597" lon="1.6784">
        <ele>50</ele>
        <time>2009-04-21T09:44:08Z</time>
      </trkpt>
      <trkpt lat="50.52586" lon="1.67828">
        <ele>50</ele>
        <time>2009-04-21T09:44:10Z</time>
      </trkpt>
      <trkpt lat="50.52575" lon="1.67815">
        <ele>50</ele>
        <time>2009-04-21T09:44:12Z</time>
      </trkpt>
      <trkpt lat="50.52564" lon="1.67803">
        <ele>50</ele>
        <time>2009-04-21T09:44:14Z</time>
      </trkpt>
      <trkpt lat="50.52554" lon="1.67792">
        <ele>50</ele>
        <time>2009-04-21T09:44:16Z</time>
      </trkpt>
      <trkpt lat="50.52543" lon="1.67781">
        <ele>50</ele>
        <time>2009-04-21T09:44:18Z</time>
      </trkpt>
      <trkpt lat="50.52532" lon="1.67772">
        <ele>50</ele>
        <time>2009-04-21T09:44:20Z</time>
      </trkpt>
      <trkpt lat="50.5252" lon="1.67769">
        <ele>50</ele>
        <time>2009-04-21T09:44:22Z</time>
      </trkpt>
      <trkpt lat="50.52507" lon="1.67768">
        <ele>50</ele>
        <time>2009-04-21T09:44:24Z</time>
      </trkpt>
      <trkpt lat="50.52494" lon="1.67767">
        <ele>50</ele>
        <time>2009-04-21T09:44:26Z</time>
      </trkpt>
      <trkpt lat="50.5248" lon="1.67765">
        <ele>50</ele>
        <time>2009-04-21T09:44:28Z</time>
      </trkpt>
      <trkpt lat="50.52466" lon="1.67765">
        <ele>50</ele>
        <time>2009-04-21T09:44:30Z</time>
      </trkpt>
      <trkpt lat="50.52451" lon="1.67763">
        <ele>50</ele>
        <time>2009-04-21T09:44:32Z</time>
      </trkpt>
      <trkpt lat="50.52437" lon="1.67758">
        <ele>50</ele>
        <time>2009-04-21T09:44:34Z</time>
      </trkpt>
      <trkpt lat="50.52423" lon="1.67749">
        <ele>44</ele>
        <time>2009-04-21T09:44:36Z</time>
      </trkpt>
      <trkpt lat="50.52409" lon="1.6774">
        <ele>44</ele>
        <time>2009-04-21T09:44:38Z</time>
      </trkpt>
      <trkpt lat="50.52396" lon="1.67729">
        <ele>44</ele>
        <time>2009-04-21T09:44:40Z</time>
      </trkpt>
      <trkpt lat="50.52384" lon="1.67715">
        <ele>44</ele>
        <time>2009-04-21T09:44:42Z</time>
      </trkpt>
      <trkpt lat="50.52373" lon="1.67698">
        <ele>44</ele>
        <time>2009-04-21T09:44:44Z</time>
      </trkpt>
      <trkpt lat="50.52362" lon="1.67681">
        <ele>44</ele>
        <time>2009-04-21T09:44:46Z</time>
      </trkpt>
      <trkpt lat="50.52351" lon="1.67662">
        <ele>44</ele>
        <time>2009-04-21T09:44:48Z</time>
      </trkpt>
      <trkpt lat="50.52341" lon="1.67641">
        <ele>38</ele>
        <time>2009-04-21T09:44:50Z</time>
      </trkpt>
      <trkpt lat="50.52335" lon="1.6763">
        <ele>38</ele>
        <time>2009-04-21T09:44:51Z</time>
      </trkpt>
      <trkpt lat="50.52324" lon="1.67609">
        <ele>38</ele>
        <time>2009-04-21T09:44:53Z</time>
      </trkpt>
      <trkpt lat="50.52318" lon="1.67597">
        <ele>38</ele>
        <time>2009-04-21T09:44:54Z</time>
      </trkpt>
      <trkpt lat="50.52311" lon="1.67586">
        <ele>38</ele>
        <time>2009-04-21T09:44:55Z</time>
      </trkpt>
      <trkpt lat="50.52305" lon="1.67574">
        <ele>38</ele>
        <time>2009-04-21T09:44:56Z</time>
      </trkpt>
      <trkpt lat="50.52299" lon="1.67564">
        <ele>38</ele>
        <time>2009-04-21T09:44:57Z</time>
      </trkpt>
      <trkpt lat="50.52292" lon="1.67551">
        <ele>38</ele>
        <time>2009-04-21T09:44:58Z</time>
      </trkpt>
      <trkpt lat="50.52286" lon="1.67539">
        <ele>33</ele>
        <time>2009-04-21T09:44:59Z</time>
      </trkpt>
      <trkpt lat="50.5228" lon="1.67528">
        <ele>33</ele>
        <time>2009-04-21T09:45:00Z</time>
      </trkpt>
      <trkpt lat="50.52273" lon="1.67515">
        <ele>33</ele>
        <time>2009-04-21T09:45:01Z</time>
      </trkpt>
      <trkpt lat="50.52267" lon="1.67503">
        <ele>33</ele>
        <time>2009-04-21T09:45:02Z</time>
      </trkpt>
      <trkpt lat="50.5226" lon="1.6749">
        <ele>33</ele>
        <time>2009-04-21T09:45:03Z</time>
      </trkpt>
      <trkpt lat="50.52253" lon="1.67477">
        <ele>33</ele>
        <time>2009-04-21T09:45:04Z</time>
      </trkpt>
      <trkpt lat="50.52246" lon="1.67464">
        <ele>33</ele>
        <time>2009-04-21T09:45:05Z</time>
      </trkpt>
      <trkpt lat="50.52239" lon="1.6745">
        <ele>27</ele>
        <time>2009-04-21T09:45:06Z</time>
      </trkpt>
      <trkpt lat="50.52232" lon="1.67436">
        <ele>27</ele>
        <time>2009-04-21T09:45:07Z</time>
      </trkpt>
      <trkpt lat="50.52224" lon="1.67422">
        <ele>27</ele>
        <time>2009-04-21T09:45:08Z</time>
      </trkpt>
      <trkpt lat="50.52217" lon="1.67408">
        <ele>27</ele>
        <time>2009-04-21T09:45:09Z</time>
      </trkpt>
      <trkpt lat="50.52209" lon="1.67395">
        <ele>27</ele>
        <time>2009-04-21T09:45:10Z</time>
      </trkpt>
      <trkpt lat="50.52202" lon="1.6738">
        <ele>27</ele>
        <time>2009-04-21T09:45:11Z</time>
      </trkpt>
      <trkpt lat="50.52195" lon="1.67368">
        <ele>27</ele>
        <time>2009-04-21T09:45:12Z</time>
      </trkpt>
      <trkpt lat="50.52187" lon="1.67355">
        <ele>27</ele>
        <time>2009-04-21T09:45:13Z</time>
      </trkpt>
      <trkpt lat="50.52179" lon="1.67345">
        <ele>27</ele>
        <time>2009-04-21T09:45:14Z</time>
      </trkpt>
      <trkpt lat="50.5217" lon="1.67334">
        <ele>21</ele>
        <time>2009-04-21T09:45:15Z</time>
      </trkpt>
      <trkpt lat="50.52161" lon="1.67325">
        <ele>21</ele>
        <time>2009-04-21T09:45:16Z</time>
      </trkpt>
      <trkpt lat="50.52152" lon="1.67317">
        <ele>21</ele>
        <time>2009-04-21T09:45:17Z</time>
      </trkpt>
      <trkpt lat="50.52142" lon="1.67309">
        <ele>21</ele>
        <time>2009-04-21T09:45:18Z</time>
      </trkpt>
      <trkpt lat="50.52132" lon="1.67302">
        <ele>21</ele>
        <time>2009-04-21T09:45:19Z</time>
      </trkpt>
      <trkpt lat="50.52122" lon="1.67296">
        <ele>21</ele>
        <time>2009-04-21T09:45:20Z</time>
      </trkpt>
      <trkpt lat="50.52112" lon="1.67291">
        <ele>21</ele>
        <time>2009-04-21T09:45:21Z</time>
      </trkpt>
      <trkpt lat="50.52102" lon="1.67284">
        <ele>21</ele>
        <time>2009-04-21T09:45:22Z</time>
      </trkpt>
      <trkpt lat="50.52092" lon="1.67278">
        <ele>21</ele>
        <time>2009-04-21T09:45:23Z</time>
      </trkpt>
      <trkpt lat="50.52082" lon="1.67273">
        <ele>21</ele>
        <time>2009-04-21T09:45:24Z</time>
      </trkpt>
      <trkpt lat="50.52072" lon="1.67267">
        <ele>21</ele>
        <time>2009-04-21T09:45:25Z</time>
      </trkpt>
      <trkpt lat="50.52063" lon="1.67262">
        <ele>21</ele>
        <time>2009-04-21T09:45:26Z</time>
      </trkpt>
      <trkpt lat="50.52054" lon="1.67258">
        <ele>21</ele>
        <time>2009-04-21T09:45:27Z</time>
      </trkpt>
      <trkpt lat="50.52044" lon="1.67254">
        <ele>21</ele>
        <time>2009-04-21T09:45:28Z</time>
      </trkpt>
      <trkpt lat="50.52034" lon="1.6725">
        <ele>21</ele>
        <time>2009-04-21T09:45:29Z</time>
      </trkpt>
      <trkpt lat="50.52024" lon="1.67246">
        <ele>21</ele>
        <time>2009-04-21T09:45:30Z</time>
      </trkpt>
      <trkpt lat="50.52015" lon="1.67242">
        <ele>21</ele>
        <time>2009-04-21T09:45:31Z</time>
      </trkpt>
      <trkpt lat="50.52006" lon="1.67238">
        <ele>21</ele>
        <time>2009-04-21T09:45:32Z</time>
      </trkpt>
      <trkpt lat="50.51996" lon="1.67233">
        <ele>21</ele>
        <time>2009-04-21T09:45:33Z</time>
      </trkpt>
      <trkpt lat="50.51988" lon="1.67228">
        <ele>21</ele>
        <time>2009-04-21T09:45:34Z</time>
      </trkpt>
      <trkpt lat="50.51979" lon="1.67222">
        <ele>21</ele>
        <time>2009-04-21T09:45:35Z</time>
      </trkpt>
      <trkpt lat="50.51971" lon="1.67217">
        <ele>16</ele>
        <time>2009-04-21T09:45:36Z</time>
      </trkpt>
      <trkpt lat="50.51962" lon="1.67211">
        <ele>16</ele>
        <time>2009-04-21T09:45:37Z</time>
      </trkpt>
      <trkpt lat="50.51954" lon="1.67204">
        <ele>16</ele>
        <time>2009-04-21T09:45:38Z</time>
      </trkpt>
      <trkpt lat="50.51946" lon="1.67197">
        <ele>16</ele>
        <time>2009-04-21T09:45:39Z</time>
      </trkpt>
      <trkpt lat="50.51938" lon="1.6719">
        <ele>16</ele>
        <time>2009-04-21T09:45:40Z</time>
      </trkpt>
      <trkpt lat="50.51922" lon="1.67175">
        <ele>16</ele>
        <time>2009-04-21T09:45:42Z</time>
      </trkpt>
      <trkpt lat="50.51908" lon="1.67159">
        <ele>16</ele>
        <time>2009-04-21T09:45:44Z</time>
      </trkpt>
      <trkpt lat="50.51894" lon="1.67144">
        <ele>16</ele>
        <time>2009-04-21T09:45:46Z</time>
      </trkpt>
      <trkpt lat="50.5188" lon="1.67129">
        <ele>16</ele>
        <time>2009-04-21T09:45:48Z</time>
      </trkpt>
      <trkpt lat="50.51867" lon="1.67113">
        <ele>16</ele>
        <time>2009-04-21T09:45:50Z</time>
      </trkpt>
      <trkpt lat="50.51854" lon="1.67097">
        <ele>16</ele>
        <time>2009-04-21T09:45:52Z</time>
      </trkpt>
      <trkpt lat="50.51842" lon="1.67081">
        <ele>16</ele>
        <time>2009-04-21T09:45:54Z</time>
      </trkpt>
      <trkpt lat="50.5183" lon="1.67066">
        <ele>16</ele>
        <time>2009-04-21T09:45:56Z</time>
      </trkpt>
      <trkpt lat="50.51818" lon="1.6705">
        <ele>16</ele>
        <time>2009-04-21T09:45:58Z</time>
      </trkpt>
      <trkpt lat="50.51807" lon="1.67033">
        <ele>16</ele>
        <time>2009-04-21T09:46:00Z</time>
      </trkpt>
      <trkpt lat="50.51798" lon="1.67015">
        <ele>16</ele>
        <time>2009-04-21T09:46:02Z</time>
      </trkpt>
      <trkpt lat="50.51788" lon="1.66997">
        <ele>16</ele>
        <time>2009-04-21T09:46:04Z</time>
      </trkpt>
      <trkpt lat="50.51779" lon="1.66979">
        <ele>16</ele>
        <time>2009-04-21T09:46:06Z</time>
      </trkpt>
      <trkpt lat="50.5177" lon="1.6696">
        <ele>11</ele>
        <time>2009-04-21T09:46:08Z</time>
      </trkpt>
      <trkpt lat="50.51761" lon="1.66939">
        <ele>11</ele>
        <time>2009-04-21T09:46:10Z</time>
      </trkpt>
      <trkpt lat="50.51756" lon="1.66918">
        <ele>11</ele>
        <time>2009-04-21T09:46:12Z</time>
      </trkpt>
      <trkpt lat="50.51751" lon="1.66894">
        <ele>11</ele>
        <time>2009-04-21T09:46:14Z</time>
      </trkpt>
      <trkpt lat="50.51749" lon="1.66871">
        <ele>11</ele>
        <time>2009-04-21T09:46:16Z</time>
      </trkpt>
      <trkpt lat="50.51747" lon="1.66847">
        <ele>11</ele>
        <time>2009-04-21T09:46:18Z</time>
      </trkpt>
      <trkpt lat="50.51746" lon="1.66823">
        <ele>11</ele>
        <time>2009-04-21T09:46:20Z</time>
      </trkpt>
      <trkpt lat="50.51745" lon="1.668">
        <ele>11</ele>
        <time>2009-04-21T09:46:22Z</time>
      </trkpt>
      <trkpt lat="50.51744" lon="1.66777">
        <ele>11</ele>
        <time>2009-04-21T09:46:24Z</time>
      </trkpt>
      <trkpt lat="50.51743" lon="1.66754">
        <ele>11</ele>
        <time>2009-04-21T09:46:26Z</time>
      </trkpt>
      <trkpt lat="50.51743" lon="1.66732">
        <ele>11</ele>
        <time>2009-04-21T09:46:28Z</time>
      </trkpt>
      <trkpt lat="50.51741" lon="1.6671">
        <ele>11</ele>
        <time>2009-04-21T09:46:30Z</time>
      </trkpt>
      <trkpt lat="50.51739" lon="1.66688">
        <ele>11</ele>
        <time>2009-04-21T09:46:32Z</time>
      </trkpt>
      <trkpt lat="50.51737" lon="1.66667">
        <ele>11</ele>
        <time>2009-04-21T09:46:34Z</time>
      </trkpt>
      <trkpt lat="50.51735" lon="1.66647">
        <ele>11</ele>
        <time>2009-04-21T09:46:36Z</time>
      </trkpt>
      <trkpt lat="50.51732" lon="1.66626">
        <ele>11</ele>
        <time>2009-04-21T09:46:38Z</time>
      </trkpt>
      <trkpt lat="50.51729" lon="1.66606">
        <ele>11</ele>
        <time>2009-04-21T09:46:40Z</time>
      </trkpt>
      <trkpt lat="50.51725" lon="1.66586">
        <ele>11</ele>
        <time>2009-04-21T09:46:42Z</time>
      </trkpt>
      <trkpt lat="50.51721" lon="1.66567">
        <ele>11</ele>
        <time>2009-04-21T09:46:44Z</time>
      </trkpt>
      <trkpt lat="50.51717" lon="1.66547">
        <ele>11</ele>
        <time>2009-04-21T09:46:46Z</time>
      </trkpt>
      <trkpt lat="50.51713" lon="1.66528">
        <ele>11</ele>
        <time>2009-04-21T09:46:48Z</time>
      </trkpt>
      <trkpt lat="50.51709" lon="1.66511">
        <ele>11</ele>
        <time>2009-04-21T09:46:50Z</time>
      </trkpt>
      <trkpt lat="50.51704" lon="1.66497">
        <ele>11</ele>
        <time>2009-04-21T09:46:52Z</time>
      </trkpt>
      <trkpt lat="50.51696" lon="1.66491">
        <ele>11</ele>
        <time>2009-04-21T09:46:54Z</time>
      </trkpt>
      <trkpt lat="50.51686" lon="1.66494">
        <ele>11</ele>
        <time>2009-04-21T09:46:56Z</time>
      </trkpt>
      <trkpt lat="50.51678" lon="1.66501">
        <ele>11</ele>
        <time>2009-04-21T09:46:58Z</time>
      </trkpt>
      <trkpt lat="50.51669" lon="1.66511">
        <ele>11</ele>
        <time>2009-04-21T09:47:00Z</time>
      </trkpt>
      <trkpt lat="50.51661" lon="1.66521">
        <ele>11</ele>
        <time>2009-04-21T09:47:02Z</time>
      </trkpt>
      <trkpt lat="50.51654" lon="1.66531">
        <ele>11</ele>
        <time>2009-04-21T09:47:04Z</time>
      </trkpt>
      <trkpt lat="50.51646" lon="1.6654">
        <ele>11</ele>
        <time>2009-04-21T09:47:06Z</time>
      </trkpt>
      <trkpt lat="50.51635" lon="1.6655">
        <ele>11</ele>
        <time>2009-04-21T09:47:09Z</time>
      </trkpt>
      <trkpt lat="50.51624" lon="1.6656">
        <ele>11</ele>
        <time>2009-04-21T09:47:12Z</time>
      </trkpt>
      <trkpt lat="50.51616" lon="1.66567">
        <ele>11</ele>
        <time>2009-04-21T09:47:14Z</time>
      </trkpt>
      <trkpt lat="50.51607" lon="1.66573">
        <ele>11</ele>
        <time>2009-04-21T09:47:16Z</time>
      </trkpt>
      <trkpt lat="50.51599" lon="1.6658">
        <ele>11</ele>
        <time>2009-04-21T09:47:18Z</time>
      </trkpt>
      <trkpt lat="50.5159" lon="1.66587">
        <ele>11</ele>
        <time>2009-04-21T09:47:20Z</time>
      </trkpt>
      <trkpt lat="50.51578" lon="1.66596">
        <ele>11</ele>
        <time>2009-04-21T09:47:23Z</time>
      </trkpt>
      <trkpt lat="50.5157" lon="1.66602">
        <ele>11</ele>
        <time>2009-04-21T09:47:25Z</time>
      </trkpt>
      <trkpt lat="50.51557" lon="1.66609">
        <ele>11</ele>
        <time>2009-04-21T09:47:28Z</time>
      </trkpt>
      <trkpt lat="50.51548" lon="1.66615">
        <ele>11</ele>
        <time>2009-04-21T09:47:30Z</time>
      </trkpt>
      <trkpt lat="50.51536" lon="1.6662">
        <ele>11</ele>
        <time>2009-04-21T09:47:33Z</time>
      </trkpt>
      <trkpt lat="50.51524" lon="1.66627">
        <ele>11</ele>
        <time>2009-04-21T09:47:36Z</time>
      </trkpt>
      <trkpt lat="50.51514" lon="1.66626">
        <ele>11</ele>
        <time>2009-04-21T09:47:39Z</time>
      </trkpt>
      <trkpt lat="50.51505" lon="1.6662">
        <ele>11</ele>
        <time>2009-04-21T09:47:43Z</time>
      </trkpt>
      <trkpt lat="50.515" lon="1.66607">
        <ele>11</ele>
        <time>2009-04-21T09:47:47Z</time>
      </trkpt>
      <trkpt lat="50.51496" lon="1.66594">
        <ele>11</ele>
        <time>2009-04-21T09:47:51Z</time>
      </trkpt>
      <trkpt lat="50.51492" lon="1.66576">
        <ele>11</ele>
        <time>2009-04-21T09:47:55Z</time>
      </trkpt>
      <trkpt lat="50.51489" lon="1.66559">
        <ele>11</ele>
        <time>2009-04-21T09:47:59Z</time>
      </trkpt>
      <trkpt lat="50.51485" lon="1.66545">
        <ele>11</ele>
        <time>2009-04-21T09:48:03Z</time>
      </trkpt>
      <trkpt lat="50.5148" lon="1.6653">
        <ele>11</ele>
        <time>2009-04-21T09:48:08Z</time>
      </trkpt>
      <trkpt lat="50.51476" lon="1.66516">
        <ele>11</ele>
        <time>2009-04-21T09:48:12Z</time>
      </trkpt>
      <trkpt lat="50.51469" lon="1.66503">
        <ele>11</ele>
        <time>2009-04-21T09:48:17Z</time>
      </trkpt>
      <trkpt lat="50.51463" lon="1.66489">
        <ele>11</ele>
        <time>2009-04-21T09:48:22Z</time>
      </trkpt>
      <trkpt lat="50.51457" lon="1.66477">
        <ele>17</ele>
        <time>2009-04-21T09:48:27Z</time>
      </trkpt>
      <trkpt lat="50.51452" lon="1.66463">
        <ele>17</ele>
        <time>2009-04-21T09:48:32Z</time>
      </trkpt>
      <trkpt lat="50.51446" lon="1.66452">
        <ele>17</ele>
        <time>2009-04-21T09:48:38Z</time>
      </trkpt>
      <trkpt lat="50.51437" lon="1.6645">
        <ele>17</ele>
        <time>2009-04-21T09:48:49Z</time>
      </trkpt>
      <trkpt lat="50.51427" lon="1.66451">
        <ele>17</ele>
        <time>2009-04-21T09:48:55Z</time>
      </trkpt>
      <trkpt lat="50.51421" lon="1.6644">
        <ele>17</ele>
        <time>2009-04-21T09:49:02Z</time>
      </trkpt>
      <trkpt lat="50.51422" lon="1.66426">
        <ele>17</ele>
        <time>2009-04-21T09:51:18Z</time>
      </trkpt>
      <trkpt lat="50.51424" lon="1.6641">
        <ele>17</ele>
        <time>2009-04-21T09:55:21Z</time>
      </trkpt>
      <trkpt lat="50.51427" lon="1.66396">
        <ele>17</ele>
        <time>2009-04-21T09:55:25Z</time>
      </trkpt>
      <trkpt lat="50.5143" lon="1.66381">
        <ele>17</ele>
        <time>2009-04-21T09:55:29Z</time>
      </trkpt>
      <trkpt lat="50.51433" lon="1.66365">
        <ele>17</ele>
        <time>2009-04-21T09:55:32Z</time>
      </trkpt>
      <trkpt lat="50.51436" lon="1.6635">
        <ele>17</ele>
        <time>2009-04-21T09:55:35Z</time>
      </trkpt>
      <trkpt lat="50.51438" lon="1.66337">
        <ele>17</ele>
        <time>2009-04-21T09:55:38Z</time>
      </trkpt>
      <trkpt lat="50.51441" lon="1.66322">
        <ele>17</ele>
        <time>2009-04-21T09:55:41Z</time>
      </trkpt>
      <trkpt lat="50.51442" lon="1.66307">
        <ele>17</ele>
        <time>2009-04-21T09:55:44Z</time>
      </trkpt>
      <trkpt lat="50.51444" lon="1.66292">
        <ele>17</ele>
        <time>2009-04-21T09:55:47Z</time>
      </trkpt>
      <trkpt lat="50.51446" lon="1.66276">
        <ele>17</ele>
        <time>2009-04-21T09:55:50Z</time>
      </trkpt>
      <trkpt lat="50.51448" lon="1.66259">
        <ele>17</ele>
        <time>2009-04-21T09:55:53Z</time>
      </trkpt>
      <trkpt lat="50.51449" lon="1.66242">
        <ele>17</ele>
        <time>2009-04-21T09:55:56Z</time>
      </trkpt>
      <trkpt lat="50.5145" lon="1.66226">
        <ele>17</ele>
        <time>2009-04-21T09:55:59Z</time>
      </trkpt>
      <trkpt lat="50.51452" lon="1.66208">
        <ele>17</ele>
        <time>2009-04-21T09:56:02Z</time>
      </trkpt>
      <trkpt lat="50.51452" lon="1.66191">
        <ele>17</ele>
        <time>2009-04-21T09:56:05Z</time>
      </trkpt>
      <trkpt lat="50.51452" lon="1.66171">
        <ele>17</ele>
        <time>2009-04-21T09:56:08Z</time>
      </trkpt>
      <trkpt lat="50.51451" lon="1.66152">
        <ele>17</ele>
        <time>2009-04-21T09:56:11Z</time>
      </trkpt>
      <trkpt lat="50.5145" lon="1.66137">
        <ele>17</ele>
        <time>2009-04-21T09:56:13Z</time>
      </trkpt>
      <trkpt lat="50.51449" lon="1.66117">
        <ele>17</ele>
        <time>2009-04-21T09:56:16Z</time>
      </trkpt>
      <trkpt lat="50.51449" lon="1.66101">
        <ele>17</ele>
        <time>2009-04-21T09:56:18Z</time>
      </trkpt>
      <trkpt lat="50.51449" lon="1.66087">
        <ele>17</ele>
        <time>2009-04-21T09:56:20Z</time>
      </trkpt>
      <trkpt lat="50.51448" lon="1.66066">
        <ele>17</ele>
        <time>2009-04-21T09:56:23Z</time>
      </trkpt>
      <trkpt lat="50.51448" lon="1.66046">
        <ele>17</ele>
        <time>2009-04-21T09:56:26Z</time>
      </trkpt>
      <trkpt lat="50.51448" lon="1.6603">
        <ele>17</ele>
        <time>2009-04-21T09:56:28Z</time>
      </trkpt>
      <trkpt lat="50.51448" lon="1.66016">
        <ele>17</ele>
        <time>2009-04-21T09:56:30Z</time>
      </trkpt>
      <trkpt lat="50.51448" lon="1.66001">
        <ele>17</ele>
        <time>2009-04-21T09:56:32Z</time>
      </trkpt>
      <trkpt lat="50.51448" lon="1.65986">
        <ele>17</ele>
        <time>2009-04-21T09:56:34Z</time>
      </trkpt>
      <trkpt lat="50.51448" lon="1.65971">
        <ele>17</ele>
        <time>2009-04-21T09:56:36Z</time>
      </trkpt>
      <trkpt lat="50.51448" lon="1.6595">
        <ele>17</ele>
        <time>2009-04-21T09:56:39Z</time>
      </trkpt>
      <trkpt lat="50.51448" lon="1.65936">
        <ele>17</ele>
        <time>2009-04-21T09:56:41Z</time>
      </trkpt>
      <trkpt lat="50.51447" lon="1.65915">
        <ele>22</ele>
        <time>2009-04-21T09:56:44Z</time>
      </trkpt>
      <trkpt lat="50.51448" lon="1.65895">
        <ele>22</ele>
        <time>2009-04-21T09:56:47Z</time>
      </trkpt>
      <trkpt lat="50.51448" lon="1.6588">
        <ele>22</ele>
        <time>2009-04-21T09:56:49Z</time>
      </trkpt>
      <trkpt lat="50.51448" lon="1.6586">
        <ele>22</ele>
        <time>2009-04-21T09:56:52Z</time>
      </trkpt>
      <trkpt lat="50.51448" lon="1.65845">
        <ele>22</ele>
        <time>2009-04-21T09:56:54Z</time>
      </trkpt>
      <trkpt lat="50.51448" lon="1.65831">
        <ele>22</ele>
        <time>2009-04-21T09:56:56Z</time>
      </trkpt>
      <trkpt lat="50.51448" lon="1.65816">
        <ele>22</ele>
        <time>2009-04-21T09:56:58Z</time>
      </trkpt>
      <trkpt lat="50.51448" lon="1.65797">
        <ele>22</ele>
        <time>2009-04-21T09:57:01Z</time>
      </trkpt>
      <trkpt lat="50.51448" lon="1.65777">
        <ele>22</ele>
        <time>2009-04-21T09:57:04Z</time>
      </trkpt>
      <trkpt lat="50.51449" lon="1.65757">
        <ele>22</ele>
        <time>2009-04-21T09:57:07Z</time>
      </trkpt>
      <trkpt lat="50.5145" lon="1.65737">
        <ele>22</ele>
        <time>2009-04-21T09:57:10Z</time>
      </trkpt>
      <trkpt lat="50.51452" lon="1.65719">
        <ele>22</ele>
        <time>2009-04-21T09:57:13Z</time>
      </trkpt>
      <trkpt lat="50.51454" lon="1.65701">
        <ele>27</ele>
        <time>2009-04-21T09:57:16Z</time>
      </trkpt>
      <trkpt lat="50.51456" lon="1.65684">
        <ele>27</ele>
        <time>2009-04-21T09:57:19Z</time>
      </trkpt>
      <trkpt lat="50.51459" lon="1.65666">
        <ele>27</ele>
        <time>2009-04-21T09:57:22Z</time>
      </trkpt>
      <trkpt lat="50.51462" lon="1.65653">
        <ele>27</ele>
        <time>2009-04-21T09:57:25Z</time>
      </trkpt>
      <trkpt lat="50.51465" lon="1.65636">
        <ele>27</ele>
        <time>2009-04-21T09:57:28Z</time>
      </trkpt>
      <trkpt lat="50.51467" lon="1.65616">
        <ele>27</ele>
        <time>2009-04-21T09:57:31Z</time>
      </trkpt>
      <trkpt lat="50.51469" lon="1.65599">
        <ele>27</ele>
        <time>2009-04-21T09:57:34Z</time>
      </trkpt>
      <trkpt lat="50.51471" lon="1.65584">
        <ele>32</ele>
        <time>2009-04-21T09:57:37Z</time>
      </trkpt>
      <trkpt lat="50.51472" lon="1.65569">
        <ele>32</ele>
        <time>2009-04-21T09:57:40Z</time>
      </trkpt>
      <trkpt lat="50.51474" lon="1.65553">
        <ele>32</ele>
        <time>2009-04-21T09:57:43Z</time>
      </trkpt>
      <trkpt lat="50.51476" lon="1.65536">
        <ele>32</ele>
        <time>2009-04-21T09:57:46Z</time>
      </trkpt>
      <trkpt lat="50.51477" lon="1.65518">
        <ele>32</ele>
        <time>2009-04-21T09:57:49Z</time>
      </trkpt>
      <trkpt lat="50.51479" lon="1.65501">
        <ele>32</ele>
        <time>2009-04-21T09:57:52Z</time>
      </trkpt>
      <trkpt lat="50.51481" lon="1.65483">
        <ele>32</ele>
        <time>2009-04-21T09:57:55Z</time>
      </trkpt>
      <trkpt lat="50.51483" lon="1.65464">
        <ele>32</ele>
        <time>2009-04-21T09:57:58Z</time>
      </trkpt>
      <trkpt lat="50.51484" lon="1.65448">
        <ele>32</ele>
        <time>2009-04-21T09:58:01Z</time>
      </trkpt>
      <trkpt lat="50.51485" lon="1.65433">
        <ele>32</ele>
        <time>2009-04-21T09:58:04Z</time>
      </trkpt>
      <trkpt lat="50.51487" lon="1.65416">
        <ele>32</ele>
        <time>2009-04-21T09:58:07Z</time>
      </trkpt>
      <trkpt lat="50.51489" lon="1.65399">
        <ele>32</ele>
        <time>2009-04-21T09:58:10Z</time>
      </trkpt>
      <trkpt lat="50.51497" lon="1.65388">
        <ele>32</ele>
        <time>2009-04-21T09:58:14Z</time>
      </trkpt>
      <trkpt lat="50.51508" lon="1.65387">
        <ele>32</ele>
        <time>2009-04-21T09:58:17Z</time>
      </trkpt>
      <trkpt lat="50.51517" lon="1.65386">
        <ele>32</ele>
        <time>2009-04-21T09:58:20Z</time>
      </trkpt>
      <trkpt lat="50.51527" lon="1.65385">
        <ele>32</ele>
        <time>2009-04-21T09:58:25Z</time>
      </trkpt>
      <trkpt lat="50.5153" lon="1.65372">
        <ele>32</ele>
        <time>2009-04-21T09:58:51Z</time>
      </trkpt>
      <trkpt lat="50.51526" lon="1.65355">
        <ele>32</ele>
        <time>2009-04-21T09:58:54Z</time>
      </trkpt>
      <trkpt lat="50.51521" lon="1.65335">
        <ele>32</ele>
        <time>2009-04-21T09:58:57Z</time>
      </trkpt>
      <trkpt lat="50.51518" lon="1.65321">
        <ele>32</ele>
        <time>2009-04-21T09:58:59Z</time>
      </trkpt>
      <trkpt lat="50.51513" lon="1.65304">
        <ele>32</ele>
        <time>2009-04-21T09:59:01Z</time>
      </trkpt>
      <trkpt lat="50.51509" lon="1.65286">
        <ele>32</ele>
        <time>2009-04-21T09:59:03Z</time>
      </trkpt>
      <trkpt lat="50.51505" lon="1.65268">
        <ele>32</ele>
        <time>2009-04-21T09:59:05Z</time>
      </trkpt>
      <trkpt lat="50.515" lon="1.65246">
        <ele>32</ele>
        <time>2009-04-21T09:59:07Z</time>
      </trkpt>
      <trkpt lat="50.51495" lon="1.65222">
        <ele>32</ele>
        <time>2009-04-21T09:59:09Z</time>
      </trkpt>
      <trkpt lat="50.51489" lon="1.65196">
        <ele>27</ele>
        <time>2009-04-21T09:59:11Z</time>
      </trkpt>
      <trkpt lat="50.51487" lon="1.65182">
        <ele>27</ele>
        <time>2009-04-21T09:59:12Z</time>
      </trkpt>
      <trkpt lat="50.51485" lon="1.65168">
        <ele>27</ele>
        <time>2009-04-21T09:59:13Z</time>
      </trkpt>
      <trkpt lat="50.51484" lon="1.65153">
        <ele>27</ele>
        <time>2009-04-21T09:59:14Z</time>
      </trkpt>
      <trkpt lat="50.51483" lon="1.65137">
        <ele>27</ele>
        <time>2009-04-21T09:59:15Z</time>
      </trkpt>
      <trkpt lat="50.51482" lon="1.65122">
        <ele>27</ele>
        <time>2009-04-21T09:59:16Z</time>
      </trkpt>
      <trkpt lat="50.51482" lon="1.65105">
        <ele>27</ele>
        <time>2009-04-21T09:59:17Z</time>
      </trkpt>
      <trkpt lat="50.51483" lon="1.65088">
        <ele>21</ele>
        <time>2009-04-21T09:59:18Z</time>
      </trkpt>
      <trkpt lat="50.51483" lon="1.65071">
        <ele>21</ele>
        <time>2009-04-21T09:59:19Z</time>
      </trkpt>
      <trkpt lat="50.51484" lon="1.65054">
        <ele>21</ele>
        <time>2009-04-21T09:59:20Z</time>
      </trkpt>
      <trkpt lat="50.51485" lon="1.65036">
        <ele>21</ele>
        <time>2009-04-21T09:59:21Z</time>
      </trkpt>
      <trkpt lat="50.51485" lon="1.65018">
        <ele>21</ele>
        <time>2009-04-21T09:59:22Z</time>
      </trkpt>
      <trkpt lat="50.51486" lon="1.65002">
        <ele>21</ele>
        <time>2009-04-21T09:59:23Z</time>
      </trkpt>
      <trkpt lat="50.51487" lon="1.64986">
        <ele>16</ele>
        <time>2009-04-21T09:59:24Z</time>
      </trkpt>
      <trkpt lat="50.51487" lon="1.6497">
        <ele>16</ele>
        <time>2009-04-21T09:59:25Z</time>
      </trkpt>
      <trkpt lat="50.51486" lon="1.64955">
        <ele>16</ele>
        <time>2009-04-21T09:59:26Z</time>
      </trkpt>
      <trkpt lat="50.51485" lon="1.64941">
        <ele>16</ele>
        <time>2009-04-21T09:59:27Z</time>
      </trkpt>
      <trkpt lat="50.51484" lon="1.64926">
        <ele>16</ele>
        <time>2009-04-21T09:59:28Z</time>
      </trkpt>
      <trkpt lat="50.51482" lon="1.64912">
        <ele>16</ele>
        <time>2009-04-21T09:59:29Z</time>
      </trkpt>
      <trkpt lat="50.5148" lon="1.64897">
        <ele>16</ele>
        <time>2009-04-21T09:59:30Z</time>
      </trkpt>
      <trkpt lat="50.51478" lon="1.64883">
        <ele>16</ele>
        <time>2009-04-21T09:59:31Z</time>
      </trkpt>
      <trkpt lat="50.51476" lon="1.64869">
        <ele>10</ele>
        <time>2009-04-21T09:59:32Z</time>
      </trkpt>
      <trkpt lat="50.51475" lon="1.64853">
        <ele>10</ele>
        <time>2009-04-21T09:59:33Z</time>
      </trkpt>
      <trkpt lat="50.51473" lon="1.64839">
        <ele>10</ele>
        <time>2009-04-21T09:59:34Z</time>
      </trkpt>
      <trkpt lat="50.51472" lon="1.64825">
        <ele>10</ele>
        <time>2009-04-21T09:59:35Z</time>
      </trkpt>
      <trkpt lat="50.51471" lon="1.6481">
        <ele>10</ele>
        <time>2009-04-21T09:59:36Z</time>
      </trkpt>
      <trkpt lat="50.51469" lon="1.64796">
        <ele>10</ele>
        <time>2009-04-21T09:59:37Z</time>
      </trkpt>
      <trkpt lat="50.51468" lon="1.64782">
        <ele>10</ele>
        <time>2009-04-21T09:59:38Z</time>
      </trkpt>
      <trkpt lat="50.51465" lon="1.64755">
        <ele>10</ele>
        <time>2009-04-21T09:59:40Z</time>
      </trkpt>
      <trkpt lat="50.51461" lon="1.64729">
        <ele>10</ele>
        <time>2009-04-21T09:59:42Z</time>
      </trkpt>
      <trkpt lat="50.51459" lon="1.64715">
        <ele>10</ele>
        <time>2009-04-21T09:59:43Z</time>
      </trkpt>
      <trkpt lat="50.51452" lon="1.64691">
        <ele>10</ele>
        <time>2009-04-21T09:59:45Z</time>
      </trkpt>
      <trkpt lat="50.51445" lon="1.64668">
        <ele>10</ele>
        <time>2009-04-21T09:59:47Z</time>
      </trkpt>
      <trkpt lat="50.5144" lon="1.64648">
        <ele>10</ele>
        <time>2009-04-21T09:59:49Z</time>
      </trkpt>
      <trkpt lat="50.51434" lon="1.6463">
        <ele>10</ele>
        <time>2009-04-21T09:59:51Z</time>
      </trkpt>
      <trkpt lat="50.51429" lon="1.64614">
        <ele>10</ele>
        <time>2009-04-21T09:59:53Z</time>
      </trkpt>
      <trkpt lat="50.51424" lon="1.64601">
        <ele>10</ele>
        <time>2009-04-21T09:59:55Z</time>
      </trkpt>
      <trkpt lat="50.51418" lon="1.64589">
        <ele>10</ele>
        <time>2009-04-21T10:00:02Z</time>
      </trkpt>
      <trkpt lat="50.51406" lon="1.64597">
        <ele>10</ele>
        <time>2009-04-21T10:00:05Z</time>
      </trkpt>
      <trkpt lat="50.51397" lon="1.64605">
        <ele>10</ele>
        <time>2009-04-21T10:00:07Z</time>
      </trkpt>
      <trkpt lat="50.51388" lon="1.64615">
        <ele>10</ele>
        <time>2009-04-21T10:00:09Z</time>
      </trkpt>
      <trkpt lat="50.51378" lon="1.64624">
        <ele>10</ele>
        <time>2009-04-21T10:00:11Z</time>
      </trkpt>
      <trkpt lat="50.51367" lon="1.64634">
        <ele>10</ele>
        <time>2009-04-21T10:00:13Z</time>
      </trkpt>
      <trkpt lat="50.51357" lon="1.64646">
        <ele>10</ele>
        <time>2009-04-21T10:00:15Z</time>
      </trkpt>
      <trkpt lat="50.51346" lon="1.64657">
        <ele>10</ele>
        <time>2009-04-21T10:00:17Z</time>
      </trkpt>
      <trkpt lat="50.51336" lon="1.64667">
        <ele>10</ele>
        <time>2009-04-21T10:00:19Z</time>
      </trkpt>
      <trkpt lat="50.51326" lon="1.64678">
        <ele>10</ele>
        <time>2009-04-21T10:00:21Z</time>
      </trkpt>
      <trkpt lat="50.51316" lon="1.64691">
        <ele>10</ele>
        <time>2009-04-21T10:00:23Z</time>
      </trkpt>
      <trkpt lat="50.51308" lon="1.64703">
        <ele>10</ele>
        <time>2009-04-21T10:00:25Z</time>
      </trkpt>
      <trkpt lat="50.513" lon="1.64715">
        <ele>10</ele>
        <time>2009-04-21T10:00:27Z</time>
      </trkpt>
      <trkpt lat="50.51292" lon="1.64728">
        <ele>10</ele>
        <time>2009-04-21T10:00:29Z</time>
      </trkpt>
      <trkpt lat="50.51284" lon="1.6474">
        <ele>10</ele>
        <time>2009-04-21T10:00:31Z</time>
      </trkpt>
      <trkpt lat="50.51276" lon="1.64754">
        <ele>10</ele>
        <time>2009-04-21T10:00:33Z</time>
      </trkpt>
      <trkpt lat="50.51267" lon="1.64768">
        <ele>10</ele>
        <time>2009-04-21T10:00:35Z</time>
      </trkpt>
      <trkpt lat="50.51257" lon="1.64783">
        <ele>10</ele>
        <time>2009-04-21T10:00:37Z</time>
      </trkpt>
      <trkpt lat="50.51248" lon="1.64799">
        <ele>10</ele>
        <time>2009-04-21T10:00:39Z</time>
      </trkpt>
      <trkpt lat="50.51239" lon="1.64815">
        <ele>10</ele>
        <time>2009-04-21T10:00:41Z</time>
      </trkpt>
      <trkpt lat="50.51229" lon="1.64832">
        <ele>10</ele>
        <time>2009-04-21T10:00:43Z</time>
      </trkpt>
      <trkpt lat="50.5122" lon="1.6485">
        <ele>10</ele>
        <time>2009-04-21T10:00:45Z</time>
      </trkpt>
      <trkpt lat="50.5121" lon="1.64869">
        <ele>10</ele>
        <time>2009-04-21T10:00:47Z</time>
      </trkpt>
      <trkpt lat="50.51201" lon="1.64887">
        <ele>10</ele>
        <time>2009-04-21T10:00:49Z</time>
      </trkpt>
      <trkpt lat="50.51192" lon="1.64906">
        <ele>10</ele>
        <time>2009-04-21T10:00:51Z</time>
      </trkpt>
      <trkpt lat="50.51184" lon="1.64923">
        <ele>10</ele>
        <time>2009-04-21T10:00:53Z</time>
      </trkpt>
      <trkpt lat="50.51175" lon="1.64939">
        <ele>10</ele>
        <time>2009-04-21T10:00:55Z</time>
      </trkpt>
      <trkpt lat="50.51167" lon="1.64951">
        <ele>10</ele>
        <time>2009-04-21T10:00:57Z</time>
      </trkpt>
      <trkpt lat="50.5116" lon="1.6496">
        <ele>10</ele>
        <time>2009-04-21T10:00:59Z</time>
      </trkpt>
      <trkpt lat="50.5115" lon="1.64968">
        <ele>10</ele>
        <time>2009-04-21T10:01:02Z</time>
      </trkpt>
      <trkpt lat="50.51139" lon="1.64968">
        <ele>10</ele>
        <time>2009-04-21T10:01:42Z</time>
      </trkpt>
      <trkpt lat="50.51134" lon="1.6499">
        <ele>10</ele>
        <time>2009-04-21T10:01:46Z</time>
      </trkpt>
      <trkpt lat="50.51129" lon="1.65003">
        <ele>10</ele>
        <time>2009-04-21T10:01:48Z</time>
      </trkpt>
      <trkpt lat="50.51122" lon="1.65019">
        <ele>10</ele>
        <time>2009-04-21T10:01:50Z</time>
      </trkpt>
      <trkpt lat="50.51114" lon="1.65034">
        <ele>10</ele>
        <time>2009-04-21T10:01:52Z</time>
      </trkpt>
      <trkpt lat="50.51107" lon="1.65051">
        <ele>10</ele>
        <time>2009-04-21T10:01:54Z</time>
      </trkpt>
      <trkpt lat="50.51099" lon="1.6507">
        <ele>10</ele>
        <time>2009-04-21T10:01:56Z</time>
      </trkpt>
      <trkpt lat="50.51091" lon="1.65089">
        <ele>10</ele>
        <time>2009-04-21T10:01:58Z</time>
      </trkpt>
      <trkpt lat="50.51083" lon="1.65108">
        <ele>10</ele>
        <time>2009-04-21T10:02:00Z</time>
      </trkpt>
      <trkpt lat="50.51075" lon="1.65127">
        <ele>10</ele>
        <time>2009-04-21T10:02:02Z</time>
      </trkpt>
      <trkpt lat="50.51068" lon="1.65146">
        <ele>10</ele>
        <time>2009-04-21T10:02:04Z</time>
      </trkpt>
      <trkpt lat="50.51061" lon="1.65166">
        <ele>10</ele>
        <time>2009-04-21T10:02:06Z</time>
      </trkpt>
      <trkpt lat="50.51054" lon="1.65187">
        <ele>10</ele>
        <time>2009-04-21T10:02:08Z</time>
      </trkpt>
      <trkpt lat="50.51047" lon="1.65207">
        <ele>10</ele>
        <time>2009-04-21T10:02:10Z</time>
      </trkpt>
      <trkpt lat="50.5104" lon="1.65229">
        <ele>10</ele>
        <time>2009-04-21T10:02:12Z</time>
      </trkpt>
      <trkpt lat="50.51034" lon="1.65251">
        <ele>10</ele>
        <time>2009-04-21T10:02:14Z</time>
      </trkpt>
      <trkpt lat="50.51028" lon="1.65272">
        <ele>10</ele>
        <time>2009-04-21T10:02:16Z</time>
      </trkpt>
      <trkpt lat="50.51023" lon="1.65294">
        <ele>10</ele>
        <time>2009-04-21T10:02:18Z</time>
      </trkpt>
      <trkpt lat="50.51017" lon="1.65315">
        <ele>10</ele>
        <time>2009-04-21T10:02:20Z</time>
      </trkpt>
      <trkpt lat="50.51012" lon="1.65338">
        <ele>10</ele>
        <time>2009-04-21T10:02:22Z</time>
      </trkpt>
      <trkpt lat="50.51007" lon="1.65359">
        <ele>10</ele>
        <time>2009-04-21T10:02:24Z</time>
      </trkpt>
      <trkpt lat="50.51001" lon="1.65381">
        <ele>10</ele>
        <time>2009-04-21T10:02:26Z</time>
      </trkpt>
      <trkpt lat="50.50995" lon="1.65402">
        <ele>10</ele>
        <time>2009-04-21T10:02:28Z</time>
      </trkpt>
      <trkpt lat="50.50989" lon="1.65424">
        <ele>10</ele>
        <time>2009-04-21T10:02:30Z</time>
      </trkpt>
      <trkpt lat="50.50984" lon="1.65445">
        <ele>10</ele>
        <time>2009-04-21T10:02:32Z</time>
      </trkpt>
      <trkpt lat="50.50978" lon="1.65466">
        <ele>10</ele>
        <time>2009-04-21T10:02:34Z</time>
      </trkpt>
      <trkpt lat="50.50973" lon="1.65487">
        <ele>10</ele>
        <time>2009-04-21T10:02:36Z</time>
      </trkpt>
      <trkpt lat="50.50965" lon="1.65504">
        <ele>10</ele>
        <time>2009-04-21T10:02:38Z</time>
      </trkpt>
      <trkpt lat="50.50955" lon="1.65518">
        <ele>10</ele>
        <time>2009-04-21T10:02:40Z</time>
      </trkpt>
      <trkpt lat="50.50948" lon="1.65536">
        <ele>10</ele>
        <time>2009-04-21T10:02:42Z</time>
      </trkpt>
      <trkpt lat="50.50947" lon="1.65557">
        <ele>10</ele>
        <time>2009-04-21T10:02:44Z</time>
      </trkpt>
      <trkpt lat="50.50945" lon="1.65579">
        <ele>10</ele>
        <time>2009-04-21T10:02:46Z</time>
      </trkpt>
      <trkpt lat="50.5094" lon="1.65601">
        <ele>5</ele>
        <time>2009-04-21T10:02:48Z</time>
      </trkpt>
      <trkpt lat="50.50934" lon="1.65623">
        <ele>5</ele>
        <time>2009-04-21T10:02:50Z</time>
      </trkpt>
      <trkpt lat="50.50927" lon="1.65645">
        <ele>5</ele>
        <time>2009-04-21T10:02:52Z</time>
      </trkpt>
      <trkpt lat="50.5092" lon="1.65666">
        <ele>5</ele>
        <time>2009-04-21T10:02:54Z</time>
      </trkpt>
      <trkpt lat="50.50913" lon="1.65687">
        <ele>5</ele>
        <time>2009-04-21T10:02:56Z</time>
      </trkpt>
      <trkpt lat="50.50906" lon="1.65708">
        <ele>5</ele>
        <time>2009-04-21T10:02:58Z</time>
      </trkpt>
      <trkpt lat="50.50899" lon="1.65728">
        <ele>5</ele>
        <time>2009-04-21T10:03:00Z</time>
      </trkpt>
      <trkpt lat="50.50893" lon="1.65748">
        <ele>5</ele>
        <time>2009-04-21T10:03:02Z</time>
      </trkpt>
      <trkpt lat="50.50885" lon="1.65768">
        <ele>5</ele>
        <time>2009-04-21T10:03:04Z</time>
      </trkpt>
      <trkpt lat="50.50878" lon="1.65788">
        <ele>5</ele>
        <time>2009-04-21T10:03:06Z</time>
      </trkpt>
      <trkpt lat="50.5087" lon="1.65806">
        <ele>5</ele>
        <time>2009-04-21T10:03:08Z</time>
      </trkpt>
      <trkpt lat="50.50859" lon="1.65822">
        <ele>5</ele>
        <time>2009-04-21T10:03:10Z</time>
      </trkpt>
      <trkpt lat="50.50847" lon="1.65837">
        <ele>5</ele>
        <time>2009-04-21T10:03:12Z</time>
      </trkpt>
      <trkpt lat="50.50838" lon="1.65855">
        <ele>5</ele>
        <time>2009-04-21T10:03:14Z</time>
      </trkpt>
      <trkpt lat="50.50831" lon="1.65876">
        <ele>5</ele>
        <time>2009-04-21T10:03:16Z</time>
      </trkpt>
      <trkpt lat="50.50826" lon="1.65897">
        <ele>5</ele>
        <time>2009-04-21T10:03:18Z</time>
      </trkpt>
      <trkpt lat="50.50821" lon="1.6592">
        <ele>5</ele>
        <time>2009-04-21T10:03:20Z</time>
      </trkpt>
      <trkpt lat="50.50819" lon="1.65941">
        <ele>5</ele>
        <time>2009-04-21T10:03:22Z</time>
      </trkpt>
      <trkpt lat="50.50817" lon="1.65964">
        <ele>5</ele>
        <time>2009-04-21T10:03:24Z</time>
      </trkpt>
      <trkpt lat="50.50816" lon="1.65986">
        <ele>5</ele>
        <time>2009-04-21T10:03:26Z</time>
      </trkpt>
      <trkpt lat="50.50811" lon="1.66008">
        <ele>5</ele>
        <time>2009-04-21T10:03:28Z</time>
      </trkpt>
      <trkpt lat="50.50805" lon="1.66028">
        <ele>5</ele>
        <time>2009-04-21T10:03:30Z</time>
      </trkpt>
      <trkpt lat="50.50798" lon="1.66049">
        <ele>5</ele>
        <time>2009-04-21T10:03:32Z</time>
      </trkpt>
      <trkpt lat="50.50792" lon="1.66069">
        <ele>5</ele>
        <time>2009-04-21T10:03:34Z</time>
      </trkpt>
      <trkpt lat="50.50785" lon="1.6609">
        <ele>5</ele>
        <time>2009-04-21T10:03:36Z</time>
      </trkpt>
      <trkpt lat="50.50779" lon="1.66109">
        <ele>5</ele>
        <time>2009-04-21T10:03:38Z</time>
      </trkpt>
      <trkpt lat="50.50773" lon="1.6613">
        <ele>5</ele>
        <time>2009-04-21T10:03:40Z</time>
      </trkpt>
      <trkpt lat="50.50765" lon="1.66151">
        <ele>5</ele>
        <time>2009-04-21T10:03:42Z</time>
      </trkpt>
      <trkpt lat="50.50759" lon="1.66171">
        <ele>5</ele>
        <time>2009-04-21T10:03:44Z</time>
      </trkpt>
      <trkpt lat="50.50752" lon="1.66192">
        <ele>5</ele>
        <time>2009-04-21T10:03:46Z</time>
      </trkpt>
      <trkpt lat="50.50746" lon="1.66213">
        <ele>5</ele>
        <time>2009-04-21T10:03:48Z</time>
      </trkpt>
      <trkpt lat="50.5074" lon="1.66232">
        <ele>5</ele>
        <time>2009-04-21T10:03:50Z</time>
      </trkpt>
      <trkpt lat="50.50734" lon="1.66254">
        <ele>5</ele>
        <time>2009-04-21T10:03:52Z</time>
      </trkpt>
      <trkpt lat="50.5073" lon="1.66275">
        <ele>5</ele>
        <time>2009-04-21T10:03:54Z</time>
      </trkpt>
      <trkpt lat="50.50726" lon="1.66295">
        <ele>5</ele>
        <time>2009-04-21T10:03:56Z</time>
      </trkpt>
      <trkpt lat="50.50722" lon="1.66317">
        <ele>5</ele>
        <time>2009-04-21T10:03:58Z</time>
      </trkpt>
      <trkpt lat="50.50719" lon="1.66338">
        <ele>5</ele>
        <time>2009-04-21T10:04:00Z</time>
      </trkpt>
      <trkpt lat="50.50716" lon="1.66359">
        <ele>5</ele>
        <time>2009-04-21T10:04:02Z</time>
      </trkpt>
      <trkpt lat="50.50712" lon="1.66381">
        <ele>5</ele>
        <time>2009-04-21T10:04:04Z</time>
      </trkpt>
      <trkpt lat="50.50708" lon="1.66401">
        <ele>5</ele>
        <time>2009-04-21T10:04:06Z</time>
      </trkpt>
      <trkpt lat="50.50705" lon="1.66423">
        <ele>5</ele>
        <time>2009-04-21T10:04:08Z</time>
      </trkpt>
      <trkpt lat="50.50701" lon="1.66444">
        <ele>5</ele>
        <time>2009-04-21T10:04:10Z</time>
      </trkpt>
      <trkpt lat="50.50698" lon="1.66466">
        <ele>5</ele>
        <time>2009-04-21T10:04:12Z</time>
      </trkpt>
      <trkpt lat="50.50695" lon="1.66488">
        <ele>5</ele>
        <time>2009-04-21T10:04:14Z</time>
      </trkpt>
      <trkpt lat="50.50691" lon="1.66509">
        <ele>5</ele>
        <time>2009-04-21T10:04:16Z</time>
      </trkpt>
      <trkpt lat="50.50688" lon="1.66532">
        <ele>5</ele>
        <time>2009-04-21T10:04:18Z</time>
      </trkpt>
      <trkpt lat="50.50684" lon="1.66553">
        <ele>5</ele>
        <time>2009-04-21T10:04:20Z</time>
      </trkpt>
      <trkpt lat="50.50681" lon="1.66576">
        <ele>5</ele>
        <time>2009-04-21T10:04:22Z</time>
      </trkpt>
      <trkpt lat="50.50677" lon="1.66598">
        <ele>5</ele>
        <time>2009-04-21T10:04:24Z</time>
      </trkpt>
      <trkpt lat="50.50674" lon="1.6662">
        <ele>5</ele>
        <time>2009-04-21T10:04:26Z</time>
      </trkpt>
      <trkpt lat="50.50671" lon="1.66642">
        <ele>5</ele>
        <time>2009-04-21T10:04:28Z</time>
      </trkpt>
      <trkpt lat="50.50667" lon="1.66664">
        <ele>5</ele>
        <time>2009-04-21T10:04:30Z</time>
      </trkpt>
      <trkpt lat="50.50665" lon="1.66686">
        <ele>5</ele>
        <time>2009-04-21T10:04:32Z</time>
      </trkpt>
      <trkpt lat="50.50663" lon="1.66709">
        <ele>5</ele>
        <time>2009-04-21T10:04:34Z</time>
      </trkpt>
      <trkpt lat="50.50661" lon="1.66731">
        <ele>5</ele>
        <time>2009-04-21T10:04:36Z</time>
      </trkpt>
      <trkpt lat="50.50659" lon="1.66753">
        <ele>5</ele>
        <time>2009-04-21T10:04:38Z</time>
      </trkpt>
      <trkpt lat="50.50658" lon="1.66776">
        <ele>5</ele>
        <time>2009-04-21T10:04:40Z</time>
      </trkpt>
      <trkpt lat="50.50657" lon="1.66798">
        <ele>5</ele>
        <time>2009-04-21T10:04:42Z</time>
      </trkpt>
      <trkpt lat="50.50657" lon="1.66822">
        <ele>5</ele>
        <time>2009-04-21T10:04:44Z</time>
      </trkpt>
      <trkpt lat="50.50657" lon="1.66845">
        <ele>5</ele>
        <time>2009-04-21T10:04:46Z</time>
      </trkpt>
      <trkpt lat="50.50657" lon="1.66868">
        <ele>5</ele>
        <time>2009-04-21T10:04:48Z</time>
      </trkpt>
      <trkpt lat="50.50656" lon="1.66891">
        <ele>5</ele>
        <time>2009-04-21T10:04:50Z</time>
      </trkpt>
      <trkpt lat="50.50653" lon="1.66913">
        <ele>5</ele>
        <time>2009-04-21T10:04:52Z</time>
      </trkpt>
      <trkpt lat="50.50648" lon="1.66935">
        <ele>5</ele>
        <time>2009-04-21T10:04:54Z</time>
      </trkpt>
      <trkpt lat="50.50642" lon="1.66956">
        <ele>5</ele>
        <time>2009-04-21T10:04:56Z</time>
      </trkpt>
      <trkpt lat="50.50635" lon="1.66975">
        <ele>5</ele>
        <time>2009-04-21T10:04:58Z</time>
      </trkpt>
      <trkpt lat="50.50627" lon="1.66993">
        <ele>5</ele>
        <time>2009-04-21T10:05:00Z</time>
      </trkpt>
      <trkpt lat="50.50619" lon="1.67011">
        <ele>5</ele>
        <time>2009-04-21T10:05:02Z</time>
      </trkpt>
      <trkpt lat="50.50611" lon="1.67029">
        <ele>5</ele>
        <time>2009-04-21T10:05:04Z</time>
      </trkpt>
      <trkpt lat="50.50603" lon="1.67049">
        <ele>5</ele>
        <time>2009-04-21T10:05:06Z</time>
      </trkpt>
      <trkpt lat="50.50596" lon="1.67069">
        <ele>5</ele>
        <time>2009-04-21T10:05:08Z</time>
      </trkpt>
      <trkpt lat="50.50589" lon="1.67089">
        <ele>5</ele>
        <time>2009-04-21T10:05:10Z</time>
      </trkpt>
      <trkpt lat="50.50581" lon="1.6711">
        <ele>5</ele>
        <time>2009-04-21T10:05:12Z</time>
      </trkpt>
      <trkpt lat="50.50574" lon="1.67131">
        <ele>5</ele>
        <time>2009-04-21T10:05:14Z</time>
      </trkpt>
      <trkpt lat="50.50567" lon="1.67151">
        <ele>5</ele>
        <time>2009-04-21T10:05:16Z</time>
      </trkpt>
      <trkpt lat="50.5056" lon="1.67172">
        <ele>5</ele>
        <time>2009-04-21T10:05:18Z</time>
      </trkpt>
      <trkpt lat="50.50553" lon="1.67193">
        <ele>5</ele>
        <time>2009-04-21T10:05:20Z</time>
      </trkpt>
      <trkpt lat="50.50547" lon="1.67213">
        <ele>5</ele>
        <time>2009-04-21T10:05:22Z</time>
      </trkpt>
      <trkpt lat="50.5054" lon="1.67235">
        <ele>5</ele>
        <time>2009-04-21T10:05:24Z</time>
      </trkpt>
      <trkpt lat="50.50533" lon="1.67256">
        <ele>5</ele>
        <time>2009-04-21T10:05:26Z</time>
      </trkpt>
      <trkpt lat="50.50526" lon="1.67275">
        <ele>5</ele>
        <time>2009-04-21T10:05:28Z</time>
      </trkpt>
      <trkpt lat="50.5052" lon="1.67295">
        <ele>5</ele>
        <time>2009-04-21T10:05:30Z</time>
      </trkpt>
      <trkpt lat="50.50513" lon="1.67315">
        <ele>5</ele>
        <time>2009-04-21T10:05:32Z</time>
      </trkpt>
      <trkpt lat="50.50506" lon="1.67335">
        <ele>5</ele>
        <time>2009-04-21T10:05:34Z</time>
      </trkpt>
      <trkpt lat="50.505" lon="1.67354">
        <ele>5</ele>
        <time>2009-04-21T10:05:36Z</time>
      </trkpt>
      <trkpt lat="50.50494" lon="1.67374">
        <ele>5</ele>
        <time>2009-04-21T10:05:38Z</time>
      </trkpt>
      <trkpt lat="50.50488" lon="1.67395">
        <ele>5</ele>
        <time>2009-04-21T10:05:40Z</time>
      </trkpt>
      <trkpt lat="50.50482" lon="1.67415">
        <ele>5</ele>
        <time>2009-04-21T10:05:42Z</time>
      </trkpt>
      <trkpt lat="50.50477" lon="1.67436">
        <ele>10</ele>
        <time>2009-04-21T10:05:44Z</time>
      </trkpt>
      <trkpt lat="50.5047" lon="1.67456">
        <ele>10</ele>
        <time>2009-04-21T10:05:46Z</time>
      </trkpt>
      <trkpt lat="50.50463" lon="1.67476">
        <ele>10</ele>
        <time>2009-04-21T10:05:48Z</time>
      </trkpt>
      <trkpt lat="50.50457" lon="1.67496">
        <ele>10</ele>
        <time>2009-04-21T10:05:50Z</time>
      </trkpt>
      <trkpt lat="50.50451" lon="1.67516">
        <ele>10</ele>
        <time>2009-04-21T10:05:52Z</time>
      </trkpt>
      <trkpt lat="50.50445" lon="1.67537">
        <ele>10</ele>
        <time>2009-04-21T10:05:54Z</time>
      </trkpt>
      <trkpt lat="50.50439" lon="1.67557">
        <ele>10</ele>
        <time>2009-04-21T10:05:56Z</time>
      </trkpt>
      <trkpt lat="50.50434" lon="1.67576">
        <ele>10</ele>
        <time>2009-04-21T10:05:58Z</time>
      </trkpt>
      <trkpt lat="50.50428" lon="1.67596">
        <ele>10</ele>
        <time>2009-04-21T10:06:00Z</time>
      </trkpt>
      <trkpt lat="50.50422" lon="1.67616">
        <ele>10</ele>
        <time>2009-04-21T10:06:02Z</time>
      </trkpt>
      <trkpt lat="50.50417" lon="1.67636">
        <ele>10</ele>
        <time>2009-04-21T10:06:04Z</time>
      </trkpt>
      <trkpt lat="50.50411" lon="1.67656">
        <ele>10</ele>
        <time>2009-04-21T10:06:06Z</time>
      </trkpt>
      <trkpt lat="50.50406" lon="1.67677">
        <ele>10</ele>
        <time>2009-04-21T10:06:08Z</time>
      </trkpt>
      <trkpt lat="50.50403" lon="1.67698">
        <ele>10</ele>
        <time>2009-04-21T10:06:10Z</time>
      </trkpt>
      <trkpt lat="50.50401" lon="1.67719">
        <ele>10</ele>
        <time>2009-04-21T10:06:12Z</time>
      </trkpt>
      <trkpt lat="50.50401" lon="1.6774">
        <ele>10</ele>
        <time>2009-04-21T10:06:14Z</time>
      </trkpt>
      <trkpt lat="50.50403" lon="1.6776">
        <ele>10</ele>
        <time>2009-04-21T10:06:16Z</time>
      </trkpt>
      <trkpt lat="50.50406" lon="1.6778">
        <ele>10</ele>
        <time>2009-04-21T10:06:18Z</time>
      </trkpt>
      <trkpt lat="50.5041" lon="1.67799">
        <ele>10</ele>
        <time>2009-04-21T10:06:20Z</time>
      </trkpt>
      <trkpt lat="50.50415" lon="1.67819">
        <ele>10</ele>
        <time>2009-04-21T10:06:22Z</time>
      </trkpt>
      <trkpt lat="50.50418" lon="1.67837">
        <ele>10</ele>
        <time>2009-04-21T10:06:24Z</time>
      </trkpt>
      <trkpt lat="50.50416" lon="1.67854">
        <ele>10</ele>
        <time>2009-04-21T10:06:26Z</time>
      </trkpt>
      <trkpt lat="50.50413" lon="1.6787">
        <ele>10</ele>
        <time>2009-04-21T10:06:28Z</time>
      </trkpt>
      <trkpt lat="50.50413" lon="1.67886">
        <ele>10</ele>
        <time>2009-04-21T10:06:30Z</time>
      </trkpt>
      <trkpt lat="50.50413" lon="1.67903">
        <ele>10</ele>
        <time>2009-04-21T10:06:32Z</time>
      </trkpt>
      <trkpt lat="50.50409" lon="1.67919">
        <ele>10</ele>
        <time>2009-04-21T10:06:34Z</time>
      </trkpt>
      <trkpt lat="50.50402" lon="1.67936">
        <ele>10</ele>
        <time>2009-04-21T10:06:36Z</time>
      </trkpt>
      <trkpt lat="50.50394" lon="1.67953">
        <ele>10</ele>
        <time>2009-04-21T10:06:38Z</time>
      </trkpt>
      <trkpt lat="50.50386" lon="1.67971">
        <ele>10</ele>
        <time>2009-04-21T10:06:40Z</time>
      </trkpt>
      <trkpt lat="50.50376" lon="1.67989">
        <ele>10</ele>
        <time>2009-04-21T10:06:42Z</time>
      </trkpt>
      <trkpt lat="50.50366" lon="1.68008">
        <ele>10</ele>
        <time>2009-04-21T10:06:44Z</time>
      </trkpt>
      <trkpt lat="50.50357" lon="1.68028">
        <ele>10</ele>
        <time>2009-04-21T10:06:46Z</time>
      </trkpt>
      <trkpt lat="50.50349" lon="1.68051">
        <ele>10</ele>
        <time>2009-04-21T10:06:48Z</time>
      </trkpt>
      <trkpt lat="50.50343" lon="1.68074">
        <ele>10</ele>
        <time>2009-04-21T10:06:50Z</time>
      </trkpt>
      <trkpt lat="50.50339" lon="1.68097">
        <ele>10</ele>
        <time>2009-04-21T10:06:52Z</time>
      </trkpt>
      <trkpt lat="50.50337" lon="1.68119">
        <ele>10</ele>
        <time>2009-04-21T10:06:54Z</time>
      </trkpt>
      <trkpt lat="50.50337" lon="1.68141">
        <ele>10</ele>
        <time>2009-04-21T10:06:56Z</time>
      </trkpt>
      <trkpt lat="50.50335" lon="1.68163">
        <ele>10</ele>
        <time>2009-04-21T10:06:58Z</time>
      </trkpt>
      <trkpt lat="50.50329" lon="1.68184">
        <ele>10</ele>
        <time>2009-04-21T10:07:00Z</time>
      </trkpt>
      <trkpt lat="50.50319" lon="1.68201">
        <ele>10</ele>
        <time>2009-04-21T10:07:02Z</time>
      </trkpt>
      <trkpt lat="50.50307" lon="1.68213">
        <ele>10</ele>
        <time>2009-04-21T10:07:04Z</time>
      </trkpt>
      <trkpt lat="50.50294" lon="1.68226">
        <ele>10</ele>
        <time>2009-04-21T10:07:06Z</time>
      </trkpt>
      <trkpt lat="50.50282" lon="1.6824">
        <ele>10</ele>
        <time>2009-04-21T10:07:08Z</time>
      </trkpt>
      <trkpt lat="50.50272" lon="1.68258">
        <ele>10</ele>
        <time>2009-04-21T10:07:10Z</time>
      </trkpt>
      <trkpt lat="50.50264" lon="1.68278">
        <ele>10</ele>
        <time>2009-04-21T10:07:12Z</time>
      </trkpt>
      <trkpt lat="50.50258" lon="1.68299">
        <ele>10</ele>
        <time>2009-04-21T10:07:14Z</time>
      </trkpt>
      <trkpt lat="50.50253" lon="1.68321">
        <ele>10</ele>
        <time>2009-04-21T10:07:16Z</time>
      </trkpt>
      <trkpt lat="50.50249" lon="1.68343">
        <ele>10</ele>
        <time>2009-04-21T10:07:18Z</time>
      </trkpt>
      <trkpt lat="50.50245" lon="1.68365">
        <ele>10</ele>
        <time>2009-04-21T10:07:20Z</time>
      </trkpt>
      <trkpt lat="50.50242" lon="1.68387">
        <ele>10</ele>
        <time>2009-04-21T10:07:22Z</time>
      </trkpt>
      <trkpt lat="50.50239" lon="1.68409">
        <ele>10</ele>
        <time>2009-04-21T10:07:24Z</time>
      </trkpt>
      <trkpt lat="50.50235" lon="1.68431">
        <ele>10</ele>
        <time>2009-04-21T10:07:26Z</time>
      </trkpt>
      <trkpt lat="50.50233" lon="1.68453">
        <ele>10</ele>
        <time>2009-04-21T10:07:28Z</time>
      </trkpt>
      <trkpt lat="50.50229" lon="1.68475">
        <ele>10</ele>
        <time>2009-04-21T10:07:30Z</time>
      </trkpt>
      <trkpt lat="50.50226" lon="1.68498">
        <ele>10</ele>
        <time>2009-04-21T10:07:32Z</time>
      </trkpt>
      <trkpt lat="50.50224" lon="1.6852">
        <ele>10</ele>
        <time>2009-04-21T10:07:34Z</time>
      </trkpt>
      <trkpt lat="50.50222" lon="1.68542">
        <ele>10</ele>
        <time>2009-04-21T10:07:36Z</time>
      </trkpt>
      <trkpt lat="50.5022" lon="1.68564">
        <ele>10</ele>
        <time>2009-04-21T10:07:38Z</time>
      </trkpt>
      <trkpt lat="50.50218" lon="1.68585">
        <ele>10</ele>
        <time>2009-04-21T10:07:40Z</time>
      </trkpt>
      <trkpt lat="50.50217" lon="1.68607">
        <ele>10</ele>
        <time>2009-04-21T10:07:42Z</time>
      </trkpt>
      <trkpt lat="50.50216" lon="1.68628">
        <ele>10</ele>
        <time>2009-04-21T10:07:44Z</time>
      </trkpt>
      <trkpt lat="50.50216" lon="1.6865">
        <ele>10</ele>
        <time>2009-04-21T10:07:46Z</time>
      </trkpt>
      <trkpt lat="50.50217" lon="1.68672">
        <ele>10</ele>
        <time>2009-04-21T10:07:48Z</time>
      </trkpt>
      <trkpt lat="50.50218" lon="1.68695">
        <ele>10</ele>
        <time>2009-04-21T10:07:50Z</time>
      </trkpt>
      <trkpt lat="50.5022" lon="1.68716">
        <ele>10</ele>
        <time>2009-04-21T10:07:52Z</time>
      </trkpt>
      <trkpt lat="50.50222" lon="1.68739">
        <ele>10</ele>
        <time>2009-04-21T10:07:54Z</time>
      </trkpt>
      <trkpt lat="50.50225" lon="1.68762">
        <ele>10</ele>
        <time>2009-04-21T10:07:56Z</time>
      </trkpt>
      <trkpt lat="50.50227" lon="1.68785">
        <ele>10</ele>
        <time>2009-04-21T10:07:58Z</time>
      </trkpt>
      <trkpt lat="50.50229" lon="1.68807">
        <ele>10</ele>
        <time>2009-04-21T10:08:00Z</time>
      </trkpt>
      <trkpt lat="50.50231" lon="1.6883">
        <ele>10</ele>
        <time>2009-04-21T10:08:02Z</time>
      </trkpt>
      <trkpt lat="50.50234" lon="1.68853">
        <ele>10</ele>
        <time>2009-04-21T10:08:04Z</time>
      </trkpt>
      <trkpt lat="50.50235" lon="1.68874">
        <ele>10</ele>
        <time>2009-04-21T10:08:06Z</time>
      </trkpt>
      <trkpt lat="50.50237" lon="1.68898">
        <ele>10</ele>
        <time>2009-04-21T10:08:08Z</time>
      </trkpt>
      <trkpt lat="50.50237" lon="1.6892">
        <ele>10</ele>
        <time>2009-04-21T10:08:10Z</time>
      </trkpt>
      <trkpt lat="50.50236" lon="1.68943">
        <ele>10</ele>
        <time>2009-04-21T10:08:12Z</time>
      </trkpt>
      <trkpt lat="50.50233" lon="1.68965">
        <ele>10</ele>
        <time>2009-04-21T10:08:14Z</time>
      </trkpt>
      <trkpt lat="50.5023" lon="1.68987">
        <ele>10</ele>
        <time>2009-04-21T10:08:16Z</time>
      </trkpt>
      <trkpt lat="50.50225" lon="1.69008">
        <ele>10</ele>
        <time>2009-04-21T10:08:18Z</time>
      </trkpt>
      <trkpt lat="50.5022" lon="1.69028">
        <ele>10</ele>
        <time>2009-04-21T10:08:20Z</time>
      </trkpt>
      <trkpt lat="50.50214" lon="1.69048">
        <ele>10</ele>
        <time>2009-04-21T10:08:22Z</time>
      </trkpt>
      <trkpt lat="50.50206" lon="1.69066">
        <ele>10</ele>
        <time>2009-04-21T10:08:24Z</time>
      </trkpt>
      <trkpt lat="50.50197" lon="1.69082">
        <ele>10</ele>
        <time>2009-04-21T10:08:26Z</time>
      </trkpt>
      <trkpt lat="50.50184" lon="1.69095">
        <ele>10</ele>
        <time>2009-04-21T10:08:28Z</time>
      </trkpt>
      <trkpt lat="50.50171" lon="1.69105">
        <ele>5</ele>
        <time>2009-04-21T10:08:30Z</time>
      </trkpt>
      <trkpt lat="50.50158" lon="1.69115">
        <ele>5</ele>
        <time>2009-04-21T10:08:32Z</time>
      </trkpt>
      <trkpt lat="50.50145" lon="1.69124">
        <ele>5</ele>
        <time>2009-04-21T10:08:34Z</time>
      </trkpt>
      <trkpt lat="50.50132" lon="1.69132">
        <ele>5</ele>
        <time>2009-04-21T10:08:36Z</time>
      </trkpt>
      <trkpt lat="50.50119" lon="1.6914">
        <ele>5</ele>
        <time>2009-04-21T10:08:38Z</time>
      </trkpt>
      <trkpt lat="50.50105" lon="1.69149">
        <ele>5</ele>
        <time>2009-04-21T10:08:40Z</time>
      </trkpt>
      <trkpt lat="50.50094" lon="1.6916">
        <ele>5</ele>
        <time>2009-04-21T10:08:42Z</time>
      </trkpt>
      <trkpt lat="50.50083" lon="1.69173">
        <ele>5</ele>
        <time>2009-04-21T10:08:44Z</time>
      </trkpt>
      <trkpt lat="50.50073" lon="1.6919">
        <ele>5</ele>
        <time>2009-04-21T10:08:46Z</time>
      </trkpt>
      <trkpt lat="50.50064" lon="1.69206">
        <ele>5</ele>
        <time>2009-04-21T10:08:48Z</time>
      </trkpt>
      <trkpt lat="50.50054" lon="1.69221">
        <ele>5</ele>
        <time>2009-04-21T10:08:50Z</time>
      </trkpt>
      <trkpt lat="50.50044" lon="1.69238">
        <ele>5</ele>
        <time>2009-04-21T10:08:52Z</time>
      </trkpt>
      <trkpt lat="50.50035" lon="1.69255">
        <ele>5</ele>
        <time>2009-04-21T10:08:54Z</time>
      </trkpt>
      <trkpt lat="50.50026" lon="1.69273">
        <ele>5</ele>
        <time>2009-04-21T10:08:56Z</time>
      </trkpt>
      <trkpt lat="50.50017" lon="1.69292">
        <ele>5</ele>
        <time>2009-04-21T10:08:58Z</time>
      </trkpt>
      <trkpt lat="50.50009" lon="1.69309">
        <ele>5</ele>
        <time>2009-04-21T10:09:00Z</time>
      </trkpt>
      <trkpt lat="50.50001" lon="1.69327">
        <ele>5</ele>
        <time>2009-04-21T10:09:02Z</time>
      </trkpt>
      <trkpt lat="50.49994" lon="1.69345">
        <ele>5</ele>
        <time>2009-04-21T10:09:04Z</time>
      </trkpt>
      <trkpt lat="50.49987" lon="1.69362">
        <ele>5</ele>
        <time>2009-04-21T10:09:06Z</time>
      </trkpt>
      <trkpt lat="50.49978" lon="1.6938">
        <ele>5</ele>
        <time>2009-04-21T10:09:08Z</time>
      </trkpt>
      <trkpt lat="50.4997" lon="1.69398">
        <ele>5</ele>
        <time>2009-04-21T10:09:10Z</time>
      </trkpt>
      <trkpt lat="50.49961" lon="1.69415">
        <ele>5</ele>
        <time>2009-04-21T10:09:12Z</time>
      </trkpt>
      <trkpt lat="50.49952" lon="1.69433">
        <ele>5</ele>
        <time>2009-04-21T10:09:14Z</time>
      </trkpt>
      <trkpt lat="50.49944" lon="1.69449">
        <ele>5</ele>
        <time>2009-04-21T10:09:16Z</time>
      </trkpt>
      <trkpt lat="50.49936" lon="1.69465">
        <ele>5</ele>
        <time>2009-04-21T10:09:18Z</time>
      </trkpt>
      <trkpt lat="50.49929" lon="1.69482">
        <ele>5</ele>
        <time>2009-04-21T10:09:20Z</time>
      </trkpt>
      <trkpt lat="50.49921" lon="1.69499">
        <ele>5</ele>
        <time>2009-04-21T10:09:22Z</time>
      </trkpt>
      <trkpt lat="50.49914" lon="1.69517">
        <ele>5</ele>
        <time>2009-04-21T10:09:24Z</time>
      </trkpt>
      <trkpt lat="50.49906" lon="1.69534">
        <ele>5</ele>
        <time>2009-04-21T10:09:26Z</time>
      </trkpt>
      <trkpt lat="50.49899" lon="1.69552">
        <ele>5</ele>
        <time>2009-04-21T10:09:28Z</time>
      </trkpt>
      <trkpt lat="50.49892" lon="1.6957">
        <ele>5</ele>
        <time>2009-04-21T10:09:30Z</time>
      </trkpt>
      <trkpt lat="50.49886" lon="1.69587">
        <ele>5</ele>
        <time>2009-04-21T10:09:32Z</time>
      </trkpt>
      <trkpt lat="50.49879" lon="1.69606">
        <ele>5</ele>
        <time>2009-04-21T10:09:34Z</time>
      </trkpt>
      <trkpt lat="50.49872" lon="1.69624">
        <ele>5</ele>
        <time>2009-04-21T10:09:36Z</time>
      </trkpt>
      <trkpt lat="50.49865" lon="1.69642">
        <ele>5</ele>
        <time>2009-04-21T10:09:38Z</time>
      </trkpt>
      <trkpt lat="50.49858" lon="1.69661">
        <ele>5</ele>
        <time>2009-04-21T10:09:40Z</time>
      </trkpt>
      <trkpt lat="50.49851" lon="1.6968">
        <ele>5</ele>
        <time>2009-04-21T10:09:42Z</time>
      </trkpt>
      <trkpt lat="50.49844" lon="1.69698">
        <ele>5</ele>
        <time>2009-04-21T10:09:44Z</time>
      </trkpt>
      <trkpt lat="50.49837" lon="1.69717">
        <ele>5</ele>
        <time>2009-04-21T10:09:46Z</time>
      </trkpt>
      <trkpt lat="50.49829" lon="1.69735">
        <ele>5</ele>
        <time>2009-04-21T10:09:48Z</time>
      </trkpt>
      <trkpt lat="50.49822" lon="1.69752">
        <ele>5</ele>
        <time>2009-04-21T10:09:50Z</time>
      </trkpt>
      <trkpt lat="50.49814" lon="1.6977">
        <ele>5</ele>
        <time>2009-04-21T10:09:52Z</time>
      </trkpt>
      <trkpt lat="50.49805" lon="1.69787">
        <ele>5</ele>
        <time>2009-04-21T10:09:54Z</time>
      </trkpt>
      <trkpt lat="50.49796" lon="1.69803">
        <ele>5</ele>
        <time>2009-04-21T10:09:56Z</time>
      </trkpt>
      <trkpt lat="50.49786" lon="1.6982">
        <ele>5</ele>
        <time>2009-04-21T10:09:58Z</time>
      </trkpt>
      <trkpt lat="50.49777" lon="1.69836">
        <ele>5</ele>
        <time>2009-04-21T10:10:00Z</time>
      </trkpt>
      <trkpt lat="50.49767" lon="1.69852">
        <ele>5</ele>
        <time>2009-04-21T10:10:02Z</time>
      </trkpt>
      <trkpt lat="50.49756" lon="1.69867">
        <ele>5</ele>
        <time>2009-04-21T10:10:04Z</time>
      </trkpt>
      <trkpt lat="50.49747" lon="1.69883">
        <ele>5</ele>
        <time>2009-04-21T10:10:06Z</time>
      </trkpt>
      <trkpt lat="50.49738" lon="1.69898">
        <ele>5</ele>
        <time>2009-04-21T10:10:08Z</time>
      </trkpt>
      <trkpt lat="50.49729" lon="1.69913">
        <ele>5</ele>
        <time>2009-04-21T10:10:10Z</time>
      </trkpt>
      <trkpt lat="50.4972" lon="1.69927">
        <ele>5</ele>
        <time>2009-04-21T10:10:12Z</time>
      </trkpt>
      <trkpt lat="50.49708" lon="1.69932">
        <ele>5</ele>
        <time>2009-04-21T10:10:14Z</time>
      </trkpt>
      <trkpt lat="50.49694" lon="1.69927">
        <ele>5</ele>
        <time>2009-04-21T10:10:16Z</time>
      </trkpt>
      <trkpt lat="50.49681" lon="1.69917">
        <ele>5</ele>
        <time>2009-04-21T10:10:18Z</time>
      </trkpt>
      <trkpt lat="50.49668" lon="1.69907">
        <ele>5</ele>
        <time>2009-04-21T10:10:20Z</time>
      </trkpt>
      <trkpt lat="50.49655" lon="1.69896">
        <ele>5</ele>
        <time>2009-04-21T10:10:22Z</time>
      </trkpt>
      <trkpt lat="50.49642" lon="1.69884">
        <ele>5</ele>
        <time>2009-04-21T10:10:24Z</time>
      </trkpt>
      <trkpt lat="50.49629" lon="1.69874">
        <ele>5</ele>
        <time>2009-04-21T10:10:26Z</time>
      </trkpt>
      <trkpt lat="50.49617" lon="1.69863">
        <ele>5</ele>
        <time>2009-04-21T10:10:28Z</time>
      </trkpt>
      <trkpt lat="50.49603" lon="1.69853">
        <ele>5</ele>
        <time>2009-04-21T10:10:30Z</time>
      </trkpt>
      <trkpt lat="50.4959" lon="1.69843">
        <ele>5</ele>
        <time>2009-04-21T10:10:32Z</time>
      </trkpt>
      <trkpt lat="50.49578" lon="1.69832">
        <ele>5</ele>
        <time>2009-04-21T10:10:34Z</time>
      </trkpt>
      <trkpt lat="50.49565" lon="1.69822">
        <ele>5</ele>
        <time>2009-04-21T10:10:36Z</time>
      </trkpt>
      <trkpt lat="50.49552" lon="1.69811">
        <ele>5</ele>
        <time>2009-04-21T10:10:38Z</time>
      </trkpt>
      <trkpt lat="50.4954" lon="1.69801">
        <ele>5</ele>
        <time>2009-04-21T10:10:40Z</time>
      </trkpt>
      <trkpt lat="50.49527" lon="1.69791">
        <ele>5</ele>
        <time>2009-04-21T10:10:42Z</time>
      </trkpt>
      <trkpt lat="50.49515" lon="1.69781">
        <ele>5</ele>
        <time>2009-04-21T10:10:44Z</time>
      </trkpt>
      <trkpt lat="50.49502" lon="1.6977">
        <ele>5</ele>
        <time>2009-04-21T10:10:46Z</time>
      </trkpt>
      <trkpt lat="50.49489" lon="1.6976">
        <ele>5</ele>
        <time>2009-04-21T10:10:48Z</time>
      </trkpt>
      <trkpt lat="50.49477" lon="1.6975">
        <ele>5</ele>
        <time>2009-04-21T10:10:50Z</time>
      </trkpt>
      <trkpt lat="50.49465" lon="1.69739">
        <ele>5</ele>
        <time>2009-04-21T10:10:52Z</time>
      </trkpt>
      <trkpt lat="50.49452" lon="1.6973">
        <ele>5</ele>
        <time>2009-04-21T10:10:54Z</time>
      </trkpt>
      <trkpt lat="50.49439" lon="1.6972">
        <ele>5</ele>
        <time>2009-04-21T10:10:56Z</time>
      </trkpt>
      <trkpt lat="50.49426" lon="1.69709">
        <ele>5</ele>
        <time>2009-04-21T10:10:58Z</time>
      </trkpt>
      <trkpt lat="50.49414" lon="1.69698">
        <ele>5</ele>
        <time>2009-04-21T10:11:00Z</time>
      </trkpt>
      <trkpt lat="50.49402" lon="1.69687">
        <ele>5</ele>
        <time>2009-04-21T10:11:02Z</time>
      </trkpt>
      <trkpt lat="50.4939" lon="1.69677">
        <ele>5</ele>
        <time>2009-04-21T10:11:04Z</time>
      </trkpt>
      <trkpt lat="50.49377" lon="1.69667">
        <ele>5</ele>
        <time>2009-04-21T10:11:06Z</time>
      </trkpt>
      <trkpt lat="50.49365" lon="1.69657">
        <ele>5</ele>
        <time>2009-04-21T10:11:08Z</time>
      </trkpt>
      <trkpt lat="50.49352" lon="1.69646">
        <ele>5</ele>
        <time>2009-04-21T10:11:10Z</time>
      </trkpt>
      <trkpt lat="50.49339" lon="1.69635">
        <ele>5</ele>
        <time>2009-04-21T10:11:12Z</time>
      </trkpt>
      <trkpt lat="50.49327" lon="1.69625">
        <ele>5</ele>
        <time>2009-04-21T10:11:14Z</time>
      </trkpt>
      <trkpt lat="50.49314" lon="1.69615">
        <ele>5</ele>
        <time>2009-04-21T10:11:16Z</time>
      </trkpt>
      <trkpt lat="50.49301" lon="1.69606">
        <ele>5</ele>
        <time>2009-04-21T10:11:18Z</time>
      </trkpt>
      <trkpt lat="50.49289" lon="1.69595">
        <ele>5</ele>
        <time>2009-04-21T10:11:20Z</time>
      </trkpt>
      <trkpt lat="50.49277" lon="1.69587">
        <ele>5</ele>
        <time>2009-04-21T10:11:22Z</time>
      </trkpt>
      <trkpt lat="50.49264" lon="1.6958">
        <ele>5</ele>
        <time>2009-04-21T10:11:24Z</time>
      </trkpt>
      <trkpt lat="50.4925" lon="1.69574">
        <ele>5</ele>
        <time>2009-04-21T10:11:26Z</time>
      </trkpt>
      <trkpt lat="50.49237" lon="1.69572">
        <ele>5</ele>
        <time>2009-04-21T10:11:28Z</time>
      </trkpt>
      <trkpt lat="50.49223" lon="1.69571">
        <ele>5</ele>
        <time>2009-04-21T10:11:30Z</time>
      </trkpt>
      <trkpt lat="50.4921" lon="1.69571">
        <ele>5</ele>
        <time>2009-04-21T10:11:32Z</time>
      </trkpt>
      <trkpt lat="50.49196" lon="1.69571">
        <ele>5</ele>
        <time>2009-04-21T10:11:34Z</time>
      </trkpt>
      <trkpt lat="50.49182" lon="1.69572">
        <ele>5</ele>
        <time>2009-04-21T10:11:36Z</time>
      </trkpt>
      <trkpt lat="50.49169" lon="1.69572">
        <ele>5</ele>
        <time>2009-04-21T10:11:38Z</time>
      </trkpt>
      <trkpt lat="50.49155" lon="1.69573">
        <ele>5</ele>
        <time>2009-04-21T10:11:40Z</time>
      </trkpt>
      <trkpt lat="50.49141" lon="1.69574">
        <ele>5</ele>
        <time>2009-04-21T10:11:42Z</time>
      </trkpt>
      <trkpt lat="50.49127" lon="1.69572">
        <ele>5</ele>
        <time>2009-04-21T10:11:44Z</time>
      </trkpt>
      <trkpt lat="50.49089" lon="1.69559">
        <ele>5</ele>
        <time>2009-04-21T10:11:49Z</time>
      </trkpt>
      <trkpt lat="50.49075" lon="1.69553">
        <ele>5</ele>
        <time>2009-04-21T10:11:51Z</time>
      </trkpt>
      <trkpt lat="50.4906" lon="1.69545">
        <ele>5</ele>
        <time>2009-04-21T10:11:53Z</time>
      </trkpt>
      <trkpt lat="50.49045" lon="1.69539">
        <ele>5</ele>
        <time>2009-04-21T10:11:55Z</time>
      </trkpt>
      <trkpt lat="50.4903" lon="1.69534">
        <ele>5</ele>
        <time>2009-04-21T10:11:57Z</time>
      </trkpt>
      <trkpt lat="50.49017" lon="1.69528">
        <ele>5</ele>
        <time>2009-04-21T10:11:59Z</time>
      </trkpt>
      <trkpt lat="50.49003" lon="1.69522">
        <ele>5</ele>
        <time>2009-04-21T10:12:01Z</time>
      </trkpt>
      <trkpt lat="50.48989" lon="1.69516">
        <ele>5</ele>
        <time>2009-04-21T10:12:03Z</time>
      </trkpt>
      <trkpt lat="50.48976" lon="1.69509">
        <ele>5</ele>
        <time>2009-04-21T10:12:05Z</time>
      </trkpt>
      <trkpt lat="50.48962" lon="1.69503">
        <ele>5</ele>
        <time>2009-04-21T10:12:07Z</time>
      </trkpt>
      <trkpt lat="50.48949" lon="1.69498">
        <ele>5</ele>
        <time>2009-04-21T10:12:09Z</time>
      </trkpt>
      <trkpt lat="50.48935" lon="1.69492">
        <ele>5</ele>
        <time>2009-04-21T10:12:11Z</time>
      </trkpt>
      <trkpt lat="50.48922" lon="1.69486">
        <ele>5</ele>
        <time>2009-04-21T10:12:13Z</time>
      </trkpt>
      <trkpt lat="50.48908" lon="1.69481">
        <ele>5</ele>
        <time>2009-04-21T10:12:15Z</time>
      </trkpt>
      <trkpt lat="50.48894" lon="1.69474">
        <ele>5</ele>
        <time>2009-04-21T10:12:17Z</time>
      </trkpt>
      <trkpt lat="50.4888" lon="1.69469">
        <ele>5</ele>
        <time>2009-04-21T10:12:19Z</time>
      </trkpt>
      <trkpt lat="50.48867" lon="1.69462">
        <ele>5</ele>
        <time>2009-04-21T10:12:21Z</time>
      </trkpt>
      <trkpt lat="50.48853" lon="1.69456">
        <ele>5</ele>
        <time>2009-04-21T10:12:23Z</time>
      </trkpt>
      <trkpt lat="50.48839" lon="1.69449">
        <ele>5</ele>
        <time>2009-04-21T10:12:25Z</time>
      </trkpt>
      <trkpt lat="50.48826" lon="1.69443">
        <ele>5</ele>
        <time>2009-04-21T10:12:27Z</time>
      </trkpt>
      <trkpt lat="50.48813" lon="1.69438">
        <ele>5</ele>
        <time>2009-04-21T10:12:29Z</time>
      </trkpt>
      <trkpt lat="50.48799" lon="1.69434">
        <ele>5</ele>
        <time>2009-04-21T10:12:31Z</time>
      </trkpt>
      <trkpt lat="50.48786" lon="1.69431">
        <ele>5</ele>
        <time>2009-04-21T10:12:33Z</time>
      </trkpt>
      <trkpt lat="50.48772" lon="1.69429">
        <ele>5</ele>
        <time>2009-04-21T10:12:35Z</time>
      </trkpt>
      <trkpt lat="50.48759" lon="1.69429">
        <ele>5</ele>
        <time>2009-04-21T10:12:37Z</time>
      </trkpt>
      <trkpt lat="50.48746" lon="1.69429">
        <ele>5</ele>
        <time>2009-04-21T10:12:39Z</time>
      </trkpt>
      <trkpt lat="50.48732" lon="1.69429">
        <ele>5</ele>
        <time>2009-04-21T10:12:41Z</time>
      </trkpt>
      <trkpt lat="50.48719" lon="1.69428">
        <ele>5</ele>
        <time>2009-04-21T10:12:43Z</time>
      </trkpt>
      <trkpt lat="50.48705" lon="1.69427">
        <ele>5</ele>
        <time>2009-04-21T10:12:45Z</time>
      </trkpt>
      <trkpt lat="50.48692" lon="1.69424">
        <ele>5</ele>
        <time>2009-04-21T10:12:47Z</time>
      </trkpt>
      <trkpt lat="50.48679" lon="1.69421">
        <ele>5</ele>
        <time>2009-04-21T10:12:49Z</time>
      </trkpt>
      <trkpt lat="50.48665" lon="1.69418">
        <ele>5</ele>
        <time>2009-04-21T10:12:51Z</time>
      </trkpt>
      <trkpt lat="50.48652" lon="1.69413">
        <ele>5</ele>
        <time>2009-04-21T10:12:53Z</time>
      </trkpt>
      <trkpt lat="50.48639" lon="1.69408">
        <ele>5</ele>
        <time>2009-04-21T10:12:55Z</time>
      </trkpt>
      <trkpt lat="50.48626" lon="1.69402">
        <ele>5</ele>
        <time>2009-04-21T10:12:57Z</time>
      </trkpt>
      <trkpt lat="50.48612" lon="1.69396">
        <ele>5</ele>
        <time>2009-04-21T10:12:59Z</time>
      </trkpt>
      <trkpt lat="50.48598" lon="1.6939">
        <ele>5</ele>
        <time>2009-04-21T10:13:01Z</time>
      </trkpt>
      <trkpt lat="50.48585" lon="1.69382">
        <ele>5</ele>
        <time>2009-04-21T10:13:03Z</time>
      </trkpt>
      <trkpt lat="50.48574" lon="1.69368">
        <ele>5</ele>
        <time>2009-04-21T10:13:05Z</time>
      </trkpt>
      <trkpt lat="50.48567" lon="1.6935">
        <ele>5</ele>
        <time>2009-04-21T10:13:07Z</time>
      </trkpt>
      <trkpt lat="50.4856" lon="1.69332">
        <ele>5</ele>
        <time>2009-04-21T10:13:09Z</time>
      </trkpt>
      <trkpt lat="50.48552" lon="1.69314">
        <ele>5</ele>
        <time>2009-04-21T10:13:11Z</time>
      </trkpt>
      <trkpt lat="50.48543" lon="1.69299">
        <ele>5</ele>
        <time>2009-04-21T10:13:13Z</time>
      </trkpt>
      <trkpt lat="50.48532" lon="1.69284">
        <ele>5</ele>
        <time>2009-04-21T10:13:15Z</time>
      </trkpt>
      <trkpt lat="50.48523" lon="1.6927">
        <ele>5</ele>
        <time>2009-04-21T10:13:17Z</time>
      </trkpt>
      <trkpt lat="50.48513" lon="1.69254">
        <ele>5</ele>
        <time>2009-04-21T10:13:19Z</time>
      </trkpt>
      <trkpt lat="50.48504" lon="1.69239">
        <ele>5</ele>
        <time>2009-04-21T10:13:21Z</time>
      </trkpt>
      <trkpt lat="50.48495" lon="1.69224">
        <ele>5</ele>
        <time>2009-04-21T10:13:23Z</time>
      </trkpt>
      <trkpt lat="50.48485" lon="1.69208">
        <ele>5</ele>
        <time>2009-04-21T10:13:25Z</time>
      </trkpt>
      <trkpt lat="50.48476" lon="1.69192">
        <ele>5</ele>
        <time>2009-04-21T10:13:27Z</time>
      </trkpt>
      <trkpt lat="50.48467" lon="1.69177">
        <ele>5</ele>
        <time>2009-04-21T10:13:29Z</time>
      </trkpt>
      <trkpt lat="50.48456" lon="1.69163">
        <ele>5</ele>
        <time>2009-04-21T10:13:31Z</time>
      </trkpt>
      <trkpt lat="50.48445" lon="1.6915">
        <ele>5</ele>
        <time>2009-04-21T10:13:33Z</time>
      </trkpt>
      <trkpt lat="50.48433" lon="1.69139">
        <ele>5</ele>
        <time>2009-04-21T10:13:35Z</time>
      </trkpt>
      <trkpt lat="50.4842" lon="1.69132">
        <ele>5</ele>
        <time>2009-04-21T10:13:37Z</time>
      </trkpt>
      <trkpt lat="50.48406" lon="1.69123">
        <ele>5</ele>
        <time>2009-04-21T10:13:39Z</time>
      </trkpt>
      <trkpt lat="50.48393" lon="1.69116">
        <ele>5</ele>
        <time>2009-04-21T10:13:41Z</time>
      </trkpt>
      <trkpt lat="50.48379" lon="1.69112">
        <ele>5</ele>
        <time>2009-04-21T10:13:43Z</time>
      </trkpt>
      <trkpt lat="50.48366" lon="1.69113">
        <ele>5</ele>
        <time>2009-04-21T10:13:45Z</time>
      </trkpt>
      <trkpt lat="50.48351" lon="1.69116">
        <ele>5</ele>
        <time>2009-04-21T10:13:47Z</time>
      </trkpt>
      <trkpt lat="50.48338" lon="1.6912">
        <ele>5</ele>
        <time>2009-04-21T10:13:49Z</time>
      </trkpt>
      <trkpt lat="50.48324" lon="1.69125">
        <ele>5</ele>
        <time>2009-04-21T10:13:51Z</time>
      </trkpt>
      <trkpt lat="50.48311" lon="1.69129">
        <ele>5</ele>
        <time>2009-04-21T10:13:53Z</time>
      </trkpt>
      <trkpt lat="50.48298" lon="1.69135">
        <ele>5</ele>
        <time>2009-04-21T10:13:55Z</time>
      </trkpt>
      <trkpt lat="50.48286" lon="1.69138">
        <ele>5</ele>
        <time>2009-04-21T10:13:57Z</time>
      </trkpt>
      <trkpt lat="50.48275" lon="1.69143">
        <ele>5</ele>
        <time>2009-04-21T10:13:59Z</time>
      </trkpt>
      <trkpt lat="50.48264" lon="1.69147">
        <ele>5</ele>
        <time>2009-04-21T10:14:01Z</time>
      </trkpt>
      <trkpt lat="50.48254" lon="1.69151">
        <ele>5</ele>
        <time>2009-04-21T10:14:03Z</time>
      </trkpt>
      <trkpt lat="50.48241" lon="1.69156">
        <ele>5</ele>
        <time>2009-04-21T10:14:06Z</time>
      </trkpt>
      <trkpt lat="50.48232" lon="1.69166">
        <ele>5</ele>
        <time>2009-04-21T10:14:09Z</time>
      </trkpt>
      <trkpt lat="50.48231" lon="1.69187">
        <ele>5</ele>
        <time>2009-04-21T10:14:12Z</time>
      </trkpt>
      <trkpt lat="50.48232" lon="1.69203">
        <ele>5</ele>
        <time>2009-04-21T10:14:14Z</time>
      </trkpt>
      <trkpt lat="50.48232" lon="1.69221">
        <ele>5</ele>
        <time>2009-04-21T10:14:16Z</time>
      </trkpt>
      <trkpt lat="50.48229" lon="1.69239">
        <ele>5</ele>
        <time>2009-04-21T10:14:18Z</time>
      </trkpt>
      <trkpt lat="50.48226" lon="1.69256">
        <ele>5</ele>
        <time>2009-04-21T10:14:20Z</time>
      </trkpt>
      <trkpt lat="50.48222" lon="1.69274">
        <ele>5</ele>
        <time>2009-04-21T10:14:22Z</time>
      </trkpt>
      <trkpt lat="50.48217" lon="1.69291">
        <ele>5</ele>
        <time>2009-04-21T10:14:24Z</time>
      </trkpt>
      <trkpt lat="50.4821" lon="1.69306">
        <ele>5</ele>
        <time>2009-04-21T10:14:26Z</time>
      </trkpt>
      <trkpt lat="50.48202" lon="1.69321">
        <ele>5</ele>
        <time>2009-04-21T10:14:28Z</time>
      </trkpt>
      <trkpt lat="50.48193" lon="1.69333">
        <ele>5</ele>
        <time>2009-04-21T10:14:30Z</time>
      </trkpt>
      <trkpt lat="50.48183" lon="1.69347">
        <ele>5</ele>
        <time>2009-04-21T10:14:32Z</time>
      </trkpt>
      <trkpt lat="50.48173" lon="1.69359">
        <ele>5</ele>
        <time>2009-04-21T10:14:34Z</time>
      </trkpt>
      <trkpt lat="50.48164" lon="1.69372">
        <ele>5</ele>
        <time>2009-04-21T10:14:36Z</time>
      </trkpt>
      <trkpt lat="50.48155" lon="1.69383">
        <ele>5</ele>
        <time>2009-04-21T10:14:38Z</time>
      </trkpt>
      <trkpt lat="50.48147" lon="1.69394">
        <ele>5</ele>
        <time>2009-04-21T10:14:40Z</time>
      </trkpt>
      <trkpt lat="50.48139" lon="1.69403">
        <ele>5</ele>
        <time>2009-04-21T10:14:42Z</time>
      </trkpt>
      <trkpt lat="50.48131" lon="1.69412">
        <ele>5</ele>
        <time>2009-04-21T10:14:44Z</time>
      </trkpt>
      <trkpt lat="50.48124" lon="1.69422">
        <ele>5</ele>
        <time>2009-04-21T10:14:46Z</time>
      </trkpt>
      <trkpt lat="50.48116" lon="1.69432">
        <ele>5</ele>
        <time>2009-04-21T10:14:48Z</time>
      </trkpt>
      <trkpt lat="50.48109" lon="1.69441">
        <ele>5</ele>
        <time>2009-04-21T10:14:50Z</time>
      </trkpt>
      <trkpt lat="50.48102" lon="1.6945">
        <ele>5</ele>
        <time>2009-04-21T10:14:52Z</time>
      </trkpt>
      <trkpt lat="50.48093" lon="1.69462">
        <ele>5</ele>
        <time>2009-04-21T10:14:55Z</time>
      </trkpt>
      <trkpt lat="50.48084" lon="1.69471">
        <ele>5</ele>
        <time>2009-04-21T10:14:58Z</time>
      </trkpt>
      <trkpt lat="50.48073" lon="1.69473">
        <ele>5</ele>
        <time>2009-04-21T10:15:01Z</time>
      </trkpt>
      <trkpt lat="50.48062" lon="1.69464">
        <ele>5</ele>
        <time>2009-04-21T10:15:04Z</time>
      </trkpt>
      <trkpt lat="50.48055" lon="1.69456">
        <ele>5</ele>
        <time>2009-04-21T10:15:06Z</time>
      </trkpt>
      <trkpt lat="50.48046" lon="1.69448">
        <ele>5</ele>
        <time>2009-04-21T10:15:08Z</time>
      </trkpt>
      <trkpt lat="50.48035" lon="1.69444">
        <ele>5</ele>
        <time>2009-04-21T10:15:10Z</time>
      </trkpt>
      <trkpt lat="50.48023" lon="1.69443">
        <ele>5</ele>
        <time>2009-04-21T10:15:12Z</time>
      </trkpt>
      <trkpt lat="50.48011" lon="1.69446">
        <ele>5</ele>
        <time>2009-04-21T10:15:14Z</time>
      </trkpt>
      <trkpt lat="50.48" lon="1.69451">
        <ele>5</ele>
        <time>2009-04-21T10:15:16Z</time>
      </trkpt>
      <trkpt lat="50.4799" lon="1.69459">
        <ele>5</ele>
        <time>2009-04-21T10:15:18Z</time>
      </trkpt>
      <trkpt lat="50.47979" lon="1.6947">
        <ele>5</ele>
        <time>2009-04-21T10:15:20Z</time>
      </trkpt>
      <trkpt lat="50.4797" lon="1.6948">
        <ele>5</ele>
        <time>2009-04-21T10:15:22Z</time>
      </trkpt>
      <trkpt lat="50.47962" lon="1.69491">
        <ele>5</ele>
        <time>2009-04-21T10:15:24Z</time>
      </trkpt>
      <trkpt lat="50.47953" lon="1.69502">
        <ele>5</ele>
        <time>2009-04-21T10:15:26Z</time>
      </trkpt>
      <trkpt lat="50.47944" lon="1.69514">
        <ele>5</ele>
        <time>2009-04-21T10:15:28Z</time>
      </trkpt>
      <trkpt lat="50.47935" lon="1.69526">
        <ele>5</ele>
        <time>2009-04-21T10:15:30Z</time>
      </trkpt>
      <trkpt lat="50.47927" lon="1.69537">
        <ele>10</ele>
        <time>2009-04-21T10:15:32Z</time>
      </trkpt>
      <trkpt lat="50.47918" lon="1.69548">
        <ele>10</ele>
        <time>2009-04-21T10:15:34Z</time>
      </trkpt>
      <trkpt lat="50.47909" lon="1.69559">
        <ele>10</ele>
        <time>2009-04-21T10:15:36Z</time>
      </trkpt>
      <trkpt lat="50.479" lon="1.6957">
        <ele>10</ele>
        <time>2009-04-21T10:15:38Z</time>
      </trkpt>
      <trkpt lat="50.47892" lon="1.69581">
        <ele>10</ele>
        <time>2009-04-21T10:15:40Z</time>
      </trkpt>
      <trkpt lat="50.47882" lon="1.69592">
        <ele>10</ele>
        <time>2009-04-21T10:15:42Z</time>
      </trkpt>
      <trkpt lat="50.47874" lon="1.69603">
        <ele>10</ele>
        <time>2009-04-21T10:15:44Z</time>
      </trkpt>
      <trkpt lat="50.47866" lon="1.69614">
        <ele>10</ele>
        <time>2009-04-21T10:15:46Z</time>
      </trkpt>
      <trkpt lat="50.47858" lon="1.69624">
        <ele>16</ele>
        <time>2009-04-21T10:15:48Z</time>
      </trkpt>
      <trkpt lat="50.4785" lon="1.69633">
        <ele>16</ele>
        <time>2009-04-21T10:15:50Z</time>
      </trkpt>
      <trkpt lat="50.47843" lon="1.69642">
        <ele>16</ele>
        <time>2009-04-21T10:15:52Z</time>
      </trkpt>
      <trkpt lat="50.47833" lon="1.69652">
        <ele>16</ele>
        <time>2009-04-21T10:15:55Z</time>
      </trkpt>
      <trkpt lat="50.47824" lon="1.69664">
        <ele>16</ele>
        <time>2009-04-21T10:15:58Z</time>
      </trkpt>
      <trkpt lat="50.47815" lon="1.69676">
        <ele>21</ele>
        <time>2009-04-21T10:16:01Z</time>
      </trkpt>
      <trkpt lat="50.47807" lon="1.69687">
        <ele>21</ele>
        <time>2009-04-21T10:16:04Z</time>
      </trkpt>
      <trkpt lat="50.47796" lon="1.69699">
        <ele>21</ele>
        <time>2009-04-21T10:16:07Z</time>
      </trkpt>
      <trkpt lat="50.47787" lon="1.69712">
        <ele>21</ele>
        <time>2009-04-21T10:16:10Z</time>
      </trkpt>
      <trkpt lat="50.47777" lon="1.69724">
        <ele>21</ele>
        <time>2009-04-21T10:16:13Z</time>
      </trkpt>
      <trkpt lat="50.47768" lon="1.69737">
        <ele>21</ele>
        <time>2009-04-21T10:16:16Z</time>
      </trkpt>
      <trkpt lat="50.47759" lon="1.69749">
        <ele>21</ele>
        <time>2009-04-21T10:16:19Z</time>
      </trkpt>
      <trkpt lat="50.47751" lon="1.69761">
        <ele>21</ele>
        <time>2009-04-21T10:16:22Z</time>
      </trkpt>
      <trkpt lat="50.47739" lon="1.69772">
        <ele>21</ele>
        <time>2009-04-21T10:16:25Z</time>
      </trkpt>
      <trkpt lat="50.4773" lon="1.69783">
        <ele>21</ele>
        <time>2009-04-21T10:16:28Z</time>
      </trkpt>
      <trkpt lat="50.47721" lon="1.69796">
        <ele>21</ele>
        <time>2009-04-21T10:16:31Z</time>
      </trkpt>
      <trkpt lat="50.47712" lon="1.69809">
        <ele>21</ele>
        <time>2009-04-21T10:16:34Z</time>
      </trkpt>
      <trkpt lat="50.47702" lon="1.6982">
        <ele>21</ele>
        <time>2009-04-21T10:16:37Z</time>
      </trkpt>
      <trkpt lat="50.47693" lon="1.69832">
        <ele>26</ele>
        <time>2009-04-21T10:16:40Z</time>
      </trkpt>
      <trkpt lat="50.47684" lon="1.69843">
        <ele>26</ele>
        <time>2009-04-21T10:16:43Z</time>
      </trkpt>
      <trkpt lat="50.47675" lon="1.69854">
        <ele>26</ele>
        <time>2009-04-21T10:16:46Z</time>
      </trkpt>
      <trkpt lat="50.47666" lon="1.69865">
        <ele>26</ele>
        <time>2009-04-21T10:16:49Z</time>
      </trkpt>
      <trkpt lat="50.47657" lon="1.69876">
        <ele>26</ele>
        <time>2009-04-21T10:16:52Z</time>
      </trkpt>
      <trkpt lat="50.47647" lon="1.69886">
        <ele>26</ele>
        <time>2009-04-21T10:16:55Z</time>
      </trkpt>
      <trkpt lat="50.47638" lon="1.69896">
        <ele>26</ele>
        <time>2009-04-21T10:16:58Z</time>
      </trkpt>
      <trkpt lat="50.47629" lon="1.69905">
        <ele>26</ele>
        <time>2009-04-21T10:17:01Z</time>
      </trkpt>
      <trkpt lat="50.47619" lon="1.69914">
        <ele>26</ele>
        <time>2009-04-21T10:17:04Z</time>
      </trkpt>
      <trkpt lat="50.4761" lon="1.69923">
        <ele>31</ele>
        <time>2009-04-21T10:17:07Z</time>
      </trkpt>
      <trkpt lat="50.476" lon="1.69932">
        <ele>31</ele>
        <time>2009-04-21T10:17:10Z</time>
      </trkpt>
      <trkpt lat="50.47591" lon="1.6994">
        <ele>31</ele>
        <time>2009-04-21T10:17:13Z</time>
      </trkpt>
      <trkpt lat="50.47583" lon="1.69949">
        <ele>31</ele>
        <time>2009-04-21T10:17:17Z</time>
      </trkpt>
      <trkpt lat="50.47575" lon="1.69959">
        <ele>31</ele>
        <time>2009-04-21T10:17:21Z</time>
      </trkpt>
      <trkpt lat="50.47567" lon="1.69967">
        <ele>31</ele>
        <time>2009-04-21T10:17:24Z</time>
      </trkpt>
      <trkpt lat="50.47559" lon="1.69975">
        <ele>31</ele>
        <time>2009-04-21T10:17:27Z</time>
      </trkpt>
      <trkpt lat="50.47551" lon="1.69984">
        <ele>31</ele>
        <time>2009-04-21T10:17:30Z</time>
      </trkpt>
      <trkpt lat="50.47543" lon="1.69994">
        <ele>37</ele>
        <time>2009-04-21T10:17:33Z</time>
      </trkpt>
      <trkpt lat="50.47535" lon="1.70004">
        <ele>37</ele>
        <time>2009-04-21T10:17:36Z</time>
      </trkpt>
      <trkpt lat="50.47527" lon="1.70014">
        <ele>37</ele>
        <time>2009-04-21T10:17:39Z</time>
      </trkpt>
      <trkpt lat="50.4752" lon="1.70025">
        <ele>37</ele>
        <time>2009-04-21T10:17:42Z</time>
      </trkpt>
      <trkpt lat="50.47512" lon="1.70037">
        <ele>37</ele>
        <time>2009-04-21T10:17:45Z</time>
      </trkpt>
      <trkpt lat="50.47505" lon="1.70048">
        <ele>37</ele>
        <time>2009-04-21T10:17:48Z</time>
      </trkpt>
      <trkpt lat="50.47498" lon="1.70059">
        <ele>42</ele>
        <time>2009-04-21T10:17:51Z</time>
      </trkpt>
      <trkpt lat="50.4749" lon="1.70071">
        <ele>42</ele>
        <time>2009-04-21T10:17:54Z</time>
      </trkpt>
      <trkpt lat="50.47483" lon="1.70083">
        <ele>42</ele>
        <time>2009-04-21T10:17:57Z</time>
      </trkpt>
      <trkpt lat="50.47475" lon="1.70094">
        <ele>42</ele>
        <time>2009-04-21T10:18:00Z</time>
      </trkpt>
      <trkpt lat="50.47469" lon="1.70105">
        <ele>42</ele>
        <time>2009-04-21T10:18:03Z</time>
      </trkpt>
      <trkpt lat="50.47462" lon="1.70116">
        <ele>42</ele>
        <time>2009-04-21T10:18:06Z</time>
      </trkpt>
      <trkpt lat="50.47453" lon="1.70127">
        <ele>42</ele>
        <time>2009-04-21T10:18:09Z</time>
      </trkpt>
      <trkpt lat="50.47444" lon="1.70136">
        <ele>47</ele>
        <time>2009-04-21T10:18:12Z</time>
      </trkpt>
      <trkpt lat="50.47434" lon="1.70145">
        <ele>47</ele>
        <time>2009-04-21T10:18:15Z</time>
      </trkpt>
      <trkpt lat="50.47423" lon="1.70154">
        <ele>47</ele>
        <time>2009-04-21T10:18:18Z</time>
      </trkpt>
      <trkpt lat="50.47413" lon="1.70162">
        <ele>47</ele>
        <time>2009-04-21T10:18:21Z</time>
      </trkpt>
      <trkpt lat="50.47401" lon="1.70169">
        <ele>47</ele>
        <time>2009-04-21T10:18:24Z</time>
      </trkpt>
      <trkpt lat="50.4739" lon="1.70174">
        <ele>47</ele>
        <time>2009-04-21T10:18:27Z</time>
      </trkpt>
      <trkpt lat="50.47378" lon="1.7018">
        <ele>47</ele>
        <time>2009-04-21T10:18:30Z</time>
      </trkpt>
      <trkpt lat="50.47369" lon="1.70183">
        <ele>47</ele>
        <time>2009-04-21T10:18:32Z</time>
      </trkpt>
      <trkpt lat="50.47356" lon="1.70188">
        <ele>47</ele>
        <time>2009-04-21T10:18:35Z</time>
      </trkpt>
      <trkpt lat="50.47346" lon="1.70191">
        <ele>47</ele>
        <time>2009-04-21T10:18:37Z</time>
      </trkpt>
      <trkpt lat="50.47336" lon="1.70195">
        <ele>47</ele>
        <time>2009-04-21T10:18:39Z</time>
      </trkpt>
      <trkpt lat="50.47326" lon="1.70198">
        <ele>47</ele>
        <time>2009-04-21T10:18:41Z</time>
      </trkpt>
      <trkpt lat="50.47315" lon="1.70203">
        <ele>47</ele>
        <time>2009-04-21T10:18:43Z</time>
      </trkpt>
      <trkpt lat="50.47304" lon="1.70208">
        <ele>47</ele>
        <time>2009-04-21T10:18:45Z</time>
      </trkpt>
      <trkpt lat="50.47293" lon="1.70215">
        <ele>47</ele>
        <time>2009-04-21T10:18:47Z</time>
      </trkpt>
      <trkpt lat="50.47282" lon="1.7022">
        <ele>47</ele>
        <time>2009-04-21T10:18:49Z</time>
      </trkpt>
      <trkpt lat="50.47271" lon="1.70226">
        <ele>47</ele>
        <time>2009-04-21T10:18:51Z</time>
      </trkpt>
      <trkpt lat="50.47259" lon="1.70233">
        <ele>47</ele>
        <time>2009-04-21T10:18:53Z</time>
      </trkpt>
      <trkpt lat="50.47248" lon="1.70239">
        <ele>47</ele>
        <time>2009-04-21T10:18:55Z</time>
      </trkpt>
      <trkpt lat="50.47236" lon="1.70245">
        <ele>47</ele>
        <time>2009-04-21T10:18:57Z</time>
      </trkpt>
      <trkpt lat="50.47225" lon="1.70251">
        <ele>47</ele>
        <time>2009-04-21T10:18:59Z</time>
      </trkpt>
      <trkpt lat="50.47213" lon="1.70257">
        <ele>47</ele>
        <time>2009-04-21T10:19:01Z</time>
      </trkpt>
      <trkpt lat="50.47202" lon="1.70263">
        <ele>47</ele>
        <time>2009-04-21T10:19:03Z</time>
      </trkpt>
      <trkpt lat="50.47191" lon="1.70269">
        <ele>47</ele>
        <time>2009-04-21T10:19:05Z</time>
      </trkpt>
      <trkpt lat="50.47179" lon="1.70274">
        <ele>47</ele>
        <time>2009-04-21T10:19:07Z</time>
      </trkpt>
      <trkpt lat="50.47167" lon="1.70279">
        <ele>47</ele>
        <time>2009-04-21T10:19:09Z</time>
      </trkpt>
      <trkpt lat="50.47156" lon="1.70285">
        <ele>47</ele>
        <time>2009-04-21T10:19:11Z</time>
      </trkpt>
      <trkpt lat="50.47144" lon="1.7029">
        <ele>47</ele>
        <time>2009-04-21T10:19:13Z</time>
      </trkpt>
      <trkpt lat="50.47132" lon="1.70295">
        <ele>47</ele>
        <time>2009-04-21T10:19:15Z</time>
      </trkpt>
      <trkpt lat="50.47121" lon="1.703">
        <ele>47</ele>
        <time>2009-04-21T10:19:17Z</time>
      </trkpt>
      <trkpt lat="50.47109" lon="1.70304">
        <ele>47</ele>
        <time>2009-04-21T10:19:19Z</time>
      </trkpt>
      <trkpt lat="50.47097" lon="1.7031">
        <ele>47</ele>
        <time>2009-04-21T10:19:21Z</time>
      </trkpt>
      <trkpt lat="50.47085" lon="1.70314">
        <ele>47</ele>
        <time>2009-04-21T10:19:23Z</time>
      </trkpt>
      <trkpt lat="50.47073" lon="1.70319">
        <ele>47</ele>
        <time>2009-04-21T10:19:25Z</time>
      </trkpt>
      <trkpt lat="50.47061" lon="1.70323">
        <ele>47</ele>
        <time>2009-04-21T10:19:27Z</time>
      </trkpt>
      <trkpt lat="50.47048" lon="1.70327">
        <ele>47</ele>
        <time>2009-04-21T10:19:29Z</time>
      </trkpt>
      <trkpt lat="50.47036" lon="1.70331">
        <ele>47</ele>
        <time>2009-04-21T10:19:31Z</time>
      </trkpt>
      <trkpt lat="50.47024" lon="1.70335">
        <ele>47</ele>
        <time>2009-04-21T10:19:33Z</time>
      </trkpt>
      <trkpt lat="50.47012" lon="1.70339">
        <ele>47</ele>
        <time>2009-04-21T10:19:35Z</time>
      </trkpt>
      <trkpt lat="50.46999" lon="1.70342">
        <ele>47</ele>
        <time>2009-04-21T10:19:37Z</time>
      </trkpt>
      <trkpt lat="50.46986" lon="1.70346">
        <ele>47</ele>
        <time>2009-04-21T10:19:39Z</time>
      </trkpt>
      <trkpt lat="50.46973" lon="1.70349">
        <ele>47</ele>
        <time>2009-04-21T10:19:41Z</time>
      </trkpt>
      <trkpt lat="50.46961" lon="1.70353">
        <ele>47</ele>
        <time>2009-04-21T10:19:43Z</time>
      </trkpt>
      <trkpt lat="50.46948" lon="1.70357">
        <ele>47</ele>
        <time>2009-04-21T10:19:45Z</time>
      </trkpt>
      <trkpt lat="50.46934" lon="1.7036">
        <ele>47</ele>
        <time>2009-04-21T10:19:47Z</time>
      </trkpt>
      <trkpt lat="50.46921" lon="1.70364">
        <ele>47</ele>
        <time>2009-04-21T10:19:49Z</time>
      </trkpt>
      <trkpt lat="50.46907" lon="1.70367">
        <ele>47</ele>
        <time>2009-04-21T10:19:51Z</time>
      </trkpt>
      <trkpt lat="50.46894" lon="1.70371">
        <ele>47</ele>
        <time>2009-04-21T10:19:53Z</time>
      </trkpt>
      <trkpt lat="50.4688" lon="1.70374">
        <ele>47</ele>
        <time>2009-04-21T10:19:55Z</time>
      </trkpt>
      <trkpt lat="50.46867" lon="1.70377">
        <ele>47</ele>
        <time>2009-04-21T10:19:57Z</time>
      </trkpt>
      <trkpt lat="50.46852" lon="1.70381">
        <ele>47</ele>
        <time>2009-04-21T10:19:59Z</time>
      </trkpt>
      <trkpt lat="50.46838" lon="1.70384">
        <ele>47</ele>
        <time>2009-04-21T10:20:01Z</time>
      </trkpt>
      <trkpt lat="50.46824" lon="1.70385">
        <ele>47</ele>
        <time>2009-04-21T10:20:03Z</time>
      </trkpt>
      <trkpt lat="50.46809" lon="1.70386">
        <ele>47</ele>
        <time>2009-04-21T10:20:05Z</time>
      </trkpt>
      <trkpt lat="50.46794" lon="1.70387">
        <ele>47</ele>
        <time>2009-04-21T10:20:07Z</time>
      </trkpt>
      <trkpt lat="50.46779" lon="1.70387">
        <ele>47</ele>
        <time>2009-04-21T10:20:09Z</time>
      </trkpt>
      <trkpt lat="50.46765" lon="1.70388">
        <ele>47</ele>
        <time>2009-04-21T10:20:11Z</time>
      </trkpt>
      <trkpt lat="50.4675" lon="1.70389">
        <ele>47</ele>
        <time>2009-04-21T10:20:13Z</time>
      </trkpt>
      <trkpt lat="50.46735" lon="1.7039">
        <ele>47</ele>
        <time>2009-04-21T10:20:15Z</time>
      </trkpt>
      <trkpt lat="50.4672" lon="1.7039">
        <ele>47</ele>
        <time>2009-04-21T10:20:17Z</time>
      </trkpt>
      <trkpt lat="50.46705" lon="1.70391">
        <ele>47</ele>
        <time>2009-04-21T10:20:19Z</time>
      </trkpt>
      <trkpt lat="50.4669" lon="1.70392">
        <ele>47</ele>
        <time>2009-04-21T10:20:21Z</time>
      </trkpt>
      <trkpt lat="50.46675" lon="1.70392">
        <ele>47</ele>
        <time>2009-04-21T10:20:23Z</time>
      </trkpt>
      <trkpt lat="50.4666" lon="1.70392">
        <ele>47</ele>
        <time>2009-04-21T10:20:25Z</time>
      </trkpt>
      <trkpt lat="50.46644" lon="1.70392">
        <ele>47</ele>
        <time>2009-04-21T10:20:27Z</time>
      </trkpt>
      <trkpt lat="50.46629" lon="1.70393">
        <ele>47</ele>
        <time>2009-04-21T10:20:29Z</time>
      </trkpt>
      <trkpt lat="50.46613" lon="1.70394">
        <ele>47</ele>
        <time>2009-04-21T10:20:31Z</time>
      </trkpt>
      <trkpt lat="50.46598" lon="1.70393">
        <ele>47</ele>
        <time>2009-04-21T10:20:33Z</time>
      </trkpt>
      <trkpt lat="50.46582" lon="1.70392">
        <ele>47</ele>
        <time>2009-04-21T10:20:35Z</time>
      </trkpt>
      <trkpt lat="50.46566" lon="1.70391">
        <ele>47</ele>
        <time>2009-04-21T10:20:37Z</time>
      </trkpt>
      <trkpt lat="50.46551" lon="1.70389">
        <ele>47</ele>
        <time>2009-04-21T10:20:39Z</time>
      </trkpt>
      <trkpt lat="50.46535" lon="1.70387">
        <ele>47</ele>
        <time>2009-04-21T10:20:41Z</time>
      </trkpt>
      <trkpt lat="50.4652" lon="1.70385">
        <ele>47</ele>
        <time>2009-04-21T10:20:43Z</time>
      </trkpt>
      <trkpt lat="50.46507" lon="1.70384">
        <ele>47</ele>
        <time>2009-04-21T10:20:45Z</time>
      </trkpt>
      <trkpt lat="50.46493" lon="1.70382">
        <ele>53</ele>
        <time>2009-04-21T10:20:47Z</time>
      </trkpt>
      <trkpt lat="50.46481" lon="1.70381">
        <ele>53</ele>
        <time>2009-04-21T10:20:49Z</time>
      </trkpt>
      <trkpt lat="50.46469" lon="1.7038">
        <ele>53</ele>
        <time>2009-04-21T10:20:51Z</time>
      </trkpt>
      <trkpt lat="50.46458" lon="1.70382">
        <ele>53</ele>
        <time>2009-04-21T10:20:53Z</time>
      </trkpt>
      <trkpt lat="50.46447" lon="1.70384">
        <ele>53</ele>
        <time>2009-04-21T10:20:55Z</time>
      </trkpt>
      <trkpt lat="50.46438" lon="1.70386">
        <ele>53</ele>
        <time>2009-04-21T10:20:57Z</time>
      </trkpt>
      <trkpt lat="50.46429" lon="1.7039">
        <ele>53</ele>
        <time>2009-04-21T10:20:59Z</time>
      </trkpt>
      <trkpt lat="50.4642" lon="1.70393">
        <ele>53</ele>
        <time>2009-04-21T10:21:01Z</time>
      </trkpt>
      <trkpt lat="50.46411" lon="1.70398">
        <ele>53</ele>
        <time>2009-04-21T10:21:03Z</time>
      </trkpt>
      <trkpt lat="50.46401" lon="1.70403">
        <ele>53</ele>
        <time>2009-04-21T10:21:05Z</time>
      </trkpt>
      <trkpt lat="50.46392" lon="1.7041">
        <ele>53</ele>
        <time>2009-04-21T10:21:07Z</time>
      </trkpt>
      <trkpt lat="50.46382" lon="1.70416">
        <ele>53</ele>
        <time>2009-04-21T10:21:09Z</time>
      </trkpt>
      <trkpt lat="50.46373" lon="1.70424">
        <ele>53</ele>
        <time>2009-04-21T10:21:11Z</time>
      </trkpt>
      <trkpt lat="50.46364" lon="1.70433">
        <ele>53</ele>
        <time>2009-04-21T10:21:13Z</time>
      </trkpt>
      <trkpt lat="50.46355" lon="1.70445">
        <ele>58</ele>
        <time>2009-04-21T10:21:15Z</time>
      </trkpt>
      <trkpt lat="50.46347" lon="1.70454">
        <ele>58</ele>
        <time>2009-04-21T10:21:17Z</time>
      </trkpt>
      <trkpt lat="50.46339" lon="1.70464">
        <ele>58</ele>
        <time>2009-04-21T10:21:19Z</time>
      </trkpt>
      <trkpt lat="50.46329" lon="1.70475">
        <ele>58</ele>
        <time>2009-04-21T10:21:21Z</time>
      </trkpt>
      <trkpt lat="50.4632" lon="1.70487">
        <ele>58</ele>
        <time>2009-04-21T10:21:23Z</time>
      </trkpt>
      <trkpt lat="50.46311" lon="1.70498">
        <ele>58</ele>
        <time>2009-04-21T10:21:25Z</time>
      </trkpt>
      <trkpt lat="50.46301" lon="1.7051">
        <ele>58</ele>
        <time>2009-04-21T10:21:27Z</time>
      </trkpt>
      <trkpt lat="50.46292" lon="1.70522">
        <ele>58</ele>
        <time>2009-04-21T10:21:29Z</time>
      </trkpt>
      <trkpt lat="50.46281" lon="1.70534">
        <ele>58</ele>
        <time>2009-04-21T10:21:31Z</time>
      </trkpt>
      <trkpt lat="50.4627" lon="1.70548">
        <ele>58</ele>
        <time>2009-04-21T10:21:33Z</time>
      </trkpt>
      <trkpt lat="50.46259" lon="1.70561">
        <ele>58</ele>
        <time>2009-04-21T10:21:35Z</time>
      </trkpt>
      <trkpt lat="50.46248" lon="1.70575">
        <ele>58</ele>
        <time>2009-04-21T10:21:37Z</time>
      </trkpt>
      <trkpt lat="50.46238" lon="1.70588">
        <ele>58</ele>
        <time>2009-04-21T10:21:39Z</time>
      </trkpt>
      <trkpt lat="50.46226" lon="1.70604">
        <ele>58</ele>
        <time>2009-04-21T10:21:41Z</time>
      </trkpt>
      <trkpt lat="50.46214" lon="1.70618">
        <ele>58</ele>
        <time>2009-04-21T10:21:43Z</time>
      </trkpt>
      <trkpt lat="50.46201" lon="1.70633">
        <ele>58</ele>
        <time>2009-04-21T10:21:45Z</time>
      </trkpt>
      <trkpt lat="50.46168" lon="1.70671">
        <ele>58</ele>
        <time>2009-04-21T10:21:50Z</time>
      </trkpt>
      <trkpt lat="50.46154" lon="1.70687">
        <ele>58</ele>
        <time>2009-04-21T10:21:52Z</time>
      </trkpt>
      <trkpt lat="50.46141" lon="1.70704">
        <ele>58</ele>
        <time>2009-04-21T10:21:54Z</time>
      </trkpt>
      <trkpt lat="50.46127" lon="1.7072">
        <ele>52</ele>
        <time>2009-04-21T10:21:56Z</time>
      </trkpt>
      <trkpt lat="50.46121" lon="1.70729">
        <ele>52</ele>
        <time>2009-04-21T10:21:57Z</time>
      </trkpt>
      <trkpt lat="50.46107" lon="1.70746">
        <ele>52</ele>
        <time>2009-04-21T10:21:59Z</time>
      </trkpt>
      <trkpt lat="50.46099" lon="1.70755">
        <ele>52</ele>
        <time>2009-04-21T10:22:00Z</time>
      </trkpt>
      <trkpt lat="50.46086" lon="1.70771">
        <ele>52</ele>
        <time>2009-04-21T10:22:02Z</time>
      </trkpt>
      <trkpt lat="50.46079" lon="1.7078">
        <ele>52</ele>
        <time>2009-04-21T10:22:03Z</time>
      </trkpt>
      <trkpt lat="50.46072" lon="1.70789">
        <ele>52</ele>
        <time>2009-04-21T10:22:04Z</time>
      </trkpt>
      <trkpt lat="50.46059" lon="1.70806">
        <ele>52</ele>
        <time>2009-04-21T10:22:06Z</time>
      </trkpt>
      <trkpt lat="50.46045" lon="1.70822">
        <ele>52</ele>
        <time>2009-04-21T10:22:08Z</time>
      </trkpt>
      <trkpt lat="50.46031" lon="1.70838">
        <ele>52</ele>
        <time>2009-04-21T10:22:10Z</time>
      </trkpt>
      <trkpt lat="50.46017" lon="1.70854">
        <ele>52</ele>
        <time>2009-04-21T10:22:12Z</time>
      </trkpt>
      <trkpt lat="50.46004" lon="1.70869">
        <ele>52</ele>
        <time>2009-04-21T10:22:14Z</time>
      </trkpt>
      <trkpt lat="50.45991" lon="1.70885">
        <ele>52</ele>
        <time>2009-04-21T10:22:16Z</time>
      </trkpt>
      <trkpt lat="50.45977" lon="1.70898">
        <ele>52</ele>
        <time>2009-04-21T10:22:18Z</time>
      </trkpt>
      <trkpt lat="50.45962" lon="1.70899">
        <ele>47</ele>
        <time>2009-04-21T10:22:20Z</time>
      </trkpt>
      <trkpt lat="50.45951" lon="1.70882">
        <ele>47</ele>
        <time>2009-04-21T10:22:22Z</time>
      </trkpt>
      <trkpt lat="50.45941" lon="1.70865">
        <ele>47</ele>
        <time>2009-04-21T10:22:24Z</time>
      </trkpt>
      <trkpt lat="50.45929" lon="1.7086">
        <ele>47</ele>
        <time>2009-04-21T10:22:26Z</time>
      </trkpt>
      <trkpt lat="50.45919" lon="1.7087">
        <ele>47</ele>
        <time>2009-04-21T10:22:28Z</time>
      </trkpt>
      <trkpt lat="50.45915" lon="1.70888">
        <ele>47</ele>
        <time>2009-04-21T10:22:30Z</time>
      </trkpt>
      <trkpt lat="50.45911" lon="1.70908">
        <ele>47</ele>
        <time>2009-04-21T10:22:32Z</time>
      </trkpt>
      <trkpt lat="50.45907" lon="1.70928">
        <ele>47</ele>
        <time>2009-04-21T10:22:34Z</time>
      </trkpt>
      <trkpt lat="50.45902" lon="1.70948">
        <ele>47</ele>
        <time>2009-04-21T10:22:36Z</time>
      </trkpt>
      <trkpt lat="50.45898" lon="1.70968">
        <ele>47</ele>
        <time>2009-04-21T10:22:38Z</time>
      </trkpt>
      <trkpt lat="50.45894" lon="1.70987">
        <ele>47</ele>
        <time>2009-04-21T10:22:40Z</time>
      </trkpt>
      <trkpt lat="50.45889" lon="1.71005">
        <ele>47</ele>
        <time>2009-04-21T10:22:42Z</time>
      </trkpt>
      <trkpt lat="50.45884" lon="1.71023">
        <ele>47</ele>
        <time>2009-04-21T10:22:44Z</time>
      </trkpt>
      <trkpt lat="50.4588" lon="1.71041">
        <ele>47</ele>
        <time>2009-04-21T10:22:46Z</time>
      </trkpt>
      <trkpt lat="50.45876" lon="1.71059">
        <ele>47</ele>
        <time>2009-04-21T10:22:48Z</time>
      </trkpt>
      <trkpt lat="50.45872" lon="1.71078">
        <ele>47</ele>
        <time>2009-04-21T10:22:50Z</time>
      </trkpt>
      <trkpt lat="50.45868" lon="1.71097">
        <ele>47</ele>
        <time>2009-04-21T10:22:52Z</time>
      </trkpt>
      <trkpt lat="50.45865" lon="1.71116">
        <ele>47</ele>
        <time>2009-04-21T10:22:54Z</time>
      </trkpt>
      <trkpt lat="50.45864" lon="1.71135">
        <ele>47</ele>
        <time>2009-04-21T10:22:56Z</time>
      </trkpt>
      <trkpt lat="50.45863" lon="1.71154">
        <ele>47</ele>
        <time>2009-04-21T10:22:58Z</time>
      </trkpt>
      <trkpt lat="50.45863" lon="1.71174">
        <ele>47</ele>
        <time>2009-04-21T10:23:00Z</time>
      </trkpt>
      <trkpt lat="50.45864" lon="1.71194">
        <ele>47</ele>
        <time>2009-04-21T10:23:02Z</time>
      </trkpt>
      <trkpt lat="50.45867" lon="1.71213">
        <ele>47</ele>
        <time>2009-04-21T10:23:04Z</time>
      </trkpt>
      <trkpt lat="50.45869" lon="1.71232">
        <ele>47</ele>
        <time>2009-04-21T10:23:06Z</time>
      </trkpt>
      <trkpt lat="50.45871" lon="1.71252">
        <ele>47</ele>
        <time>2009-04-21T10:23:08Z</time>
      </trkpt>
      <trkpt lat="50.45874" lon="1.71272">
        <ele>47</ele>
        <time>2009-04-21T10:23:10Z</time>
      </trkpt>
      <trkpt lat="50.45877" lon="1.71292">
        <ele>47</ele>
        <time>2009-04-21T10:23:12Z</time>
      </trkpt>
      <trkpt lat="50.4588" lon="1.71311">
        <ele>47</ele>
        <time>2009-04-21T10:23:14Z</time>
      </trkpt>
      <trkpt lat="50.45884" lon="1.7133">
        <ele>47</ele>
        <time>2009-04-21T10:23:16Z</time>
      </trkpt>
      <trkpt lat="50.45887" lon="1.7135">
        <ele>47</ele>
        <time>2009-04-21T10:23:18Z</time>
      </trkpt>
      <trkpt lat="50.45891" lon="1.7137">
        <ele>47</ele>
        <time>2009-04-21T10:23:20Z</time>
      </trkpt>
      <trkpt lat="50.45895" lon="1.7139">
        <ele>47</ele>
        <time>2009-04-21T10:23:22Z</time>
      </trkpt>
      <trkpt lat="50.45899" lon="1.71409">
        <ele>47</ele>
        <time>2009-04-21T10:23:24Z</time>
      </trkpt>
      <trkpt lat="50.45903" lon="1.71429">
        <ele>47</ele>
        <time>2009-04-21T10:23:26Z</time>
      </trkpt>
      <trkpt lat="50.45907" lon="1.71448">
        <ele>47</ele>
        <time>2009-04-21T10:23:28Z</time>
      </trkpt>
      <trkpt lat="50.45909" lon="1.71469">
        <ele>47</ele>
        <time>2009-04-21T10:23:30Z</time>
      </trkpt>
      <trkpt lat="50.45912" lon="1.7149">
        <ele>47</ele>
        <time>2009-04-21T10:23:32Z</time>
      </trkpt>
      <trkpt lat="50.45914" lon="1.71512">
        <ele>47</ele>
        <time>2009-04-21T10:23:34Z</time>
      </trkpt>
      <trkpt lat="50.45916" lon="1.71534">
        <ele>47</ele>
        <time>2009-04-21T10:23:36Z</time>
      </trkpt>
      <trkpt lat="50.45918" lon="1.71556">
        <ele>47</ele>
        <time>2009-04-21T10:23:38Z</time>
      </trkpt>
      <trkpt lat="50.45915" lon="1.71576">
        <ele>47</ele>
        <time>2009-04-21T10:23:40Z</time>
      </trkpt>
      <trkpt lat="50.45903" lon="1.71585">
        <ele>47</ele>
        <time>2009-04-21T10:23:42Z</time>
      </trkpt>
      <trkpt lat="50.4589" lon="1.71584">
        <ele>47</ele>
        <time>2009-04-21T10:23:44Z</time>
      </trkpt>
      <trkpt lat="50.45876" lon="1.71579">
        <ele>47</ele>
        <time>2009-04-21T10:23:46Z</time>
      </trkpt>
      <trkpt lat="50.45861" lon="1.71576">
        <ele>47</ele>
        <time>2009-04-21T10:23:48Z</time>
      </trkpt>
      <trkpt lat="50.45846" lon="1.71571">
        <ele>47</ele>
        <time>2009-04-21T10:23:50Z</time>
      </trkpt>
      <trkpt lat="50.4583" lon="1.71566">
        <ele>47</ele>
        <time>2009-04-21T10:23:52Z</time>
      </trkpt>
      <trkpt lat="50.45814" lon="1.71563">
        <ele>41</ele>
        <time>2009-04-21T10:23:54Z</time>
      </trkpt>
      <trkpt lat="50.45799" lon="1.71565">
        <ele>41</ele>
        <time>2009-04-21T10:23:56Z</time>
      </trkpt>
      <trkpt lat="50.45783" lon="1.71569">
        <ele>41</ele>
        <time>2009-04-21T10:23:58Z</time>
      </trkpt>
      <trkpt lat="50.45769" lon="1.71576">
        <ele>41</ele>
        <time>2009-04-21T10:24:00Z</time>
      </trkpt>
      <trkpt lat="50.45755" lon="1.71585">
        <ele>41</ele>
        <time>2009-04-21T10:24:02Z</time>
      </trkpt>
      <trkpt lat="50.4574" lon="1.7159">
        <ele>41</ele>
        <time>2009-04-21T10:24:04Z</time>
      </trkpt>
      <trkpt lat="50.45726" lon="1.71594">
        <ele>41</ele>
        <time>2009-04-21T10:24:06Z</time>
      </trkpt>
      <trkpt lat="50.45711" lon="1.716">
        <ele>41</ele>
        <time>2009-04-21T10:24:08Z</time>
      </trkpt>
      <trkpt lat="50.45697" lon="1.71606">
        <ele>41</ele>
        <time>2009-04-21T10:24:10Z</time>
      </trkpt>
      <trkpt lat="50.45682" lon="1.71612">
        <ele>41</ele>
        <time>2009-04-21T10:24:12Z</time>
      </trkpt>
      <trkpt lat="50.45668" lon="1.71619">
        <ele>41</ele>
        <time>2009-04-21T10:24:14Z</time>
      </trkpt>
      <trkpt lat="50.45653" lon="1.71625">
        <ele>41</ele>
        <time>2009-04-21T10:24:16Z</time>
      </trkpt>
      <trkpt lat="50.45638" lon="1.71633">
        <ele>41</ele>
        <time>2009-04-21T10:24:18Z</time>
      </trkpt>
      <trkpt lat="50.45623" lon="1.7164">
        <ele>41</ele>
        <time>2009-04-21T10:24:20Z</time>
      </trkpt>
      <trkpt lat="50.45609" lon="1.71647">
        <ele>41</ele>
        <time>2009-04-21T10:24:22Z</time>
      </trkpt>
      <trkpt lat="50.45594" lon="1.71653">
        <ele>41</ele>
        <time>2009-04-21T10:24:24Z</time>
      </trkpt>
      <trkpt lat="50.45579" lon="1.71658">
        <ele>41</ele>
        <time>2009-04-21T10:24:26Z</time>
      </trkpt>
      <trkpt lat="50.45564" lon="1.71664">
        <ele>41</ele>
        <time>2009-04-21T10:24:28Z</time>
      </trkpt>
      <trkpt lat="50.45549" lon="1.71668">
        <ele>41</ele>
        <time>2009-04-21T10:24:30Z</time>
      </trkpt>
      <trkpt lat="50.45536" lon="1.71672">
        <ele>41</ele>
        <time>2009-04-21T10:24:32Z</time>
      </trkpt>
      <trkpt lat="50.45521" lon="1.71674">
        <ele>41</ele>
        <time>2009-04-21T10:24:34Z</time>
      </trkpt>
      <trkpt lat="50.45508" lon="1.71673">
        <ele>41</ele>
        <time>2009-04-21T10:24:36Z</time>
      </trkpt>
      <trkpt lat="50.45497" lon="1.71664">
        <ele>41</ele>
        <time>2009-04-21T10:24:38Z</time>
      </trkpt>
      <trkpt lat="50.45491" lon="1.71647">
        <ele>41</ele>
        <time>2009-04-21T10:24:40Z</time>
      </trkpt>
      <trkpt lat="50.45486" lon="1.71629">
        <ele>36</ele>
        <time>2009-04-21T10:24:42Z</time>
      </trkpt>
      <trkpt lat="50.45482" lon="1.71611">
        <ele>36</ele>
        <time>2009-04-21T10:24:44Z</time>
      </trkpt>
      <trkpt lat="50.45479" lon="1.71592">
        <ele>36</ele>
        <time>2009-04-21T10:24:46Z</time>
      </trkpt>
      <trkpt lat="50.45477" lon="1.71573">
        <ele>36</ele>
        <time>2009-04-21T10:24:48Z</time>
      </trkpt>
      <trkpt lat="50.45475" lon="1.71554">
        <ele>36</ele>
        <time>2009-04-21T10:24:50Z</time>
      </trkpt>
      <trkpt lat="50.45474" lon="1.71537">
        <ele>36</ele>
        <time>2009-04-21T10:24:52Z</time>
      </trkpt>
      <trkpt lat="50.45474" lon="1.7152">
        <ele>36</ele>
        <time>2009-04-21T10:24:54Z</time>
      </trkpt>
      <trkpt lat="50.45479" lon="1.71504">
        <ele>36</ele>
        <time>2009-04-21T10:24:57Z</time>
      </trkpt>
      <trkpt lat="50.45491" lon="1.715">
        <ele>36</ele>
        <time>2009-04-21T10:25:00Z</time>
      </trkpt>
      <trkpt lat="50.455" lon="1.71499">
        <ele>36</ele>
        <time>2009-04-21T10:25:02Z</time>
      </trkpt>
      <trkpt lat="50.45513" lon="1.71498">
        <ele>36</ele>
        <time>2009-04-21T10:25:05Z</time>
      </trkpt>
      <trkpt lat="50.45526" lon="1.71495">
        <ele>36</ele>
        <time>2009-04-21T10:25:08Z</time>
      </trkpt>
      <trkpt lat="50.45535" lon="1.71485">
        <ele>36</ele>
        <time>2009-04-21T10:25:11Z</time>
      </trkpt>
      <trkpt lat="50.45541" lon="1.71474">
        <ele>36</ele>
        <time>2009-04-21T10:25:15Z</time>
      </trkpt>
      <trkpt lat="50.45547" lon="1.71463">
        <ele>36</ele>
        <time>2009-04-21T10:26:46Z</time>
      </trkpt>
      <trkpt lat="50.45537" lon="1.7146">
        <ele>42</ele>
        <time>2009-04-21T10:27:10Z</time>
      </trkpt>
      <trkpt lat="50.45546" lon="1.71456">
        <ele>36</ele>
        <time>2009-04-21T10:28:42Z</time>
      </trkpt>
      <trkpt lat="50.45553" lon="1.71473">
        <ele>36</ele>
        <time>2009-04-21T10:28:59Z</time>
      </trkpt>
      <trkpt lat="50.45544" lon="1.71462">
        <ele>43</ele>
        <time>2009-04-21T10:29:07Z</time>
      </trkpt>
    </trkseg>
  </trk>
</gpx>